<?xml version="1.0" encoding="UTF-8"?>
<gpx version="1.1" creator="https://www.youtrack.es" xsi:schemaLocation="http://www.topografix.com/GPX/1/1 http://www.topografix.com/GPX/1/1/gpx.xsd http://www.garmin.com/xmlschemas/GpxExtensions/v3 http://www.garmin.com/xmlschemas/GpxExtensionsv3.xsd http://www.garmin.com/xmlschemas/TrackPointExtension/v1 http://www.garmin.com/xmlschemas/TrackPointExtensionv1.xsd" xmlns:gpxtpx="http://www.garmin.com/xmlschemas/TrackPointExtension/v1" xmlns:gpxx="http://www.garmin.com/xmlschemas/GpxExtensions/v3" xmlns:xsi="http://www.w3.org/2001/XMLSchema-instance">
  <metadata>
    <link href="https://www.youtrack.es">
      <text>YouTrack.es</text>
    </link>
    <time>2026-05-08T16:46:29Z</time>
  </metadata>
  <trk>
    <src>https://www.youtrack.es</src>
    <link href="https://www.youtrack.es/ruta/27241-escorial12345v">
      <text>YouTrack.es</text>
    </link>
    <trkseg>
      <trkpt lat="40.407390" lon="-3.717094">
        <ele>602.80</ele>
        <time>2020-01-19T08:18:22Z</time>
      </trkpt>
      <trkpt lat="40.407562" lon="-3.717166">
        <ele>600.80</ele>
        <time>2020-01-19T08:18:26Z</time>
      </trkpt>
      <trkpt lat="40.407664" lon="-3.717225">
        <ele>600.60</ele>
        <time>2020-01-19T08:18:28Z</time>
      </trkpt>
      <trkpt lat="40.408037" lon="-3.717370">
        <ele>599.60</ele>
        <time>2020-01-19T08:18:34Z</time>
      </trkpt>
      <trkpt lat="40.408451" lon="-3.717509">
        <ele>598.40</ele>
        <time>2020-01-19T08:18:40Z</time>
      </trkpt>
      <trkpt lat="40.408736" lon="-3.717630">
        <ele>597.20</ele>
        <time>2020-01-19T08:18:44Z</time>
      </trkpt>
      <trkpt lat="40.408957" lon="-3.717710">
        <ele>596.60</ele>
        <time>2020-01-19T08:18:47Z</time>
      </trkpt>
      <trkpt lat="40.409033" lon="-3.717732">
        <ele>596.20</ele>
        <time>2020-01-19T08:18:48Z</time>
      </trkpt>
      <trkpt lat="40.409327" lon="-3.717833">
        <ele>595.00</ele>
        <time>2020-01-19T08:18:52Z</time>
      </trkpt>
      <trkpt lat="40.409611" lon="-3.717922">
        <ele>594.60</ele>
        <time>2020-01-19T08:18:56Z</time>
      </trkpt>
      <trkpt lat="40.409965" lon="-3.718016">
        <ele>594.20</ele>
        <time>2020-01-19T08:19:01Z</time>
      </trkpt>
      <trkpt lat="40.410034" lon="-3.718033">
        <ele>594.40</ele>
        <time>2020-01-19T08:19:02Z</time>
      </trkpt>
      <trkpt lat="40.410400" lon="-3.718136">
        <ele>594.20</ele>
        <time>2020-01-19T08:19:08Z</time>
      </trkpt>
      <trkpt lat="40.410491" lon="-3.718156">
        <ele>594.80</ele>
        <time>2020-01-19T08:19:11Z</time>
      </trkpt>
      <trkpt lat="40.410526" lon="-3.718157">
        <ele>595.40</ele>
        <time>2020-01-19T08:19:16Z</time>
      </trkpt>
      <trkpt lat="40.410551" lon="-3.718150">
        <ele>594.80</ele>
        <time>2020-01-19T08:19:24Z</time>
      </trkpt>
      <trkpt lat="40.410577" lon="-3.718131">
        <ele>595.00</ele>
        <time>2020-01-19T08:19:25Z</time>
      </trkpt>
      <trkpt lat="40.410734" lon="-3.718051">
        <ele>594.60</ele>
        <time>2020-01-19T08:19:29Z</time>
      </trkpt>
      <trkpt lat="40.410841" lon="-3.718060">
        <ele>594.00</ele>
        <time>2020-01-19T08:19:31Z</time>
      </trkpt>
      <trkpt lat="40.410965" lon="-3.718096">
        <ele>593.20</ele>
        <time>2020-01-19T08:19:33Z</time>
      </trkpt>
      <trkpt lat="40.411091" lon="-3.718120">
        <ele>593.00</ele>
        <time>2020-01-19T08:19:35Z</time>
      </trkpt>
      <trkpt lat="40.411158" lon="-3.718115">
        <ele>593.00</ele>
        <time>2020-01-19T08:19:36Z</time>
      </trkpt>
      <trkpt lat="40.411286" lon="-3.718078">
        <ele>592.80</ele>
        <time>2020-01-19T08:19:38Z</time>
      </trkpt>
      <trkpt lat="40.411676" lon="-3.717885">
        <ele>593.60</ele>
        <time>2020-01-19T08:19:44Z</time>
      </trkpt>
      <trkpt lat="40.411745" lon="-3.717857">
        <ele>594.20</ele>
        <time>2020-01-19T08:19:45Z</time>
      </trkpt>
      <trkpt lat="40.412003" lon="-3.717714">
        <ele>595.20</ele>
        <time>2020-01-19T08:19:49Z</time>
      </trkpt>
      <trkpt lat="40.412363" lon="-3.717549">
        <ele>596.00</ele>
        <time>2020-01-19T08:19:55Z</time>
      </trkpt>
      <trkpt lat="40.412457" lon="-3.717498">
        <ele>596.60</ele>
        <time>2020-01-19T08:19:57Z</time>
      </trkpt>
      <trkpt lat="40.412592" lon="-3.717431">
        <ele>597.60</ele>
        <time>2020-01-19T08:20:00Z</time>
      </trkpt>
      <trkpt lat="40.412631" lon="-3.717414">
        <ele>597.80</ele>
        <time>2020-01-19T08:20:01Z</time>
      </trkpt>
      <trkpt lat="40.412807" lon="-3.717345">
        <ele>598.80</ele>
        <time>2020-01-19T08:20:06Z</time>
      </trkpt>
      <trkpt lat="40.412840" lon="-3.717324">
        <ele>598.80</ele>
        <time>2020-01-19T08:20:08Z</time>
      </trkpt>
      <trkpt lat="40.412862" lon="-3.717315">
        <ele>599.00</ele>
        <time>2020-01-19T08:20:10Z</time>
      </trkpt>
      <trkpt lat="40.412913" lon="-3.717296">
        <ele>599.00</ele>
        <time>2020-01-19T08:20:26Z</time>
      </trkpt>
      <trkpt lat="40.412946" lon="-3.717279">
        <ele>599.00</ele>
        <time>2020-01-19T08:20:27Z</time>
      </trkpt>
      <trkpt lat="40.413160" lon="-3.717133">
        <ele>599.20</ele>
        <time>2020-01-19T08:20:33Z</time>
      </trkpt>
      <trkpt lat="40.413380" lon="-3.716987">
        <ele>599.40</ele>
        <time>2020-01-19T08:20:39Z</time>
      </trkpt>
      <trkpt lat="40.413531" lon="-3.716936">
        <ele>599.80</ele>
        <time>2020-01-19T08:20:42Z</time>
      </trkpt>
      <trkpt lat="40.413708" lon="-3.716906">
        <ele>600.40</ele>
        <time>2020-01-19T08:20:45Z</time>
      </trkpt>
      <trkpt lat="40.413810" lon="-3.716898">
        <ele>600.80</ele>
        <time>2020-01-19T08:20:47Z</time>
      </trkpt>
      <trkpt lat="40.413866" lon="-3.716928">
        <ele>601.20</ele>
        <time>2020-01-19T08:20:48Z</time>
      </trkpt>
      <trkpt lat="40.413912" lon="-3.716978">
        <ele>601.20</ele>
        <time>2020-01-19T08:20:49Z</time>
      </trkpt>
      <trkpt lat="40.413975" lon="-3.717227">
        <ele>600.40</ele>
        <time>2020-01-19T08:20:52Z</time>
      </trkpt>
      <trkpt lat="40.413980" lon="-3.717328">
        <ele>599.60</ele>
        <time>2020-01-19T08:20:53Z</time>
      </trkpt>
      <trkpt lat="40.413983" lon="-3.717434">
        <ele>599.00</ele>
        <time>2020-01-19T08:20:54Z</time>
      </trkpt>
      <trkpt lat="40.413984" lon="-3.717544">
        <ele>598.20</ele>
        <time>2020-01-19T08:20:55Z</time>
      </trkpt>
      <trkpt lat="40.413990" lon="-3.717779">
        <ele>596.80</ele>
        <time>2020-01-19T08:20:57Z</time>
      </trkpt>
      <trkpt lat="40.413995" lon="-3.718033">
        <ele>595.60</ele>
        <time>2020-01-19T08:20:59Z</time>
      </trkpt>
      <trkpt lat="40.414008" lon="-3.718298">
        <ele>594.20</ele>
        <time>2020-01-19T08:21:01Z</time>
      </trkpt>
      <trkpt lat="40.414010" lon="-3.718433">
        <ele>593.80</ele>
        <time>2020-01-19T08:21:02Z</time>
      </trkpt>
      <trkpt lat="40.414008" lon="-3.718711">
        <ele>592.40</ele>
        <time>2020-01-19T08:21:04Z</time>
      </trkpt>
      <trkpt lat="40.414013" lon="-3.718992">
        <ele>591.20</ele>
        <time>2020-01-19T08:21:06Z</time>
      </trkpt>
      <trkpt lat="40.414021" lon="-3.719414">
        <ele>590.40</ele>
        <time>2020-01-19T08:21:09Z</time>
      </trkpt>
      <trkpt lat="40.414026" lon="-3.719690">
        <ele>590.00</ele>
        <time>2020-01-19T08:21:11Z</time>
      </trkpt>
      <trkpt lat="40.414018" lon="-3.720087">
        <ele>588.80</ele>
        <time>2020-01-19T08:21:14Z</time>
      </trkpt>
      <trkpt lat="40.414024" lon="-3.720221">
        <ele>588.80</ele>
        <time>2020-01-19T08:21:15Z</time>
      </trkpt>
      <trkpt lat="40.414064" lon="-3.720990">
        <ele>588.00</ele>
        <time>2020-01-19T08:21:21Z</time>
      </trkpt>
      <trkpt lat="40.414071" lon="-3.721114">
        <ele>588.00</ele>
        <time>2020-01-19T08:21:22Z</time>
      </trkpt>
      <trkpt lat="40.414076" lon="-3.721237">
        <ele>587.60</ele>
        <time>2020-01-19T08:21:23Z</time>
      </trkpt>
      <trkpt lat="40.414077" lon="-3.721608">
        <ele>586.40</ele>
        <time>2020-01-19T08:21:26Z</time>
      </trkpt>
      <trkpt lat="40.414077" lon="-3.721967">
        <ele>585.80</ele>
        <time>2020-01-19T08:21:29Z</time>
      </trkpt>
      <trkpt lat="40.414095" lon="-3.722654">
        <ele>586.60</ele>
        <time>2020-01-19T08:21:35Z</time>
      </trkpt>
      <trkpt lat="40.414105" lon="-3.723233">
        <ele>587.20</ele>
        <time>2020-01-19T08:21:41Z</time>
      </trkpt>
      <trkpt lat="40.414108" lon="-3.723571">
        <ele>587.40</ele>
        <time>2020-01-19T08:21:45Z</time>
      </trkpt>
      <trkpt lat="40.414109" lon="-3.723651">
        <ele>587.40</ele>
        <time>2020-01-19T08:21:46Z</time>
      </trkpt>
      <trkpt lat="40.414115" lon="-3.723812">
        <ele>587.60</ele>
        <time>2020-01-19T08:21:48Z</time>
      </trkpt>
      <trkpt lat="40.414122" lon="-3.724112">
        <ele>587.40</ele>
        <time>2020-01-19T08:21:52Z</time>
      </trkpt>
      <trkpt lat="40.414141" lon="-3.724184">
        <ele>587.40</ele>
        <time>2020-01-19T08:21:53Z</time>
      </trkpt>
      <trkpt lat="40.414243" lon="-3.724478">
        <ele>587.40</ele>
        <time>2020-01-19T08:21:57Z</time>
      </trkpt>
      <trkpt lat="40.414252" lon="-3.724700">
        <ele>588.60</ele>
        <time>2020-01-19T08:22:00Z</time>
      </trkpt>
      <trkpt lat="40.414262" lon="-3.724773">
        <ele>589.00</ele>
        <time>2020-01-19T08:22:01Z</time>
      </trkpt>
      <trkpt lat="40.414379" lon="-3.724906">
        <ele>589.40</ele>
        <time>2020-01-19T08:22:04Z</time>
      </trkpt>
      <trkpt lat="40.414500" lon="-3.724917">
        <ele>589.40</ele>
        <time>2020-01-19T08:22:06Z</time>
      </trkpt>
      <trkpt lat="40.414559" lon="-3.724917">
        <ele>589.20</ele>
        <time>2020-01-19T08:22:07Z</time>
      </trkpt>
      <trkpt lat="40.414904" lon="-3.724896">
        <ele>589.40</ele>
        <time>2020-01-19T08:22:12Z</time>
      </trkpt>
      <trkpt lat="40.415414" lon="-3.724876">
        <ele>588.00</ele>
        <time>2020-01-19T08:22:19Z</time>
      </trkpt>
      <trkpt lat="40.415872" lon="-3.724850">
        <ele>589.00</ele>
        <time>2020-01-19T08:22:26Z</time>
      </trkpt>
      <trkpt lat="40.416145" lon="-3.724868">
        <ele>589.00</ele>
        <time>2020-01-19T08:22:30Z</time>
      </trkpt>
      <trkpt lat="40.416212" lon="-3.724886">
        <ele>589.00</ele>
        <time>2020-01-19T08:22:31Z</time>
      </trkpt>
      <trkpt lat="40.416332" lon="-3.725049">
        <ele>589.60</ele>
        <time>2020-01-19T08:22:34Z</time>
      </trkpt>
      <trkpt lat="40.416320" lon="-3.725118">
        <ele>589.80</ele>
        <time>2020-01-19T08:22:35Z</time>
      </trkpt>
      <trkpt lat="40.416288" lon="-3.725181">
        <ele>590.00</ele>
        <time>2020-01-19T08:22:36Z</time>
      </trkpt>
      <trkpt lat="40.416263" lon="-3.725245">
        <ele>590.20</ele>
        <time>2020-01-19T08:22:37Z</time>
      </trkpt>
      <trkpt lat="40.416182" lon="-3.725445">
        <ele>591.00</ele>
        <time>2020-01-19T08:22:40Z</time>
      </trkpt>
      <trkpt lat="40.416070" lon="-3.725713">
        <ele>592.20</ele>
        <time>2020-01-19T08:22:44Z</time>
      </trkpt>
      <trkpt lat="40.416052" lon="-3.725786">
        <ele>592.60</ele>
        <time>2020-01-19T08:22:45Z</time>
      </trkpt>
      <trkpt lat="40.415977" lon="-3.725991">
        <ele>593.80</ele>
        <time>2020-01-19T08:22:48Z</time>
      </trkpt>
      <trkpt lat="40.415864" lon="-3.726259">
        <ele>595.00</ele>
        <time>2020-01-19T08:22:52Z</time>
      </trkpt>
      <trkpt lat="40.415780" lon="-3.726468">
        <ele>595.80</ele>
        <time>2020-01-19T08:22:55Z</time>
      </trkpt>
      <trkpt lat="40.415758" lon="-3.726543">
        <ele>596.20</ele>
        <time>2020-01-19T08:22:56Z</time>
      </trkpt>
      <trkpt lat="40.415711" lon="-3.726687">
        <ele>596.60</ele>
        <time>2020-01-19T08:22:58Z</time>
      </trkpt>
      <trkpt lat="40.415658" lon="-3.726817">
        <ele>597.40</ele>
        <time>2020-01-19T08:23:00Z</time>
      </trkpt>
      <trkpt lat="40.415577" lon="-3.727038">
        <ele>598.60</ele>
        <time>2020-01-19T08:23:03Z</time>
      </trkpt>
      <trkpt lat="40.415528" lon="-3.727185">
        <ele>599.00</ele>
        <time>2020-01-19T08:23:05Z</time>
      </trkpt>
      <trkpt lat="40.415481" lon="-3.727326">
        <ele>599.80</ele>
        <time>2020-01-19T08:23:07Z</time>
      </trkpt>
      <trkpt lat="40.415446" lon="-3.727392">
        <ele>600.20</ele>
        <time>2020-01-19T08:23:08Z</time>
      </trkpt>
      <trkpt lat="40.415395" lon="-3.727536">
        <ele>600.80</ele>
        <time>2020-01-19T08:23:10Z</time>
      </trkpt>
      <trkpt lat="40.415376" lon="-3.727612">
        <ele>601.00</ele>
        <time>2020-01-19T08:23:11Z</time>
      </trkpt>
      <trkpt lat="40.415336" lon="-3.727759">
        <ele>602.00</ele>
        <time>2020-01-19T08:23:13Z</time>
      </trkpt>
      <trkpt lat="40.415308" lon="-3.727829">
        <ele>602.40</ele>
        <time>2020-01-19T08:23:14Z</time>
      </trkpt>
      <trkpt lat="40.415228" lon="-3.728036">
        <ele>603.20</ele>
        <time>2020-01-19T08:23:17Z</time>
      </trkpt>
      <trkpt lat="40.415161" lon="-3.728245">
        <ele>604.40</ele>
        <time>2020-01-19T08:23:20Z</time>
      </trkpt>
      <trkpt lat="40.415049" lon="-3.728529">
        <ele>605.40</ele>
        <time>2020-01-19T08:23:24Z</time>
      </trkpt>
      <trkpt lat="40.415022" lon="-3.728601">
        <ele>605.60</ele>
        <time>2020-01-19T08:23:25Z</time>
      </trkpt>
      <trkpt lat="40.414932" lon="-3.728829">
        <ele>606.80</ele>
        <time>2020-01-19T08:23:28Z</time>
      </trkpt>
      <trkpt lat="40.414840" lon="-3.729073">
        <ele>607.60</ele>
        <time>2020-01-19T08:23:31Z</time>
      </trkpt>
      <trkpt lat="40.414811" lon="-3.729152">
        <ele>607.80</ele>
        <time>2020-01-19T08:23:32Z</time>
      </trkpt>
      <trkpt lat="40.414722" lon="-3.729378">
        <ele>609.20</ele>
        <time>2020-01-19T08:23:35Z</time>
      </trkpt>
      <trkpt lat="40.414666" lon="-3.729526">
        <ele>610.40</ele>
        <time>2020-01-19T08:23:37Z</time>
      </trkpt>
      <trkpt lat="40.414636" lon="-3.729593">
        <ele>610.40</ele>
        <time>2020-01-19T08:23:38Z</time>
      </trkpt>
      <trkpt lat="40.414608" lon="-3.729734">
        <ele>611.20</ele>
        <time>2020-01-19T08:23:40Z</time>
      </trkpt>
      <trkpt lat="40.414628" lon="-3.729801">
        <ele>612.00</ele>
        <time>2020-01-19T08:23:41Z</time>
      </trkpt>
      <trkpt lat="40.414662" lon="-3.729863">
        <ele>612.20</ele>
        <time>2020-01-19T08:23:42Z</time>
      </trkpt>
      <trkpt lat="40.414741" lon="-3.729969">
        <ele>612.60</ele>
        <time>2020-01-19T08:23:44Z</time>
      </trkpt>
      <trkpt lat="40.414808" lon="-3.730080">
        <ele>613.20</ele>
        <time>2020-01-19T08:23:46Z</time>
      </trkpt>
      <trkpt lat="40.414902" lon="-3.730227">
        <ele>614.40</ele>
        <time>2020-01-19T08:23:49Z</time>
      </trkpt>
      <trkpt lat="40.415000" lon="-3.730380">
        <ele>615.40</ele>
        <time>2020-01-19T08:23:52Z</time>
      </trkpt>
      <trkpt lat="40.415037" lon="-3.730423">
        <ele>615.80</ele>
        <time>2020-01-19T08:23:53Z</time>
      </trkpt>
      <trkpt lat="40.415109" lon="-3.730515">
        <ele>616.60</ele>
        <time>2020-01-19T08:23:55Z</time>
      </trkpt>
      <trkpt lat="40.415265" lon="-3.730726">
        <ele>617.60</ele>
        <time>2020-01-19T08:23:59Z</time>
      </trkpt>
      <trkpt lat="40.415295" lon="-3.730785">
        <ele>618.00</ele>
        <time>2020-01-19T08:24:00Z</time>
      </trkpt>
      <trkpt lat="40.415397" lon="-3.731091">
        <ele>619.00</ele>
        <time>2020-01-19T08:24:05Z</time>
      </trkpt>
      <trkpt lat="40.415416" lon="-3.731149">
        <ele>619.00</ele>
        <time>2020-01-19T08:24:06Z</time>
      </trkpt>
      <trkpt lat="40.415562" lon="-3.731589">
        <ele>618.80</ele>
        <time>2020-01-19T08:24:13Z</time>
      </trkpt>
      <trkpt lat="40.415670" lon="-3.731921">
        <ele>618.60</ele>
        <time>2020-01-19T08:24:18Z</time>
      </trkpt>
      <trkpt lat="40.415783" lon="-3.732247">
        <ele>618.00</ele>
        <time>2020-01-19T08:24:23Z</time>
      </trkpt>
      <trkpt lat="40.415806" lon="-3.732312">
        <ele>618.00</ele>
        <time>2020-01-19T08:24:24Z</time>
      </trkpt>
      <trkpt lat="40.415972" lon="-3.732759">
        <ele>617.40</ele>
        <time>2020-01-19T08:24:31Z</time>
      </trkpt>
      <trkpt lat="40.416172" lon="-3.733284">
        <ele>617.20</ele>
        <time>2020-01-19T08:24:39Z</time>
      </trkpt>
      <trkpt lat="40.416197" lon="-3.733359">
        <ele>616.80</ele>
        <time>2020-01-19T08:24:40Z</time>
      </trkpt>
      <trkpt lat="40.416315" lon="-3.733677">
        <ele>615.40</ele>
        <time>2020-01-19T08:24:44Z</time>
      </trkpt>
      <trkpt lat="40.416346" lon="-3.733762">
        <ele>615.00</ele>
        <time>2020-01-19T08:24:45Z</time>
      </trkpt>
      <trkpt lat="40.416416" lon="-3.733943">
        <ele>614.20</ele>
        <time>2020-01-19T08:24:47Z</time>
      </trkpt>
      <trkpt lat="40.416456" lon="-3.734040">
        <ele>612.40</ele>
        <time>2020-01-19T08:24:48Z</time>
      </trkpt>
      <trkpt lat="40.416498" lon="-3.734140">
        <ele>611.40</ele>
        <time>2020-01-19T08:24:49Z</time>
      </trkpt>
      <trkpt lat="40.416551" lon="-3.734232">
        <ele>610.40</ele>
        <time>2020-01-19T08:24:50Z</time>
      </trkpt>
      <trkpt lat="40.416611" lon="-3.734309">
        <ele>609.80</ele>
        <time>2020-01-19T08:24:51Z</time>
      </trkpt>
      <trkpt lat="40.416721" lon="-3.734446">
        <ele>609.00</ele>
        <time>2020-01-19T08:24:53Z</time>
      </trkpt>
      <trkpt lat="40.416788" lon="-3.734498">
        <ele>608.40</ele>
        <time>2020-01-19T08:24:54Z</time>
      </trkpt>
      <trkpt lat="40.416943" lon="-3.734561">
        <ele>607.60</ele>
        <time>2020-01-19T08:24:56Z</time>
      </trkpt>
      <trkpt lat="40.417019" lon="-3.734585">
        <ele>607.00</ele>
        <time>2020-01-19T08:24:57Z</time>
      </trkpt>
      <trkpt lat="40.417107" lon="-3.734580">
        <ele>606.40</ele>
        <time>2020-01-19T08:24:58Z</time>
      </trkpt>
      <trkpt lat="40.417193" lon="-3.734575">
        <ele>605.60</ele>
        <time>2020-01-19T08:24:59Z</time>
      </trkpt>
      <trkpt lat="40.417278" lon="-3.734567">
        <ele>605.20</ele>
        <time>2020-01-19T08:25:00Z</time>
      </trkpt>
      <trkpt lat="40.417444" lon="-3.734562">
        <ele>604.60</ele>
        <time>2020-01-19T08:25:02Z</time>
      </trkpt>
      <trkpt lat="40.417515" lon="-3.734574">
        <ele>604.20</ele>
        <time>2020-01-19T08:25:03Z</time>
      </trkpt>
      <trkpt lat="40.417584" lon="-3.734611">
        <ele>603.80</ele>
        <time>2020-01-19T08:25:04Z</time>
      </trkpt>
      <trkpt lat="40.417641" lon="-3.734665">
        <ele>603.20</ele>
        <time>2020-01-19T08:25:05Z</time>
      </trkpt>
      <trkpt lat="40.417731" lon="-3.734779">
        <ele>602.60</ele>
        <time>2020-01-19T08:25:07Z</time>
      </trkpt>
      <trkpt lat="40.417913" lon="-3.734884">
        <ele>603.80</ele>
        <time>2020-01-19T08:25:11Z</time>
      </trkpt>
      <trkpt lat="40.418009" lon="-3.734892">
        <ele>603.80</ele>
        <time>2020-01-19T08:25:13Z</time>
      </trkpt>
      <trkpt lat="40.418057" lon="-3.734906">
        <ele>603.80</ele>
        <time>2020-01-19T08:25:14Z</time>
      </trkpt>
      <trkpt lat="40.418109" lon="-3.734920">
        <ele>603.80</ele>
        <time>2020-01-19T08:25:15Z</time>
      </trkpt>
      <trkpt lat="40.418551" lon="-3.735022">
        <ele>603.20</ele>
        <time>2020-01-19T08:25:23Z</time>
      </trkpt>
      <trkpt lat="40.418970" lon="-3.735125">
        <ele>603.60</ele>
        <time>2020-01-19T08:25:31Z</time>
      </trkpt>
      <trkpt lat="40.419141" lon="-3.735395">
        <ele>604.80</ele>
        <time>2020-01-19T08:32:32Z</time>
      </trkpt>
      <trkpt lat="40.419098" lon="-3.735511">
        <ele>606.00</ele>
        <time>2020-01-19T08:32:35Z</time>
      </trkpt>
      <trkpt lat="40.419093" lon="-3.735624">
        <ele>605.80</ele>
        <time>2020-01-19T08:32:37Z</time>
      </trkpt>
      <trkpt lat="40.419046" lon="-3.736011">
        <ele>606.00</ele>
        <time>2020-01-19T08:32:43Z</time>
      </trkpt>
      <trkpt lat="40.419029" lon="-3.736071">
        <ele>605.80</ele>
        <time>2020-01-19T08:32:44Z</time>
      </trkpt>
      <trkpt lat="40.418982" lon="-3.736370">
        <ele>606.40</ele>
        <time>2020-01-19T08:32:49Z</time>
      </trkpt>
      <trkpt lat="40.418965" lon="-3.736419">
        <ele>606.60</ele>
        <time>2020-01-19T08:32:50Z</time>
      </trkpt>
      <trkpt lat="40.418902" lon="-3.736622">
        <ele>607.20</ele>
        <time>2020-01-19T08:32:54Z</time>
      </trkpt>
      <trkpt lat="40.418831" lon="-3.736984">
        <ele>606.40</ele>
        <time>2020-01-19T08:33:01Z</time>
      </trkpt>
      <trkpt lat="40.418803" lon="-3.737135">
        <ele>606.20</ele>
        <time>2020-01-19T08:33:04Z</time>
      </trkpt>
      <trkpt lat="40.418761" lon="-3.737388">
        <ele>605.80</ele>
        <time>2020-01-19T08:33:09Z</time>
      </trkpt>
      <trkpt lat="40.418725" lon="-3.737598">
        <ele>605.80</ele>
        <time>2020-01-19T08:33:14Z</time>
      </trkpt>
      <trkpt lat="40.418685" lon="-3.737839">
        <ele>605.00</ele>
        <time>2020-01-19T08:33:20Z</time>
      </trkpt>
      <trkpt lat="40.418680" lon="-3.737881">
        <ele>605.00</ele>
        <time>2020-01-19T08:33:21Z</time>
      </trkpt>
      <trkpt lat="40.418677" lon="-3.738075">
        <ele>605.40</ele>
        <time>2020-01-19T08:33:26Z</time>
      </trkpt>
      <trkpt lat="40.418701" lon="-3.738169">
        <ele>606.20</ele>
        <time>2020-01-19T08:33:28Z</time>
      </trkpt>
      <trkpt lat="40.418739" lon="-3.738257">
        <ele>606.60</ele>
        <time>2020-01-19T08:33:30Z</time>
      </trkpt>
      <trkpt lat="40.418847" lon="-3.738504">
        <ele>607.40</ele>
        <time>2020-01-19T08:33:36Z</time>
      </trkpt>
      <trkpt lat="40.418856" lon="-3.738598">
        <ele>607.80</ele>
        <time>2020-01-19T08:33:38Z</time>
      </trkpt>
      <trkpt lat="40.418907" lon="-3.738793">
        <ele>608.00</ele>
        <time>2020-01-19T08:33:43Z</time>
      </trkpt>
      <trkpt lat="40.418883" lon="-3.739057">
        <ele>608.00</ele>
        <time>2020-01-19T08:33:47Z</time>
      </trkpt>
      <trkpt lat="40.418879" lon="-3.739112">
        <ele>608.00</ele>
        <time>2020-01-19T08:33:48Z</time>
      </trkpt>
      <trkpt lat="40.418863" lon="-3.739173">
        <ele>608.20</ele>
        <time>2020-01-19T08:33:49Z</time>
      </trkpt>
      <trkpt lat="40.418837" lon="-3.739408">
        <ele>608.20</ele>
        <time>2020-01-19T08:33:53Z</time>
      </trkpt>
      <trkpt lat="40.418787" lon="-3.739774">
        <ele>608.20</ele>
        <time>2020-01-19T08:34:00Z</time>
      </trkpt>
      <trkpt lat="40.418781" lon="-3.739826">
        <ele>608.40</ele>
        <time>2020-01-19T08:34:01Z</time>
      </trkpt>
      <trkpt lat="40.418737" lon="-3.740247">
        <ele>608.00</ele>
        <time>2020-01-19T08:34:09Z</time>
      </trkpt>
      <trkpt lat="40.418698" lon="-3.740553">
        <ele>608.60</ele>
        <time>2020-01-19T08:34:15Z</time>
      </trkpt>
      <trkpt lat="40.418661" lon="-3.740878">
        <ele>609.20</ele>
        <time>2020-01-19T08:34:21Z</time>
      </trkpt>
      <trkpt lat="40.418655" lon="-3.740982">
        <ele>609.20</ele>
        <time>2020-01-19T08:34:23Z</time>
      </trkpt>
      <trkpt lat="40.418635" lon="-3.741133">
        <ele>609.40</ele>
        <time>2020-01-19T08:34:26Z</time>
      </trkpt>
      <trkpt lat="40.418623" lon="-3.741282">
        <ele>609.80</ele>
        <time>2020-01-19T08:34:29Z</time>
      </trkpt>
      <trkpt lat="40.418588" lon="-3.741582">
        <ele>608.80</ele>
        <time>2020-01-19T08:34:35Z</time>
      </trkpt>
      <trkpt lat="40.418576" lon="-3.741731">
        <ele>610.40</ele>
        <time>2020-01-19T08:34:38Z</time>
      </trkpt>
      <trkpt lat="40.418544" lon="-3.741975">
        <ele>610.40</ele>
        <time>2020-01-19T08:34:42Z</time>
      </trkpt>
      <trkpt lat="40.418510" lon="-3.742206">
        <ele>610.80</ele>
        <time>2020-01-19T08:34:46Z</time>
      </trkpt>
      <trkpt lat="40.418487" lon="-3.742375">
        <ele>610.80</ele>
        <time>2020-01-19T08:34:49Z</time>
      </trkpt>
      <trkpt lat="40.418423" lon="-3.742756">
        <ele>611.00</ele>
        <time>2020-01-19T08:34:56Z</time>
      </trkpt>
      <trkpt lat="40.418359" lon="-3.743025">
        <ele>611.40</ele>
        <time>2020-01-19T08:35:01Z</time>
      </trkpt>
      <trkpt lat="40.418347" lon="-3.743078">
        <ele>611.80</ele>
        <time>2020-01-19T08:35:02Z</time>
      </trkpt>
      <trkpt lat="40.418301" lon="-3.743257">
        <ele>611.60</ele>
        <time>2020-01-19T08:35:05Z</time>
      </trkpt>
      <trkpt lat="40.418268" lon="-3.743372">
        <ele>611.80</ele>
        <time>2020-01-19T08:35:07Z</time>
      </trkpt>
      <trkpt lat="40.418156" lon="-3.743811">
        <ele>612.60</ele>
        <time>2020-01-19T08:35:15Z</time>
      </trkpt>
      <trkpt lat="40.418145" lon="-3.743871">
        <ele>612.80</ele>
        <time>2020-01-19T08:35:16Z</time>
      </trkpt>
      <trkpt lat="40.418075" lon="-3.744145">
        <ele>613.60</ele>
        <time>2020-01-19T08:35:21Z</time>
      </trkpt>
      <trkpt lat="40.418050" lon="-3.744193">
        <ele>613.40</ele>
        <time>2020-01-19T08:35:22Z</time>
      </trkpt>
      <trkpt lat="40.417887" lon="-3.744415">
        <ele>613.20</ele>
        <time>2020-01-19T08:35:27Z</time>
      </trkpt>
      <trkpt lat="40.417757" lon="-3.744562">
        <ele>613.60</ele>
        <time>2020-01-19T08:35:31Z</time>
      </trkpt>
      <trkpt lat="40.417537" lon="-3.744812">
        <ele>613.80</ele>
        <time>2020-01-19T08:35:37Z</time>
      </trkpt>
      <trkpt lat="40.417501" lon="-3.744853">
        <ele>614.00</ele>
        <time>2020-01-19T08:35:38Z</time>
      </trkpt>
      <trkpt lat="40.417274" lon="-3.745099">
        <ele>614.20</ele>
        <time>2020-01-19T08:35:44Z</time>
      </trkpt>
      <trkpt lat="40.417097" lon="-3.745321">
        <ele>614.40</ele>
        <time>2020-01-19T08:35:49Z</time>
      </trkpt>
      <trkpt lat="40.416927" lon="-3.745521">
        <ele>614.80</ele>
        <time>2020-01-19T08:35:54Z</time>
      </trkpt>
      <trkpt lat="40.416887" lon="-3.745562">
        <ele>615.00</ele>
        <time>2020-01-19T08:35:55Z</time>
      </trkpt>
      <trkpt lat="40.416703" lon="-3.745749">
        <ele>615.40</ele>
        <time>2020-01-19T08:36:00Z</time>
      </trkpt>
      <trkpt lat="40.416621" lon="-3.745817">
        <ele>615.20</ele>
        <time>2020-01-19T08:36:02Z</time>
      </trkpt>
      <trkpt lat="40.416505" lon="-3.745919">
        <ele>615.80</ele>
        <time>2020-01-19T08:36:05Z</time>
      </trkpt>
      <trkpt lat="40.416355" lon="-3.746043">
        <ele>615.60</ele>
        <time>2020-01-19T08:36:09Z</time>
      </trkpt>
      <trkpt lat="40.416188" lon="-3.746098">
        <ele>616.40</ele>
        <time>2020-01-19T08:36:13Z</time>
      </trkpt>
      <trkpt lat="40.416143" lon="-3.746093">
        <ele>616.20</ele>
        <time>2020-01-19T08:36:14Z</time>
      </trkpt>
      <trkpt lat="40.415850" lon="-3.746008">
        <ele>615.80</ele>
        <time>2020-01-19T08:36:21Z</time>
      </trkpt>
      <trkpt lat="40.415581" lon="-3.745925">
        <ele>616.20</ele>
        <time>2020-01-19T08:36:28Z</time>
      </trkpt>
      <trkpt lat="40.415486" lon="-3.745902">
        <ele>617.00</ele>
        <time>2020-01-19T08:36:31Z</time>
      </trkpt>
      <trkpt lat="40.415399" lon="-3.745880">
        <ele>617.40</ele>
        <time>2020-01-19T08:36:34Z</time>
      </trkpt>
      <trkpt lat="40.415268" lon="-3.745854">
        <ele>617.60</ele>
        <time>2020-01-19T08:36:39Z</time>
      </trkpt>
      <trkpt lat="40.415079" lon="-3.745910">
        <ele>617.40</ele>
        <time>2020-01-19T08:36:44Z</time>
      </trkpt>
      <trkpt lat="40.415040" lon="-3.745931">
        <ele>617.40</ele>
        <time>2020-01-19T08:36:45Z</time>
      </trkpt>
      <trkpt lat="40.414870" lon="-3.746058">
        <ele>617.80</ele>
        <time>2020-01-19T08:36:50Z</time>
      </trkpt>
      <trkpt lat="40.414837" lon="-3.746091">
        <ele>618.00</ele>
        <time>2020-01-19T08:36:51Z</time>
      </trkpt>
      <trkpt lat="40.414692" lon="-3.746295">
        <ele>618.00</ele>
        <time>2020-01-19T08:36:56Z</time>
      </trkpt>
      <trkpt lat="40.414516" lon="-3.746667">
        <ele>618.40</ele>
        <time>2020-01-19T08:37:04Z</time>
      </trkpt>
      <trkpt lat="40.414418" lon="-3.746964">
        <ele>618.80</ele>
        <time>2020-01-19T08:37:11Z</time>
      </trkpt>
      <trkpt lat="40.414352" lon="-3.747163">
        <ele>619.00</ele>
        <time>2020-01-19T08:37:16Z</time>
      </trkpt>
      <trkpt lat="40.414339" lon="-3.747237">
        <ele>619.00</ele>
        <time>2020-01-19T08:37:18Z</time>
      </trkpt>
      <trkpt lat="40.414356" lon="-3.747292">
        <ele>619.00</ele>
        <time>2020-01-19T08:37:20Z</time>
      </trkpt>
      <trkpt lat="40.414393" lon="-3.747323">
        <ele>619.00</ele>
        <time>2020-01-19T08:37:22Z</time>
      </trkpt>
      <trkpt lat="40.414476" lon="-3.747405">
        <ele>618.20</ele>
        <time>2020-01-19T08:37:25Z</time>
      </trkpt>
      <trkpt lat="40.414506" lon="-3.747436">
        <ele>617.80</ele>
        <time>2020-01-19T08:37:26Z</time>
      </trkpt>
      <trkpt lat="40.414537" lon="-3.747470">
        <ele>617.80</ele>
        <time>2020-01-19T08:37:27Z</time>
      </trkpt>
      <trkpt lat="40.414583" lon="-3.747655">
        <ele>617.60</ele>
        <time>2020-01-19T08:37:30Z</time>
      </trkpt>
      <trkpt lat="40.414574" lon="-3.747751">
        <ele>617.40</ele>
        <time>2020-01-19T08:37:31Z</time>
      </trkpt>
      <trkpt lat="40.414553" lon="-3.747944">
        <ele>617.80</ele>
        <time>2020-01-19T08:37:34Z</time>
      </trkpt>
      <trkpt lat="40.414537" lon="-3.748061">
        <ele>617.60</ele>
        <time>2020-01-19T08:37:36Z</time>
      </trkpt>
      <trkpt lat="40.414496" lon="-3.748346">
        <ele>617.40</ele>
        <time>2020-01-19T08:37:41Z</time>
      </trkpt>
      <trkpt lat="40.414481" lon="-3.748400">
        <ele>617.40</ele>
        <time>2020-01-19T08:37:42Z</time>
      </trkpt>
      <trkpt lat="40.414419" lon="-3.748558">
        <ele>617.60</ele>
        <time>2020-01-19T08:37:45Z</time>
      </trkpt>
      <trkpt lat="40.414389" lon="-3.748654">
        <ele>617.80</ele>
        <time>2020-01-19T08:37:47Z</time>
      </trkpt>
      <trkpt lat="40.414288" lon="-3.748993">
        <ele>618.20</ele>
        <time>2020-01-19T08:37:54Z</time>
      </trkpt>
      <trkpt lat="40.414201" lon="-3.749244">
        <ele>618.60</ele>
        <time>2020-01-19T08:38:00Z</time>
      </trkpt>
      <trkpt lat="40.414174" lon="-3.749372">
        <ele>619.00</ele>
        <time>2020-01-19T08:38:03Z</time>
      </trkpt>
      <trkpt lat="40.414161" lon="-3.749452">
        <ele>619.40</ele>
        <time>2020-01-19T08:38:05Z</time>
      </trkpt>
      <trkpt lat="40.414121" lon="-3.749746">
        <ele>619.20</ele>
        <time>2020-01-19T08:38:12Z</time>
      </trkpt>
      <trkpt lat="40.414097" lon="-3.749969">
        <ele>619.80</ele>
        <time>2020-01-19T08:38:19Z</time>
      </trkpt>
      <trkpt lat="40.414089" lon="-3.749998">
        <ele>620.00</ele>
        <time>2020-01-19T08:38:20Z</time>
      </trkpt>
      <trkpt lat="40.414046" lon="-3.750115">
        <ele>620.20</ele>
        <time>2020-01-19T08:38:24Z</time>
      </trkpt>
      <trkpt lat="40.414023" lon="-3.750276">
        <ele>621.00</ele>
        <time>2020-01-19T08:38:29Z</time>
      </trkpt>
      <trkpt lat="40.414066" lon="-3.750413">
        <ele>620.80</ele>
        <time>2020-01-19T08:38:33Z</time>
      </trkpt>
      <trkpt lat="40.414160" lon="-3.750609">
        <ele>620.80</ele>
        <time>2020-01-19T08:38:38Z</time>
      </trkpt>
      <trkpt lat="40.414140" lon="-3.750810">
        <ele>621.00</ele>
        <time>2020-01-19T08:38:43Z</time>
      </trkpt>
      <trkpt lat="40.414121" lon="-3.750844">
        <ele>621.00</ele>
        <time>2020-01-19T08:38:44Z</time>
      </trkpt>
      <trkpt lat="40.414017" lon="-3.750970">
        <ele>621.00</ele>
        <time>2020-01-19T08:38:48Z</time>
      </trkpt>
      <trkpt lat="40.413879" lon="-3.751202">
        <ele>621.40</ele>
        <time>2020-01-19T08:38:54Z</time>
      </trkpt>
      <trkpt lat="40.413697" lon="-3.751547">
        <ele>621.80</ele>
        <time>2020-01-19T08:39:02Z</time>
      </trkpt>
      <trkpt lat="40.413613" lon="-3.751748">
        <ele>621.80</ele>
        <time>2020-01-19T08:39:06Z</time>
      </trkpt>
      <trkpt lat="40.413583" lon="-3.751854">
        <ele>621.80</ele>
        <time>2020-01-19T08:39:08Z</time>
      </trkpt>
      <trkpt lat="40.413532" lon="-3.752128">
        <ele>622.00</ele>
        <time>2020-01-19T08:39:13Z</time>
      </trkpt>
      <trkpt lat="40.413488" lon="-3.752363">
        <ele>622.60</ele>
        <time>2020-01-19T08:39:17Z</time>
      </trkpt>
      <trkpt lat="40.413410" lon="-3.752772">
        <ele>622.80</ele>
        <time>2020-01-19T08:39:24Z</time>
      </trkpt>
      <trkpt lat="40.413337" lon="-3.753216">
        <ele>623.20</ele>
        <time>2020-01-19T08:39:31Z</time>
      </trkpt>
      <trkpt lat="40.413268" lon="-3.753647">
        <ele>623.60</ele>
        <time>2020-01-19T08:39:38Z</time>
      </trkpt>
      <trkpt lat="40.413229" lon="-3.753759">
        <ele>623.80</ele>
        <time>2020-01-19T08:39:40Z</time>
      </trkpt>
      <trkpt lat="40.413135" lon="-3.753895">
        <ele>624.00</ele>
        <time>2020-01-19T08:39:43Z</time>
      </trkpt>
      <trkpt lat="40.413048" lon="-3.753943">
        <ele>624.20</ele>
        <time>2020-01-19T08:39:45Z</time>
      </trkpt>
      <trkpt lat="40.412952" lon="-3.753965">
        <ele>624.40</ele>
        <time>2020-01-19T08:39:47Z</time>
      </trkpt>
      <trkpt lat="40.412852" lon="-3.753969">
        <ele>624.60</ele>
        <time>2020-01-19T08:39:49Z</time>
      </trkpt>
      <trkpt lat="40.412628" lon="-3.753986">
        <ele>624.40</ele>
        <time>2020-01-19T08:39:54Z</time>
      </trkpt>
      <trkpt lat="40.412548" lon="-3.754009">
        <ele>624.40</ele>
        <time>2020-01-19T08:39:56Z</time>
      </trkpt>
      <trkpt lat="40.412406" lon="-3.754130">
        <ele>624.80</ele>
        <time>2020-01-19T08:40:00Z</time>
      </trkpt>
      <trkpt lat="40.412375" lon="-3.754173">
        <ele>624.80</ele>
        <time>2020-01-19T08:40:01Z</time>
      </trkpt>
      <trkpt lat="40.412104" lon="-3.754562">
        <ele>624.60</ele>
        <time>2020-01-19T08:40:10Z</time>
      </trkpt>
      <trkpt lat="40.411934" lon="-3.754812">
        <ele>624.80</ele>
        <time>2020-01-19T08:40:16Z</time>
      </trkpt>
      <trkpt lat="40.411883" lon="-3.754902">
        <ele>625.20</ele>
        <time>2020-01-19T08:40:18Z</time>
      </trkpt>
      <trkpt lat="40.411789" lon="-3.755104">
        <ele>625.80</ele>
        <time>2020-01-19T08:40:22Z</time>
      </trkpt>
      <trkpt lat="40.411758" lon="-3.755218">
        <ele>626.00</ele>
        <time>2020-01-19T08:40:24Z</time>
      </trkpt>
      <trkpt lat="40.411732" lon="-3.755331">
        <ele>626.00</ele>
        <time>2020-01-19T08:40:26Z</time>
      </trkpt>
      <trkpt lat="40.411679" lon="-3.755505">
        <ele>626.00</ele>
        <time>2020-01-19T08:40:29Z</time>
      </trkpt>
      <trkpt lat="40.411524" lon="-3.756101">
        <ele>626.00</ele>
        <time>2020-01-19T08:40:39Z</time>
      </trkpt>
      <trkpt lat="40.411479" lon="-3.756277">
        <ele>626.20</ele>
        <time>2020-01-19T08:40:42Z</time>
      </trkpt>
      <trkpt lat="40.411390" lon="-3.756633">
        <ele>626.60</ele>
        <time>2020-01-19T08:40:48Z</time>
      </trkpt>
      <trkpt lat="40.411315" lon="-3.756923">
        <ele>627.20</ele>
        <time>2020-01-19T08:40:53Z</time>
      </trkpt>
      <trkpt lat="40.411285" lon="-3.757044">
        <ele>627.60</ele>
        <time>2020-01-19T08:40:55Z</time>
      </trkpt>
      <trkpt lat="40.411175" lon="-3.757461">
        <ele>627.80</ele>
        <time>2020-01-19T08:41:02Z</time>
      </trkpt>
      <trkpt lat="40.411067" lon="-3.757881">
        <ele>628.00</ele>
        <time>2020-01-19T08:41:09Z</time>
      </trkpt>
      <trkpt lat="40.410993" lon="-3.758175">
        <ele>628.40</ele>
        <time>2020-01-19T08:41:14Z</time>
      </trkpt>
      <trkpt lat="40.410934" lon="-3.758404">
        <ele>628.60</ele>
        <time>2020-01-19T08:41:18Z</time>
      </trkpt>
      <trkpt lat="40.410899" lon="-3.758515">
        <ele>628.60</ele>
        <time>2020-01-19T08:41:20Z</time>
      </trkpt>
      <trkpt lat="40.410781" lon="-3.758777">
        <ele>628.60</ele>
        <time>2020-01-19T08:41:25Z</time>
      </trkpt>
      <trkpt lat="40.410667" lon="-3.758967">
        <ele>629.40</ele>
        <time>2020-01-19T08:41:29Z</time>
      </trkpt>
      <trkpt lat="40.410577" lon="-3.759083">
        <ele>630.20</ele>
        <time>2020-01-19T08:41:32Z</time>
      </trkpt>
      <trkpt lat="40.410547" lon="-3.759121">
        <ele>630.40</ele>
        <time>2020-01-19T08:41:33Z</time>
      </trkpt>
      <trkpt lat="40.410513" lon="-3.759158">
        <ele>630.60</ele>
        <time>2020-01-19T08:41:34Z</time>
      </trkpt>
      <trkpt lat="40.410412" lon="-3.759244">
        <ele>631.40</ele>
        <time>2020-01-19T08:41:37Z</time>
      </trkpt>
      <trkpt lat="40.410381" lon="-3.759274">
        <ele>632.00</ele>
        <time>2020-01-19T08:41:38Z</time>
      </trkpt>
      <trkpt lat="40.410353" lon="-3.759310">
        <ele>632.20</ele>
        <time>2020-01-19T08:41:39Z</time>
      </trkpt>
      <trkpt lat="40.410313" lon="-3.759396">
        <ele>632.60</ele>
        <time>2020-01-19T08:41:41Z</time>
      </trkpt>
      <trkpt lat="40.410295" lon="-3.759444">
        <ele>632.80</ele>
        <time>2020-01-19T08:41:42Z</time>
      </trkpt>
      <trkpt lat="40.410206" lon="-3.759556">
        <ele>632.60</ele>
        <time>2020-01-19T08:41:45Z</time>
      </trkpt>
      <trkpt lat="40.410172" lon="-3.759576">
        <ele>632.60</ele>
        <time>2020-01-19T08:41:46Z</time>
      </trkpt>
      <trkpt lat="40.410058" lon="-3.759646">
        <ele>632.80</ele>
        <time>2020-01-19T08:41:49Z</time>
      </trkpt>
      <trkpt lat="40.409942" lon="-3.759730">
        <ele>632.60</ele>
        <time>2020-01-19T08:41:52Z</time>
      </trkpt>
      <trkpt lat="40.409794" lon="-3.759863">
        <ele>632.40</ele>
        <time>2020-01-19T08:41:56Z</time>
      </trkpt>
      <trkpt lat="40.409729" lon="-3.759943">
        <ele>632.40</ele>
        <time>2020-01-19T08:41:58Z</time>
      </trkpt>
      <trkpt lat="40.409498" lon="-3.760234">
        <ele>632.60</ele>
        <time>2020-01-19T08:42:05Z</time>
      </trkpt>
      <trkpt lat="40.409342" lon="-3.760452">
        <ele>633.00</ele>
        <time>2020-01-19T08:42:10Z</time>
      </trkpt>
      <trkpt lat="40.409312" lon="-3.760560">
        <ele>633.40</ele>
        <time>2020-01-19T08:42:12Z</time>
      </trkpt>
      <trkpt lat="40.409238" lon="-3.760704">
        <ele>633.20</ele>
        <time>2020-01-19T08:42:15Z</time>
      </trkpt>
      <trkpt lat="40.409108" lon="-3.760759">
        <ele>633.40</ele>
        <time>2020-01-19T08:42:18Z</time>
      </trkpt>
      <trkpt lat="40.409064" lon="-3.760779">
        <ele>633.80</ele>
        <time>2020-01-19T08:42:19Z</time>
      </trkpt>
      <trkpt lat="40.408965" lon="-3.760896">
        <ele>634.40</ele>
        <time>2020-01-19T08:42:22Z</time>
      </trkpt>
      <trkpt lat="40.408920" lon="-3.761003">
        <ele>634.40</ele>
        <time>2020-01-19T08:42:24Z</time>
      </trkpt>
      <trkpt lat="40.408895" lon="-3.761055">
        <ele>634.40</ele>
        <time>2020-01-19T08:42:25Z</time>
      </trkpt>
      <trkpt lat="40.408865" lon="-3.761101">
        <ele>634.20</ele>
        <time>2020-01-19T08:42:26Z</time>
      </trkpt>
      <trkpt lat="40.408707" lon="-3.761293">
        <ele>634.20</ele>
        <time>2020-01-19T08:42:31Z</time>
      </trkpt>
      <trkpt lat="40.408431" lon="-3.761632">
        <ele>634.60</ele>
        <time>2020-01-19T08:42:39Z</time>
      </trkpt>
      <trkpt lat="40.408365" lon="-3.761714">
        <ele>634.60</ele>
        <time>2020-01-19T08:42:41Z</time>
      </trkpt>
      <trkpt lat="40.408299" lon="-3.761787">
        <ele>634.80</ele>
        <time>2020-01-19T08:42:43Z</time>
      </trkpt>
      <trkpt lat="40.408263" lon="-3.761823">
        <ele>635.00</ele>
        <time>2020-01-19T08:42:44Z</time>
      </trkpt>
      <trkpt lat="40.408011" lon="-3.762100">
        <ele>635.40</ele>
        <time>2020-01-19T08:42:51Z</time>
      </trkpt>
      <trkpt lat="40.407782" lon="-3.762383">
        <ele>635.60</ele>
        <time>2020-01-19T08:42:58Z</time>
      </trkpt>
      <trkpt lat="40.407607" lon="-3.762596">
        <ele>636.00</ele>
        <time>2020-01-19T08:43:03Z</time>
      </trkpt>
      <trkpt lat="40.407573" lon="-3.762637">
        <ele>636.00</ele>
        <time>2020-01-19T08:43:04Z</time>
      </trkpt>
      <trkpt lat="40.407295" lon="-3.762957">
        <ele>637.00</ele>
        <time>2020-01-19T08:43:12Z</time>
      </trkpt>
      <trkpt lat="40.407225" lon="-3.763023">
        <ele>637.00</ele>
        <time>2020-01-19T08:43:14Z</time>
      </trkpt>
      <trkpt lat="40.407011" lon="-3.763203">
        <ele>638.20</ele>
        <time>2020-01-19T08:43:20Z</time>
      </trkpt>
      <trkpt lat="40.406974" lon="-3.763231">
        <ele>638.60</ele>
        <time>2020-01-19T08:43:21Z</time>
      </trkpt>
      <trkpt lat="40.406914" lon="-3.763293">
        <ele>639.20</ele>
        <time>2020-01-19T08:43:23Z</time>
      </trkpt>
      <trkpt lat="40.406885" lon="-3.763336">
        <ele>639.20</ele>
        <time>2020-01-19T08:43:24Z</time>
      </trkpt>
      <trkpt lat="40.406861" lon="-3.763387">
        <ele>639.20</ele>
        <time>2020-01-19T08:43:25Z</time>
      </trkpt>
      <trkpt lat="40.406708" lon="-3.763726">
        <ele>638.80</ele>
        <time>2020-01-19T08:43:32Z</time>
      </trkpt>
      <trkpt lat="40.406692" lon="-3.763935">
        <ele>638.60</ele>
        <time>2020-01-19T08:43:36Z</time>
      </trkpt>
      <trkpt lat="40.406682" lon="-3.764043">
        <ele>638.20</ele>
        <time>2020-01-19T08:43:38Z</time>
      </trkpt>
      <trkpt lat="40.406652" lon="-3.764314">
        <ele>638.40</ele>
        <time>2020-01-19T08:43:43Z</time>
      </trkpt>
      <trkpt lat="40.406642" lon="-3.764607">
        <ele>638.00</ele>
        <time>2020-01-19T08:43:48Z</time>
      </trkpt>
      <trkpt lat="40.406628" lon="-3.764794">
        <ele>637.60</ele>
        <time>2020-01-19T08:43:51Z</time>
      </trkpt>
      <trkpt lat="40.406658" lon="-3.764976">
        <ele>637.40</ele>
        <time>2020-01-19T08:43:54Z</time>
      </trkpt>
      <trkpt lat="40.406678" lon="-3.765036">
        <ele>637.20</ele>
        <time>2020-01-19T08:43:55Z</time>
      </trkpt>
      <trkpt lat="40.406701" lon="-3.765092">
        <ele>637.60</ele>
        <time>2020-01-19T08:43:56Z</time>
      </trkpt>
      <trkpt lat="40.406795" lon="-3.765244">
        <ele>637.20</ele>
        <time>2020-01-19T08:43:59Z</time>
      </trkpt>
      <trkpt lat="40.407008" lon="-3.765575">
        <ele>638.20</ele>
        <time>2020-01-19T08:44:06Z</time>
      </trkpt>
      <trkpt lat="40.407025" lon="-3.765629">
        <ele>638.00</ele>
        <time>2020-01-19T08:44:07Z</time>
      </trkpt>
      <trkpt lat="40.407010" lon="-3.765804">
        <ele>638.00</ele>
        <time>2020-01-19T08:44:10Z</time>
      </trkpt>
      <trkpt lat="40.406895" lon="-3.765998">
        <ele>638.00</ele>
        <time>2020-01-19T08:44:14Z</time>
      </trkpt>
      <trkpt lat="40.406859" lon="-3.766035">
        <ele>638.20</ele>
        <time>2020-01-19T08:44:15Z</time>
      </trkpt>
      <trkpt lat="40.406724" lon="-3.766168">
        <ele>638.40</ele>
        <time>2020-01-19T08:44:19Z</time>
      </trkpt>
      <trkpt lat="40.406653" lon="-3.766222">
        <ele>638.40</ele>
        <time>2020-01-19T08:44:21Z</time>
      </trkpt>
      <trkpt lat="40.406539" lon="-3.766304">
        <ele>639.20</ele>
        <time>2020-01-19T08:44:24Z</time>
      </trkpt>
      <trkpt lat="40.406433" lon="-3.766399">
        <ele>639.20</ele>
        <time>2020-01-19T08:44:27Z</time>
      </trkpt>
      <trkpt lat="40.406370" lon="-3.766479">
        <ele>638.80</ele>
        <time>2020-01-19T08:44:29Z</time>
      </trkpt>
      <trkpt lat="40.406168" lon="-3.766771">
        <ele>639.80</ele>
        <time>2020-01-19T08:44:36Z</time>
      </trkpt>
      <trkpt lat="40.405969" lon="-3.767086">
        <ele>640.00</ele>
        <time>2020-01-19T08:44:43Z</time>
      </trkpt>
      <trkpt lat="40.405861" lon="-3.767220">
        <ele>639.60</ele>
        <time>2020-01-19T08:44:46Z</time>
      </trkpt>
      <trkpt lat="40.405775" lon="-3.767286">
        <ele>639.40</ele>
        <time>2020-01-19T08:44:48Z</time>
      </trkpt>
      <trkpt lat="40.405699" lon="-3.767356">
        <ele>640.20</ele>
        <time>2020-01-19T08:44:50Z</time>
      </trkpt>
      <trkpt lat="40.405667" lon="-3.767396">
        <ele>640.20</ele>
        <time>2020-01-19T08:44:51Z</time>
      </trkpt>
      <trkpt lat="40.405612" lon="-3.767483">
        <ele>640.60</ele>
        <time>2020-01-19T08:44:53Z</time>
      </trkpt>
      <trkpt lat="40.405570" lon="-3.767582">
        <ele>641.00</ele>
        <time>2020-01-19T08:44:55Z</time>
      </trkpt>
      <trkpt lat="40.405535" lon="-3.767680">
        <ele>641.40</ele>
        <time>2020-01-19T08:44:57Z</time>
      </trkpt>
      <trkpt lat="40.405496" lon="-3.767773">
        <ele>641.40</ele>
        <time>2020-01-19T08:44:59Z</time>
      </trkpt>
      <trkpt lat="40.405405" lon="-3.767938">
        <ele>642.40</ele>
        <time>2020-01-19T08:45:03Z</time>
      </trkpt>
      <trkpt lat="40.405381" lon="-3.767979">
        <ele>642.80</ele>
        <time>2020-01-19T08:45:04Z</time>
      </trkpt>
      <trkpt lat="40.405216" lon="-3.768267">
        <ele>643.00</ele>
        <time>2020-01-19T08:45:11Z</time>
      </trkpt>
      <trkpt lat="40.405130" lon="-3.768392">
        <ele>643.40</ele>
        <time>2020-01-19T08:45:14Z</time>
      </trkpt>
      <trkpt lat="40.405067" lon="-3.768490">
        <ele>643.20</ele>
        <time>2020-01-19T08:45:16Z</time>
      </trkpt>
      <trkpt lat="40.405008" lon="-3.768579">
        <ele>643.60</ele>
        <time>2020-01-19T08:45:18Z</time>
      </trkpt>
      <trkpt lat="40.404928" lon="-3.768719">
        <ele>643.60</ele>
        <time>2020-01-19T08:45:21Z</time>
      </trkpt>
      <trkpt lat="40.404835" lon="-3.768872">
        <ele>643.80</ele>
        <time>2020-01-19T08:45:24Z</time>
      </trkpt>
      <trkpt lat="40.404773" lon="-3.768962">
        <ele>644.00</ele>
        <time>2020-01-19T08:45:26Z</time>
      </trkpt>
      <trkpt lat="40.404661" lon="-3.769159">
        <ele>644.60</ele>
        <time>2020-01-19T08:45:30Z</time>
      </trkpt>
      <trkpt lat="40.404556" lon="-3.769353">
        <ele>644.80</ele>
        <time>2020-01-19T08:45:34Z</time>
      </trkpt>
      <trkpt lat="40.404531" lon="-3.769406">
        <ele>644.80</ele>
        <time>2020-01-19T08:45:35Z</time>
      </trkpt>
      <trkpt lat="40.404327" lon="-3.769887">
        <ele>645.00</ele>
        <time>2020-01-19T08:45:44Z</time>
      </trkpt>
      <trkpt lat="40.404274" lon="-3.769981">
        <ele>645.00</ele>
        <time>2020-01-19T08:45:46Z</time>
      </trkpt>
      <trkpt lat="40.404177" lon="-3.770122">
        <ele>645.40</ele>
        <time>2020-01-19T08:45:49Z</time>
      </trkpt>
      <trkpt lat="40.404112" lon="-3.770221">
        <ele>645.60</ele>
        <time>2020-01-19T08:45:51Z</time>
      </trkpt>
      <trkpt lat="40.404077" lon="-3.770263">
        <ele>645.60</ele>
        <time>2020-01-19T08:45:52Z</time>
      </trkpt>
      <trkpt lat="40.403975" lon="-3.770391">
        <ele>645.60</ele>
        <time>2020-01-19T08:45:55Z</time>
      </trkpt>
      <trkpt lat="40.403680" lon="-3.770751">
        <ele>644.80</ele>
        <time>2020-01-19T08:46:03Z</time>
      </trkpt>
      <trkpt lat="40.403452" lon="-3.771057">
        <ele>645.40</ele>
        <time>2020-01-19T08:46:10Z</time>
      </trkpt>
      <trkpt lat="40.403247" lon="-3.771431">
        <ele>645.00</ele>
        <time>2020-01-19T08:46:17Z</time>
      </trkpt>
      <trkpt lat="40.403216" lon="-3.771476">
        <ele>645.00</ele>
        <time>2020-01-19T08:46:18Z</time>
      </trkpt>
      <trkpt lat="40.403059" lon="-3.771632">
        <ele>645.20</ele>
        <time>2020-01-19T08:46:22Z</time>
      </trkpt>
      <trkpt lat="40.402776" lon="-3.771897">
        <ele>645.40</ele>
        <time>2020-01-19T08:46:29Z</time>
      </trkpt>
      <trkpt lat="40.402386" lon="-3.772288">
        <ele>646.20</ele>
        <time>2020-01-19T08:46:39Z</time>
      </trkpt>
      <trkpt lat="40.402267" lon="-3.772380">
        <ele>646.20</ele>
        <time>2020-01-19T08:46:42Z</time>
      </trkpt>
      <trkpt lat="40.402200" lon="-3.772451">
        <ele>646.60</ele>
        <time>2020-01-19T08:46:44Z</time>
      </trkpt>
      <trkpt lat="40.402169" lon="-3.772479">
        <ele>646.60</ele>
        <time>2020-01-19T08:46:45Z</time>
      </trkpt>
      <trkpt lat="40.402051" lon="-3.772615">
        <ele>647.60</ele>
        <time>2020-01-19T08:46:49Z</time>
      </trkpt>
      <trkpt lat="40.402029" lon="-3.772664">
        <ele>647.80</ele>
        <time>2020-01-19T08:46:50Z</time>
      </trkpt>
      <trkpt lat="40.401988" lon="-3.772827">
        <ele>648.00</ele>
        <time>2020-01-19T08:46:53Z</time>
      </trkpt>
      <trkpt lat="40.401973" lon="-3.772880">
        <ele>648.20</ele>
        <time>2020-01-19T08:46:54Z</time>
      </trkpt>
      <trkpt lat="40.401843" lon="-3.773019">
        <ele>648.60</ele>
        <time>2020-01-19T08:46:58Z</time>
      </trkpt>
      <trkpt lat="40.401657" lon="-3.773013">
        <ele>648.60</ele>
        <time>2020-01-19T08:47:02Z</time>
      </trkpt>
      <trkpt lat="40.401612" lon="-3.772992">
        <ele>648.60</ele>
        <time>2020-01-19T08:47:03Z</time>
      </trkpt>
      <trkpt lat="40.401395" lon="-3.772907">
        <ele>648.60</ele>
        <time>2020-01-19T08:47:08Z</time>
      </trkpt>
      <trkpt lat="40.401351" lon="-3.772899">
        <ele>648.60</ele>
        <time>2020-01-19T08:47:09Z</time>
      </trkpt>
      <trkpt lat="40.401224" lon="-3.772924">
        <ele>648.80</ele>
        <time>2020-01-19T08:47:13Z</time>
      </trkpt>
      <trkpt lat="40.401206" lon="-3.772955">
        <ele>648.80</ele>
        <time>2020-01-19T08:47:14Z</time>
      </trkpt>
      <trkpt lat="40.401205" lon="-3.773036">
        <ele>648.80</ele>
        <time>2020-01-19T08:47:16Z</time>
      </trkpt>
      <trkpt lat="40.401149" lon="-3.773204">
        <ele>648.20</ele>
        <time>2020-01-19T08:47:20Z</time>
      </trkpt>
      <trkpt lat="40.400996" lon="-3.773372">
        <ele>648.40</ele>
        <time>2020-01-19T08:47:25Z</time>
      </trkpt>
      <trkpt lat="40.400881" lon="-3.773596">
        <ele>648.40</ele>
        <time>2020-01-19T08:47:30Z</time>
      </trkpt>
      <trkpt lat="40.400791" lon="-3.773752">
        <ele>649.00</ele>
        <time>2020-01-19T08:47:34Z</time>
      </trkpt>
      <trkpt lat="40.400769" lon="-3.773791">
        <ele>649.00</ele>
        <time>2020-01-19T08:47:35Z</time>
      </trkpt>
      <trkpt lat="40.400667" lon="-3.774072">
        <ele>648.60</ele>
        <time>2020-01-19T08:47:41Z</time>
      </trkpt>
      <trkpt lat="40.400580" lon="-3.774383">
        <ele>648.60</ele>
        <time>2020-01-19T08:47:48Z</time>
      </trkpt>
      <trkpt lat="40.400544" lon="-3.774638">
        <ele>649.00</ele>
        <time>2020-01-19T08:47:54Z</time>
      </trkpt>
      <trkpt lat="40.400530" lon="-3.774924">
        <ele>648.80</ele>
        <time>2020-01-19T08:48:00Z</time>
      </trkpt>
      <trkpt lat="40.400531" lon="-3.775056">
        <ele>650.00</ele>
        <time>2020-01-19T08:48:03Z</time>
      </trkpt>
      <trkpt lat="40.400531" lon="-3.775214">
        <ele>650.80</ele>
        <time>2020-01-19T08:48:07Z</time>
      </trkpt>
      <trkpt lat="40.400532" lon="-3.775252">
        <ele>651.00</ele>
        <time>2020-01-19T08:48:08Z</time>
      </trkpt>
      <trkpt lat="40.400503" lon="-3.775404">
        <ele>651.60</ele>
        <time>2020-01-19T08:48:12Z</time>
      </trkpt>
      <trkpt lat="40.400511" lon="-3.775583">
        <ele>650.80</ele>
        <time>2020-01-19T08:48:16Z</time>
      </trkpt>
      <trkpt lat="40.400527" lon="-3.775891">
        <ele>651.60</ele>
        <time>2020-01-19T08:48:22Z</time>
      </trkpt>
      <trkpt lat="40.400520" lon="-3.775993">
        <ele>651.60</ele>
        <time>2020-01-19T08:48:24Z</time>
      </trkpt>
      <trkpt lat="40.400509" lon="-3.776186">
        <ele>651.40</ele>
        <time>2020-01-19T08:48:28Z</time>
      </trkpt>
      <trkpt lat="40.400505" lon="-3.776429">
        <ele>651.80</ele>
        <time>2020-01-19T08:48:33Z</time>
      </trkpt>
      <trkpt lat="40.400511" lon="-3.776587">
        <ele>652.20</ele>
        <time>2020-01-19T08:48:36Z</time>
      </trkpt>
      <trkpt lat="40.400504" lon="-3.776787">
        <ele>653.00</ele>
        <time>2020-01-19T08:48:40Z</time>
      </trkpt>
      <trkpt lat="40.400505" lon="-3.776845">
        <ele>653.20</ele>
        <time>2020-01-19T08:48:41Z</time>
      </trkpt>
      <trkpt lat="40.400545" lon="-3.777170">
        <ele>652.40</ele>
        <time>2020-01-19T08:48:46Z</time>
      </trkpt>
      <trkpt lat="40.400617" lon="-3.777429">
        <ele>653.60</ele>
        <time>2020-01-19T08:48:51Z</time>
      </trkpt>
      <trkpt lat="40.400708" lon="-3.777745">
        <ele>653.20</ele>
        <time>2020-01-19T08:48:58Z</time>
      </trkpt>
      <trkpt lat="40.400831" lon="-3.777991">
        <ele>654.00</ele>
        <time>2020-01-19T08:49:04Z</time>
      </trkpt>
      <trkpt lat="40.400885" lon="-3.778064">
        <ele>654.20</ele>
        <time>2020-01-19T08:49:06Z</time>
      </trkpt>
      <trkpt lat="40.400936" lon="-3.778187">
        <ele>654.40</ele>
        <time>2020-01-19T08:49:09Z</time>
      </trkpt>
      <trkpt lat="40.401044" lon="-3.778386">
        <ele>654.00</ele>
        <time>2020-01-19T08:49:14Z</time>
      </trkpt>
      <trkpt lat="40.401077" lon="-3.778482">
        <ele>654.80</ele>
        <time>2020-01-19T08:49:17Z</time>
      </trkpt>
      <trkpt lat="40.401075" lon="-3.778513">
        <ele>655.00</ele>
        <time>2020-01-19T08:49:18Z</time>
      </trkpt>
      <trkpt lat="40.400979" lon="-3.778623">
        <ele>655.00</ele>
        <time>2020-01-19T08:49:22Z</time>
      </trkpt>
      <trkpt lat="40.400940" lon="-3.778645">
        <ele>654.80</ele>
        <time>2020-01-19T08:49:23Z</time>
      </trkpt>
      <trkpt lat="40.400845" lon="-3.778735">
        <ele>655.40</ele>
        <time>2020-01-19T08:49:26Z</time>
      </trkpt>
      <trkpt lat="40.400824" lon="-3.778769">
        <ele>655.80</ele>
        <time>2020-01-19T08:49:27Z</time>
      </trkpt>
      <trkpt lat="40.400768" lon="-3.778926">
        <ele>656.40</ele>
        <time>2020-01-19T08:49:31Z</time>
      </trkpt>
      <trkpt lat="40.400744" lon="-3.778960">
        <ele>656.60</ele>
        <time>2020-01-19T08:49:32Z</time>
      </trkpt>
      <trkpt lat="40.400651" lon="-3.779031">
        <ele>657.00</ele>
        <time>2020-01-19T08:49:36Z</time>
      </trkpt>
      <trkpt lat="40.400574" lon="-3.779141">
        <ele>656.60</ele>
        <time>2020-01-19T08:49:39Z</time>
      </trkpt>
      <trkpt lat="40.400544" lon="-3.779193">
        <ele>656.40</ele>
        <time>2020-01-19T08:49:40Z</time>
      </trkpt>
      <trkpt lat="40.400338" lon="-3.779460">
        <ele>656.80</ele>
        <time>2020-01-19T08:49:46Z</time>
      </trkpt>
      <trkpt lat="40.400156" lon="-3.779569">
        <ele>657.00</ele>
        <time>2020-01-19T08:49:50Z</time>
      </trkpt>
      <trkpt lat="40.400107" lon="-3.779585">
        <ele>657.00</ele>
        <time>2020-01-19T08:49:51Z</time>
      </trkpt>
      <trkpt lat="40.399896" lon="-3.779599">
        <ele>657.00</ele>
        <time>2020-01-19T08:49:55Z</time>
      </trkpt>
      <trkpt lat="40.399846" lon="-3.779587">
        <ele>657.20</ele>
        <time>2020-01-19T08:49:56Z</time>
      </trkpt>
      <trkpt lat="40.399796" lon="-3.779570">
        <ele>657.60</ele>
        <time>2020-01-19T08:49:57Z</time>
      </trkpt>
      <trkpt lat="40.399704" lon="-3.779522">
        <ele>657.80</ele>
        <time>2020-01-19T08:49:59Z</time>
      </trkpt>
      <trkpt lat="40.399624" lon="-3.779451">
        <ele>657.60</ele>
        <time>2020-01-19T08:50:01Z</time>
      </trkpt>
      <trkpt lat="40.399440" lon="-3.779242">
        <ele>657.60</ele>
        <time>2020-01-19T08:50:07Z</time>
      </trkpt>
      <trkpt lat="40.399422" lon="-3.779238">
        <ele>657.60</ele>
        <time>2020-01-19T08:50:08Z</time>
      </trkpt>
      <trkpt lat="40.399402" lon="-3.779244">
        <ele>657.40</ele>
        <time>2020-01-19T08:50:10Z</time>
      </trkpt>
      <trkpt lat="40.399399" lon="-3.779327">
        <ele>657.40</ele>
        <time>2020-01-19T08:50:18Z</time>
      </trkpt>
      <trkpt lat="40.399401" lon="-3.779354">
        <ele>657.40</ele>
        <time>2020-01-19T08:50:19Z</time>
      </trkpt>
      <trkpt lat="40.399379" lon="-3.779526">
        <ele>657.40</ele>
        <time>2020-01-19T08:50:24Z</time>
      </trkpt>
      <trkpt lat="40.399352" lon="-3.779726">
        <ele>658.00</ele>
        <time>2020-01-19T08:50:29Z</time>
      </trkpt>
      <trkpt lat="40.399371" lon="-3.779981">
        <ele>658.00</ele>
        <time>2020-01-19T08:50:35Z</time>
      </trkpt>
      <trkpt lat="40.399383" lon="-3.780215">
        <ele>658.40</ele>
        <time>2020-01-19T08:50:41Z</time>
      </trkpt>
      <trkpt lat="40.399346" lon="-3.780461">
        <ele>658.60</ele>
        <time>2020-01-19T08:50:48Z</time>
      </trkpt>
      <trkpt lat="40.399344" lon="-3.780496">
        <ele>659.00</ele>
        <time>2020-01-19T08:50:49Z</time>
      </trkpt>
      <trkpt lat="40.399355" lon="-3.780607">
        <ele>659.60</ele>
        <time>2020-01-19T08:50:52Z</time>
      </trkpt>
      <trkpt lat="40.399353" lon="-3.780680">
        <ele>660.20</ele>
        <time>2020-01-19T08:50:54Z</time>
      </trkpt>
      <trkpt lat="40.399337" lon="-3.780780">
        <ele>660.60</ele>
        <time>2020-01-19T08:50:57Z</time>
      </trkpt>
      <trkpt lat="40.399342" lon="-3.780850">
        <ele>661.00</ele>
        <time>2020-01-19T08:50:59Z</time>
      </trkpt>
      <trkpt lat="40.399355" lon="-3.781074">
        <ele>661.80</ele>
        <time>2020-01-19T08:51:04Z</time>
      </trkpt>
      <trkpt lat="40.399355" lon="-3.781159">
        <ele>662.20</ele>
        <time>2020-01-19T08:51:06Z</time>
      </trkpt>
      <trkpt lat="40.399346" lon="-3.781243">
        <ele>663.00</ele>
        <time>2020-01-19T08:51:08Z</time>
      </trkpt>
      <trkpt lat="40.399335" lon="-3.781401">
        <ele>663.60</ele>
        <time>2020-01-19T08:51:12Z</time>
      </trkpt>
      <trkpt lat="40.399324" lon="-3.781468">
        <ele>664.00</ele>
        <time>2020-01-19T08:51:14Z</time>
      </trkpt>
      <trkpt lat="40.399308" lon="-3.781489">
        <ele>664.20</ele>
        <time>2020-01-19T08:51:15Z</time>
      </trkpt>
      <trkpt lat="40.399259" lon="-3.781516">
        <ele>664.80</ele>
        <time>2020-01-19T08:51:17Z</time>
      </trkpt>
      <trkpt lat="40.399079" lon="-3.781603">
        <ele>665.00</ele>
        <time>2020-01-19T08:51:22Z</time>
      </trkpt>
      <trkpt lat="40.398831" lon="-3.781746">
        <ele>665.00</ele>
        <time>2020-01-19T08:51:29Z</time>
      </trkpt>
      <trkpt lat="40.398660" lon="-3.781838">
        <ele>665.40</ele>
        <time>2020-01-19T08:51:34Z</time>
      </trkpt>
      <trkpt lat="40.398519" lon="-3.781914">
        <ele>665.60</ele>
        <time>2020-01-19T08:51:38Z</time>
      </trkpt>
      <trkpt lat="40.398295" lon="-3.782094">
        <ele>666.40</ele>
        <time>2020-01-19T08:51:45Z</time>
      </trkpt>
      <trkpt lat="40.398272" lon="-3.782125">
        <ele>666.60</ele>
        <time>2020-01-19T08:51:46Z</time>
      </trkpt>
      <trkpt lat="40.398173" lon="-3.782256">
        <ele>668.00</ele>
        <time>2020-01-19T08:51:51Z</time>
      </trkpt>
      <trkpt lat="40.398167" lon="-3.782275">
        <ele>668.20</ele>
        <time>2020-01-19T08:51:52Z</time>
      </trkpt>
      <trkpt lat="40.398151" lon="-3.782309">
        <ele>669.00</ele>
        <time>2020-01-19T08:51:54Z</time>
      </trkpt>
      <trkpt lat="40.398121" lon="-3.782341">
        <ele>669.40</ele>
        <time>2020-01-19T08:51:56Z</time>
      </trkpt>
      <trkpt lat="40.398009" lon="-3.782449">
        <ele>669.60</ele>
        <time>2020-01-19T08:52:00Z</time>
      </trkpt>
      <trkpt lat="40.397851" lon="-3.782751">
        <ele>669.60</ele>
        <time>2020-01-19T08:52:07Z</time>
      </trkpt>
      <trkpt lat="40.397696" lon="-3.783030">
        <ele>669.80</ele>
        <time>2020-01-19T08:52:14Z</time>
      </trkpt>
      <trkpt lat="40.397481" lon="-3.783408">
        <ele>669.60</ele>
        <time>2020-01-19T08:52:23Z</time>
      </trkpt>
      <trkpt lat="40.397379" lon="-3.783730">
        <ele>669.60</ele>
        <time>2020-01-19T08:52:30Z</time>
      </trkpt>
      <trkpt lat="40.397377" lon="-3.783805">
        <ele>670.20</ele>
        <time>2020-01-19T08:52:32Z</time>
      </trkpt>
      <trkpt lat="40.397381" lon="-3.783937">
        <ele>671.00</ele>
        <time>2020-01-19T08:52:36Z</time>
      </trkpt>
      <trkpt lat="40.397364" lon="-3.783960">
        <ele>671.00</ele>
        <time>2020-01-19T08:52:37Z</time>
      </trkpt>
      <trkpt lat="40.397295" lon="-3.784019">
        <ele>670.80</ele>
        <time>2020-01-19T08:52:40Z</time>
      </trkpt>
      <trkpt lat="40.397152" lon="-3.784125">
        <ele>671.00</ele>
        <time>2020-01-19T08:52:45Z</time>
      </trkpt>
      <trkpt lat="40.397129" lon="-3.784151">
        <ele>671.20</ele>
        <time>2020-01-19T08:52:46Z</time>
      </trkpt>
      <trkpt lat="40.397038" lon="-3.784287">
        <ele>671.40</ele>
        <time>2020-01-19T08:52:51Z</time>
      </trkpt>
      <trkpt lat="40.396955" lon="-3.784285">
        <ele>672.00</ele>
        <time>2020-01-19T08:52:55Z</time>
      </trkpt>
      <trkpt lat="40.396875" lon="-3.784259">
        <ele>671.80</ele>
        <time>2020-01-19T08:52:59Z</time>
      </trkpt>
      <trkpt lat="40.396845" lon="-3.784287">
        <ele>672.20</ele>
        <time>2020-01-19T08:53:01Z</time>
      </trkpt>
      <trkpt lat="40.396833" lon="-3.784300">
        <ele>672.40</ele>
        <time>2020-01-19T08:53:02Z</time>
      </trkpt>
      <trkpt lat="40.396811" lon="-3.784321">
        <ele>673.20</ele>
        <time>2020-01-19T08:53:04Z</time>
      </trkpt>
      <trkpt lat="40.396800" lon="-3.784316">
        <ele>673.40</ele>
        <time>2020-01-19T08:53:06Z</time>
      </trkpt>
      <trkpt lat="40.396799" lon="-3.784310">
        <ele>673.60</ele>
        <time>2020-01-19T08:53:08Z</time>
      </trkpt>
      <trkpt lat="40.396791" lon="-3.784222">
        <ele>674.40</ele>
        <time>2020-01-19T08:53:13Z</time>
      </trkpt>
      <trkpt lat="40.396772" lon="-3.784207">
        <ele>674.80</ele>
        <time>2020-01-19T08:53:14Z</time>
      </trkpt>
      <trkpt lat="40.396683" lon="-3.784197">
        <ele>675.20</ele>
        <time>2020-01-19T08:53:17Z</time>
      </trkpt>
      <trkpt lat="40.396610" lon="-3.784312">
        <ele>675.40</ele>
        <time>2020-01-19T08:53:20Z</time>
      </trkpt>
      <trkpt lat="40.396590" lon="-3.784361">
        <ele>675.60</ele>
        <time>2020-01-19T08:53:21Z</time>
      </trkpt>
      <trkpt lat="40.396567" lon="-3.784407">
        <ele>675.80</ele>
        <time>2020-01-19T08:53:22Z</time>
      </trkpt>
      <trkpt lat="40.396501" lon="-3.784552">
        <ele>676.20</ele>
        <time>2020-01-19T08:53:26Z</time>
      </trkpt>
      <trkpt lat="40.396429" lon="-3.784699">
        <ele>677.00</ele>
        <time>2020-01-19T08:53:32Z</time>
      </trkpt>
      <trkpt lat="40.396362" lon="-3.784853">
        <ele>677.20</ele>
        <time>2020-01-19T08:53:41Z</time>
      </trkpt>
      <trkpt lat="40.396324" lon="-3.784912">
        <ele>678.00</ele>
        <time>2020-01-19T08:53:47Z</time>
      </trkpt>
      <trkpt lat="40.396323" lon="-3.784905">
        <ele>677.60</ele>
        <time>2020-01-19T08:53:48Z</time>
      </trkpt>
      <trkpt lat="40.396327" lon="-3.784895">
        <ele>677.60</ele>
        <time>2020-01-19T08:53:49Z</time>
      </trkpt>
      <trkpt lat="40.396371" lon="-3.784821">
        <ele>677.40</ele>
        <time>2020-01-19T08:53:53Z</time>
      </trkpt>
      <trkpt lat="40.396403" lon="-3.784751">
        <ele>676.80</ele>
        <time>2020-01-19T08:53:55Z</time>
      </trkpt>
      <trkpt lat="40.396420" lon="-3.784711">
        <ele>676.80</ele>
        <time>2020-01-19T08:53:56Z</time>
      </trkpt>
      <trkpt lat="40.396466" lon="-3.784627">
        <ele>676.60</ele>
        <time>2020-01-19T08:53:58Z</time>
      </trkpt>
      <trkpt lat="40.396562" lon="-3.784449">
        <ele>675.80</ele>
        <time>2020-01-19T08:54:02Z</time>
      </trkpt>
      <trkpt lat="40.396673" lon="-3.784217">
        <ele>674.80</ele>
        <time>2020-01-19T08:54:07Z</time>
      </trkpt>
      <trkpt lat="40.396694" lon="-3.784177">
        <ele>674.60</ele>
        <time>2020-01-19T08:54:08Z</time>
      </trkpt>
      <trkpt lat="40.396748" lon="-3.784040">
        <ele>674.80</ele>
        <time>2020-01-19T08:54:12Z</time>
      </trkpt>
      <trkpt lat="40.396745" lon="-3.784001">
        <ele>674.80</ele>
        <time>2020-01-19T08:54:13Z</time>
      </trkpt>
      <trkpt lat="40.396701" lon="-3.783928">
        <ele>674.80</ele>
        <time>2020-01-19T08:54:15Z</time>
      </trkpt>
      <trkpt lat="40.396592" lon="-3.783897">
        <ele>674.60</ele>
        <time>2020-01-19T08:54:18Z</time>
      </trkpt>
      <trkpt lat="40.396445" lon="-3.783995">
        <ele>675.20</ele>
        <time>2020-01-19T08:54:23Z</time>
      </trkpt>
      <trkpt lat="40.396421" lon="-3.784031">
        <ele>675.20</ele>
        <time>2020-01-19T08:54:24Z</time>
      </trkpt>
      <trkpt lat="40.396358" lon="-3.784205">
        <ele>675.40</ele>
        <time>2020-01-19T08:54:28Z</time>
      </trkpt>
      <trkpt lat="40.396337" lon="-3.784245">
        <ele>675.60</ele>
        <time>2020-01-19T08:54:29Z</time>
      </trkpt>
      <trkpt lat="40.396202" lon="-3.784417">
        <ele>676.00</ele>
        <time>2020-01-19T08:54:34Z</time>
      </trkpt>
      <trkpt lat="40.396021" lon="-3.784464">
        <ele>676.40</ele>
        <time>2020-01-19T08:54:39Z</time>
      </trkpt>
      <trkpt lat="40.395983" lon="-3.784452">
        <ele>676.60</ele>
        <time>2020-01-19T08:54:40Z</time>
      </trkpt>
      <trkpt lat="40.395817" lon="-3.784434">
        <ele>677.00</ele>
        <time>2020-01-19T08:54:44Z</time>
      </trkpt>
      <trkpt lat="40.395697" lon="-3.784506">
        <ele>677.00</ele>
        <time>2020-01-19T08:54:48Z</time>
      </trkpt>
      <trkpt lat="40.395606" lon="-3.784721">
        <ele>676.40</ele>
        <time>2020-01-19T08:54:54Z</time>
      </trkpt>
      <trkpt lat="40.395509" lon="-3.784979">
        <ele>677.20</ele>
        <time>2020-01-19T08:55:01Z</time>
      </trkpt>
      <trkpt lat="40.395420" lon="-3.785228">
        <ele>677.40</ele>
        <time>2020-01-19T08:55:07Z</time>
      </trkpt>
      <trkpt lat="40.395405" lon="-3.785286">
        <ele>677.40</ele>
        <time>2020-01-19T08:55:08Z</time>
      </trkpt>
      <trkpt lat="40.395399" lon="-3.785351">
        <ele>677.80</ele>
        <time>2020-01-19T08:55:09Z</time>
      </trkpt>
      <trkpt lat="40.395395" lon="-3.785490">
        <ele>677.80</ele>
        <time>2020-01-19T08:55:11Z</time>
      </trkpt>
      <trkpt lat="40.395386" lon="-3.785676">
        <ele>678.00</ele>
        <time>2020-01-19T08:55:14Z</time>
      </trkpt>
      <trkpt lat="40.395343" lon="-3.785843">
        <ele>677.80</ele>
        <time>2020-01-19T08:55:17Z</time>
      </trkpt>
      <trkpt lat="40.395247" lon="-3.786020">
        <ele>678.60</ele>
        <time>2020-01-19T08:55:21Z</time>
      </trkpt>
      <trkpt lat="40.395221" lon="-3.786056">
        <ele>679.00</ele>
        <time>2020-01-19T08:55:22Z</time>
      </trkpt>
      <trkpt lat="40.394997" lon="-3.786291">
        <ele>679.80</ele>
        <time>2020-01-19T08:55:29Z</time>
      </trkpt>
      <trkpt lat="40.394957" lon="-3.786319">
        <ele>680.00</ele>
        <time>2020-01-19T08:55:30Z</time>
      </trkpt>
      <trkpt lat="40.394825" lon="-3.786385">
        <ele>679.80</ele>
        <time>2020-01-19T08:55:33Z</time>
      </trkpt>
      <trkpt lat="40.394734" lon="-3.786411">
        <ele>679.80</ele>
        <time>2020-01-19T08:55:35Z</time>
      </trkpt>
      <trkpt lat="40.394618" lon="-3.786563">
        <ele>680.00</ele>
        <time>2020-01-19T08:55:39Z</time>
      </trkpt>
      <trkpt lat="40.394579" lon="-3.786722">
        <ele>679.80</ele>
        <time>2020-01-19T08:55:42Z</time>
      </trkpt>
      <trkpt lat="40.394555" lon="-3.786827">
        <ele>680.20</ele>
        <time>2020-01-19T08:55:44Z</time>
      </trkpt>
      <trkpt lat="40.394491" lon="-3.787131">
        <ele>680.80</ele>
        <time>2020-01-19T08:55:50Z</time>
      </trkpt>
      <trkpt lat="40.394474" lon="-3.787180">
        <ele>680.80</ele>
        <time>2020-01-19T08:55:51Z</time>
      </trkpt>
      <trkpt lat="40.394388" lon="-3.787429">
        <ele>681.00</ele>
        <time>2020-01-19T08:55:56Z</time>
      </trkpt>
      <trkpt lat="40.394314" lon="-3.787572">
        <ele>681.20</ele>
        <time>2020-01-19T08:55:59Z</time>
      </trkpt>
      <trkpt lat="40.394266" lon="-3.787680">
        <ele>680.80</ele>
        <time>2020-01-19T08:56:01Z</time>
      </trkpt>
      <trkpt lat="40.394220" lon="-3.787795">
        <ele>680.40</ele>
        <time>2020-01-19T08:56:03Z</time>
      </trkpt>
      <trkpt lat="40.394198" lon="-3.787846">
        <ele>680.20</ele>
        <time>2020-01-19T08:56:04Z</time>
      </trkpt>
      <trkpt lat="40.394117" lon="-3.788150">
        <ele>681.40</ele>
        <time>2020-01-19T08:56:10Z</time>
      </trkpt>
      <trkpt lat="40.394097" lon="-3.788305">
        <ele>680.80</ele>
        <time>2020-01-19T08:56:13Z</time>
      </trkpt>
      <trkpt lat="40.394080" lon="-3.788516">
        <ele>681.20</ele>
        <time>2020-01-19T08:56:17Z</time>
      </trkpt>
      <trkpt lat="40.394018" lon="-3.788667">
        <ele>681.80</ele>
        <time>2020-01-19T08:56:20Z</time>
      </trkpt>
      <trkpt lat="40.393931" lon="-3.788723">
        <ele>680.60</ele>
        <time>2020-01-19T08:56:22Z</time>
      </trkpt>
      <trkpt lat="40.393790" lon="-3.788759">
        <ele>679.40</ele>
        <time>2020-01-19T08:56:25Z</time>
      </trkpt>
      <trkpt lat="40.393752" lon="-3.788794">
        <ele>679.40</ele>
        <time>2020-01-19T08:56:26Z</time>
      </trkpt>
      <trkpt lat="40.393701" lon="-3.788964">
        <ele>678.40</ele>
        <time>2020-01-19T08:56:29Z</time>
      </trkpt>
      <trkpt lat="40.393693" lon="-3.789028">
        <ele>678.80</ele>
        <time>2020-01-19T08:56:30Z</time>
      </trkpt>
      <trkpt lat="40.393690" lon="-3.789095">
        <ele>678.40</ele>
        <time>2020-01-19T08:56:31Z</time>
      </trkpt>
      <trkpt lat="40.393725" lon="-3.789358">
        <ele>677.80</ele>
        <time>2020-01-19T08:56:35Z</time>
      </trkpt>
      <trkpt lat="40.393750" lon="-3.789485">
        <ele>677.60</ele>
        <time>2020-01-19T08:56:37Z</time>
      </trkpt>
      <trkpt lat="40.393794" lon="-3.789661">
        <ele>677.60</ele>
        <time>2020-01-19T08:56:40Z</time>
      </trkpt>
      <trkpt lat="40.393804" lon="-3.789722">
        <ele>677.80</ele>
        <time>2020-01-19T08:56:41Z</time>
      </trkpt>
      <trkpt lat="40.393800" lon="-3.789920">
        <ele>677.40</ele>
        <time>2020-01-19T08:56:44Z</time>
      </trkpt>
      <trkpt lat="40.393784" lon="-3.790114">
        <ele>677.60</ele>
        <time>2020-01-19T08:56:47Z</time>
      </trkpt>
      <trkpt lat="40.393772" lon="-3.790307">
        <ele>677.80</ele>
        <time>2020-01-19T08:56:50Z</time>
      </trkpt>
      <trkpt lat="40.393759" lon="-3.790373">
        <ele>678.00</ele>
        <time>2020-01-19T08:56:51Z</time>
      </trkpt>
      <trkpt lat="40.393718" lon="-3.790561">
        <ele>678.40</ele>
        <time>2020-01-19T08:56:54Z</time>
      </trkpt>
      <trkpt lat="40.393704" lon="-3.790689">
        <ele>678.20</ele>
        <time>2020-01-19T08:56:56Z</time>
      </trkpt>
      <trkpt lat="40.393708" lon="-3.790805">
        <ele>678.60</ele>
        <time>2020-01-19T08:56:58Z</time>
      </trkpt>
      <trkpt lat="40.393759" lon="-3.790888">
        <ele>678.60</ele>
        <time>2020-01-19T08:57:00Z</time>
      </trkpt>
      <trkpt lat="40.393919" lon="-3.790963">
        <ele>679.20</ele>
        <time>2020-01-19T08:57:04Z</time>
      </trkpt>
      <trkpt lat="40.393941" lon="-3.791116">
        <ele>678.40</ele>
        <time>2020-01-19T08:57:07Z</time>
      </trkpt>
      <trkpt lat="40.393899" lon="-3.791255">
        <ele>679.20</ele>
        <time>2020-01-19T08:57:10Z</time>
      </trkpt>
      <trkpt lat="40.393884" lon="-3.791292">
        <ele>679.60</ele>
        <time>2020-01-19T08:57:12Z</time>
      </trkpt>
      <trkpt lat="40.393812" lon="-3.791397">
        <ele>679.60</ele>
        <time>2020-01-19T08:57:18Z</time>
      </trkpt>
      <trkpt lat="40.393773" lon="-3.791459">
        <ele>678.40</ele>
        <time>2020-01-19T08:57:21Z</time>
      </trkpt>
      <trkpt lat="40.393735" lon="-3.791520">
        <ele>677.40</ele>
        <time>2020-01-19T08:57:23Z</time>
      </trkpt>
      <trkpt lat="40.393712" lon="-3.791549">
        <ele>677.00</ele>
        <time>2020-01-19T08:57:24Z</time>
      </trkpt>
      <trkpt lat="40.393675" lon="-3.791619">
        <ele>675.80</ele>
        <time>2020-01-19T08:57:26Z</time>
      </trkpt>
      <trkpt lat="40.393658" lon="-3.791684">
        <ele>674.40</ele>
        <time>2020-01-19T08:57:28Z</time>
      </trkpt>
      <trkpt lat="40.393587" lon="-3.791741">
        <ele>673.20</ele>
        <time>2020-01-19T08:57:32Z</time>
      </trkpt>
      <trkpt lat="40.393501" lon="-3.791730">
        <ele>671.80</ele>
        <time>2020-01-19T08:57:35Z</time>
      </trkpt>
      <trkpt lat="40.393465" lon="-3.791720">
        <ele>671.40</ele>
        <time>2020-01-19T08:57:36Z</time>
      </trkpt>
      <trkpt lat="40.393426" lon="-3.791702">
        <ele>670.60</ele>
        <time>2020-01-19T08:57:37Z</time>
      </trkpt>
      <trkpt lat="40.393367" lon="-3.791678">
        <ele>669.40</ele>
        <time>2020-01-19T08:57:39Z</time>
      </trkpt>
      <trkpt lat="40.393347" lon="-3.791669">
        <ele>670.00</ele>
        <time>2020-01-19T08:57:40Z</time>
      </trkpt>
      <trkpt lat="40.393250" lon="-3.791630">
        <ele>670.60</ele>
        <time>2020-01-19T08:57:44Z</time>
      </trkpt>
      <trkpt lat="40.393225" lon="-3.791627">
        <ele>670.80</ele>
        <time>2020-01-19T08:57:45Z</time>
      </trkpt>
      <trkpt lat="40.393112" lon="-3.791568">
        <ele>671.20</ele>
        <time>2020-01-19T08:57:49Z</time>
      </trkpt>
      <trkpt lat="40.393082" lon="-3.791565">
        <ele>671.80</ele>
        <time>2020-01-19T08:57:50Z</time>
      </trkpt>
      <trkpt lat="40.393026" lon="-3.791578">
        <ele>672.80</ele>
        <time>2020-01-19T08:57:52Z</time>
      </trkpt>
      <trkpt lat="40.393004" lon="-3.791600">
        <ele>673.00</ele>
        <time>2020-01-19T08:57:53Z</time>
      </trkpt>
      <trkpt lat="40.392945" lon="-3.791702">
        <ele>673.80</ele>
        <time>2020-01-19T08:57:58Z</time>
      </trkpt>
      <trkpt lat="40.392935" lon="-3.791716">
        <ele>674.00</ele>
        <time>2020-01-19T08:57:59Z</time>
      </trkpt>
      <trkpt lat="40.392902" lon="-3.791778">
        <ele>674.40</ele>
        <time>2020-01-19T08:58:13Z</time>
      </trkpt>
      <trkpt lat="40.392910" lon="-3.791944">
        <ele>674.20</ele>
        <time>2020-01-19T08:58:18Z</time>
      </trkpt>
      <trkpt lat="40.392918" lon="-3.791982">
        <ele>674.20</ele>
        <time>2020-01-19T08:58:19Z</time>
      </trkpt>
      <trkpt lat="40.392932" lon="-3.792275">
        <ele>674.20</ele>
        <time>2020-01-19T08:58:25Z</time>
      </trkpt>
      <trkpt lat="40.392927" lon="-3.792677">
        <ele>674.20</ele>
        <time>2020-01-19T08:58:33Z</time>
      </trkpt>
      <trkpt lat="40.392960" lon="-3.792984">
        <ele>675.00</ele>
        <time>2020-01-19T08:58:39Z</time>
      </trkpt>
      <trkpt lat="40.392954" lon="-3.793038">
        <ele>675.00</ele>
        <time>2020-01-19T08:58:40Z</time>
      </trkpt>
      <trkpt lat="40.392937" lon="-3.793143">
        <ele>674.60</ele>
        <time>2020-01-19T08:58:42Z</time>
      </trkpt>
      <trkpt lat="40.392880" lon="-3.793297">
        <ele>675.40</ele>
        <time>2020-01-19T08:58:46Z</time>
      </trkpt>
      <trkpt lat="40.392768" lon="-3.793352">
        <ele>676.20</ele>
        <time>2020-01-19T08:58:50Z</time>
      </trkpt>
      <trkpt lat="40.392719" lon="-3.793336">
        <ele>677.40</ele>
        <time>2020-01-19T08:58:52Z</time>
      </trkpt>
      <trkpt lat="40.392666" lon="-3.793292">
        <ele>678.20</ele>
        <time>2020-01-19T08:58:54Z</time>
      </trkpt>
      <trkpt lat="40.392607" lon="-3.793238">
        <ele>678.60</ele>
        <time>2020-01-19T08:58:56Z</time>
      </trkpt>
      <trkpt lat="40.392466" lon="-3.793181">
        <ele>679.60</ele>
        <time>2020-01-19T08:59:00Z</time>
      </trkpt>
      <trkpt lat="40.392274" lon="-3.793189">
        <ele>680.20</ele>
        <time>2020-01-19T08:59:05Z</time>
      </trkpt>
      <trkpt lat="40.392188" lon="-3.793204">
        <ele>680.60</ele>
        <time>2020-01-19T08:59:07Z</time>
      </trkpt>
      <trkpt lat="40.392047" lon="-3.793237">
        <ele>680.80</ele>
        <time>2020-01-19T08:59:10Z</time>
      </trkpt>
      <trkpt lat="40.391829" lon="-3.793290">
        <ele>681.20</ele>
        <time>2020-01-19T08:59:15Z</time>
      </trkpt>
      <trkpt lat="40.391790" lon="-3.793307">
        <ele>681.40</ele>
        <time>2020-01-19T08:59:16Z</time>
      </trkpt>
      <trkpt lat="40.391712" lon="-3.793342">
        <ele>681.60</ele>
        <time>2020-01-19T08:59:18Z</time>
      </trkpt>
      <trkpt lat="40.391671" lon="-3.793356">
        <ele>681.60</ele>
        <time>2020-01-19T08:59:19Z</time>
      </trkpt>
      <trkpt lat="40.391478" lon="-3.793453">
        <ele>682.00</ele>
        <time>2020-01-19T08:59:24Z</time>
      </trkpt>
      <trkpt lat="40.391314" lon="-3.793536">
        <ele>682.60</ele>
        <time>2020-01-19T08:59:29Z</time>
      </trkpt>
      <trkpt lat="40.391097" lon="-3.793646">
        <ele>683.80</ele>
        <time>2020-01-19T08:59:36Z</time>
      </trkpt>
      <trkpt lat="40.390871" lon="-3.793773">
        <ele>683.20</ele>
        <time>2020-01-19T08:59:43Z</time>
      </trkpt>
      <trkpt lat="40.390712" lon="-3.793942">
        <ele>683.00</ele>
        <time>2020-01-19T08:59:49Z</time>
      </trkpt>
      <trkpt lat="40.390669" lon="-3.794175">
        <ele>682.60</ele>
        <time>2020-01-19T08:59:54Z</time>
      </trkpt>
      <trkpt lat="40.390590" lon="-3.794586">
        <ele>682.20</ele>
        <time>2020-01-19T09:00:01Z</time>
      </trkpt>
      <trkpt lat="40.390532" lon="-3.794737">
        <ele>679.60</ele>
        <time>2020-01-19T09:00:03Z</time>
      </trkpt>
      <trkpt lat="40.390462" lon="-3.794953">
        <ele>679.60</ele>
        <time>2020-01-19T09:00:06Z</time>
      </trkpt>
      <trkpt lat="40.390437" lon="-3.795016">
        <ele>679.80</ele>
        <time>2020-01-19T09:00:07Z</time>
      </trkpt>
      <trkpt lat="40.390392" lon="-3.795116">
        <ele>681.00</ele>
        <time>2020-01-19T09:00:09Z</time>
      </trkpt>
      <trkpt lat="40.390348" lon="-3.795200">
        <ele>682.00</ele>
        <time>2020-01-19T09:00:11Z</time>
      </trkpt>
      <trkpt lat="40.390323" lon="-3.795235">
        <ele>682.20</ele>
        <time>2020-01-19T09:00:12Z</time>
      </trkpt>
      <trkpt lat="40.390264" lon="-3.795342">
        <ele>683.00</ele>
        <time>2020-01-19T09:00:15Z</time>
      </trkpt>
      <trkpt lat="40.390231" lon="-3.795425">
        <ele>683.40</ele>
        <time>2020-01-19T09:00:17Z</time>
      </trkpt>
      <trkpt lat="40.390144" lon="-3.795705">
        <ele>683.60</ele>
        <time>2020-01-19T09:00:23Z</time>
      </trkpt>
      <trkpt lat="40.390074" lon="-3.795894">
        <ele>684.00</ele>
        <time>2020-01-19T09:00:27Z</time>
      </trkpt>
      <trkpt lat="40.390059" lon="-3.795944">
        <ele>684.00</ele>
        <time>2020-01-19T09:00:28Z</time>
      </trkpt>
      <trkpt lat="40.390032" lon="-3.796046">
        <ele>684.20</ele>
        <time>2020-01-19T09:00:30Z</time>
      </trkpt>
      <trkpt lat="40.389897" lon="-3.796406">
        <ele>684.20</ele>
        <time>2020-01-19T09:00:37Z</time>
      </trkpt>
      <trkpt lat="40.389661" lon="-3.796902">
        <ele>684.40</ele>
        <time>2020-01-19T09:00:47Z</time>
      </trkpt>
      <trkpt lat="40.389544" lon="-3.797133">
        <ele>685.40</ele>
        <time>2020-01-19T09:00:52Z</time>
      </trkpt>
      <trkpt lat="40.389441" lon="-3.797360">
        <ele>685.20</ele>
        <time>2020-01-19T09:00:57Z</time>
      </trkpt>
      <trkpt lat="40.389427" lon="-3.797411">
        <ele>685.20</ele>
        <time>2020-01-19T09:00:58Z</time>
      </trkpt>
      <trkpt lat="40.389337" lon="-3.797706">
        <ele>685.40</ele>
        <time>2020-01-19T09:01:04Z</time>
      </trkpt>
      <trkpt lat="40.389321" lon="-3.797903">
        <ele>686.00</ele>
        <time>2020-01-19T09:01:08Z</time>
      </trkpt>
      <trkpt lat="40.389333" lon="-3.797994">
        <ele>686.40</ele>
        <time>2020-01-19T09:01:10Z</time>
      </trkpt>
      <trkpt lat="40.389345" lon="-3.798175">
        <ele>687.00</ele>
        <time>2020-01-19T09:01:14Z</time>
      </trkpt>
      <trkpt lat="40.389355" lon="-3.798222">
        <ele>687.60</ele>
        <time>2020-01-19T09:01:15Z</time>
      </trkpt>
      <trkpt lat="40.389412" lon="-3.798382">
        <ele>688.00</ele>
        <time>2020-01-19T09:01:19Z</time>
      </trkpt>
      <trkpt lat="40.389447" lon="-3.798530">
        <ele>688.40</ele>
        <time>2020-01-19T09:01:22Z</time>
      </trkpt>
      <trkpt lat="40.389455" lon="-3.798675">
        <ele>688.60</ele>
        <time>2020-01-19T09:01:25Z</time>
      </trkpt>
      <trkpt lat="40.389453" lon="-3.798723">
        <ele>688.80</ele>
        <time>2020-01-19T09:01:26Z</time>
      </trkpt>
      <trkpt lat="40.389441" lon="-3.799005">
        <ele>689.40</ele>
        <time>2020-01-19T09:01:32Z</time>
      </trkpt>
      <trkpt lat="40.389417" lon="-3.799301">
        <ele>690.00</ele>
        <time>2020-01-19T09:01:38Z</time>
      </trkpt>
      <trkpt lat="40.389401" lon="-3.799397">
        <ele>690.00</ele>
        <time>2020-01-19T09:01:40Z</time>
      </trkpt>
      <trkpt lat="40.389332" lon="-3.799821">
        <ele>690.80</ele>
        <time>2020-01-19T09:01:49Z</time>
      </trkpt>
      <trkpt lat="40.389301" lon="-3.800072">
        <ele>691.00</ele>
        <time>2020-01-19T09:01:54Z</time>
      </trkpt>
      <trkpt lat="40.389286" lon="-3.800225">
        <ele>691.00</ele>
        <time>2020-01-19T09:01:57Z</time>
      </trkpt>
      <trkpt lat="40.389232" lon="-3.800700">
        <ele>691.60</ele>
        <time>2020-01-19T09:02:06Z</time>
      </trkpt>
      <trkpt lat="40.389191" lon="-3.801161">
        <ele>692.00</ele>
        <time>2020-01-19T09:02:15Z</time>
      </trkpt>
      <trkpt lat="40.389184" lon="-3.801262">
        <ele>692.20</ele>
        <time>2020-01-19T09:02:17Z</time>
      </trkpt>
      <trkpt lat="40.389149" lon="-3.801566">
        <ele>692.80</ele>
        <time>2020-01-19T09:02:23Z</time>
      </trkpt>
      <trkpt lat="40.389107" lon="-3.801918">
        <ele>693.20</ele>
        <time>2020-01-19T09:02:30Z</time>
      </trkpt>
      <trkpt lat="40.389099" lon="-3.801967">
        <ele>693.40</ele>
        <time>2020-01-19T09:02:31Z</time>
      </trkpt>
      <trkpt lat="40.389072" lon="-3.802217">
        <ele>694.60</ele>
        <time>2020-01-19T09:02:36Z</time>
      </trkpt>
      <trkpt lat="40.389057" lon="-3.802314">
        <ele>694.80</ele>
        <time>2020-01-19T09:02:38Z</time>
      </trkpt>
      <trkpt lat="40.389016" lon="-3.802740">
        <ele>695.20</ele>
        <time>2020-01-19T09:02:47Z</time>
      </trkpt>
      <trkpt lat="40.389010" lon="-3.802832">
        <ele>696.00</ele>
        <time>2020-01-19T09:02:49Z</time>
      </trkpt>
      <trkpt lat="40.388981" lon="-3.803004">
        <ele>697.00</ele>
        <time>2020-01-19T09:02:53Z</time>
      </trkpt>
      <trkpt lat="40.388979" lon="-3.803046">
        <ele>697.20</ele>
        <time>2020-01-19T09:02:54Z</time>
      </trkpt>
      <trkpt lat="40.388953" lon="-3.803344">
        <ele>698.00</ele>
        <time>2020-01-19T09:03:01Z</time>
      </trkpt>
      <trkpt lat="40.388953" lon="-3.803385">
        <ele>698.20</ele>
        <time>2020-01-19T09:03:02Z</time>
      </trkpt>
      <trkpt lat="40.388929" lon="-3.803607">
        <ele>698.80</ele>
        <time>2020-01-19T09:03:07Z</time>
      </trkpt>
      <trkpt lat="40.388900" lon="-3.803764">
        <ele>699.20</ele>
        <time>2020-01-19T09:03:11Z</time>
      </trkpt>
      <trkpt lat="40.388887" lon="-3.803851">
        <ele>699.60</ele>
        <time>2020-01-19T09:03:13Z</time>
      </trkpt>
      <trkpt lat="40.388876" lon="-3.804064">
        <ele>700.20</ele>
        <time>2020-01-19T09:03:18Z</time>
      </trkpt>
      <trkpt lat="40.388872" lon="-3.804104">
        <ele>700.60</ele>
        <time>2020-01-19T09:03:19Z</time>
      </trkpt>
      <trkpt lat="40.388858" lon="-3.804272">
        <ele>701.40</ele>
        <time>2020-01-19T09:03:23Z</time>
      </trkpt>
      <trkpt lat="40.388838" lon="-3.804389">
        <ele>702.60</ele>
        <time>2020-01-19T09:03:26Z</time>
      </trkpt>
      <trkpt lat="40.388821" lon="-3.804584">
        <ele>702.80</ele>
        <time>2020-01-19T09:03:31Z</time>
      </trkpt>
      <trkpt lat="40.388807" lon="-3.804668">
        <ele>703.80</ele>
        <time>2020-01-19T09:03:33Z</time>
      </trkpt>
      <trkpt lat="40.388800" lon="-3.804846">
        <ele>704.80</ele>
        <time>2020-01-19T09:03:37Z</time>
      </trkpt>
      <trkpt lat="40.388777" lon="-3.805150">
        <ele>705.20</ele>
        <time>2020-01-19T09:03:44Z</time>
      </trkpt>
      <trkpt lat="40.388735" lon="-3.805480">
        <ele>705.80</ele>
        <time>2020-01-19T09:03:51Z</time>
      </trkpt>
      <trkpt lat="40.388701" lon="-3.805733">
        <ele>706.20</ele>
        <time>2020-01-19T09:03:57Z</time>
      </trkpt>
      <trkpt lat="40.388684" lon="-3.805864">
        <ele>707.00</ele>
        <time>2020-01-19T09:04:00Z</time>
      </trkpt>
      <trkpt lat="40.388656" lon="-3.806055">
        <ele>707.00</ele>
        <time>2020-01-19T09:04:04Z</time>
      </trkpt>
      <trkpt lat="40.388579" lon="-3.806392">
        <ele>707.40</ele>
        <time>2020-01-19T09:04:11Z</time>
      </trkpt>
      <trkpt lat="40.388439" lon="-3.806830">
        <ele>707.20</ele>
        <time>2020-01-19T09:04:20Z</time>
      </trkpt>
      <trkpt lat="40.388239" lon="-3.807337">
        <ele>707.20</ele>
        <time>2020-01-19T09:04:30Z</time>
      </trkpt>
      <trkpt lat="40.387978" lon="-3.807923">
        <ele>707.20</ele>
        <time>2020-01-19T09:04:42Z</time>
      </trkpt>
      <trkpt lat="40.387772" lon="-3.808379">
        <ele>707.20</ele>
        <time>2020-01-19T09:04:51Z</time>
      </trkpt>
      <trkpt lat="40.387521" lon="-3.808948">
        <ele>707.80</ele>
        <time>2020-01-19T09:05:02Z</time>
      </trkpt>
      <trkpt lat="40.387385" lon="-3.809266">
        <ele>708.00</ele>
        <time>2020-01-19T09:05:08Z</time>
      </trkpt>
      <trkpt lat="40.387270" lon="-3.809533">
        <ele>708.20</ele>
        <time>2020-01-19T09:05:13Z</time>
      </trkpt>
      <trkpt lat="40.387073" lon="-3.809965">
        <ele>707.80</ele>
        <time>2020-01-19T09:05:21Z</time>
      </trkpt>
      <trkpt lat="40.386833" lon="-3.810494">
        <ele>708.00</ele>
        <time>2020-01-19T09:05:31Z</time>
      </trkpt>
      <trkpt lat="40.386603" lon="-3.811015">
        <ele>707.60</ele>
        <time>2020-01-19T09:05:41Z</time>
      </trkpt>
      <trkpt lat="40.386469" lon="-3.811330">
        <ele>707.00</ele>
        <time>2020-01-19T09:05:47Z</time>
      </trkpt>
      <trkpt lat="40.386420" lon="-3.811437">
        <ele>706.80</ele>
        <time>2020-01-19T09:05:49Z</time>
      </trkpt>
      <trkpt lat="40.386229" lon="-3.811886">
        <ele>707.80</ele>
        <time>2020-01-19T09:05:58Z</time>
      </trkpt>
      <trkpt lat="40.386192" lon="-3.811991">
        <ele>707.80</ele>
        <time>2020-01-19T09:06:00Z</time>
      </trkpt>
      <trkpt lat="40.386112" lon="-3.812132">
        <ele>708.00</ele>
        <time>2020-01-19T09:06:03Z</time>
      </trkpt>
      <trkpt lat="40.386007" lon="-3.812376">
        <ele>709.20</ele>
        <time>2020-01-19T09:06:08Z</time>
      </trkpt>
      <trkpt lat="40.385984" lon="-3.812423">
        <ele>708.60</ele>
        <time>2020-01-19T09:06:09Z</time>
      </trkpt>
      <trkpt lat="40.385962" lon="-3.812468">
        <ele>708.20</ele>
        <time>2020-01-19T09:06:10Z</time>
      </trkpt>
      <trkpt lat="40.385801" lon="-3.812830">
        <ele>709.00</ele>
        <time>2020-01-19T09:06:18Z</time>
      </trkpt>
      <trkpt lat="40.385784" lon="-3.812873">
        <ele>709.40</ele>
        <time>2020-01-19T09:06:19Z</time>
      </trkpt>
      <trkpt lat="40.385655" lon="-3.813183">
        <ele>710.60</ele>
        <time>2020-01-19T09:06:26Z</time>
      </trkpt>
      <trkpt lat="40.385564" lon="-3.813331">
        <ele>711.60</ele>
        <time>2020-01-19T09:06:30Z</time>
      </trkpt>
      <trkpt lat="40.385544" lon="-3.813372">
        <ele>711.80</ele>
        <time>2020-01-19T09:06:31Z</time>
      </trkpt>
      <trkpt lat="40.385453" lon="-3.813591">
        <ele>713.00</ele>
        <time>2020-01-19T09:06:36Z</time>
      </trkpt>
      <trkpt lat="40.385415" lon="-3.813677">
        <ele>713.20</ele>
        <time>2020-01-19T09:06:38Z</time>
      </trkpt>
      <trkpt lat="40.385305" lon="-3.813904">
        <ele>714.00</ele>
        <time>2020-01-19T09:06:44Z</time>
      </trkpt>
      <trkpt lat="40.385291" lon="-3.813950">
        <ele>714.20</ele>
        <time>2020-01-19T09:06:45Z</time>
      </trkpt>
      <trkpt lat="40.385133" lon="-3.814301">
        <ele>714.80</ele>
        <time>2020-01-19T09:06:53Z</time>
      </trkpt>
      <trkpt lat="40.385096" lon="-3.814393">
        <ele>715.00</ele>
        <time>2020-01-19T09:06:55Z</time>
      </trkpt>
      <trkpt lat="40.384980" lon="-3.814680">
        <ele>715.20</ele>
        <time>2020-01-19T09:07:01Z</time>
      </trkpt>
      <trkpt lat="40.384785" lon="-3.815175">
        <ele>715.80</ele>
        <time>2020-01-19T09:07:11Z</time>
      </trkpt>
      <trkpt lat="40.384748" lon="-3.815278">
        <ele>716.00</ele>
        <time>2020-01-19T09:07:13Z</time>
      </trkpt>
      <trkpt lat="40.384700" lon="-3.815481">
        <ele>716.80</ele>
        <time>2020-01-19T09:07:17Z</time>
      </trkpt>
      <trkpt lat="40.384693" lon="-3.815530">
        <ele>716.80</ele>
        <time>2020-01-19T09:07:18Z</time>
      </trkpt>
      <trkpt lat="40.384686" lon="-3.815579">
        <ele>717.00</ele>
        <time>2020-01-19T09:07:19Z</time>
      </trkpt>
      <trkpt lat="40.384643" lon="-3.815776">
        <ele>718.20</ele>
        <time>2020-01-19T09:07:23Z</time>
      </trkpt>
      <trkpt lat="40.384592" lon="-3.815974">
        <ele>718.00</ele>
        <time>2020-01-19T09:07:27Z</time>
      </trkpt>
      <trkpt lat="40.384463" lon="-3.816546">
        <ele>719.00</ele>
        <time>2020-01-19T09:07:38Z</time>
      </trkpt>
      <trkpt lat="40.384445" lon="-3.816658">
        <ele>719.20</ele>
        <time>2020-01-19T09:07:40Z</time>
      </trkpt>
      <trkpt lat="40.384422" lon="-3.816771">
        <ele>719.00</ele>
        <time>2020-01-19T09:07:42Z</time>
      </trkpt>
      <trkpt lat="40.384387" lon="-3.816879">
        <ele>718.60</ele>
        <time>2020-01-19T09:07:44Z</time>
      </trkpt>
      <trkpt lat="40.384363" lon="-3.816930">
        <ele>719.00</ele>
        <time>2020-01-19T09:07:45Z</time>
      </trkpt>
      <trkpt lat="40.384247" lon="-3.817263">
        <ele>719.00</ele>
        <time>2020-01-19T09:07:51Z</time>
      </trkpt>
      <trkpt lat="40.384238" lon="-3.817322">
        <ele>718.80</ele>
        <time>2020-01-19T09:07:52Z</time>
      </trkpt>
      <trkpt lat="40.384173" lon="-3.817789">
        <ele>719.20</ele>
        <time>2020-01-19T09:08:00Z</time>
      </trkpt>
      <trkpt lat="40.384099" lon="-3.818158">
        <ele>719.80</ele>
        <time>2020-01-19T09:08:07Z</time>
      </trkpt>
      <trkpt lat="40.384046" lon="-3.818380">
        <ele>719.40</ele>
        <time>2020-01-19T09:08:11Z</time>
      </trkpt>
      <trkpt lat="40.384041" lon="-3.818493">
        <ele>719.80</ele>
        <time>2020-01-19T09:08:13Z</time>
      </trkpt>
      <trkpt lat="40.384032" lon="-3.818609">
        <ele>719.60</ele>
        <time>2020-01-19T09:08:15Z</time>
      </trkpt>
      <trkpt lat="40.384037" lon="-3.818714">
        <ele>719.20</ele>
        <time>2020-01-19T09:08:17Z</time>
      </trkpt>
      <trkpt lat="40.384060" lon="-3.818820">
        <ele>719.40</ele>
        <time>2020-01-19T09:08:19Z</time>
      </trkpt>
      <trkpt lat="40.384059" lon="-3.819100">
        <ele>718.80</ele>
        <time>2020-01-19T09:08:24Z</time>
      </trkpt>
      <trkpt lat="40.384019" lon="-3.819219">
        <ele>718.20</ele>
        <time>2020-01-19T09:08:26Z</time>
      </trkpt>
      <trkpt lat="40.383948" lon="-3.819320">
        <ele>716.60</ele>
        <time>2020-01-19T09:08:28Z</time>
      </trkpt>
      <trkpt lat="40.383913" lon="-3.819367">
        <ele>716.80</ele>
        <time>2020-01-19T09:08:29Z</time>
      </trkpt>
      <trkpt lat="40.383871" lon="-3.819411">
        <ele>716.80</ele>
        <time>2020-01-19T09:08:30Z</time>
      </trkpt>
      <trkpt lat="40.383722" lon="-3.819566">
        <ele>716.00</ele>
        <time>2020-01-19T09:08:34Z</time>
      </trkpt>
      <trkpt lat="40.383551" lon="-3.819622">
        <ele>717.20</ele>
        <time>2020-01-19T09:08:38Z</time>
      </trkpt>
      <trkpt lat="40.383454" lon="-3.819631">
        <ele>717.60</ele>
        <time>2020-01-19T09:08:40Z</time>
      </trkpt>
      <trkpt lat="40.383391" lon="-3.819629">
        <ele>717.80</ele>
        <time>2020-01-19T09:08:41Z</time>
      </trkpt>
      <trkpt lat="40.383279" lon="-3.819630">
        <ele>718.00</ele>
        <time>2020-01-19T09:08:43Z</time>
      </trkpt>
      <trkpt lat="40.383137" lon="-3.819616">
        <ele>718.60</ele>
        <time>2020-01-19T09:08:47Z</time>
      </trkpt>
      <trkpt lat="40.383044" lon="-3.819640">
        <ele>719.00</ele>
        <time>2020-01-19T09:08:50Z</time>
      </trkpt>
      <trkpt lat="40.382943" lon="-3.819686">
        <ele>719.40</ele>
        <time>2020-01-19T09:08:53Z</time>
      </trkpt>
      <trkpt lat="40.382841" lon="-3.819828">
        <ele>719.40</ele>
        <time>2020-01-19T09:08:57Z</time>
      </trkpt>
      <trkpt lat="40.382719" lon="-3.820130">
        <ele>720.00</ele>
        <time>2020-01-19T09:09:03Z</time>
      </trkpt>
      <trkpt lat="40.382633" lon="-3.820483">
        <ele>720.40</ele>
        <time>2020-01-19T09:09:10Z</time>
      </trkpt>
      <trkpt lat="40.382607" lon="-3.820584">
        <ele>720.80</ele>
        <time>2020-01-19T09:09:12Z</time>
      </trkpt>
      <trkpt lat="40.382569" lon="-3.820794">
        <ele>720.80</ele>
        <time>2020-01-19T09:09:16Z</time>
      </trkpt>
      <trkpt lat="40.382546" lon="-3.820893">
        <ele>721.20</ele>
        <time>2020-01-19T09:09:18Z</time>
      </trkpt>
      <trkpt lat="40.382502" lon="-3.821085">
        <ele>722.20</ele>
        <time>2020-01-19T09:09:22Z</time>
      </trkpt>
      <trkpt lat="40.382490" lon="-3.821143">
        <ele>722.00</ele>
        <time>2020-01-19T09:09:23Z</time>
      </trkpt>
      <trkpt lat="40.382437" lon="-3.821305">
        <ele>722.20</ele>
        <time>2020-01-19T09:09:26Z</time>
      </trkpt>
      <trkpt lat="40.382372" lon="-3.821377">
        <ele>722.40</ele>
        <time>2020-01-19T09:09:28Z</time>
      </trkpt>
      <trkpt lat="40.382291" lon="-3.821423">
        <ele>722.20</ele>
        <time>2020-01-19T09:09:30Z</time>
      </trkpt>
      <trkpt lat="40.382235" lon="-3.821493">
        <ele>722.40</ele>
        <time>2020-01-19T09:09:32Z</time>
      </trkpt>
      <trkpt lat="40.382080" lon="-3.821742">
        <ele>722.80</ele>
        <time>2020-01-19T09:09:38Z</time>
      </trkpt>
      <trkpt lat="40.382034" lon="-3.821837">
        <ele>722.80</ele>
        <time>2020-01-19T09:09:40Z</time>
      </trkpt>
      <trkpt lat="40.381956" lon="-3.821975">
        <ele>722.80</ele>
        <time>2020-01-19T09:09:43Z</time>
      </trkpt>
      <trkpt lat="40.381864" lon="-3.822098">
        <ele>723.00</ele>
        <time>2020-01-19T09:09:46Z</time>
      </trkpt>
      <trkpt lat="40.381756" lon="-3.822296">
        <ele>722.20</ele>
        <time>2020-01-19T09:09:50Z</time>
      </trkpt>
      <trkpt lat="40.381687" lon="-3.822401">
        <ele>721.80</ele>
        <time>2020-01-19T09:09:52Z</time>
      </trkpt>
      <trkpt lat="40.381628" lon="-3.822520">
        <ele>721.60</ele>
        <time>2020-01-19T09:09:54Z</time>
      </trkpt>
      <trkpt lat="40.381600" lon="-3.822650">
        <ele>721.60</ele>
        <time>2020-01-19T09:09:56Z</time>
      </trkpt>
      <trkpt lat="40.381526" lon="-3.822822">
        <ele>721.80</ele>
        <time>2020-01-19T09:09:59Z</time>
      </trkpt>
      <trkpt lat="40.381488" lon="-3.822933">
        <ele>721.60</ele>
        <time>2020-01-19T09:10:01Z</time>
      </trkpt>
      <trkpt lat="40.381464" lon="-3.822984">
        <ele>721.80</ele>
        <time>2020-01-19T09:10:02Z</time>
      </trkpt>
      <trkpt lat="40.381390" lon="-3.823135">
        <ele>721.40</ele>
        <time>2020-01-19T09:10:05Z</time>
      </trkpt>
      <trkpt lat="40.381377" lon="-3.823197">
        <ele>721.00</ele>
        <time>2020-01-19T09:10:06Z</time>
      </trkpt>
      <trkpt lat="40.381407" lon="-3.823448">
        <ele>719.80</ele>
        <time>2020-01-19T09:10:10Z</time>
      </trkpt>
      <trkpt lat="40.381506" lon="-3.823567">
        <ele>718.60</ele>
        <time>2020-01-19T09:10:13Z</time>
      </trkpt>
      <trkpt lat="40.381543" lon="-3.823595">
        <ele>718.20</ele>
        <time>2020-01-19T09:10:14Z</time>
      </trkpt>
      <trkpt lat="40.381662" lon="-3.823642">
        <ele>718.60</ele>
        <time>2020-01-19T09:10:17Z</time>
      </trkpt>
      <trkpt lat="40.381736" lon="-3.823665">
        <ele>718.60</ele>
        <time>2020-01-19T09:10:19Z</time>
      </trkpt>
      <trkpt lat="40.381940" lon="-3.823738">
        <ele>719.60</ele>
        <time>2020-01-19T09:10:25Z</time>
      </trkpt>
      <trkpt lat="40.382190" lon="-3.823831">
        <ele>720.00</ele>
        <time>2020-01-19T09:10:32Z</time>
      </trkpt>
      <trkpt lat="40.382367" lon="-3.823845">
        <ele>721.40</ele>
        <time>2020-01-19T09:10:37Z</time>
      </trkpt>
      <trkpt lat="40.382479" lon="-3.823895">
        <ele>722.20</ele>
        <time>2020-01-19T09:10:40Z</time>
      </trkpt>
      <trkpt lat="40.382517" lon="-3.823919">
        <ele>722.40</ele>
        <time>2020-01-19T09:10:41Z</time>
      </trkpt>
      <trkpt lat="40.382590" lon="-3.823979">
        <ele>722.20</ele>
        <time>2020-01-19T09:10:43Z</time>
      </trkpt>
      <trkpt lat="40.382883" lon="-3.824239">
        <ele>722.60</ele>
        <time>2020-01-19T09:10:52Z</time>
      </trkpt>
      <trkpt lat="40.383079" lon="-3.824410">
        <ele>723.00</ele>
        <time>2020-01-19T09:10:58Z</time>
      </trkpt>
      <trkpt lat="40.383248" lon="-3.824542">
        <ele>722.80</ele>
        <time>2020-01-19T09:11:03Z</time>
      </trkpt>
      <trkpt lat="40.383391" lon="-3.824633">
        <ele>723.40</ele>
        <time>2020-01-19T09:11:07Z</time>
      </trkpt>
      <trkpt lat="40.383456" lon="-3.824678">
        <ele>723.40</ele>
        <time>2020-01-19T09:11:09Z</time>
      </trkpt>
      <trkpt lat="40.383684" lon="-3.824871">
        <ele>724.20</ele>
        <time>2020-01-19T09:11:16Z</time>
      </trkpt>
      <trkpt lat="40.383740" lon="-3.824934">
        <ele>724.60</ele>
        <time>2020-01-19T09:11:18Z</time>
      </trkpt>
      <trkpt lat="40.383792" lon="-3.825007">
        <ele>724.40</ele>
        <time>2020-01-19T09:11:20Z</time>
      </trkpt>
      <trkpt lat="40.383923" lon="-3.825092">
        <ele>723.80</ele>
        <time>2020-01-19T09:11:24Z</time>
      </trkpt>
      <trkpt lat="40.384124" lon="-3.825238">
        <ele>724.80</ele>
        <time>2020-01-19T09:11:30Z</time>
      </trkpt>
      <trkpt lat="40.384402" lon="-3.825415">
        <ele>724.40</ele>
        <time>2020-01-19T09:11:38Z</time>
      </trkpt>
      <trkpt lat="40.384623" lon="-3.825521">
        <ele>725.40</ele>
        <time>2020-01-19T09:11:44Z</time>
      </trkpt>
      <trkpt lat="40.384660" lon="-3.825540">
        <ele>725.60</ele>
        <time>2020-01-19T09:11:45Z</time>
      </trkpt>
      <trkpt lat="40.384949" lon="-3.825748">
        <ele>725.60</ele>
        <time>2020-01-19T09:11:53Z</time>
      </trkpt>
      <trkpt lat="40.385203" lon="-3.825987">
        <ele>725.40</ele>
        <time>2020-01-19T09:12:01Z</time>
      </trkpt>
      <trkpt lat="40.385319" lon="-3.826068">
        <ele>725.80</ele>
        <time>2020-01-19T09:12:04Z</time>
      </trkpt>
      <trkpt lat="40.385389" lon="-3.826135">
        <ele>726.00</ele>
        <time>2020-01-19T09:12:06Z</time>
      </trkpt>
      <trkpt lat="40.385408" lon="-3.826181">
        <ele>726.00</ele>
        <time>2020-01-19T09:12:07Z</time>
      </trkpt>
      <trkpt lat="40.385454" lon="-3.826269">
        <ele>726.20</ele>
        <time>2020-01-19T09:12:09Z</time>
      </trkpt>
      <trkpt lat="40.385569" lon="-3.826410">
        <ele>725.80</ele>
        <time>2020-01-19T09:12:13Z</time>
      </trkpt>
      <trkpt lat="40.385634" lon="-3.826473">
        <ele>725.60</ele>
        <time>2020-01-19T09:12:15Z</time>
      </trkpt>
      <trkpt lat="40.385730" lon="-3.826583">
        <ele>725.60</ele>
        <time>2020-01-19T09:12:18Z</time>
      </trkpt>
      <trkpt lat="40.385761" lon="-3.826620">
        <ele>725.80</ele>
        <time>2020-01-19T09:12:19Z</time>
      </trkpt>
      <trkpt lat="40.385828" lon="-3.826681">
        <ele>725.60</ele>
        <time>2020-01-19T09:12:21Z</time>
      </trkpt>
      <trkpt lat="40.385974" lon="-3.826799">
        <ele>725.80</ele>
        <time>2020-01-19T09:12:25Z</time>
      </trkpt>
      <trkpt lat="40.386040" lon="-3.826874">
        <ele>726.00</ele>
        <time>2020-01-19T09:12:27Z</time>
      </trkpt>
      <trkpt lat="40.386167" lon="-3.827037">
        <ele>726.20</ele>
        <time>2020-01-19T09:12:31Z</time>
      </trkpt>
      <trkpt lat="40.386411" lon="-3.827270">
        <ele>726.40</ele>
        <time>2020-01-19T09:12:38Z</time>
      </trkpt>
      <trkpt lat="40.386517" lon="-3.827376">
        <ele>726.80</ele>
        <time>2020-01-19T09:12:41Z</time>
      </trkpt>
      <trkpt lat="40.386652" lon="-3.827512">
        <ele>725.60</ele>
        <time>2020-01-19T09:12:45Z</time>
      </trkpt>
      <trkpt lat="40.386721" lon="-3.827577">
        <ele>726.40</ele>
        <time>2020-01-19T09:12:47Z</time>
      </trkpt>
      <trkpt lat="40.386756" lon="-3.827611">
        <ele>726.60</ele>
        <time>2020-01-19T09:12:48Z</time>
      </trkpt>
      <trkpt lat="40.387084" lon="-3.827884">
        <ele>727.00</ele>
        <time>2020-01-19T09:12:57Z</time>
      </trkpt>
      <trkpt lat="40.387281" lon="-3.828001">
        <ele>726.00</ele>
        <time>2020-01-19T09:13:02Z</time>
      </trkpt>
      <trkpt lat="40.387313" lon="-3.828035">
        <ele>726.20</ele>
        <time>2020-01-19T09:13:03Z</time>
      </trkpt>
      <trkpt lat="40.387442" lon="-3.828167">
        <ele>727.40</ele>
        <time>2020-01-19T09:13:07Z</time>
      </trkpt>
      <trkpt lat="40.387471" lon="-3.828197">
        <ele>727.60</ele>
        <time>2020-01-19T09:13:08Z</time>
      </trkpt>
      <trkpt lat="40.387657" lon="-3.828390">
        <ele>726.60</ele>
        <time>2020-01-19T09:13:14Z</time>
      </trkpt>
      <trkpt lat="40.387715" lon="-3.828460">
        <ele>728.20</ele>
        <time>2020-01-19T09:13:16Z</time>
      </trkpt>
      <trkpt lat="40.387857" lon="-3.828564">
        <ele>728.40</ele>
        <time>2020-01-19T09:13:20Z</time>
      </trkpt>
      <trkpt lat="40.388160" lon="-3.828808">
        <ele>728.20</ele>
        <time>2020-01-19T09:13:29Z</time>
      </trkpt>
      <trkpt lat="40.388223" lon="-3.828862">
        <ele>729.60</ele>
        <time>2020-01-19T09:13:31Z</time>
      </trkpt>
      <trkpt lat="40.388369" lon="-3.828987">
        <ele>729.60</ele>
        <time>2020-01-19T09:13:36Z</time>
      </trkpt>
      <trkpt lat="40.388485" lon="-3.829100">
        <ele>730.60</ele>
        <time>2020-01-19T09:13:40Z</time>
      </trkpt>
      <trkpt lat="40.388575" lon="-3.829174">
        <ele>731.00</ele>
        <time>2020-01-19T09:13:43Z</time>
      </trkpt>
      <trkpt lat="40.388786" lon="-3.829324">
        <ele>731.40</ele>
        <time>2020-01-19T09:13:50Z</time>
      </trkpt>
      <trkpt lat="40.388877" lon="-3.829407">
        <ele>731.80</ele>
        <time>2020-01-19T09:13:53Z</time>
      </trkpt>
      <trkpt lat="40.389004" lon="-3.829504">
        <ele>731.80</ele>
        <time>2020-01-19T09:13:57Z</time>
      </trkpt>
      <trkpt lat="40.389148" lon="-3.829664">
        <ele>731.40</ele>
        <time>2020-01-19T09:14:02Z</time>
      </trkpt>
      <trkpt lat="40.389382" lon="-3.829823">
        <ele>732.80</ele>
        <time>2020-01-19T09:14:09Z</time>
      </trkpt>
      <trkpt lat="40.389615" lon="-3.829985">
        <ele>732.60</ele>
        <time>2020-01-19T09:14:16Z</time>
      </trkpt>
      <trkpt lat="40.389899" lon="-3.830139">
        <ele>732.60</ele>
        <time>2020-01-19T09:14:24Z</time>
      </trkpt>
      <trkpt lat="40.390028" lon="-3.830225">
        <ele>734.00</ele>
        <time>2020-01-19T09:14:28Z</time>
      </trkpt>
      <trkpt lat="40.390090" lon="-3.830273">
        <ele>734.60</ele>
        <time>2020-01-19T09:14:30Z</time>
      </trkpt>
      <trkpt lat="40.390148" lon="-3.830287">
        <ele>735.00</ele>
        <time>2020-01-19T09:14:32Z</time>
      </trkpt>
      <trkpt lat="40.390210" lon="-3.830326">
        <ele>735.40</ele>
        <time>2020-01-19T09:14:34Z</time>
      </trkpt>
      <trkpt lat="40.390415" lon="-3.830459">
        <ele>734.60</ele>
        <time>2020-01-19T09:14:40Z</time>
      </trkpt>
      <trkpt lat="40.390498" lon="-3.830490">
        <ele>734.80</ele>
        <time>2020-01-19T09:14:42Z</time>
      </trkpt>
      <trkpt lat="40.390622" lon="-3.830586">
        <ele>735.00</ele>
        <time>2020-01-19T09:14:45Z</time>
      </trkpt>
      <trkpt lat="40.390702" lon="-3.830669">
        <ele>736.20</ele>
        <time>2020-01-19T09:14:47Z</time>
      </trkpt>
      <trkpt lat="40.390784" lon="-3.830726">
        <ele>736.40</ele>
        <time>2020-01-19T09:14:49Z</time>
      </trkpt>
      <trkpt lat="40.390825" lon="-3.830748">
        <ele>735.80</ele>
        <time>2020-01-19T09:14:50Z</time>
      </trkpt>
      <trkpt lat="40.390952" lon="-3.830907">
        <ele>736.00</ele>
        <time>2020-01-19T09:14:54Z</time>
      </trkpt>
      <trkpt lat="40.391000" lon="-3.831168">
        <ele>735.60</ele>
        <time>2020-01-19T09:14:59Z</time>
      </trkpt>
      <trkpt lat="40.391026" lon="-3.831561">
        <ele>736.60</ele>
        <time>2020-01-19T09:15:07Z</time>
      </trkpt>
      <trkpt lat="40.391053" lon="-3.831859">
        <ele>737.40</ele>
        <time>2020-01-19T09:15:13Z</time>
      </trkpt>
      <trkpt lat="40.391055" lon="-3.831961">
        <ele>738.00</ele>
        <time>2020-01-19T09:15:15Z</time>
      </trkpt>
      <trkpt lat="40.391056" lon="-3.832298">
        <ele>737.80</ele>
        <time>2020-01-19T09:15:21Z</time>
      </trkpt>
      <trkpt lat="40.391056" lon="-3.832414">
        <ele>737.40</ele>
        <time>2020-01-19T09:15:23Z</time>
      </trkpt>
      <trkpt lat="40.391065" lon="-3.832706">
        <ele>736.20</ele>
        <time>2020-01-19T09:15:28Z</time>
      </trkpt>
      <trkpt lat="40.391076" lon="-3.833094">
        <ele>737.40</ele>
        <time>2020-01-19T09:15:34Z</time>
      </trkpt>
      <trkpt lat="40.391080" lon="-3.833161">
        <ele>737.60</ele>
        <time>2020-01-19T09:15:35Z</time>
      </trkpt>
      <trkpt lat="40.391117" lon="-3.833669">
        <ele>736.60</ele>
        <time>2020-01-19T09:15:43Z</time>
      </trkpt>
      <trkpt lat="40.391131" lon="-3.834026">
        <ele>738.20</ele>
        <time>2020-01-19T09:15:49Z</time>
      </trkpt>
      <trkpt lat="40.391136" lon="-3.834086">
        <ele>738.20</ele>
        <time>2020-01-19T09:15:50Z</time>
      </trkpt>
      <trkpt lat="40.391149" lon="-3.834205">
        <ele>738.00</ele>
        <time>2020-01-19T09:15:52Z</time>
      </trkpt>
      <trkpt lat="40.391167" lon="-3.834326">
        <ele>738.40</ele>
        <time>2020-01-19T09:15:54Z</time>
      </trkpt>
      <trkpt lat="40.391198" lon="-3.834506">
        <ele>738.00</ele>
        <time>2020-01-19T09:15:57Z</time>
      </trkpt>
      <trkpt lat="40.391220" lon="-3.834624">
        <ele>737.20</ele>
        <time>2020-01-19T09:15:59Z</time>
      </trkpt>
      <trkpt lat="40.391274" lon="-3.834981">
        <ele>737.20</ele>
        <time>2020-01-19T09:16:05Z</time>
      </trkpt>
      <trkpt lat="40.391330" lon="-3.835559">
        <ele>736.80</ele>
        <time>2020-01-19T09:16:14Z</time>
      </trkpt>
      <trkpt lat="40.391383" lon="-3.835817">
        <ele>736.60</ele>
        <time>2020-01-19T09:16:18Z</time>
      </trkpt>
      <trkpt lat="40.391460" lon="-3.835910">
        <ele>736.40</ele>
        <time>2020-01-19T09:16:20Z</time>
      </trkpt>
      <trkpt lat="40.391545" lon="-3.835963">
        <ele>736.40</ele>
        <time>2020-01-19T09:16:22Z</time>
      </trkpt>
      <trkpt lat="40.391609" lon="-3.836026">
        <ele>737.00</ele>
        <time>2020-01-19T09:16:24Z</time>
      </trkpt>
      <trkpt lat="40.391637" lon="-3.836123">
        <ele>737.80</ele>
        <time>2020-01-19T09:16:26Z</time>
      </trkpt>
      <trkpt lat="40.391634" lon="-3.836173">
        <ele>738.20</ele>
        <time>2020-01-19T09:16:27Z</time>
      </trkpt>
      <trkpt lat="40.391619" lon="-3.836217">
        <ele>738.40</ele>
        <time>2020-01-19T09:16:28Z</time>
      </trkpt>
      <trkpt lat="40.391563" lon="-3.836299">
        <ele>738.40</ele>
        <time>2020-01-19T09:16:30Z</time>
      </trkpt>
      <trkpt lat="40.391532" lon="-3.836347">
        <ele>738.20</ele>
        <time>2020-01-19T09:16:31Z</time>
      </trkpt>
      <trkpt lat="40.391509" lon="-3.836399">
        <ele>737.80</ele>
        <time>2020-01-19T09:16:32Z</time>
      </trkpt>
      <trkpt lat="40.391440" lon="-3.836554">
        <ele>737.40</ele>
        <time>2020-01-19T09:16:35Z</time>
      </trkpt>
      <trkpt lat="40.391397" lon="-3.836835">
        <ele>737.60</ele>
        <time>2020-01-19T09:16:40Z</time>
      </trkpt>
      <trkpt lat="40.391394" lon="-3.837079">
        <ele>737.40</ele>
        <time>2020-01-19T09:16:44Z</time>
      </trkpt>
      <trkpt lat="40.391389" lon="-3.837254">
        <ele>736.60</ele>
        <time>2020-01-19T09:16:47Z</time>
      </trkpt>
      <trkpt lat="40.391421" lon="-3.837420">
        <ele>737.40</ele>
        <time>2020-01-19T09:16:51Z</time>
      </trkpt>
      <trkpt lat="40.391431" lon="-3.837428">
        <ele>737.80</ele>
        <time>2020-01-19T09:16:52Z</time>
      </trkpt>
      <trkpt lat="40.391409" lon="-3.837465">
        <ele>738.00</ele>
        <time>2020-01-19T09:16:54Z</time>
      </trkpt>
      <trkpt lat="40.391355" lon="-3.837396">
        <ele>737.80</ele>
        <time>2020-01-19T09:16:57Z</time>
      </trkpt>
      <trkpt lat="40.391365" lon="-3.837236">
        <ele>737.60</ele>
        <time>2020-01-19T09:17:00Z</time>
      </trkpt>
      <trkpt lat="40.391372" lon="-3.837176">
        <ele>737.60</ele>
        <time>2020-01-19T09:17:01Z</time>
      </trkpt>
      <trkpt lat="40.391380" lon="-3.836978">
        <ele>737.40</ele>
        <time>2020-01-19T09:17:04Z</time>
      </trkpt>
      <trkpt lat="40.391389" lon="-3.836769">
        <ele>737.20</ele>
        <time>2020-01-19T09:17:07Z</time>
      </trkpt>
      <trkpt lat="40.391422" lon="-3.836495">
        <ele>737.60</ele>
        <time>2020-01-19T09:17:11Z</time>
      </trkpt>
      <trkpt lat="40.391489" lon="-3.836401">
        <ele>737.40</ele>
        <time>2020-01-19T09:17:13Z</time>
      </trkpt>
      <trkpt lat="40.391617" lon="-3.836393">
        <ele>737.80</ele>
        <time>2020-01-19T09:17:16Z</time>
      </trkpt>
      <trkpt lat="40.391713" lon="-3.836512">
        <ele>737.80</ele>
        <time>2020-01-19T09:17:19Z</time>
      </trkpt>
      <trkpt lat="40.391744" lon="-3.836558">
        <ele>737.80</ele>
        <time>2020-01-19T09:17:20Z</time>
      </trkpt>
      <trkpt lat="40.391840" lon="-3.836682">
        <ele>738.40</ele>
        <time>2020-01-19T09:17:23Z</time>
      </trkpt>
      <trkpt lat="40.391953" lon="-3.836799">
        <ele>738.20</ele>
        <time>2020-01-19T09:17:26Z</time>
      </trkpt>
      <trkpt lat="40.392153" lon="-3.836992">
        <ele>738.20</ele>
        <time>2020-01-19T09:17:31Z</time>
      </trkpt>
      <trkpt lat="40.392234" lon="-3.837065">
        <ele>738.80</ele>
        <time>2020-01-19T09:17:33Z</time>
      </trkpt>
      <trkpt lat="40.392280" lon="-3.837086">
        <ele>739.20</ele>
        <time>2020-01-19T09:17:34Z</time>
      </trkpt>
      <trkpt lat="40.392321" lon="-3.837098">
        <ele>739.40</ele>
        <time>2020-01-19T09:17:35Z</time>
      </trkpt>
      <trkpt lat="40.392395" lon="-3.837117">
        <ele>739.80</ele>
        <time>2020-01-19T09:17:37Z</time>
      </trkpt>
      <trkpt lat="40.392503" lon="-3.837247">
        <ele>740.20</ele>
        <time>2020-01-19T09:17:41Z</time>
      </trkpt>
      <trkpt lat="40.392503" lon="-3.837407">
        <ele>740.20</ele>
        <time>2020-01-19T09:17:44Z</time>
      </trkpt>
      <trkpt lat="40.392469" lon="-3.837516">
        <ele>740.40</ele>
        <time>2020-01-19T09:17:46Z</time>
      </trkpt>
      <trkpt lat="40.392456" lon="-3.837633">
        <ele>740.40</ele>
        <time>2020-01-19T09:17:48Z</time>
      </trkpt>
      <trkpt lat="40.392457" lon="-3.837695">
        <ele>740.40</ele>
        <time>2020-01-19T09:17:49Z</time>
      </trkpt>
      <trkpt lat="40.392464" lon="-3.837755">
        <ele>740.80</ele>
        <time>2020-01-19T09:17:50Z</time>
      </trkpt>
      <trkpt lat="40.392482" lon="-3.838127">
        <ele>740.60</ele>
        <time>2020-01-19T09:17:56Z</time>
      </trkpt>
      <trkpt lat="40.392522" lon="-3.838649">
        <ele>740.80</ele>
        <time>2020-01-19T09:18:05Z</time>
      </trkpt>
      <trkpt lat="40.392529" lon="-3.838884">
        <ele>741.40</ele>
        <time>2020-01-19T09:18:09Z</time>
      </trkpt>
      <trkpt lat="40.392589" lon="-3.839032">
        <ele>741.00</ele>
        <time>2020-01-19T09:18:12Z</time>
      </trkpt>
      <trkpt lat="40.392720" lon="-3.839018">
        <ele>739.60</ele>
        <time>2020-01-19T09:18:15Z</time>
      </trkpt>
      <trkpt lat="40.392770" lon="-3.839002">
        <ele>739.60</ele>
        <time>2020-01-19T09:18:16Z</time>
      </trkpt>
      <trkpt lat="40.392951" lon="-3.838972">
        <ele>739.00</ele>
        <time>2020-01-19T09:18:20Z</time>
      </trkpt>
      <trkpt lat="40.393260" lon="-3.838933">
        <ele>738.40</ele>
        <time>2020-01-19T09:18:26Z</time>
      </trkpt>
      <trkpt lat="40.393412" lon="-3.838914">
        <ele>737.80</ele>
        <time>2020-01-19T09:18:29Z</time>
      </trkpt>
      <trkpt lat="40.393745" lon="-3.838865">
        <ele>739.80</ele>
        <time>2020-01-19T09:18:36Z</time>
      </trkpt>
      <trkpt lat="40.394043" lon="-3.838844">
        <ele>740.40</ele>
        <time>2020-01-19T09:18:43Z</time>
      </trkpt>
      <trkpt lat="40.394273" lon="-3.838799">
        <ele>740.60</ele>
        <time>2020-01-19T09:18:49Z</time>
      </trkpt>
      <trkpt lat="40.394318" lon="-3.838798">
        <ele>740.00</ele>
        <time>2020-01-19T09:18:50Z</time>
      </trkpt>
      <trkpt lat="40.394407" lon="-3.838794">
        <ele>740.80</ele>
        <time>2020-01-19T09:18:52Z</time>
      </trkpt>
      <trkpt lat="40.394540" lon="-3.838767">
        <ele>740.20</ele>
        <time>2020-01-19T09:18:55Z</time>
      </trkpt>
      <trkpt lat="40.394683" lon="-3.838738">
        <ele>739.80</ele>
        <time>2020-01-19T09:18:58Z</time>
      </trkpt>
      <trkpt lat="40.394841" lon="-3.838728">
        <ele>739.20</ele>
        <time>2020-01-19T09:19:01Z</time>
      </trkpt>
      <trkpt lat="40.394951" lon="-3.838713">
        <ele>739.00</ele>
        <time>2020-01-19T09:19:03Z</time>
      </trkpt>
      <trkpt lat="40.395063" lon="-3.838711">
        <ele>739.00</ele>
        <time>2020-01-19T09:19:05Z</time>
      </trkpt>
      <trkpt lat="40.395116" lon="-3.838742">
        <ele>738.40</ele>
        <time>2020-01-19T09:19:06Z</time>
      </trkpt>
      <trkpt lat="40.395196" lon="-3.838862">
        <ele>737.00</ele>
        <time>2020-01-19T09:19:08Z</time>
      </trkpt>
      <trkpt lat="40.395213" lon="-3.838937">
        <ele>737.20</ele>
        <time>2020-01-19T09:19:09Z</time>
      </trkpt>
      <trkpt lat="40.395237" lon="-3.839285">
        <ele>736.40</ele>
        <time>2020-01-19T09:19:13Z</time>
      </trkpt>
      <trkpt lat="40.395244" lon="-3.839462">
        <ele>736.00</ele>
        <time>2020-01-19T09:19:15Z</time>
      </trkpt>
      <trkpt lat="40.395267" lon="-3.839811">
        <ele>735.00</ele>
        <time>2020-01-19T09:19:19Z</time>
      </trkpt>
      <trkpt lat="40.395300" lon="-3.840334">
        <ele>734.20</ele>
        <time>2020-01-19T09:19:25Z</time>
      </trkpt>
      <trkpt lat="40.395365" lon="-3.841022">
        <ele>734.20</ele>
        <time>2020-01-19T09:19:33Z</time>
      </trkpt>
      <trkpt lat="40.395454" lon="-3.841132">
        <ele>734.00</ele>
        <time>2020-01-19T09:19:35Z</time>
      </trkpt>
      <trkpt lat="40.395509" lon="-3.841152">
        <ele>733.60</ele>
        <time>2020-01-19T09:19:36Z</time>
      </trkpt>
      <trkpt lat="40.395721" lon="-3.841141">
        <ele>733.60</ele>
        <time>2020-01-19T09:19:40Z</time>
      </trkpt>
      <trkpt lat="40.395816" lon="-3.841102">
        <ele>733.80</ele>
        <time>2020-01-19T09:19:42Z</time>
      </trkpt>
      <trkpt lat="40.395999" lon="-3.841013">
        <ele>734.20</ele>
        <time>2020-01-19T09:19:46Z</time>
      </trkpt>
      <trkpt lat="40.396080" lon="-3.840969">
        <ele>735.00</ele>
        <time>2020-01-19T09:19:48Z</time>
      </trkpt>
      <trkpt lat="40.396181" lon="-3.840849">
        <ele>736.20</ele>
        <time>2020-01-19T09:19:51Z</time>
      </trkpt>
      <trkpt lat="40.396322" lon="-3.840647">
        <ele>737.40</ele>
        <time>2020-01-19T09:19:56Z</time>
      </trkpt>
      <trkpt lat="40.396401" lon="-3.840519">
        <ele>738.40</ele>
        <time>2020-01-19T09:19:59Z</time>
      </trkpt>
      <trkpt lat="40.396462" lon="-3.840455">
        <ele>738.60</ele>
        <time>2020-01-19T09:20:01Z</time>
      </trkpt>
      <trkpt lat="40.396495" lon="-3.840423">
        <ele>738.60</ele>
        <time>2020-01-19T09:20:02Z</time>
      </trkpt>
      <trkpt lat="40.396557" lon="-3.840347">
        <ele>739.20</ele>
        <time>2020-01-19T09:20:04Z</time>
      </trkpt>
      <trkpt lat="40.396612" lon="-3.840188">
        <ele>739.40</ele>
        <time>2020-01-19T09:20:07Z</time>
      </trkpt>
      <trkpt lat="40.396626" lon="-3.840133">
        <ele>739.60</ele>
        <time>2020-01-19T09:20:08Z</time>
      </trkpt>
      <trkpt lat="40.396642" lon="-3.840078">
        <ele>739.80</ele>
        <time>2020-01-19T09:20:09Z</time>
      </trkpt>
      <trkpt lat="40.396740" lon="-3.839887">
        <ele>739.80</ele>
        <time>2020-01-19T09:20:13Z</time>
      </trkpt>
      <trkpt lat="40.396894" lon="-3.839782">
        <ele>740.20</ele>
        <time>2020-01-19T09:20:17Z</time>
      </trkpt>
      <trkpt lat="40.396935" lon="-3.839763">
        <ele>740.20</ele>
        <time>2020-01-19T09:20:18Z</time>
      </trkpt>
      <trkpt lat="40.396980" lon="-3.839751">
        <ele>740.40</ele>
        <time>2020-01-19T09:20:19Z</time>
      </trkpt>
      <trkpt lat="40.397073" lon="-3.839759">
        <ele>740.80</ele>
        <time>2020-01-19T09:20:21Z</time>
      </trkpt>
      <trkpt lat="40.397119" lon="-3.839778">
        <ele>741.00</ele>
        <time>2020-01-19T09:20:22Z</time>
      </trkpt>
      <trkpt lat="40.397302" lon="-3.839943">
        <ele>740.80</ele>
        <time>2020-01-19T09:20:27Z</time>
      </trkpt>
      <trkpt lat="40.397329" lon="-3.839990">
        <ele>740.80</ele>
        <time>2020-01-19T09:20:28Z</time>
      </trkpt>
      <trkpt lat="40.397427" lon="-3.840101">
        <ele>740.40</ele>
        <time>2020-01-19T09:20:31Z</time>
      </trkpt>
      <trkpt lat="40.397528" lon="-3.840089">
        <ele>739.80</ele>
        <time>2020-01-19T09:20:33Z</time>
      </trkpt>
      <trkpt lat="40.397573" lon="-3.840041">
        <ele>739.40</ele>
        <time>2020-01-19T09:20:34Z</time>
      </trkpt>
      <trkpt lat="40.397644" lon="-3.839830">
        <ele>739.20</ele>
        <time>2020-01-19T09:20:37Z</time>
      </trkpt>
      <trkpt lat="40.397607" lon="-3.839606">
        <ele>739.00</ele>
        <time>2020-01-19T09:20:40Z</time>
      </trkpt>
      <trkpt lat="40.397591" lon="-3.839532">
        <ele>739.00</ele>
        <time>2020-01-19T09:20:41Z</time>
      </trkpt>
      <trkpt lat="40.397526" lon="-3.839316">
        <ele>738.60</ele>
        <time>2020-01-19T09:20:44Z</time>
      </trkpt>
      <trkpt lat="40.397441" lon="-3.839039">
        <ele>738.60</ele>
        <time>2020-01-19T09:20:48Z</time>
      </trkpt>
      <trkpt lat="40.397321" lon="-3.838466">
        <ele>738.20</ele>
        <time>2020-01-19T09:20:56Z</time>
      </trkpt>
      <trkpt lat="40.397263" lon="-3.837901">
        <ele>738.20</ele>
        <time>2020-01-19T09:21:04Z</time>
      </trkpt>
      <trkpt lat="40.397266" lon="-3.837768">
        <ele>738.00</ele>
        <time>2020-01-19T09:21:06Z</time>
      </trkpt>
      <trkpt lat="40.397268" lon="-3.837508">
        <ele>738.40</ele>
        <time>2020-01-19T09:21:10Z</time>
      </trkpt>
      <trkpt lat="40.397309" lon="-3.837197">
        <ele>739.00</ele>
        <time>2020-01-19T09:21:15Z</time>
      </trkpt>
      <trkpt lat="40.397319" lon="-3.837071">
        <ele>738.80</ele>
        <time>2020-01-19T09:21:17Z</time>
      </trkpt>
      <trkpt lat="40.397335" lon="-3.836709">
        <ele>739.60</ele>
        <time>2020-01-19T09:21:23Z</time>
      </trkpt>
      <trkpt lat="40.397312" lon="-3.836655">
        <ele>739.80</ele>
        <time>2020-01-19T09:21:24Z</time>
      </trkpt>
      <trkpt lat="40.397288" lon="-3.836603">
        <ele>739.80</ele>
        <time>2020-01-19T09:21:25Z</time>
      </trkpt>
      <trkpt lat="40.397282" lon="-3.836349">
        <ele>740.00</ele>
        <time>2020-01-19T09:21:29Z</time>
      </trkpt>
      <trkpt lat="40.397385" lon="-3.836193">
        <ele>739.60</ele>
        <time>2020-01-19T09:21:32Z</time>
      </trkpt>
      <trkpt lat="40.397552" lon="-3.836157">
        <ele>739.20</ele>
        <time>2020-01-19T09:21:35Z</time>
      </trkpt>
      <trkpt lat="40.397703" lon="-3.836278">
        <ele>738.60</ele>
        <time>2020-01-19T09:21:38Z</time>
      </trkpt>
      <trkpt lat="40.397801" lon="-3.836470">
        <ele>738.20</ele>
        <time>2020-01-19T09:21:41Z</time>
      </trkpt>
      <trkpt lat="40.397833" lon="-3.836533">
        <ele>738.00</ele>
        <time>2020-01-19T09:21:42Z</time>
      </trkpt>
      <trkpt lat="40.398006" lon="-3.836863">
        <ele>737.40</ele>
        <time>2020-01-19T09:21:47Z</time>
      </trkpt>
      <trkpt lat="40.398032" lon="-3.836944">
        <ele>736.80</ele>
        <time>2020-01-19T09:21:48Z</time>
      </trkpt>
      <trkpt lat="40.398056" lon="-3.837032">
        <ele>735.80</ele>
        <time>2020-01-19T09:21:49Z</time>
      </trkpt>
      <trkpt lat="40.398110" lon="-3.837221">
        <ele>734.40</ele>
        <time>2020-01-19T09:21:51Z</time>
      </trkpt>
      <trkpt lat="40.398185" lon="-3.837417">
        <ele>733.00</ele>
        <time>2020-01-19T09:21:53Z</time>
      </trkpt>
      <trkpt lat="40.398223" lon="-3.837522">
        <ele>732.40</ele>
        <time>2020-01-19T09:21:54Z</time>
      </trkpt>
      <trkpt lat="40.398255" lon="-3.837639">
        <ele>731.20</ele>
        <time>2020-01-19T09:21:55Z</time>
      </trkpt>
      <trkpt lat="40.398326" lon="-3.837865">
        <ele>729.60</ele>
        <time>2020-01-19T09:21:57Z</time>
      </trkpt>
      <trkpt lat="40.398399" lon="-3.838097">
        <ele>728.60</ele>
        <time>2020-01-19T09:21:59Z</time>
      </trkpt>
      <trkpt lat="40.398447" lon="-3.838206">
        <ele>727.80</ele>
        <time>2020-01-19T09:22:00Z</time>
      </trkpt>
      <trkpt lat="40.398505" lon="-3.838302">
        <ele>727.40</ele>
        <time>2020-01-19T09:22:01Z</time>
      </trkpt>
      <trkpt lat="40.398562" lon="-3.838399">
        <ele>726.80</ele>
        <time>2020-01-19T09:22:02Z</time>
      </trkpt>
      <trkpt lat="40.398631" lon="-3.838484">
        <ele>726.80</ele>
        <time>2020-01-19T09:22:03Z</time>
      </trkpt>
      <trkpt lat="40.398706" lon="-3.838555">
        <ele>726.20</ele>
        <time>2020-01-19T09:22:04Z</time>
      </trkpt>
      <trkpt lat="40.398781" lon="-3.838624">
        <ele>726.00</ele>
        <time>2020-01-19T09:22:05Z</time>
      </trkpt>
      <trkpt lat="40.398862" lon="-3.838668">
        <ele>725.80</ele>
        <time>2020-01-19T09:22:06Z</time>
      </trkpt>
      <trkpt lat="40.399085" lon="-3.838770">
        <ele>725.80</ele>
        <time>2020-01-19T09:22:09Z</time>
      </trkpt>
      <trkpt lat="40.399206" lon="-3.838818">
        <ele>726.40</ele>
        <time>2020-01-19T09:22:11Z</time>
      </trkpt>
      <trkpt lat="40.399281" lon="-3.838895">
        <ele>726.40</ele>
        <time>2020-01-19T09:22:13Z</time>
      </trkpt>
      <trkpt lat="40.399302" lon="-3.839078">
        <ele>726.40</ele>
        <time>2020-01-19T09:22:16Z</time>
      </trkpt>
      <trkpt lat="40.399251" lon="-3.839283">
        <ele>726.80</ele>
        <time>2020-01-19T09:22:19Z</time>
      </trkpt>
      <trkpt lat="40.399209" lon="-3.839411">
        <ele>727.20</ele>
        <time>2020-01-19T09:22:21Z</time>
      </trkpt>
      <trkpt lat="40.399180" lon="-3.839461">
        <ele>727.60</ele>
        <time>2020-01-19T09:22:22Z</time>
      </trkpt>
      <trkpt lat="40.399110" lon="-3.839601">
        <ele>729.00</ele>
        <time>2020-01-19T09:22:25Z</time>
      </trkpt>
      <trkpt lat="40.399069" lon="-3.839794">
        <ele>730.20</ele>
        <time>2020-01-19T09:22:29Z</time>
      </trkpt>
      <trkpt lat="40.399061" lon="-3.839834">
        <ele>730.40</ele>
        <time>2020-01-19T09:22:30Z</time>
      </trkpt>
      <trkpt lat="40.399057" lon="-3.839869">
        <ele>730.60</ele>
        <time>2020-01-19T09:22:31Z</time>
      </trkpt>
      <trkpt lat="40.399018" lon="-3.840085">
        <ele>730.80</ele>
        <time>2020-01-19T09:22:36Z</time>
      </trkpt>
      <trkpt lat="40.398935" lon="-3.840504">
        <ele>730.60</ele>
        <time>2020-01-19T09:22:44Z</time>
      </trkpt>
      <trkpt lat="40.398895" lon="-3.840669">
        <ele>731.40</ele>
        <time>2020-01-19T09:22:47Z</time>
      </trkpt>
      <trkpt lat="40.398877" lon="-3.840782">
        <ele>731.60</ele>
        <time>2020-01-19T09:22:49Z</time>
      </trkpt>
      <trkpt lat="40.398837" lon="-3.840953">
        <ele>732.00</ele>
        <time>2020-01-19T09:22:52Z</time>
      </trkpt>
      <trkpt lat="40.398792" lon="-3.841247">
        <ele>732.40</ele>
        <time>2020-01-19T09:22:57Z</time>
      </trkpt>
      <trkpt lat="40.398784" lon="-3.841425">
        <ele>732.60</ele>
        <time>2020-01-19T09:23:00Z</time>
      </trkpt>
      <trkpt lat="40.398791" lon="-3.841485">
        <ele>732.60</ele>
        <time>2020-01-19T09:23:01Z</time>
      </trkpt>
      <trkpt lat="40.398859" lon="-3.841798">
        <ele>732.20</ele>
        <time>2020-01-19T09:23:06Z</time>
      </trkpt>
      <trkpt lat="40.399038" lon="-3.842248">
        <ele>731.60</ele>
        <time>2020-01-19T09:23:13Z</time>
      </trkpt>
      <trkpt lat="40.399067" lon="-3.842313">
        <ele>731.40</ele>
        <time>2020-01-19T09:23:14Z</time>
      </trkpt>
      <trkpt lat="40.399276" lon="-3.842806">
        <ele>732.20</ele>
        <time>2020-01-19T09:23:22Z</time>
      </trkpt>
      <trkpt lat="40.399373" lon="-3.843035">
        <ele>732.40</ele>
        <time>2020-01-19T09:23:26Z</time>
      </trkpt>
      <trkpt lat="40.399495" lon="-3.843324">
        <ele>732.60</ele>
        <time>2020-01-19T09:23:31Z</time>
      </trkpt>
      <trkpt lat="40.399732" lon="-3.843882">
        <ele>733.60</ele>
        <time>2020-01-19T09:23:41Z</time>
      </trkpt>
      <trkpt lat="40.399752" lon="-3.843940">
        <ele>733.60</ele>
        <time>2020-01-19T09:23:42Z</time>
      </trkpt>
      <trkpt lat="40.399911" lon="-3.844390">
        <ele>732.20</ele>
        <time>2020-01-19T09:23:49Z</time>
      </trkpt>
      <trkpt lat="40.399934" lon="-3.844455">
        <ele>731.40</ele>
        <time>2020-01-19T09:23:50Z</time>
      </trkpt>
      <trkpt lat="40.399984" lon="-3.844588">
        <ele>731.00</ele>
        <time>2020-01-19T09:23:52Z</time>
      </trkpt>
      <trkpt lat="40.400146" lon="-3.845059">
        <ele>731.40</ele>
        <time>2020-01-19T09:23:59Z</time>
      </trkpt>
      <trkpt lat="40.400192" lon="-3.845187">
        <ele>732.20</ele>
        <time>2020-01-19T09:24:01Z</time>
      </trkpt>
      <trkpt lat="40.400353" lon="-3.845551">
        <ele>732.80</ele>
        <time>2020-01-19T09:24:07Z</time>
      </trkpt>
      <trkpt lat="40.400449" lon="-3.845853">
        <ele>733.00</ele>
        <time>2020-01-19T09:24:12Z</time>
      </trkpt>
      <trkpt lat="40.400586" lon="-3.846208">
        <ele>732.80</ele>
        <time>2020-01-19T09:24:18Z</time>
      </trkpt>
      <trkpt lat="40.400623" lon="-3.846276">
        <ele>733.20</ele>
        <time>2020-01-19T09:24:20Z</time>
      </trkpt>
      <trkpt lat="40.400636" lon="-3.846315">
        <ele>733.40</ele>
        <time>2020-01-19T09:24:21Z</time>
      </trkpt>
      <trkpt lat="40.400636" lon="-3.846525">
        <ele>733.20</ele>
        <time>2020-01-19T09:24:25Z</time>
      </trkpt>
      <trkpt lat="40.400679" lon="-3.846719">
        <ele>732.40</ele>
        <time>2020-01-19T09:24:28Z</time>
      </trkpt>
      <trkpt lat="40.400694" lon="-3.846779">
        <ele>731.80</ele>
        <time>2020-01-19T09:24:29Z</time>
      </trkpt>
      <trkpt lat="40.400711" lon="-3.846950">
        <ele>730.60</ele>
        <time>2020-01-19T09:24:32Z</time>
      </trkpt>
      <trkpt lat="40.400698" lon="-3.847001">
        <ele>730.60</ele>
        <time>2020-01-19T09:24:33Z</time>
      </trkpt>
      <trkpt lat="40.400656" lon="-3.847133">
        <ele>732.20</ele>
        <time>2020-01-19T09:24:36Z</time>
      </trkpt>
      <trkpt lat="40.400600" lon="-3.847255">
        <ele>733.60</ele>
        <time>2020-01-19T09:24:39Z</time>
      </trkpt>
      <trkpt lat="40.400561" lon="-3.847346">
        <ele>734.20</ele>
        <time>2020-01-19T09:24:41Z</time>
      </trkpt>
      <trkpt lat="40.400539" lon="-3.847461">
        <ele>734.00</ele>
        <time>2020-01-19T09:24:43Z</time>
      </trkpt>
      <trkpt lat="40.400533" lon="-3.847601">
        <ele>733.80</ele>
        <time>2020-01-19T09:24:45Z</time>
      </trkpt>
      <trkpt lat="40.400529" lon="-3.847673">
        <ele>733.80</ele>
        <time>2020-01-19T09:24:46Z</time>
      </trkpt>
      <trkpt lat="40.400509" lon="-3.847816">
        <ele>734.00</ele>
        <time>2020-01-19T09:24:48Z</time>
      </trkpt>
      <trkpt lat="40.400441" lon="-3.848304">
        <ele>733.60</ele>
        <time>2020-01-19T09:24:55Z</time>
      </trkpt>
      <trkpt lat="40.400421" lon="-3.848454">
        <ele>733.20</ele>
        <time>2020-01-19T09:24:57Z</time>
      </trkpt>
      <trkpt lat="40.400401" lon="-3.848617">
        <ele>732.40</ele>
        <time>2020-01-19T09:24:59Z</time>
      </trkpt>
      <trkpt lat="40.400347" lon="-3.848797">
        <ele>731.20</ele>
        <time>2020-01-19T09:25:01Z</time>
      </trkpt>
      <trkpt lat="40.400307" lon="-3.848889">
        <ele>730.20</ele>
        <time>2020-01-19T09:25:02Z</time>
      </trkpt>
      <trkpt lat="40.400268" lon="-3.848983">
        <ele>729.80</ele>
        <time>2020-01-19T09:25:03Z</time>
      </trkpt>
      <trkpt lat="40.400239" lon="-3.849074">
        <ele>729.20</ele>
        <time>2020-01-19T09:25:04Z</time>
      </trkpt>
      <trkpt lat="40.400222" lon="-3.849163">
        <ele>728.80</ele>
        <time>2020-01-19T09:25:05Z</time>
      </trkpt>
      <trkpt lat="40.400215" lon="-3.849246">
        <ele>728.80</ele>
        <time>2020-01-19T09:25:06Z</time>
      </trkpt>
      <trkpt lat="40.400215" lon="-3.849396">
        <ele>730.20</ele>
        <time>2020-01-19T09:25:08Z</time>
      </trkpt>
      <trkpt lat="40.400234" lon="-3.849537">
        <ele>730.60</ele>
        <time>2020-01-19T09:25:10Z</time>
      </trkpt>
      <trkpt lat="40.400246" lon="-3.849687">
        <ele>730.20</ele>
        <time>2020-01-19T09:25:12Z</time>
      </trkpt>
      <trkpt lat="40.400271" lon="-3.849996">
        <ele>729.20</ele>
        <time>2020-01-19T09:25:16Z</time>
      </trkpt>
      <trkpt lat="40.400281" lon="-3.850071">
        <ele>729.60</ele>
        <time>2020-01-19T09:25:17Z</time>
      </trkpt>
      <trkpt lat="40.400329" lon="-3.850284">
        <ele>729.20</ele>
        <time>2020-01-19T09:25:20Z</time>
      </trkpt>
      <trkpt lat="40.400349" lon="-3.850459">
        <ele>730.40</ele>
        <time>2020-01-19T09:25:23Z</time>
      </trkpt>
      <trkpt lat="40.400344" lon="-3.850562">
        <ele>730.80</ele>
        <time>2020-01-19T09:25:25Z</time>
      </trkpt>
      <trkpt lat="40.400291" lon="-3.850638">
        <ele>731.60</ele>
        <time>2020-01-19T09:25:27Z</time>
      </trkpt>
      <trkpt lat="40.400250" lon="-3.850666">
        <ele>731.80</ele>
        <time>2020-01-19T09:25:28Z</time>
      </trkpt>
      <trkpt lat="40.400205" lon="-3.850693">
        <ele>732.00</ele>
        <time>2020-01-19T09:25:29Z</time>
      </trkpt>
      <trkpt lat="40.400032" lon="-3.850806">
        <ele>730.00</ele>
        <time>2020-01-19T09:25:32Z</time>
      </trkpt>
      <trkpt lat="40.399966" lon="-3.850865">
        <ele>728.80</ele>
        <time>2020-01-19T09:25:33Z</time>
      </trkpt>
      <trkpt lat="40.399835" lon="-3.850998">
        <ele>726.60</ele>
        <time>2020-01-19T09:25:35Z</time>
      </trkpt>
      <trkpt lat="40.399771" lon="-3.851054">
        <ele>725.80</ele>
        <time>2020-01-19T09:25:36Z</time>
      </trkpt>
      <trkpt lat="40.399710" lon="-3.851095">
        <ele>725.40</ele>
        <time>2020-01-19T09:25:37Z</time>
      </trkpt>
      <trkpt lat="40.399625" lon="-3.851255">
        <ele>727.20</ele>
        <time>2020-01-19T09:25:40Z</time>
      </trkpt>
      <trkpt lat="40.399627" lon="-3.851318">
        <ele>728.40</ele>
        <time>2020-01-19T09:25:41Z</time>
      </trkpt>
      <trkpt lat="40.399651" lon="-3.851441">
        <ele>728.20</ele>
        <time>2020-01-19T09:25:43Z</time>
      </trkpt>
      <trkpt lat="40.399665" lon="-3.851503">
        <ele>728.20</ele>
        <time>2020-01-19T09:25:44Z</time>
      </trkpt>
      <trkpt lat="40.399715" lon="-3.851754">
        <ele>728.40</ele>
        <time>2020-01-19T09:25:48Z</time>
      </trkpt>
      <trkpt lat="40.399739" lon="-3.851876">
        <ele>728.80</ele>
        <time>2020-01-19T09:25:50Z</time>
      </trkpt>
      <trkpt lat="40.399762" lon="-3.851934">
        <ele>729.00</ele>
        <time>2020-01-19T09:25:51Z</time>
      </trkpt>
      <trkpt lat="40.399827" lon="-3.852122">
        <ele>727.00</ele>
        <time>2020-01-19T09:25:54Z</time>
      </trkpt>
      <trkpt lat="40.399913" lon="-3.852434">
        <ele>727.20</ele>
        <time>2020-01-19T09:25:59Z</time>
      </trkpt>
      <trkpt lat="40.399932" lon="-3.852489">
        <ele>727.20</ele>
        <time>2020-01-19T09:26:00Z</time>
      </trkpt>
      <trkpt lat="40.400027" lon="-3.852693">
        <ele>727.80</ele>
        <time>2020-01-19T09:26:04Z</time>
      </trkpt>
      <trkpt lat="40.400056" lon="-3.852740">
        <ele>727.60</ele>
        <time>2020-01-19T09:26:05Z</time>
      </trkpt>
      <trkpt lat="40.400110" lon="-3.852837">
        <ele>728.00</ele>
        <time>2020-01-19T09:26:07Z</time>
      </trkpt>
      <trkpt lat="40.400150" lon="-3.852946">
        <ele>728.20</ele>
        <time>2020-01-19T09:26:09Z</time>
      </trkpt>
      <trkpt lat="40.400166" lon="-3.853002">
        <ele>728.00</ele>
        <time>2020-01-19T09:26:10Z</time>
      </trkpt>
      <trkpt lat="40.400180" lon="-3.853060">
        <ele>728.00</ele>
        <time>2020-01-19T09:26:11Z</time>
      </trkpt>
      <trkpt lat="40.400209" lon="-3.853374">
        <ele>727.00</ele>
        <time>2020-01-19T09:26:16Z</time>
      </trkpt>
      <trkpt lat="40.400210" lon="-3.853440">
        <ele>727.20</ele>
        <time>2020-01-19T09:26:17Z</time>
      </trkpt>
      <trkpt lat="40.400219" lon="-3.853573">
        <ele>727.40</ele>
        <time>2020-01-19T09:26:19Z</time>
      </trkpt>
      <trkpt lat="40.400255" lon="-3.853691">
        <ele>726.60</ele>
        <time>2020-01-19T09:26:21Z</time>
      </trkpt>
      <trkpt lat="40.400318" lon="-3.853790">
        <ele>726.20</ele>
        <time>2020-01-19T09:26:23Z</time>
      </trkpt>
      <trkpt lat="40.400353" lon="-3.853840">
        <ele>726.00</ele>
        <time>2020-01-19T09:26:24Z</time>
      </trkpt>
      <trkpt lat="40.400464" lon="-3.854001">
        <ele>725.00</ele>
        <time>2020-01-19T09:26:27Z</time>
      </trkpt>
      <trkpt lat="40.400505" lon="-3.854058">
        <ele>724.80</ele>
        <time>2020-01-19T09:26:28Z</time>
      </trkpt>
      <trkpt lat="40.400650" lon="-3.854222">
        <ele>723.40</ele>
        <time>2020-01-19T09:26:31Z</time>
      </trkpt>
      <trkpt lat="40.400702" lon="-3.854279">
        <ele>722.80</ele>
        <time>2020-01-19T09:26:32Z</time>
      </trkpt>
      <trkpt lat="40.400756" lon="-3.854336">
        <ele>722.00</ele>
        <time>2020-01-19T09:26:33Z</time>
      </trkpt>
      <trkpt lat="40.401114" lon="-3.854653">
        <ele>720.80</ele>
        <time>2020-01-19T09:26:39Z</time>
      </trkpt>
      <trkpt lat="40.401378" lon="-3.854959">
        <ele>719.60</ele>
        <time>2020-01-19T09:26:44Z</time>
      </trkpt>
      <trkpt lat="40.401424" lon="-3.855022">
        <ele>719.20</ele>
        <time>2020-01-19T09:26:45Z</time>
      </trkpt>
      <trkpt lat="40.401574" lon="-3.855198">
        <ele>718.80</ele>
        <time>2020-01-19T09:26:48Z</time>
      </trkpt>
      <trkpt lat="40.401628" lon="-3.855251">
        <ele>718.40</ele>
        <time>2020-01-19T09:26:49Z</time>
      </trkpt>
      <trkpt lat="40.401679" lon="-3.855309">
        <ele>718.20</ele>
        <time>2020-01-19T09:26:50Z</time>
      </trkpt>
      <trkpt lat="40.401844" lon="-3.855562">
        <ele>718.60</ele>
        <time>2020-01-19T09:26:54Z</time>
      </trkpt>
      <trkpt lat="40.401925" lon="-3.855697">
        <ele>718.20</ele>
        <time>2020-01-19T09:26:56Z</time>
      </trkpt>
      <trkpt lat="40.402022" lon="-3.855935">
        <ele>717.00</ele>
        <time>2020-01-19T09:26:59Z</time>
      </trkpt>
      <trkpt lat="40.402083" lon="-3.856196">
        <ele>716.40</ele>
        <time>2020-01-19T09:27:02Z</time>
      </trkpt>
      <trkpt lat="40.402138" lon="-3.856355">
        <ele>715.80</ele>
        <time>2020-01-19T09:27:04Z</time>
      </trkpt>
      <trkpt lat="40.402345" lon="-3.856896">
        <ele>716.00</ele>
        <time>2020-01-19T09:27:11Z</time>
      </trkpt>
      <trkpt lat="40.402497" lon="-3.857305">
        <ele>715.80</ele>
        <time>2020-01-19T09:27:17Z</time>
      </trkpt>
      <trkpt lat="40.402685" lon="-3.857792">
        <ele>715.40</ele>
        <time>2020-01-19T09:27:24Z</time>
      </trkpt>
      <trkpt lat="40.402704" lon="-3.857858">
        <ele>715.80</ele>
        <time>2020-01-19T09:27:25Z</time>
      </trkpt>
      <trkpt lat="40.402734" lon="-3.857981">
        <ele>716.40</ele>
        <time>2020-01-19T09:27:27Z</time>
      </trkpt>
      <trkpt lat="40.402760" lon="-3.858095">
        <ele>716.80</ele>
        <time>2020-01-19T09:27:29Z</time>
      </trkpt>
      <trkpt lat="40.402796" lon="-3.858199">
        <ele>716.60</ele>
        <time>2020-01-19T09:27:31Z</time>
      </trkpt>
      <trkpt lat="40.402889" lon="-3.858414">
        <ele>716.00</ele>
        <time>2020-01-19T09:27:35Z</time>
      </trkpt>
      <trkpt lat="40.403066" lon="-3.858738">
        <ele>715.00</ele>
        <time>2020-01-19T09:27:41Z</time>
      </trkpt>
      <trkpt lat="40.403133" lon="-3.858838">
        <ele>714.80</ele>
        <time>2020-01-19T09:27:43Z</time>
      </trkpt>
      <trkpt lat="40.403228" lon="-3.858992">
        <ele>714.20</ele>
        <time>2020-01-19T09:27:46Z</time>
      </trkpt>
      <trkpt lat="40.403280" lon="-3.859106">
        <ele>714.40</ele>
        <time>2020-01-19T09:27:48Z</time>
      </trkpt>
      <trkpt lat="40.403389" lon="-3.859344">
        <ele>714.00</ele>
        <time>2020-01-19T09:27:52Z</time>
      </trkpt>
      <trkpt lat="40.403413" lon="-3.859406">
        <ele>713.80</ele>
        <time>2020-01-19T09:27:53Z</time>
      </trkpt>
      <trkpt lat="40.403467" lon="-3.859527">
        <ele>713.20</ele>
        <time>2020-01-19T09:27:55Z</time>
      </trkpt>
      <trkpt lat="40.403550" lon="-3.859635">
        <ele>712.40</ele>
        <time>2020-01-19T09:27:57Z</time>
      </trkpt>
      <trkpt lat="40.403627" lon="-3.859751">
        <ele>712.20</ele>
        <time>2020-01-19T09:27:59Z</time>
      </trkpt>
      <trkpt lat="40.403664" lon="-3.859807">
        <ele>711.40</ele>
        <time>2020-01-19T09:28:00Z</time>
      </trkpt>
      <trkpt lat="40.403705" lon="-3.859865">
        <ele>710.00</ele>
        <time>2020-01-19T09:28:01Z</time>
      </trkpt>
      <trkpt lat="40.403801" lon="-3.859998">
        <ele>708.40</ele>
        <time>2020-01-19T09:28:03Z</time>
      </trkpt>
      <trkpt lat="40.403843" lon="-3.860072">
        <ele>707.60</ele>
        <time>2020-01-19T09:28:04Z</time>
      </trkpt>
      <trkpt lat="40.403880" lon="-3.860145">
        <ele>706.80</ele>
        <time>2020-01-19T09:28:05Z</time>
      </trkpt>
      <trkpt lat="40.403919" lon="-3.860213">
        <ele>705.60</ele>
        <time>2020-01-19T09:28:06Z</time>
      </trkpt>
      <trkpt lat="40.404017" lon="-3.860337">
        <ele>704.40</ele>
        <time>2020-01-19T09:28:08Z</time>
      </trkpt>
      <trkpt lat="40.404120" lon="-3.860456">
        <ele>704.60</ele>
        <time>2020-01-19T09:28:10Z</time>
      </trkpt>
      <trkpt lat="40.404223" lon="-3.860562">
        <ele>703.60</ele>
        <time>2020-01-19T09:28:12Z</time>
      </trkpt>
      <trkpt lat="40.404321" lon="-3.860652">
        <ele>704.60</ele>
        <time>2020-01-19T09:28:14Z</time>
      </trkpt>
      <trkpt lat="40.404419" lon="-3.860808">
        <ele>705.40</ele>
        <time>2020-01-19T09:28:17Z</time>
      </trkpt>
      <trkpt lat="40.404449" lon="-3.860856">
        <ele>705.20</ele>
        <time>2020-01-19T09:28:18Z</time>
      </trkpt>
      <trkpt lat="40.404511" lon="-3.860950">
        <ele>705.60</ele>
        <time>2020-01-19T09:28:20Z</time>
      </trkpt>
      <trkpt lat="40.404597" lon="-3.861096">
        <ele>705.20</ele>
        <time>2020-01-19T09:28:23Z</time>
      </trkpt>
      <trkpt lat="40.404654" lon="-3.861255">
        <ele>705.20</ele>
        <time>2020-01-19T09:28:26Z</time>
      </trkpt>
      <trkpt lat="40.404702" lon="-3.861357">
        <ele>705.20</ele>
        <time>2020-01-19T09:28:28Z</time>
      </trkpt>
      <trkpt lat="40.404892" lon="-3.861766">
        <ele>704.80</ele>
        <time>2020-01-19T09:28:36Z</time>
      </trkpt>
      <trkpt lat="40.404916" lon="-3.861813">
        <ele>704.80</ele>
        <time>2020-01-19T09:28:37Z</time>
      </trkpt>
      <trkpt lat="40.405001" lon="-3.861954">
        <ele>705.00</ele>
        <time>2020-01-19T09:28:40Z</time>
      </trkpt>
      <trkpt lat="40.405036" lon="-3.861992">
        <ele>704.60</ele>
        <time>2020-01-19T09:28:41Z</time>
      </trkpt>
      <trkpt lat="40.405072" lon="-3.862023">
        <ele>704.20</ele>
        <time>2020-01-19T09:28:42Z</time>
      </trkpt>
      <trkpt lat="40.405207" lon="-3.862128">
        <ele>704.40</ele>
        <time>2020-01-19T09:28:46Z</time>
      </trkpt>
      <trkpt lat="40.405230" lon="-3.862161">
        <ele>703.80</ele>
        <time>2020-01-19T09:28:47Z</time>
      </trkpt>
      <trkpt lat="40.405265" lon="-3.862267">
        <ele>703.00</ele>
        <time>2020-01-19T09:28:49Z</time>
      </trkpt>
      <trkpt lat="40.405319" lon="-3.862379">
        <ele>702.20</ele>
        <time>2020-01-19T09:28:51Z</time>
      </trkpt>
      <trkpt lat="40.405349" lon="-3.862432">
        <ele>701.80</ele>
        <time>2020-01-19T09:28:52Z</time>
      </trkpt>
      <trkpt lat="40.405381" lon="-3.862491">
        <ele>700.80</ele>
        <time>2020-01-19T09:28:53Z</time>
      </trkpt>
      <trkpt lat="40.405409" lon="-3.862556">
        <ele>700.60</ele>
        <time>2020-01-19T09:28:54Z</time>
      </trkpt>
      <trkpt lat="40.405448" lon="-3.862770">
        <ele>700.20</ele>
        <time>2020-01-19T09:28:57Z</time>
      </trkpt>
      <trkpt lat="40.405488" lon="-3.863067">
        <ele>701.60</ele>
        <time>2020-01-19T09:29:02Z</time>
      </trkpt>
      <trkpt lat="40.405504" lon="-3.863187">
        <ele>701.60</ele>
        <time>2020-01-19T09:29:04Z</time>
      </trkpt>
      <trkpt lat="40.405522" lon="-3.863302">
        <ele>701.40</ele>
        <time>2020-01-19T09:29:06Z</time>
      </trkpt>
      <trkpt lat="40.405548" lon="-3.863415">
        <ele>701.40</ele>
        <time>2020-01-19T09:29:08Z</time>
      </trkpt>
      <trkpt lat="40.405586" lon="-3.863527">
        <ele>701.00</ele>
        <time>2020-01-19T09:29:10Z</time>
      </trkpt>
      <trkpt lat="40.405662" lon="-3.863697">
        <ele>700.80</ele>
        <time>2020-01-19T09:29:13Z</time>
      </trkpt>
      <trkpt lat="40.405700" lon="-3.863810">
        <ele>700.60</ele>
        <time>2020-01-19T09:29:15Z</time>
      </trkpt>
      <trkpt lat="40.405733" lon="-3.863918">
        <ele>701.00</ele>
        <time>2020-01-19T09:29:17Z</time>
      </trkpt>
      <trkpt lat="40.405754" lon="-3.863964">
        <ele>700.80</ele>
        <time>2020-01-19T09:29:18Z</time>
      </trkpt>
      <trkpt lat="40.405896" lon="-3.864272">
        <ele>701.00</ele>
        <time>2020-01-19T09:29:25Z</time>
      </trkpt>
      <trkpt lat="40.405981" lon="-3.864520">
        <ele>701.60</ele>
        <time>2020-01-19T09:29:31Z</time>
      </trkpt>
      <trkpt lat="40.405998" lon="-3.864559">
        <ele>701.60</ele>
        <time>2020-01-19T09:29:32Z</time>
      </trkpt>
      <trkpt lat="40.406054" lon="-3.864746">
        <ele>701.60</ele>
        <time>2020-01-19T09:29:36Z</time>
      </trkpt>
      <trkpt lat="40.406051" lon="-3.864857">
        <ele>701.40</ele>
        <time>2020-01-19T09:29:38Z</time>
      </trkpt>
      <trkpt lat="40.406058" lon="-3.864970">
        <ele>701.20</ele>
        <time>2020-01-19T09:29:40Z</time>
      </trkpt>
      <trkpt lat="40.406092" lon="-3.865203">
        <ele>700.60</ele>
        <time>2020-01-19T09:29:44Z</time>
      </trkpt>
      <trkpt lat="40.406105" lon="-3.865268">
        <ele>700.00</ele>
        <time>2020-01-19T09:29:45Z</time>
      </trkpt>
      <trkpt lat="40.406130" lon="-3.865412">
        <ele>698.80</ele>
        <time>2020-01-19T09:29:47Z</time>
      </trkpt>
      <trkpt lat="40.406139" lon="-3.865485">
        <ele>697.60</ele>
        <time>2020-01-19T09:29:48Z</time>
      </trkpt>
      <trkpt lat="40.406156" lon="-3.865698">
        <ele>698.00</ele>
        <time>2020-01-19T09:29:51Z</time>
      </trkpt>
      <trkpt lat="40.406173" lon="-3.865828">
        <ele>698.00</ele>
        <time>2020-01-19T09:29:53Z</time>
      </trkpt>
      <trkpt lat="40.406213" lon="-3.865988">
        <ele>698.80</ele>
        <time>2020-01-19T09:29:56Z</time>
      </trkpt>
      <trkpt lat="40.406331" lon="-3.866161">
        <ele>699.00</ele>
        <time>2020-01-19T09:30:00Z</time>
      </trkpt>
      <trkpt lat="40.406402" lon="-3.866253">
        <ele>698.20</ele>
        <time>2020-01-19T09:30:02Z</time>
      </trkpt>
      <trkpt lat="40.406450" lon="-3.866382">
        <ele>697.60</ele>
        <time>2020-01-19T09:30:04Z</time>
      </trkpt>
      <trkpt lat="40.406465" lon="-3.866457">
        <ele>696.40</ele>
        <time>2020-01-19T09:30:05Z</time>
      </trkpt>
      <trkpt lat="40.406498" lon="-3.866676">
        <ele>695.40</ele>
        <time>2020-01-19T09:30:08Z</time>
      </trkpt>
      <trkpt lat="40.406500" lon="-3.866752">
        <ele>695.20</ele>
        <time>2020-01-19T09:30:09Z</time>
      </trkpt>
      <trkpt lat="40.406508" lon="-3.866969">
        <ele>694.40</ele>
        <time>2020-01-19T09:30:12Z</time>
      </trkpt>
      <trkpt lat="40.406540" lon="-3.867081">
        <ele>694.80</ele>
        <time>2020-01-19T09:30:14Z</time>
      </trkpt>
      <trkpt lat="40.406599" lon="-3.867157">
        <ele>694.00</ele>
        <time>2020-01-19T09:30:16Z</time>
      </trkpt>
      <trkpt lat="40.406661" lon="-3.867229">
        <ele>693.00</ele>
        <time>2020-01-19T09:30:18Z</time>
      </trkpt>
      <trkpt lat="40.406761" lon="-3.867335">
        <ele>691.40</ele>
        <time>2020-01-19T09:30:21Z</time>
      </trkpt>
      <trkpt lat="40.406823" lon="-3.867403">
        <ele>689.60</ele>
        <time>2020-01-19T09:30:23Z</time>
      </trkpt>
      <trkpt lat="40.406853" lon="-3.867438">
        <ele>689.00</ele>
        <time>2020-01-19T09:30:24Z</time>
      </trkpt>
      <trkpt lat="40.406877" lon="-3.867468">
        <ele>688.40</ele>
        <time>2020-01-19T09:30:25Z</time>
      </trkpt>
      <trkpt lat="40.406923" lon="-3.867540">
        <ele>687.20</ele>
        <time>2020-01-19T09:30:28Z</time>
      </trkpt>
      <trkpt lat="40.406959" lon="-3.867626">
        <ele>686.00</ele>
        <time>2020-01-19T09:30:31Z</time>
      </trkpt>
      <trkpt lat="40.406985" lon="-3.867711">
        <ele>684.80</ele>
        <time>2020-01-19T09:30:33Z</time>
      </trkpt>
      <trkpt lat="40.407004" lon="-3.867764">
        <ele>684.00</ele>
        <time>2020-01-19T09:30:34Z</time>
      </trkpt>
      <trkpt lat="40.407021" lon="-3.867830">
        <ele>683.00</ele>
        <time>2020-01-19T09:30:35Z</time>
      </trkpt>
      <trkpt lat="40.407044" lon="-3.867963">
        <ele>681.20</ele>
        <time>2020-01-19T09:30:37Z</time>
      </trkpt>
      <trkpt lat="40.407064" lon="-3.868144">
        <ele>680.20</ele>
        <time>2020-01-19T09:30:40Z</time>
      </trkpt>
      <trkpt lat="40.407071" lon="-3.868245">
        <ele>679.20</ele>
        <time>2020-01-19T09:30:42Z</time>
      </trkpt>
      <trkpt lat="40.407077" lon="-3.868287">
        <ele>678.60</ele>
        <time>2020-01-19T09:30:43Z</time>
      </trkpt>
      <trkpt lat="40.407098" lon="-3.868355">
        <ele>677.60</ele>
        <time>2020-01-19T09:30:45Z</time>
      </trkpt>
      <trkpt lat="40.407131" lon="-3.868412">
        <ele>675.80</ele>
        <time>2020-01-19T09:30:47Z</time>
      </trkpt>
      <trkpt lat="40.407144" lon="-3.868436">
        <ele>675.20</ele>
        <time>2020-01-19T09:30:48Z</time>
      </trkpt>
      <trkpt lat="40.407159" lon="-3.868485">
        <ele>674.60</ele>
        <time>2020-01-19T09:30:51Z</time>
      </trkpt>
      <trkpt lat="40.407163" lon="-3.868510">
        <ele>674.20</ele>
        <time>2020-01-19T09:30:53Z</time>
      </trkpt>
      <trkpt lat="40.407160" lon="-3.868520">
        <ele>674.00</ele>
        <time>2020-01-19T09:30:54Z</time>
      </trkpt>
      <trkpt lat="40.407156" lon="-3.868547">
        <ele>673.60</ele>
        <time>2020-01-19T09:30:57Z</time>
      </trkpt>
      <trkpt lat="40.407151" lon="-3.868564">
        <ele>673.40</ele>
        <time>2020-01-19T09:30:58Z</time>
      </trkpt>
      <trkpt lat="40.407157" lon="-3.868655">
        <ele>672.40</ele>
        <time>2020-01-19T09:31:01Z</time>
      </trkpt>
      <trkpt lat="40.407172" lon="-3.868713">
        <ele>671.40</ele>
        <time>2020-01-19T09:31:02Z</time>
      </trkpt>
      <trkpt lat="40.407192" lon="-3.868782">
        <ele>670.40</ele>
        <time>2020-01-19T09:31:03Z</time>
      </trkpt>
      <trkpt lat="40.407239" lon="-3.868932">
        <ele>669.20</ele>
        <time>2020-01-19T09:31:05Z</time>
      </trkpt>
      <trkpt lat="40.407283" lon="-3.869067">
        <ele>668.20</ele>
        <time>2020-01-19T09:31:07Z</time>
      </trkpt>
      <trkpt lat="40.407306" lon="-3.869182">
        <ele>668.20</ele>
        <time>2020-01-19T09:31:09Z</time>
      </trkpt>
      <trkpt lat="40.407303" lon="-3.869273">
        <ele>668.60</ele>
        <time>2020-01-19T09:31:11Z</time>
      </trkpt>
      <trkpt lat="40.407225" lon="-3.869480">
        <ele>667.80</ele>
        <time>2020-01-19T09:31:16Z</time>
      </trkpt>
      <trkpt lat="40.407202" lon="-3.869516">
        <ele>667.80</ele>
        <time>2020-01-19T09:31:17Z</time>
      </trkpt>
      <trkpt lat="40.407131" lon="-3.869683">
        <ele>667.40</ele>
        <time>2020-01-19T09:31:21Z</time>
      </trkpt>
      <trkpt lat="40.407123" lon="-3.869865">
        <ele>667.40</ele>
        <time>2020-01-19T09:31:24Z</time>
      </trkpt>
      <trkpt lat="40.407136" lon="-3.869924">
        <ele>666.80</ele>
        <time>2020-01-19T09:31:25Z</time>
      </trkpt>
      <trkpt lat="40.407249" lon="-3.870128">
        <ele>665.60</ele>
        <time>2020-01-19T09:31:29Z</time>
      </trkpt>
      <trkpt lat="40.407434" lon="-3.870200">
        <ele>665.80</ele>
        <time>2020-01-19T09:31:33Z</time>
      </trkpt>
      <trkpt lat="40.407618" lon="-3.870137">
        <ele>665.20</ele>
        <time>2020-01-19T09:31:36Z</time>
      </trkpt>
      <trkpt lat="40.407683" lon="-3.870116">
        <ele>664.20</ele>
        <time>2020-01-19T09:31:37Z</time>
      </trkpt>
      <trkpt lat="40.407751" lon="-3.870105">
        <ele>663.20</ele>
        <time>2020-01-19T09:31:38Z</time>
      </trkpt>
      <trkpt lat="40.407876" lon="-3.870119">
        <ele>663.40</ele>
        <time>2020-01-19T09:31:40Z</time>
      </trkpt>
      <trkpt lat="40.407968" lon="-3.870143">
        <ele>664.40</ele>
        <time>2020-01-19T09:31:42Z</time>
      </trkpt>
      <trkpt lat="40.408011" lon="-3.870150">
        <ele>665.60</ele>
        <time>2020-01-19T09:31:43Z</time>
      </trkpt>
      <trkpt lat="40.408052" lon="-3.870148">
        <ele>666.40</ele>
        <time>2020-01-19T09:31:44Z</time>
      </trkpt>
      <trkpt lat="40.408198" lon="-3.870113">
        <ele>666.80</ele>
        <time>2020-01-19T09:31:48Z</time>
      </trkpt>
      <trkpt lat="40.408327" lon="-3.870208">
        <ele>666.60</ele>
        <time>2020-01-19T09:31:52Z</time>
      </trkpt>
      <trkpt lat="40.408359" lon="-3.870244">
        <ele>666.40</ele>
        <time>2020-01-19T09:31:53Z</time>
      </trkpt>
      <trkpt lat="40.408389" lon="-3.870285">
        <ele>666.40</ele>
        <time>2020-01-19T09:31:54Z</time>
      </trkpt>
      <trkpt lat="40.408459" lon="-3.870381">
        <ele>666.20</ele>
        <time>2020-01-19T09:31:56Z</time>
      </trkpt>
      <trkpt lat="40.408503" lon="-3.870436">
        <ele>665.60</ele>
        <time>2020-01-19T09:31:57Z</time>
      </trkpt>
      <trkpt lat="40.408586" lon="-3.870542">
        <ele>664.60</ele>
        <time>2020-01-19T09:31:59Z</time>
      </trkpt>
      <trkpt lat="40.408618" lon="-3.870596">
        <ele>664.40</ele>
        <time>2020-01-19T09:32:00Z</time>
      </trkpt>
      <trkpt lat="40.408672" lon="-3.870711">
        <ele>664.40</ele>
        <time>2020-01-19T09:32:02Z</time>
      </trkpt>
      <trkpt lat="40.408734" lon="-3.870825">
        <ele>663.80</ele>
        <time>2020-01-19T09:32:04Z</time>
      </trkpt>
      <trkpt lat="40.408803" lon="-3.871002">
        <ele>665.00</ele>
        <time>2020-01-19T09:32:07Z</time>
      </trkpt>
      <trkpt lat="40.408823" lon="-3.871052">
        <ele>665.20</ele>
        <time>2020-01-19T09:32:08Z</time>
      </trkpt>
      <trkpt lat="40.408867" lon="-3.871124">
        <ele>665.60</ele>
        <time>2020-01-19T09:32:10Z</time>
      </trkpt>
      <trkpt lat="40.408872" lon="-3.871160">
        <ele>666.00</ele>
        <time>2020-01-19T09:32:11Z</time>
      </trkpt>
      <trkpt lat="40.408876" lon="-3.871196">
        <ele>666.60</ele>
        <time>2020-01-19T09:32:12Z</time>
      </trkpt>
      <trkpt lat="40.408883" lon="-3.871234">
        <ele>667.20</ele>
        <time>2020-01-19T09:32:13Z</time>
      </trkpt>
      <trkpt lat="40.408917" lon="-3.871329">
        <ele>668.00</ele>
        <time>2020-01-19T09:32:16Z</time>
      </trkpt>
      <trkpt lat="40.408930" lon="-3.871344">
        <ele>668.40</ele>
        <time>2020-01-19T09:32:17Z</time>
      </trkpt>
      <trkpt lat="40.408963" lon="-3.871398">
        <ele>669.60</ele>
        <time>2020-01-19T09:32:20Z</time>
      </trkpt>
      <trkpt lat="40.408952" lon="-3.871419">
        <ele>669.80</ele>
        <time>2020-01-19T09:32:21Z</time>
      </trkpt>
      <trkpt lat="40.408862" lon="-3.871562">
        <ele>669.60</ele>
        <time>2020-01-19T09:32:25Z</time>
      </trkpt>
      <trkpt lat="40.408839" lon="-3.871608">
        <ele>669.60</ele>
        <time>2020-01-19T09:32:26Z</time>
      </trkpt>
      <trkpt lat="40.408761" lon="-3.871748">
        <ele>669.60</ele>
        <time>2020-01-19T09:32:29Z</time>
      </trkpt>
      <trkpt lat="40.408697" lon="-3.871820">
        <ele>670.00</ele>
        <time>2020-01-19T09:32:31Z</time>
      </trkpt>
      <trkpt lat="40.408627" lon="-3.871886">
        <ele>670.20</ele>
        <time>2020-01-19T09:32:33Z</time>
      </trkpt>
      <trkpt lat="40.408552" lon="-3.872005">
        <ele>670.00</ele>
        <time>2020-01-19T09:32:36Z</time>
      </trkpt>
      <trkpt lat="40.408423" lon="-3.872207">
        <ele>670.00</ele>
        <time>2020-01-19T09:32:41Z</time>
      </trkpt>
      <trkpt lat="40.408340" lon="-3.872322">
        <ele>670.80</ele>
        <time>2020-01-19T09:32:44Z</time>
      </trkpt>
      <trkpt lat="40.408209" lon="-3.872569">
        <ele>670.80</ele>
        <time>2020-01-19T09:32:50Z</time>
      </trkpt>
      <trkpt lat="40.408034" lon="-3.872794">
        <ele>671.60</ele>
        <time>2020-01-19T09:32:56Z</time>
      </trkpt>
      <trkpt lat="40.408009" lon="-3.872831">
        <ele>672.00</ele>
        <time>2020-01-19T09:32:57Z</time>
      </trkpt>
      <trkpt lat="40.407855" lon="-3.873046">
        <ele>672.20</ele>
        <time>2020-01-19T09:33:03Z</time>
      </trkpt>
      <trkpt lat="40.407760" lon="-3.873167">
        <ele>673.20</ele>
        <time>2020-01-19T09:33:07Z</time>
      </trkpt>
      <trkpt lat="40.407740" lon="-3.873204">
        <ele>673.40</ele>
        <time>2020-01-19T09:33:08Z</time>
      </trkpt>
      <trkpt lat="40.407607" lon="-3.873412">
        <ele>673.80</ele>
        <time>2020-01-19T09:33:14Z</time>
      </trkpt>
      <trkpt lat="40.407459" lon="-3.873637">
        <ele>674.40</ele>
        <time>2020-01-19T09:33:20Z</time>
      </trkpt>
      <trkpt lat="40.407304" lon="-3.873849">
        <ele>674.80</ele>
        <time>2020-01-19T09:33:26Z</time>
      </trkpt>
      <trkpt lat="40.407267" lon="-3.873925">
        <ele>674.80</ele>
        <time>2020-01-19T09:33:28Z</time>
      </trkpt>
      <trkpt lat="40.407255" lon="-3.874025">
        <ele>674.60</ele>
        <time>2020-01-19T09:33:30Z</time>
      </trkpt>
      <trkpt lat="40.407174" lon="-3.874234">
        <ele>675.60</ele>
        <time>2020-01-19T09:33:34Z</time>
      </trkpt>
      <trkpt lat="40.407148" lon="-3.874278">
        <ele>675.40</ele>
        <time>2020-01-19T09:33:35Z</time>
      </trkpt>
      <trkpt lat="40.407007" lon="-3.874544">
        <ele>675.40</ele>
        <time>2020-01-19T09:33:42Z</time>
      </trkpt>
      <trkpt lat="40.407043" lon="-3.874571">
        <ele>675.40</ele>
        <time>2020-01-19T09:33:45Z</time>
      </trkpt>
      <trkpt lat="40.407042" lon="-3.874652">
        <ele>674.20</ele>
        <time>2020-01-19T09:49:39Z</time>
      </trkpt>
      <trkpt lat="40.407028" lon="-3.874662">
        <ele>674.20</ele>
        <time>2020-01-19T09:49:40Z</time>
      </trkpt>
      <trkpt lat="40.406944" lon="-3.874704">
        <ele>674.20</ele>
        <time>2020-01-19T09:49:44Z</time>
      </trkpt>
      <trkpt lat="40.406894" lon="-3.874717">
        <ele>674.20</ele>
        <time>2020-01-19T09:49:46Z</time>
      </trkpt>
      <trkpt lat="40.406795" lon="-3.874809">
        <ele>674.40</ele>
        <time>2020-01-19T09:49:51Z</time>
      </trkpt>
      <trkpt lat="40.406694" lon="-3.874978">
        <ele>674.00</ele>
        <time>2020-01-19T09:49:57Z</time>
      </trkpt>
      <trkpt lat="40.406539" lon="-3.875261">
        <ele>673.00</ele>
        <time>2020-01-19T09:50:04Z</time>
      </trkpt>
      <trkpt lat="40.406493" lon="-3.875358">
        <ele>672.60</ele>
        <time>2020-01-19T09:50:06Z</time>
      </trkpt>
      <trkpt lat="40.406365" lon="-3.875535">
        <ele>672.20</ele>
        <time>2020-01-19T09:50:10Z</time>
      </trkpt>
      <trkpt lat="40.406281" lon="-3.875612">
        <ele>672.00</ele>
        <time>2020-01-19T09:50:12Z</time>
      </trkpt>
      <trkpt lat="40.406100" lon="-3.875782">
        <ele>671.20</ele>
        <time>2020-01-19T09:50:16Z</time>
      </trkpt>
      <trkpt lat="40.406004" lon="-3.875868">
        <ele>670.80</ele>
        <time>2020-01-19T09:50:18Z</time>
      </trkpt>
      <trkpt lat="40.405868" lon="-3.875971">
        <ele>670.40</ele>
        <time>2020-01-19T09:50:21Z</time>
      </trkpt>
      <trkpt lat="40.405830" lon="-3.876008">
        <ele>670.20</ele>
        <time>2020-01-19T09:50:22Z</time>
      </trkpt>
      <trkpt lat="40.405792" lon="-3.876054">
        <ele>670.00</ele>
        <time>2020-01-19T09:50:23Z</time>
      </trkpt>
      <trkpt lat="40.405745" lon="-3.876179">
        <ele>669.60</ele>
        <time>2020-01-19T09:50:25Z</time>
      </trkpt>
      <trkpt lat="40.405717" lon="-3.876238">
        <ele>669.60</ele>
        <time>2020-01-19T09:50:26Z</time>
      </trkpt>
      <trkpt lat="40.405650" lon="-3.876347">
        <ele>669.40</ele>
        <time>2020-01-19T09:50:28Z</time>
      </trkpt>
      <trkpt lat="40.405545" lon="-3.876502">
        <ele>668.60</ele>
        <time>2020-01-19T09:50:31Z</time>
      </trkpt>
      <trkpt lat="40.405508" lon="-3.876552">
        <ele>668.40</ele>
        <time>2020-01-19T09:50:32Z</time>
      </trkpt>
      <trkpt lat="40.405361" lon="-3.876751">
        <ele>667.40</ele>
        <time>2020-01-19T09:50:36Z</time>
      </trkpt>
      <trkpt lat="40.405293" lon="-3.876868">
        <ele>667.00</ele>
        <time>2020-01-19T09:50:38Z</time>
      </trkpt>
      <trkpt lat="40.405134" lon="-3.877163">
        <ele>666.20</ele>
        <time>2020-01-19T09:50:43Z</time>
      </trkpt>
      <trkpt lat="40.405102" lon="-3.877217">
        <ele>666.20</ele>
        <time>2020-01-19T09:50:44Z</time>
      </trkpt>
      <trkpt lat="40.404896" lon="-3.877494">
        <ele>666.20</ele>
        <time>2020-01-19T09:50:50Z</time>
      </trkpt>
      <trkpt lat="40.404810" lon="-3.877613">
        <ele>666.00</ele>
        <time>2020-01-19T09:50:54Z</time>
      </trkpt>
      <trkpt lat="40.404747" lon="-3.877687">
        <ele>666.60</ele>
        <time>2020-01-19T09:50:57Z</time>
      </trkpt>
      <trkpt lat="40.404715" lon="-3.877690">
        <ele>666.40</ele>
        <time>2020-01-19T09:50:58Z</time>
      </trkpt>
      <trkpt lat="40.404596" lon="-3.877647">
        <ele>666.20</ele>
        <time>2020-01-19T09:51:01Z</time>
      </trkpt>
      <trkpt lat="40.404548" lon="-3.877622">
        <ele>666.00</ele>
        <time>2020-01-19T09:51:02Z</time>
      </trkpt>
      <trkpt lat="40.404395" lon="-3.877547">
        <ele>665.20</ele>
        <time>2020-01-19T09:51:05Z</time>
      </trkpt>
      <trkpt lat="40.404174" lon="-3.877446">
        <ele>664.40</ele>
        <time>2020-01-19T09:51:09Z</time>
      </trkpt>
      <trkpt lat="40.404111" lon="-3.877419">
        <ele>664.20</ele>
        <time>2020-01-19T09:51:10Z</time>
      </trkpt>
      <trkpt lat="40.403975" lon="-3.877392">
        <ele>663.40</ele>
        <time>2020-01-19T09:51:12Z</time>
      </trkpt>
      <trkpt lat="40.403909" lon="-3.877413">
        <ele>663.20</ele>
        <time>2020-01-19T09:51:13Z</time>
      </trkpt>
      <trkpt lat="40.403848" lon="-3.877459">
        <ele>662.80</ele>
        <time>2020-01-19T09:51:14Z</time>
      </trkpt>
      <trkpt lat="40.403745" lon="-3.877574">
        <ele>662.40</ele>
        <time>2020-01-19T09:51:16Z</time>
      </trkpt>
      <trkpt lat="40.403575" lon="-3.877714">
        <ele>662.00</ele>
        <time>2020-01-19T09:51:19Z</time>
      </trkpt>
      <trkpt lat="40.403516" lon="-3.877760">
        <ele>661.80</ele>
        <time>2020-01-19T09:51:20Z</time>
      </trkpt>
      <trkpt lat="40.403460" lon="-3.877818">
        <ele>661.20</ele>
        <time>2020-01-19T09:51:21Z</time>
      </trkpt>
      <trkpt lat="40.403358" lon="-3.877939">
        <ele>660.60</ele>
        <time>2020-01-19T09:51:23Z</time>
      </trkpt>
      <trkpt lat="40.403151" lon="-3.878182">
        <ele>660.40</ele>
        <time>2020-01-19T09:51:27Z</time>
      </trkpt>
      <trkpt lat="40.403049" lon="-3.878316">
        <ele>659.60</ele>
        <time>2020-01-19T09:51:29Z</time>
      </trkpt>
      <trkpt lat="40.402795" lon="-3.878639">
        <ele>659.20</ele>
        <time>2020-01-19T09:51:34Z</time>
      </trkpt>
      <trkpt lat="40.402634" lon="-3.878819">
        <ele>658.40</ele>
        <time>2020-01-19T09:51:37Z</time>
      </trkpt>
      <trkpt lat="40.402481" lon="-3.879011">
        <ele>658.00</ele>
        <time>2020-01-19T09:51:40Z</time>
      </trkpt>
      <trkpt lat="40.402334" lon="-3.879206">
        <ele>657.20</ele>
        <time>2020-01-19T09:51:43Z</time>
      </trkpt>
      <trkpt lat="40.402090" lon="-3.879511">
        <ele>656.60</ele>
        <time>2020-01-19T09:51:48Z</time>
      </trkpt>
      <trkpt lat="40.401784" lon="-3.879900">
        <ele>656.00</ele>
        <time>2020-01-19T09:51:54Z</time>
      </trkpt>
      <trkpt lat="40.401627" lon="-3.880094">
        <ele>655.00</ele>
        <time>2020-01-19T09:51:57Z</time>
      </trkpt>
      <trkpt lat="40.401576" lon="-3.880160">
        <ele>654.60</ele>
        <time>2020-01-19T09:51:58Z</time>
      </trkpt>
      <trkpt lat="40.401145" lon="-3.880683">
        <ele>654.20</ele>
        <time>2020-01-19T09:52:06Z</time>
      </trkpt>
      <trkpt lat="40.401043" lon="-3.880808">
        <ele>653.80</ele>
        <time>2020-01-19T09:52:08Z</time>
      </trkpt>
      <trkpt lat="40.400666" lon="-3.881309">
        <ele>653.60</ele>
        <time>2020-01-19T09:52:16Z</time>
      </trkpt>
      <trkpt lat="40.400626" lon="-3.881372">
        <ele>653.60</ele>
        <time>2020-01-19T09:52:17Z</time>
      </trkpt>
      <trkpt lat="40.400533" lon="-3.881586">
        <ele>653.80</ele>
        <time>2020-01-19T09:52:21Z</time>
      </trkpt>
      <trkpt lat="40.400504" lon="-3.881785">
        <ele>654.40</ele>
        <time>2020-01-19T09:52:25Z</time>
      </trkpt>
      <trkpt lat="40.400475" lon="-3.881908">
        <ele>654.40</ele>
        <time>2020-01-19T09:52:27Z</time>
      </trkpt>
      <trkpt lat="40.400413" lon="-3.882016">
        <ele>654.40</ele>
        <time>2020-01-19T09:52:29Z</time>
      </trkpt>
      <trkpt lat="40.400253" lon="-3.882102">
        <ele>654.00</ele>
        <time>2020-01-19T09:52:32Z</time>
      </trkpt>
      <trkpt lat="40.400058" lon="-3.882107">
        <ele>653.40</ele>
        <time>2020-01-19T09:52:35Z</time>
      </trkpt>
      <trkpt lat="40.399990" lon="-3.882116">
        <ele>653.20</ele>
        <time>2020-01-19T09:52:36Z</time>
      </trkpt>
      <trkpt lat="40.399808" lon="-3.882232">
        <ele>652.80</ele>
        <time>2020-01-19T09:52:39Z</time>
      </trkpt>
      <trkpt lat="40.399708" lon="-3.882348">
        <ele>652.60</ele>
        <time>2020-01-19T09:52:41Z</time>
      </trkpt>
      <trkpt lat="40.399558" lon="-3.882528">
        <ele>652.00</ele>
        <time>2020-01-19T09:52:44Z</time>
      </trkpt>
      <trkpt lat="40.399104" lon="-3.883037">
        <ele>651.60</ele>
        <time>2020-01-19T09:52:53Z</time>
      </trkpt>
      <trkpt lat="40.399053" lon="-3.883093">
        <ele>651.60</ele>
        <time>2020-01-19T09:52:54Z</time>
      </trkpt>
      <trkpt lat="40.399004" lon="-3.883153">
        <ele>651.20</ele>
        <time>2020-01-19T09:52:55Z</time>
      </trkpt>
      <trkpt lat="40.398823" lon="-3.883407">
        <ele>651.00</ele>
        <time>2020-01-19T09:52:59Z</time>
      </trkpt>
      <trkpt lat="40.398792" lon="-3.883483">
        <ele>651.00</ele>
        <time>2020-01-19T09:53:00Z</time>
      </trkpt>
      <trkpt lat="40.398781" lon="-3.883742">
        <ele>650.00</ele>
        <time>2020-01-19T09:53:03Z</time>
      </trkpt>
      <trkpt lat="40.398891" lon="-3.884031">
        <ele>650.40</ele>
        <time>2020-01-19T09:53:07Z</time>
      </trkpt>
      <trkpt lat="40.398970" lon="-3.884139">
        <ele>650.40</ele>
        <time>2020-01-19T09:53:09Z</time>
      </trkpt>
      <trkpt lat="40.399041" lon="-3.884237">
        <ele>651.20</ele>
        <time>2020-01-19T09:53:11Z</time>
      </trkpt>
      <trkpt lat="40.399108" lon="-3.884335">
        <ele>652.00</ele>
        <time>2020-01-19T09:53:13Z</time>
      </trkpt>
      <trkpt lat="40.399142" lon="-3.884382">
        <ele>652.20</ele>
        <time>2020-01-19T09:53:14Z</time>
      </trkpt>
      <trkpt lat="40.399336" lon="-3.884583">
        <ele>653.60</ele>
        <time>2020-01-19T09:53:19Z</time>
      </trkpt>
      <trkpt lat="40.399374" lon="-3.884619">
        <ele>653.80</ele>
        <time>2020-01-19T09:53:20Z</time>
      </trkpt>
      <trkpt lat="40.399398" lon="-3.884790">
        <ele>654.20</ele>
        <time>2020-01-19T09:53:23Z</time>
      </trkpt>
      <trkpt lat="40.399300" lon="-3.884951">
        <ele>654.20</ele>
        <time>2020-01-19T09:53:26Z</time>
      </trkpt>
      <trkpt lat="40.399156" lon="-3.885233">
        <ele>654.20</ele>
        <time>2020-01-19T09:53:31Z</time>
      </trkpt>
      <trkpt lat="40.399135" lon="-3.885295">
        <ele>654.40</ele>
        <time>2020-01-19T09:53:32Z</time>
      </trkpt>
      <trkpt lat="40.399116" lon="-3.885350">
        <ele>654.80</ele>
        <time>2020-01-19T09:53:33Z</time>
      </trkpt>
      <trkpt lat="40.398982" lon="-3.885708">
        <ele>655.40</ele>
        <time>2020-01-19T09:53:39Z</time>
      </trkpt>
      <trkpt lat="40.398902" lon="-3.885890">
        <ele>655.80</ele>
        <time>2020-01-19T09:53:42Z</time>
      </trkpt>
      <trkpt lat="40.398810" lon="-3.886145">
        <ele>656.00</ele>
        <time>2020-01-19T09:53:46Z</time>
      </trkpt>
      <trkpt lat="40.398644" lon="-3.886653">
        <ele>656.20</ele>
        <time>2020-01-19T09:53:54Z</time>
      </trkpt>
      <trkpt lat="40.398554" lon="-3.886909">
        <ele>656.00</ele>
        <time>2020-01-19T09:53:58Z</time>
      </trkpt>
      <trkpt lat="40.398547" lon="-3.886979">
        <ele>655.80</ele>
        <time>2020-01-19T09:53:59Z</time>
      </trkpt>
      <trkpt lat="40.398626" lon="-3.887163">
        <ele>655.40</ele>
        <time>2020-01-19T09:54:02Z</time>
      </trkpt>
      <trkpt lat="40.398772" lon="-3.887264">
        <ele>654.80</ele>
        <time>2020-01-19T09:54:05Z</time>
      </trkpt>
      <trkpt lat="40.398819" lon="-3.887302">
        <ele>654.80</ele>
        <time>2020-01-19T09:54:06Z</time>
      </trkpt>
      <trkpt lat="40.398993" lon="-3.887416">
        <ele>655.40</ele>
        <time>2020-01-19T09:54:10Z</time>
      </trkpt>
      <trkpt lat="40.399073" lon="-3.887469">
        <ele>656.00</ele>
        <time>2020-01-19T09:54:12Z</time>
      </trkpt>
      <trkpt lat="40.399334" lon="-3.887668">
        <ele>656.40</ele>
        <time>2020-01-19T09:54:18Z</time>
      </trkpt>
      <trkpt lat="40.399630" lon="-3.887856">
        <ele>656.60</ele>
        <time>2020-01-19T09:54:25Z</time>
      </trkpt>
      <trkpt lat="40.399714" lon="-3.887919">
        <ele>657.20</ele>
        <time>2020-01-19T09:54:27Z</time>
      </trkpt>
      <trkpt lat="40.399799" lon="-3.887980">
        <ele>657.40</ele>
        <time>2020-01-19T09:54:29Z</time>
      </trkpt>
      <trkpt lat="40.399881" lon="-3.888054">
        <ele>657.40</ele>
        <time>2020-01-19T09:54:31Z</time>
      </trkpt>
      <trkpt lat="40.399966" lon="-3.888119">
        <ele>657.80</ele>
        <time>2020-01-19T09:54:33Z</time>
      </trkpt>
      <trkpt lat="40.400056" lon="-3.888171">
        <ele>657.80</ele>
        <time>2020-01-19T09:54:35Z</time>
      </trkpt>
      <trkpt lat="40.400145" lon="-3.888228">
        <ele>657.60</ele>
        <time>2020-01-19T09:54:37Z</time>
      </trkpt>
      <trkpt lat="40.400273" lon="-3.888307">
        <ele>658.20</ele>
        <time>2020-01-19T09:54:40Z</time>
      </trkpt>
      <trkpt lat="40.400447" lon="-3.888412">
        <ele>658.60</ele>
        <time>2020-01-19T09:54:44Z</time>
      </trkpt>
      <trkpt lat="40.400729" lon="-3.888582">
        <ele>659.00</ele>
        <time>2020-01-19T09:54:50Z</time>
      </trkpt>
      <trkpt lat="40.400868" lon="-3.888655">
        <ele>659.20</ele>
        <time>2020-01-19T09:54:53Z</time>
      </trkpt>
      <trkpt lat="40.400915" lon="-3.888674">
        <ele>659.20</ele>
        <time>2020-01-19T09:54:54Z</time>
      </trkpt>
      <trkpt lat="40.401004" lon="-3.888714">
        <ele>659.20</ele>
        <time>2020-01-19T09:54:56Z</time>
      </trkpt>
      <trkpt lat="40.401285" lon="-3.888835">
        <ele>660.00</ele>
        <time>2020-01-19T09:55:02Z</time>
      </trkpt>
      <trkpt lat="40.401382" lon="-3.888880">
        <ele>660.20</ele>
        <time>2020-01-19T09:55:04Z</time>
      </trkpt>
      <trkpt lat="40.401468" lon="-3.888918">
        <ele>660.80</ele>
        <time>2020-01-19T09:55:06Z</time>
      </trkpt>
      <trkpt lat="40.401608" lon="-3.888974">
        <ele>661.20</ele>
        <time>2020-01-19T09:55:09Z</time>
      </trkpt>
      <trkpt lat="40.401702" lon="-3.889023">
        <ele>661.40</ele>
        <time>2020-01-19T09:55:11Z</time>
      </trkpt>
      <trkpt lat="40.401870" lon="-3.889113">
        <ele>662.00</ele>
        <time>2020-01-19T09:55:15Z</time>
      </trkpt>
      <trkpt lat="40.401949" lon="-3.889196">
        <ele>662.00</ele>
        <time>2020-01-19T09:55:18Z</time>
      </trkpt>
      <trkpt lat="40.401960" lon="-3.889247">
        <ele>662.20</ele>
        <time>2020-01-19T09:55:19Z</time>
      </trkpt>
      <trkpt lat="40.401977" lon="-3.889365">
        <ele>662.20</ele>
        <time>2020-01-19T09:55:21Z</time>
      </trkpt>
      <trkpt lat="40.401995" lon="-3.889571">
        <ele>661.80</ele>
        <time>2020-01-19T09:55:24Z</time>
      </trkpt>
      <trkpt lat="40.402055" lon="-3.890146">
        <ele>660.80</ele>
        <time>2020-01-19T09:55:32Z</time>
      </trkpt>
      <trkpt lat="40.402084" lon="-3.890383">
        <ele>660.40</ele>
        <time>2020-01-19T09:55:35Z</time>
      </trkpt>
      <trkpt lat="40.402143" lon="-3.890799">
        <ele>659.60</ele>
        <time>2020-01-19T09:55:40Z</time>
      </trkpt>
      <trkpt lat="40.402183" lon="-3.891054">
        <ele>659.00</ele>
        <time>2020-01-19T09:55:43Z</time>
      </trkpt>
      <trkpt lat="40.402222" lon="-3.891397">
        <ele>658.00</ele>
        <time>2020-01-19T09:55:47Z</time>
      </trkpt>
      <trkpt lat="40.402234" lon="-3.891483">
        <ele>657.80</ele>
        <time>2020-01-19T09:55:48Z</time>
      </trkpt>
      <trkpt lat="40.402275" lon="-3.891727">
        <ele>658.20</ele>
        <time>2020-01-19T09:55:52Z</time>
      </trkpt>
      <trkpt lat="40.402254" lon="-3.891807">
        <ele>658.40</ele>
        <time>2020-01-19T09:55:54Z</time>
      </trkpt>
      <trkpt lat="40.402223" lon="-3.891834">
        <ele>658.60</ele>
        <time>2020-01-19T09:55:55Z</time>
      </trkpt>
      <trkpt lat="40.402089" lon="-3.891807">
        <ele>658.60</ele>
        <time>2020-01-19T09:55:58Z</time>
      </trkpt>
      <trkpt lat="40.401998" lon="-3.891786">
        <ele>658.20</ele>
        <time>2020-01-19T09:56:00Z</time>
      </trkpt>
      <trkpt lat="40.401798" lon="-3.891736">
        <ele>658.00</ele>
        <time>2020-01-19T09:56:04Z</time>
      </trkpt>
      <trkpt lat="40.401449" lon="-3.891622">
        <ele>657.20</ele>
        <time>2020-01-19T09:56:10Z</time>
      </trkpt>
      <trkpt lat="40.401097" lon="-3.891479">
        <ele>656.80</ele>
        <time>2020-01-19T09:56:16Z</time>
      </trkpt>
      <trkpt lat="40.400921" lon="-3.891386">
        <ele>656.80</ele>
        <time>2020-01-19T09:56:19Z</time>
      </trkpt>
      <trkpt lat="40.400564" lon="-3.891179">
        <ele>655.60</ele>
        <time>2020-01-19T09:56:25Z</time>
      </trkpt>
      <trkpt lat="40.400438" lon="-3.891107">
        <ele>655.40</ele>
        <time>2020-01-19T09:56:27Z</time>
      </trkpt>
      <trkpt lat="40.400244" lon="-3.891011">
        <ele>654.60</ele>
        <time>2020-01-19T09:56:30Z</time>
      </trkpt>
      <trkpt lat="40.399970" lon="-3.890889">
        <ele>653.60</ele>
        <time>2020-01-19T09:56:34Z</time>
      </trkpt>
      <trkpt lat="40.399831" lon="-3.890836">
        <ele>653.00</ele>
        <time>2020-01-19T09:56:36Z</time>
      </trkpt>
      <trkpt lat="40.399691" lon="-3.890788">
        <ele>652.20</ele>
        <time>2020-01-19T09:56:38Z</time>
      </trkpt>
      <trkpt lat="40.399187" lon="-3.890653">
        <ele>651.00</ele>
        <time>2020-01-19T09:56:45Z</time>
      </trkpt>
      <trkpt lat="40.398893" lon="-3.890596">
        <ele>649.80</ele>
        <time>2020-01-19T09:56:49Z</time>
      </trkpt>
      <trkpt lat="40.398723" lon="-3.890575">
        <ele>650.00</ele>
        <time>2020-01-19T09:56:52Z</time>
      </trkpt>
      <trkpt lat="40.398563" lon="-3.890663">
        <ele>650.40</ele>
        <time>2020-01-19T09:56:57Z</time>
      </trkpt>
      <trkpt lat="40.398455" lon="-3.890899">
        <ele>650.20</ele>
        <time>2020-01-19T09:57:01Z</time>
      </trkpt>
      <trkpt lat="40.398453" lon="-3.891124">
        <ele>649.80</ele>
        <time>2020-01-19T09:57:04Z</time>
      </trkpt>
      <trkpt lat="40.398473" lon="-3.891263">
        <ele>650.20</ele>
        <time>2020-01-19T09:57:06Z</time>
      </trkpt>
      <trkpt lat="40.398498" lon="-3.891455">
        <ele>651.20</ele>
        <time>2020-01-19T09:57:09Z</time>
      </trkpt>
      <trkpt lat="40.398512" lon="-3.891512">
        <ele>651.40</ele>
        <time>2020-01-19T09:57:10Z</time>
      </trkpt>
      <trkpt lat="40.398528" lon="-3.891673">
        <ele>652.40</ele>
        <time>2020-01-19T09:57:13Z</time>
      </trkpt>
      <trkpt lat="40.398535" lon="-3.891725">
        <ele>652.60</ele>
        <time>2020-01-19T09:57:14Z</time>
      </trkpt>
      <trkpt lat="40.398540" lon="-3.891775">
        <ele>653.00</ele>
        <time>2020-01-19T09:57:15Z</time>
      </trkpt>
      <trkpt lat="40.398551" lon="-3.891828">
        <ele>653.20</ele>
        <time>2020-01-19T09:57:16Z</time>
      </trkpt>
      <trkpt lat="40.398563" lon="-3.891883">
        <ele>653.40</ele>
        <time>2020-01-19T09:57:17Z</time>
      </trkpt>
      <trkpt lat="40.398590" lon="-3.892046">
        <ele>654.80</ele>
        <time>2020-01-19T09:57:20Z</time>
      </trkpt>
      <trkpt lat="40.398598" lon="-3.892100">
        <ele>654.80</ele>
        <time>2020-01-19T09:57:21Z</time>
      </trkpt>
      <trkpt lat="40.398628" lon="-3.892255">
        <ele>656.20</ele>
        <time>2020-01-19T09:57:24Z</time>
      </trkpt>
      <trkpt lat="40.398666" lon="-3.892454">
        <ele>657.20</ele>
        <time>2020-01-19T09:57:28Z</time>
      </trkpt>
      <trkpt lat="40.398693" lon="-3.892661">
        <ele>658.40</ele>
        <time>2020-01-19T09:57:32Z</time>
      </trkpt>
      <trkpt lat="40.398728" lon="-3.892803">
        <ele>659.20</ele>
        <time>2020-01-19T09:57:35Z</time>
      </trkpt>
      <trkpt lat="40.398763" lon="-3.892939">
        <ele>659.60</ele>
        <time>2020-01-19T09:57:38Z</time>
      </trkpt>
      <trkpt lat="40.398803" lon="-3.893078">
        <ele>660.20</ele>
        <time>2020-01-19T09:57:41Z</time>
      </trkpt>
      <trkpt lat="40.398822" lon="-3.893171">
        <ele>660.80</ele>
        <time>2020-01-19T09:57:43Z</time>
      </trkpt>
      <trkpt lat="40.398857" lon="-3.893305">
        <ele>661.80</ele>
        <time>2020-01-19T09:57:46Z</time>
      </trkpt>
      <trkpt lat="40.398924" lon="-3.893513">
        <ele>663.00</ele>
        <time>2020-01-19T09:57:51Z</time>
      </trkpt>
      <trkpt lat="40.398994" lon="-3.893770">
        <ele>664.20</ele>
        <time>2020-01-19T09:57:57Z</time>
      </trkpt>
      <trkpt lat="40.399061" lon="-3.893937">
        <ele>665.00</ele>
        <time>2020-01-19T09:58:01Z</time>
      </trkpt>
      <trkpt lat="40.399094" lon="-3.894015">
        <ele>665.40</ele>
        <time>2020-01-19T09:58:03Z</time>
      </trkpt>
      <trkpt lat="40.399147" lon="-3.894182">
        <ele>666.00</ele>
        <time>2020-01-19T09:58:07Z</time>
      </trkpt>
      <trkpt lat="40.399183" lon="-3.894250">
        <ele>666.60</ele>
        <time>2020-01-19T09:58:09Z</time>
      </trkpt>
      <trkpt lat="40.399236" lon="-3.894352">
        <ele>667.00</ele>
        <time>2020-01-19T09:58:12Z</time>
      </trkpt>
      <trkpt lat="40.399297" lon="-3.894503">
        <ele>668.00</ele>
        <time>2020-01-19T09:58:16Z</time>
      </trkpt>
      <trkpt lat="40.399351" lon="-3.894611">
        <ele>668.40</ele>
        <time>2020-01-19T09:58:19Z</time>
      </trkpt>
      <trkpt lat="40.399387" lon="-3.894690">
        <ele>669.00</ele>
        <time>2020-01-19T09:58:21Z</time>
      </trkpt>
      <trkpt lat="40.399462" lon="-3.894889">
        <ele>670.00</ele>
        <time>2020-01-19T09:58:26Z</time>
      </trkpt>
      <trkpt lat="40.399473" lon="-3.894936">
        <ele>670.20</ele>
        <time>2020-01-19T09:58:27Z</time>
      </trkpt>
      <trkpt lat="40.399539" lon="-3.895153">
        <ele>671.20</ele>
        <time>2020-01-19T09:58:32Z</time>
      </trkpt>
      <trkpt lat="40.399597" lon="-3.895363">
        <ele>672.40</ele>
        <time>2020-01-19T09:58:37Z</time>
      </trkpt>
      <trkpt lat="40.399646" lon="-3.895629">
        <ele>673.40</ele>
        <time>2020-01-19T09:58:43Z</time>
      </trkpt>
      <trkpt lat="40.399656" lon="-3.895670">
        <ele>673.40</ele>
        <time>2020-01-19T09:58:44Z</time>
      </trkpt>
      <trkpt lat="40.399681" lon="-3.895908">
        <ele>674.60</ele>
        <time>2020-01-19T09:58:49Z</time>
      </trkpt>
      <trkpt lat="40.399690" lon="-3.895954">
        <ele>674.80</ele>
        <time>2020-01-19T09:58:50Z</time>
      </trkpt>
      <trkpt lat="40.399722" lon="-3.896150">
        <ele>675.00</ele>
        <time>2020-01-19T09:58:54Z</time>
      </trkpt>
      <trkpt lat="40.399752" lon="-3.896181">
        <ele>675.00</ele>
        <time>2020-01-19T09:58:55Z</time>
      </trkpt>
      <trkpt lat="40.399855" lon="-3.896231">
        <ele>675.40</ele>
        <time>2020-01-19T09:58:58Z</time>
      </trkpt>
      <trkpt lat="40.399888" lon="-3.896312">
        <ele>675.40</ele>
        <time>2020-01-19T09:59:00Z</time>
      </trkpt>
      <trkpt lat="40.399885" lon="-3.896366">
        <ele>675.80</ele>
        <time>2020-01-19T09:59:01Z</time>
      </trkpt>
      <trkpt lat="40.399820" lon="-3.896571">
        <ele>675.40</ele>
        <time>2020-01-19T09:59:05Z</time>
      </trkpt>
      <trkpt lat="40.399792" lon="-3.896615">
        <ele>675.60</ele>
        <time>2020-01-19T09:59:06Z</time>
      </trkpt>
      <trkpt lat="40.399684" lon="-3.896809">
        <ele>675.60</ele>
        <time>2020-01-19T09:59:10Z</time>
      </trkpt>
      <trkpt lat="40.399663" lon="-3.897048">
        <ele>675.80</ele>
        <time>2020-01-19T09:59:14Z</time>
      </trkpt>
      <trkpt lat="40.399681" lon="-3.897365">
        <ele>675.20</ele>
        <time>2020-01-19T09:59:19Z</time>
      </trkpt>
      <trkpt lat="40.399705" lon="-3.897542">
        <ele>675.20</ele>
        <time>2020-01-19T09:59:22Z</time>
      </trkpt>
      <trkpt lat="40.399792" lon="-3.898066">
        <ele>676.80</ele>
        <time>2020-01-19T09:59:31Z</time>
      </trkpt>
      <trkpt lat="40.399807" lon="-3.898121">
        <ele>677.00</ele>
        <time>2020-01-19T09:59:32Z</time>
      </trkpt>
      <trkpt lat="40.399880" lon="-3.898382">
        <ele>677.80</ele>
        <time>2020-01-19T09:59:37Z</time>
      </trkpt>
      <trkpt lat="40.399970" lon="-3.898645">
        <ele>678.20</ele>
        <time>2020-01-19T09:59:42Z</time>
      </trkpt>
      <trkpt lat="40.400029" lon="-3.898799">
        <ele>678.60</ele>
        <time>2020-01-19T09:59:45Z</time>
      </trkpt>
      <trkpt lat="40.400169" lon="-3.899147">
        <ele>679.40</ele>
        <time>2020-01-19T09:59:52Z</time>
      </trkpt>
      <trkpt lat="40.400191" lon="-3.899187">
        <ele>679.60</ele>
        <time>2020-01-19T09:59:53Z</time>
      </trkpt>
      <trkpt lat="40.400260" lon="-3.899331">
        <ele>680.00</ele>
        <time>2020-01-19T09:59:56Z</time>
      </trkpt>
      <trkpt lat="40.400328" lon="-3.899468">
        <ele>680.40</ele>
        <time>2020-01-19T09:59:59Z</time>
      </trkpt>
      <trkpt lat="40.400358" lon="-3.899502">
        <ele>680.60</ele>
        <time>2020-01-19T10:00:00Z</time>
      </trkpt>
      <trkpt lat="40.400551" lon="-3.899701">
        <ele>681.20</ele>
        <time>2020-01-19T10:00:06Z</time>
      </trkpt>
      <trkpt lat="40.400615" lon="-3.899773">
        <ele>682.20</ele>
        <time>2020-01-19T10:00:08Z</time>
      </trkpt>
      <trkpt lat="40.400720" lon="-3.899860">
        <ele>683.00</ele>
        <time>2020-01-19T10:00:11Z</time>
      </trkpt>
      <trkpt lat="40.400787" lon="-3.899933">
        <ele>683.20</ele>
        <time>2020-01-19T10:00:13Z</time>
      </trkpt>
      <trkpt lat="40.400965" lon="-3.900093">
        <ele>683.20</ele>
        <time>2020-01-19T10:00:18Z</time>
      </trkpt>
      <trkpt lat="40.401381" lon="-3.900480">
        <ele>682.80</ele>
        <time>2020-01-19T10:00:29Z</time>
      </trkpt>
      <trkpt lat="40.401461" lon="-3.900576">
        <ele>682.20</ele>
        <time>2020-01-19T10:00:31Z</time>
      </trkpt>
      <trkpt lat="40.401621" lon="-3.900814">
        <ele>681.20</ele>
        <time>2020-01-19T10:00:35Z</time>
      </trkpt>
      <trkpt lat="40.401659" lon="-3.900883">
        <ele>680.40</ele>
        <time>2020-01-19T10:00:36Z</time>
      </trkpt>
      <trkpt lat="40.401741" lon="-3.901027">
        <ele>679.20</ele>
        <time>2020-01-19T10:00:38Z</time>
      </trkpt>
      <trkpt lat="40.401817" lon="-3.901190">
        <ele>678.60</ele>
        <time>2020-01-19T10:00:40Z</time>
      </trkpt>
      <trkpt lat="40.401840" lon="-3.901287">
        <ele>678.40</ele>
        <time>2020-01-19T10:00:41Z</time>
      </trkpt>
      <trkpt lat="40.401866" lon="-3.901384">
        <ele>677.80</ele>
        <time>2020-01-19T10:00:42Z</time>
      </trkpt>
      <trkpt lat="40.401960" lon="-3.901667">
        <ele>676.40</ele>
        <time>2020-01-19T10:00:45Z</time>
      </trkpt>
      <trkpt lat="40.402034" lon="-3.901855">
        <ele>675.00</ele>
        <time>2020-01-19T10:00:47Z</time>
      </trkpt>
      <trkpt lat="40.402166" lon="-3.902143">
        <ele>674.00</ele>
        <time>2020-01-19T10:00:50Z</time>
      </trkpt>
      <trkpt lat="40.402312" lon="-3.902423">
        <ele>672.20</ele>
        <time>2020-01-19T10:00:53Z</time>
      </trkpt>
      <trkpt lat="40.402368" lon="-3.902509">
        <ele>671.60</ele>
        <time>2020-01-19T10:00:54Z</time>
      </trkpt>
      <trkpt lat="40.402572" lon="-3.902864">
        <ele>671.00</ele>
        <time>2020-01-19T10:00:58Z</time>
      </trkpt>
      <trkpt lat="40.402714" lon="-3.903114">
        <ele>671.20</ele>
        <time>2020-01-19T10:01:01Z</time>
      </trkpt>
      <trkpt lat="40.402969" lon="-3.903552">
        <ele>671.00</ele>
        <time>2020-01-19T10:01:07Z</time>
      </trkpt>
      <trkpt lat="40.403084" lon="-3.903739">
        <ele>672.20</ele>
        <time>2020-01-19T10:01:10Z</time>
      </trkpt>
      <trkpt lat="40.403192" lon="-3.903909">
        <ele>673.40</ele>
        <time>2020-01-19T10:01:13Z</time>
      </trkpt>
      <trkpt lat="40.403314" lon="-3.904050">
        <ele>674.20</ele>
        <time>2020-01-19T10:01:16Z</time>
      </trkpt>
      <trkpt lat="40.403393" lon="-3.904125">
        <ele>674.40</ele>
        <time>2020-01-19T10:01:18Z</time>
      </trkpt>
      <trkpt lat="40.403431" lon="-3.904156">
        <ele>674.60</ele>
        <time>2020-01-19T10:01:19Z</time>
      </trkpt>
      <trkpt lat="40.403553" lon="-3.904226">
        <ele>675.20</ele>
        <time>2020-01-19T10:01:22Z</time>
      </trkpt>
      <trkpt lat="40.403640" lon="-3.904251">
        <ele>675.80</ele>
        <time>2020-01-19T10:01:24Z</time>
      </trkpt>
      <trkpt lat="40.403851" lon="-3.904288">
        <ele>677.20</ele>
        <time>2020-01-19T10:01:29Z</time>
      </trkpt>
      <trkpt lat="40.403925" lon="-3.904326">
        <ele>678.00</ele>
        <time>2020-01-19T10:01:31Z</time>
      </trkpt>
      <trkpt lat="40.403995" lon="-3.904379">
        <ele>678.20</ele>
        <time>2020-01-19T10:01:33Z</time>
      </trkpt>
      <trkpt lat="40.404066" lon="-3.904505">
        <ele>678.20</ele>
        <time>2020-01-19T10:01:36Z</time>
      </trkpt>
      <trkpt lat="40.404139" lon="-3.904750">
        <ele>679.60</ele>
        <time>2020-01-19T10:01:41Z</time>
      </trkpt>
      <trkpt lat="40.404134" lon="-3.904803">
        <ele>679.80</ele>
        <time>2020-01-19T10:01:42Z</time>
      </trkpt>
      <trkpt lat="40.404049" lon="-3.904995">
        <ele>680.40</ele>
        <time>2020-01-19T10:01:46Z</time>
      </trkpt>
      <trkpt lat="40.403928" lon="-3.905322">
        <ele>679.60</ele>
        <time>2020-01-19T10:01:52Z</time>
      </trkpt>
      <trkpt lat="40.403918" lon="-3.905386">
        <ele>679.80</ele>
        <time>2020-01-19T10:01:53Z</time>
      </trkpt>
      <trkpt lat="40.403924" lon="-3.905741">
        <ele>680.20</ele>
        <time>2020-01-19T10:01:59Z</time>
      </trkpt>
      <trkpt lat="40.403933" lon="-3.905795">
        <ele>680.20</ele>
        <time>2020-01-19T10:02:00Z</time>
      </trkpt>
      <trkpt lat="40.403954" lon="-3.905911">
        <ele>680.60</ele>
        <time>2020-01-19T10:02:02Z</time>
      </trkpt>
      <trkpt lat="40.404012" lon="-3.906135">
        <ele>681.40</ele>
        <time>2020-01-19T10:02:06Z</time>
      </trkpt>
      <trkpt lat="40.404023" lon="-3.906183">
        <ele>681.60</ele>
        <time>2020-01-19T10:02:07Z</time>
      </trkpt>
      <trkpt lat="40.404096" lon="-3.906422">
        <ele>682.60</ele>
        <time>2020-01-19T10:02:12Z</time>
      </trkpt>
      <trkpt lat="40.404162" lon="-3.906658">
        <ele>683.80</ele>
        <time>2020-01-19T10:02:17Z</time>
      </trkpt>
      <trkpt lat="40.404190" lon="-3.906744">
        <ele>684.20</ele>
        <time>2020-01-19T10:02:19Z</time>
      </trkpt>
      <trkpt lat="40.404216" lon="-3.906840">
        <ele>684.80</ele>
        <time>2020-01-19T10:02:21Z</time>
      </trkpt>
      <trkpt lat="40.404282" lon="-3.907023">
        <ele>686.00</ele>
        <time>2020-01-19T10:02:25Z</time>
      </trkpt>
      <trkpt lat="40.404349" lon="-3.907207">
        <ele>687.20</ele>
        <time>2020-01-19T10:02:29Z</time>
      </trkpt>
      <trkpt lat="40.404396" lon="-3.907333">
        <ele>687.40</ele>
        <time>2020-01-19T10:02:31Z</time>
      </trkpt>
      <trkpt lat="40.404438" lon="-3.907462">
        <ele>688.00</ele>
        <time>2020-01-19T10:02:33Z</time>
      </trkpt>
      <trkpt lat="40.404463" lon="-3.907516">
        <ele>688.60</ele>
        <time>2020-01-19T10:02:34Z</time>
      </trkpt>
      <trkpt lat="40.404520" lon="-3.907596">
        <ele>689.60</ele>
        <time>2020-01-19T10:02:36Z</time>
      </trkpt>
      <trkpt lat="40.404541" lon="-3.907644">
        <ele>690.00</ele>
        <time>2020-01-19T10:02:37Z</time>
      </trkpt>
      <trkpt lat="40.404568" lon="-3.907731">
        <ele>690.60</ele>
        <time>2020-01-19T10:02:39Z</time>
      </trkpt>
      <trkpt lat="40.404582" lon="-3.907762">
        <ele>690.80</ele>
        <time>2020-01-19T10:02:40Z</time>
      </trkpt>
      <trkpt lat="40.404603" lon="-3.907794">
        <ele>691.00</ele>
        <time>2020-01-19T10:02:41Z</time>
      </trkpt>
      <trkpt lat="40.404676" lon="-3.907923">
        <ele>691.60</ele>
        <time>2020-01-19T10:02:45Z</time>
      </trkpt>
      <trkpt lat="40.404730" lon="-3.908020">
        <ele>692.00</ele>
        <time>2020-01-19T10:02:48Z</time>
      </trkpt>
      <trkpt lat="40.404752" lon="-3.908054">
        <ele>692.20</ele>
        <time>2020-01-19T10:02:49Z</time>
      </trkpt>
      <trkpt lat="40.404832" lon="-3.908194">
        <ele>692.80</ele>
        <time>2020-01-19T10:02:53Z</time>
      </trkpt>
      <trkpt lat="40.404855" lon="-3.908239">
        <ele>693.20</ele>
        <time>2020-01-19T10:02:54Z</time>
      </trkpt>
      <trkpt lat="40.404912" lon="-3.908371">
        <ele>694.60</ele>
        <time>2020-01-19T10:02:57Z</time>
      </trkpt>
      <trkpt lat="40.404935" lon="-3.908415">
        <ele>694.80</ele>
        <time>2020-01-19T10:02:58Z</time>
      </trkpt>
      <trkpt lat="40.405070" lon="-3.908600">
        <ele>695.60</ele>
        <time>2020-01-19T10:03:03Z</time>
      </trkpt>
      <trkpt lat="40.405119" lon="-3.908676">
        <ele>696.00</ele>
        <time>2020-01-19T10:03:05Z</time>
      </trkpt>
      <trkpt lat="40.405267" lon="-3.908893">
        <ele>696.80</ele>
        <time>2020-01-19T10:03:11Z</time>
      </trkpt>
      <trkpt lat="40.405320" lon="-3.908957">
        <ele>697.40</ele>
        <time>2020-01-19T10:03:13Z</time>
      </trkpt>
      <trkpt lat="40.405387" lon="-3.909064">
        <ele>698.00</ele>
        <time>2020-01-19T10:03:16Z</time>
      </trkpt>
      <trkpt lat="40.405467" lon="-3.909163">
        <ele>698.60</ele>
        <time>2020-01-19T10:03:19Z</time>
      </trkpt>
      <trkpt lat="40.405516" lon="-3.909233">
        <ele>699.40</ele>
        <time>2020-01-19T10:03:21Z</time>
      </trkpt>
      <trkpt lat="40.405627" lon="-3.909354">
        <ele>700.20</ele>
        <time>2020-01-19T10:03:25Z</time>
      </trkpt>
      <trkpt lat="40.405683" lon="-3.909414">
        <ele>700.40</ele>
        <time>2020-01-19T10:03:27Z</time>
      </trkpt>
      <trkpt lat="40.405821" lon="-3.909558">
        <ele>701.40</ele>
        <time>2020-01-19T10:03:32Z</time>
      </trkpt>
      <trkpt lat="40.405984" lon="-3.909669">
        <ele>702.20</ele>
        <time>2020-01-19T10:03:38Z</time>
      </trkpt>
      <trkpt lat="40.406083" lon="-3.909618">
        <ele>702.60</ele>
        <time>2020-01-19T10:03:41Z</time>
      </trkpt>
      <trkpt lat="40.406113" lon="-3.909601">
        <ele>702.80</ele>
        <time>2020-01-19T10:03:42Z</time>
      </trkpt>
      <trkpt lat="40.406257" lon="-3.909612">
        <ele>703.20</ele>
        <time>2020-01-19T10:03:46Z</time>
      </trkpt>
      <trkpt lat="40.406390" lon="-3.909773">
        <ele>702.80</ele>
        <time>2020-01-19T10:03:51Z</time>
      </trkpt>
      <trkpt lat="40.406400" lon="-3.909827">
        <ele>702.60</ele>
        <time>2020-01-19T10:03:52Z</time>
      </trkpt>
      <trkpt lat="40.406400" lon="-3.910014">
        <ele>702.20</ele>
        <time>2020-01-19T10:03:55Z</time>
      </trkpt>
      <trkpt lat="40.406300" lon="-3.910159">
        <ele>702.00</ele>
        <time>2020-01-19T10:03:58Z</time>
      </trkpt>
      <trkpt lat="40.406103" lon="-3.910185">
        <ele>702.20</ele>
        <time>2020-01-19T10:04:02Z</time>
      </trkpt>
      <trkpt lat="40.405944" lon="-3.910057">
        <ele>702.20</ele>
        <time>2020-01-19T10:04:06Z</time>
      </trkpt>
      <trkpt lat="40.405774" lon="-3.910089">
        <ele>702.40</ele>
        <time>2020-01-19T10:04:10Z</time>
      </trkpt>
      <trkpt lat="40.405619" lon="-3.910190">
        <ele>701.40</ele>
        <time>2020-01-19T10:04:13Z</time>
      </trkpt>
      <trkpt lat="40.405553" lon="-3.910227">
        <ele>700.60</ele>
        <time>2020-01-19T10:04:14Z</time>
      </trkpt>
      <trkpt lat="40.405485" lon="-3.910266">
        <ele>699.80</ele>
        <time>2020-01-19T10:04:15Z</time>
      </trkpt>
      <trkpt lat="40.405411" lon="-3.910309">
        <ele>698.60</ele>
        <time>2020-01-19T10:04:16Z</time>
      </trkpt>
      <trkpt lat="40.405336" lon="-3.910354">
        <ele>697.60</ele>
        <time>2020-01-19T10:04:17Z</time>
      </trkpt>
      <trkpt lat="40.405179" lon="-3.910444">
        <ele>696.20</ele>
        <time>2020-01-19T10:04:19Z</time>
      </trkpt>
      <trkpt lat="40.405017" lon="-3.910538">
        <ele>695.20</ele>
        <time>2020-01-19T10:04:21Z</time>
      </trkpt>
      <trkpt lat="40.404766" lon="-3.910659">
        <ele>694.20</ele>
        <time>2020-01-19T10:04:24Z</time>
      </trkpt>
      <trkpt lat="40.404440" lon="-3.910809">
        <ele>693.00</ele>
        <time>2020-01-19T10:04:28Z</time>
      </trkpt>
      <trkpt lat="40.404136" lon="-3.910974">
        <ele>692.00</ele>
        <time>2020-01-19T10:04:32Z</time>
      </trkpt>
      <trkpt lat="40.403735" lon="-3.911194">
        <ele>693.20</ele>
        <time>2020-01-19T10:04:38Z</time>
      </trkpt>
      <trkpt lat="40.403624" lon="-3.911259">
        <ele>694.00</ele>
        <time>2020-01-19T10:04:40Z</time>
      </trkpt>
      <trkpt lat="40.403415" lon="-3.911380">
        <ele>695.00</ele>
        <time>2020-01-19T10:04:44Z</time>
      </trkpt>
      <trkpt lat="40.403174" lon="-3.911538">
        <ele>696.20</ele>
        <time>2020-01-19T10:04:49Z</time>
      </trkpt>
      <trkpt lat="40.402980" lon="-3.911675">
        <ele>696.20</ele>
        <time>2020-01-19T10:04:53Z</time>
      </trkpt>
      <trkpt lat="40.402635" lon="-3.911948">
        <ele>696.00</ele>
        <time>2020-01-19T10:05:00Z</time>
      </trkpt>
      <trkpt lat="40.402170" lon="-3.912380">
        <ele>695.80</ele>
        <time>2020-01-19T10:05:10Z</time>
      </trkpt>
      <trkpt lat="40.401847" lon="-3.912685">
        <ele>695.20</ele>
        <time>2020-01-19T10:05:17Z</time>
      </trkpt>
      <trkpt lat="40.401796" lon="-3.912734">
        <ele>695.00</ele>
        <time>2020-01-19T10:05:18Z</time>
      </trkpt>
      <trkpt lat="40.401635" lon="-3.912882">
        <ele>693.60</ele>
        <time>2020-01-19T10:05:21Z</time>
      </trkpt>
      <trkpt lat="40.401471" lon="-3.913039">
        <ele>692.40</ele>
        <time>2020-01-19T10:05:24Z</time>
      </trkpt>
      <trkpt lat="40.401418" lon="-3.913095">
        <ele>692.00</ele>
        <time>2020-01-19T10:05:25Z</time>
      </trkpt>
      <trkpt lat="40.401297" lon="-3.913190">
        <ele>691.60</ele>
        <time>2020-01-19T10:05:27Z</time>
      </trkpt>
      <trkpt lat="40.401116" lon="-3.913275">
        <ele>692.20</ele>
        <time>2020-01-19T10:05:30Z</time>
      </trkpt>
      <trkpt lat="40.400833" lon="-3.913304">
        <ele>693.20</ele>
        <time>2020-01-19T10:05:35Z</time>
      </trkpt>
      <trkpt lat="40.400787" lon="-3.913305">
        <ele>693.60</ele>
        <time>2020-01-19T10:05:36Z</time>
      </trkpt>
      <trkpt lat="40.400541" lon="-3.913313">
        <ele>694.80</ele>
        <time>2020-01-19T10:05:41Z</time>
      </trkpt>
      <trkpt lat="40.400491" lon="-3.913317">
        <ele>695.00</ele>
        <time>2020-01-19T10:05:42Z</time>
      </trkpt>
      <trkpt lat="40.400348" lon="-3.913354">
        <ele>695.60</ele>
        <time>2020-01-19T10:05:45Z</time>
      </trkpt>
      <trkpt lat="40.400311" lon="-3.913401">
        <ele>695.80</ele>
        <time>2020-01-19T10:05:46Z</time>
      </trkpt>
      <trkpt lat="40.400280" lon="-3.913453">
        <ele>695.60</ele>
        <time>2020-01-19T10:05:47Z</time>
      </trkpt>
      <trkpt lat="40.400272" lon="-3.913659">
        <ele>695.20</ele>
        <time>2020-01-19T10:05:50Z</time>
      </trkpt>
      <trkpt lat="40.400356" lon="-3.913847">
        <ele>695.20</ele>
        <time>2020-01-19T10:05:53Z</time>
      </trkpt>
      <trkpt lat="40.400423" lon="-3.913961">
        <ele>695.20</ele>
        <time>2020-01-19T10:05:55Z</time>
      </trkpt>
      <trkpt lat="40.400458" lon="-3.914015">
        <ele>694.80</ele>
        <time>2020-01-19T10:05:56Z</time>
      </trkpt>
      <trkpt lat="40.400563" lon="-3.914184">
        <ele>695.00</ele>
        <time>2020-01-19T10:05:59Z</time>
      </trkpt>
      <trkpt lat="40.400649" lon="-3.914294">
        <ele>695.00</ele>
        <time>2020-01-19T10:06:01Z</time>
      </trkpt>
      <trkpt lat="40.400814" lon="-3.914414">
        <ele>694.00</ele>
        <time>2020-01-19T10:06:04Z</time>
      </trkpt>
      <trkpt lat="40.400877" lon="-3.914441">
        <ele>693.60</ele>
        <time>2020-01-19T10:06:05Z</time>
      </trkpt>
      <trkpt lat="40.401007" lon="-3.914488">
        <ele>692.80</ele>
        <time>2020-01-19T10:06:07Z</time>
      </trkpt>
      <trkpt lat="40.401074" lon="-3.914525">
        <ele>692.40</ele>
        <time>2020-01-19T10:06:08Z</time>
      </trkpt>
      <trkpt lat="40.401142" lon="-3.914570">
        <ele>691.20</ele>
        <time>2020-01-19T10:06:09Z</time>
      </trkpt>
      <trkpt lat="40.401201" lon="-3.914635">
        <ele>690.60</ele>
        <time>2020-01-19T10:06:10Z</time>
      </trkpt>
      <trkpt lat="40.401236" lon="-3.914734">
        <ele>690.00</ele>
        <time>2020-01-19T10:06:11Z</time>
      </trkpt>
      <trkpt lat="40.401259" lon="-3.914844">
        <ele>689.40</ele>
        <time>2020-01-19T10:06:12Z</time>
      </trkpt>
      <trkpt lat="40.401271" lon="-3.914960">
        <ele>688.40</ele>
        <time>2020-01-19T10:06:13Z</time>
      </trkpt>
      <trkpt lat="40.401268" lon="-3.915075">
        <ele>687.00</ele>
        <time>2020-01-19T10:06:14Z</time>
      </trkpt>
      <trkpt lat="40.401253" lon="-3.915192">
        <ele>686.40</ele>
        <time>2020-01-19T10:06:15Z</time>
      </trkpt>
      <trkpt lat="40.401241" lon="-3.915318">
        <ele>686.20</ele>
        <time>2020-01-19T10:06:16Z</time>
      </trkpt>
      <trkpt lat="40.401217" lon="-3.915583">
        <ele>685.20</ele>
        <time>2020-01-19T10:06:18Z</time>
      </trkpt>
      <trkpt lat="40.401211" lon="-3.915722">
        <ele>684.00</ele>
        <time>2020-01-19T10:06:19Z</time>
      </trkpt>
      <trkpt lat="40.401205" lon="-3.915862">
        <ele>682.00</ele>
        <time>2020-01-19T10:06:20Z</time>
      </trkpt>
      <trkpt lat="40.401191" lon="-3.916175">
        <ele>679.80</ele>
        <time>2020-01-19T10:06:22Z</time>
      </trkpt>
      <trkpt lat="40.401183" lon="-3.916336">
        <ele>678.40</ele>
        <time>2020-01-19T10:06:23Z</time>
      </trkpt>
      <trkpt lat="40.401166" lon="-3.916502">
        <ele>676.00</ele>
        <time>2020-01-19T10:06:24Z</time>
      </trkpt>
      <trkpt lat="40.401156" lon="-3.916672">
        <ele>673.00</ele>
        <time>2020-01-19T10:06:25Z</time>
      </trkpt>
      <trkpt lat="40.401141" lon="-3.916840">
        <ele>670.80</ele>
        <time>2020-01-19T10:06:26Z</time>
      </trkpt>
      <trkpt lat="40.401127" lon="-3.917029">
        <ele>669.00</ele>
        <time>2020-01-19T10:06:27Z</time>
      </trkpt>
      <trkpt lat="40.401110" lon="-3.917223">
        <ele>667.40</ele>
        <time>2020-01-19T10:06:28Z</time>
      </trkpt>
      <trkpt lat="40.401095" lon="-3.917425">
        <ele>664.80</ele>
        <time>2020-01-19T10:06:29Z</time>
      </trkpt>
      <trkpt lat="40.401078" lon="-3.917630">
        <ele>661.80</ele>
        <time>2020-01-19T10:06:30Z</time>
      </trkpt>
      <trkpt lat="40.401070" lon="-3.917844">
        <ele>659.40</ele>
        <time>2020-01-19T10:06:31Z</time>
      </trkpt>
      <trkpt lat="40.401059" lon="-3.918052">
        <ele>657.40</ele>
        <time>2020-01-19T10:06:32Z</time>
      </trkpt>
      <trkpt lat="40.401042" lon="-3.918262">
        <ele>653.80</ele>
        <time>2020-01-19T10:06:33Z</time>
      </trkpt>
      <trkpt lat="40.401027" lon="-3.918471">
        <ele>652.60</ele>
        <time>2020-01-19T10:06:34Z</time>
      </trkpt>
      <trkpt lat="40.400996" lon="-3.918877">
        <ele>651.00</ele>
        <time>2020-01-19T10:06:36Z</time>
      </trkpt>
      <trkpt lat="40.400976" lon="-3.919073">
        <ele>650.00</ele>
        <time>2020-01-19T10:06:37Z</time>
      </trkpt>
      <trkpt lat="40.400940" lon="-3.919475">
        <ele>648.00</ele>
        <time>2020-01-19T10:06:39Z</time>
      </trkpt>
      <trkpt lat="40.400910" lon="-3.919868">
        <ele>646.20</ele>
        <time>2020-01-19T10:06:41Z</time>
      </trkpt>
      <trkpt lat="40.400901" lon="-3.920053">
        <ele>645.20</ele>
        <time>2020-01-19T10:06:42Z</time>
      </trkpt>
      <trkpt lat="40.400880" lon="-3.920438">
        <ele>643.80</ele>
        <time>2020-01-19T10:06:44Z</time>
      </trkpt>
      <trkpt lat="40.400873" lon="-3.920812">
        <ele>642.20</ele>
        <time>2020-01-19T10:06:46Z</time>
      </trkpt>
      <trkpt lat="40.400856" lon="-3.921173">
        <ele>640.60</ele>
        <time>2020-01-19T10:06:48Z</time>
      </trkpt>
      <trkpt lat="40.400852" lon="-3.921348">
        <ele>639.80</ele>
        <time>2020-01-19T10:06:49Z</time>
      </trkpt>
      <trkpt lat="40.400847" lon="-3.921523">
        <ele>638.80</ele>
        <time>2020-01-19T10:06:50Z</time>
      </trkpt>
      <trkpt lat="40.400837" lon="-3.921697">
        <ele>637.60</ele>
        <time>2020-01-19T10:06:51Z</time>
      </trkpt>
      <trkpt lat="40.400838" lon="-3.921885">
        <ele>636.20</ele>
        <time>2020-01-19T10:06:52Z</time>
      </trkpt>
      <trkpt lat="40.400836" lon="-3.922049">
        <ele>635.20</ele>
        <time>2020-01-19T10:06:53Z</time>
      </trkpt>
      <trkpt lat="40.400832" lon="-3.922218">
        <ele>634.40</ele>
        <time>2020-01-19T10:06:54Z</time>
      </trkpt>
      <trkpt lat="40.400823" lon="-3.922388">
        <ele>634.00</ele>
        <time>2020-01-19T10:06:55Z</time>
      </trkpt>
      <trkpt lat="40.400812" lon="-3.922724">
        <ele>632.20</ele>
        <time>2020-01-19T10:06:57Z</time>
      </trkpt>
      <trkpt lat="40.400802" lon="-3.923056">
        <ele>630.40</ele>
        <time>2020-01-19T10:06:59Z</time>
      </trkpt>
      <trkpt lat="40.400793" lon="-3.923393">
        <ele>629.00</ele>
        <time>2020-01-19T10:07:01Z</time>
      </trkpt>
      <trkpt lat="40.400789" lon="-3.923555">
        <ele>628.20</ele>
        <time>2020-01-19T10:07:02Z</time>
      </trkpt>
      <trkpt lat="40.400783" lon="-3.923714">
        <ele>626.40</ele>
        <time>2020-01-19T10:07:03Z</time>
      </trkpt>
      <trkpt lat="40.400740" lon="-3.924026">
        <ele>625.00</ele>
        <time>2020-01-19T10:07:05Z</time>
      </trkpt>
      <trkpt lat="40.400703" lon="-3.924179">
        <ele>625.60</ele>
        <time>2020-01-19T10:07:06Z</time>
      </trkpt>
      <trkpt lat="40.400570" lon="-3.924613">
        <ele>623.80</ele>
        <time>2020-01-19T10:07:09Z</time>
      </trkpt>
      <trkpt lat="40.400482" lon="-3.924718">
        <ele>623.60</ele>
        <time>2020-01-19T10:07:10Z</time>
      </trkpt>
      <trkpt lat="40.400247" lon="-3.925021">
        <ele>622.60</ele>
        <time>2020-01-19T10:07:13Z</time>
      </trkpt>
      <trkpt lat="40.400163" lon="-3.925097">
        <ele>622.20</ele>
        <time>2020-01-19T10:07:14Z</time>
      </trkpt>
      <trkpt lat="40.399868" lon="-3.925256">
        <ele>621.60</ele>
        <time>2020-01-19T10:07:17Z</time>
      </trkpt>
      <trkpt lat="40.399777" lon="-3.925292">
        <ele>621.40</ele>
        <time>2020-01-19T10:07:18Z</time>
      </trkpt>
      <trkpt lat="40.399425" lon="-3.925427">
        <ele>622.00</ele>
        <time>2020-01-19T10:07:22Z</time>
      </trkpt>
      <trkpt lat="40.398939" lon="-3.925622">
        <ele>621.60</ele>
        <time>2020-01-19T10:07:28Z</time>
      </trkpt>
      <trkpt lat="40.398531" lon="-3.925802">
        <ele>622.20</ele>
        <time>2020-01-19T10:07:34Z</time>
      </trkpt>
      <trkpt lat="40.398415" lon="-3.925855">
        <ele>622.60</ele>
        <time>2020-01-19T10:07:36Z</time>
      </trkpt>
      <trkpt lat="40.398263" lon="-3.925928">
        <ele>623.80</ele>
        <time>2020-01-19T10:07:39Z</time>
      </trkpt>
      <trkpt lat="40.398205" lon="-3.925938">
        <ele>624.00</ele>
        <time>2020-01-19T10:07:40Z</time>
      </trkpt>
      <trkpt lat="40.398062" lon="-3.926023">
        <ele>624.60</ele>
        <time>2020-01-19T10:07:43Z</time>
      </trkpt>
      <trkpt lat="40.397638" lon="-3.926212">
        <ele>623.40</ele>
        <time>2020-01-19T10:07:51Z</time>
      </trkpt>
      <trkpt lat="40.397449" lon="-3.926302">
        <ele>622.60</ele>
        <time>2020-01-19T10:07:54Z</time>
      </trkpt>
      <trkpt lat="40.397381" lon="-3.926437">
        <ele>622.60</ele>
        <time>2020-01-19T10:07:56Z</time>
      </trkpt>
      <trkpt lat="40.397353" lon="-3.926600">
        <ele>621.40</ele>
        <time>2020-01-19T10:07:58Z</time>
      </trkpt>
      <trkpt lat="40.397337" lon="-3.926784">
        <ele>620.20</ele>
        <time>2020-01-19T10:08:00Z</time>
      </trkpt>
      <trkpt lat="40.397310" lon="-3.927063">
        <ele>618.40</ele>
        <time>2020-01-19T10:08:03Z</time>
      </trkpt>
      <trkpt lat="40.397300" lon="-3.927133">
        <ele>617.20</ele>
        <time>2020-01-19T10:08:04Z</time>
      </trkpt>
      <trkpt lat="40.397293" lon="-3.927190">
        <ele>617.20</ele>
        <time>2020-01-19T10:08:05Z</time>
      </trkpt>
      <trkpt lat="40.397283" lon="-3.927278">
        <ele>617.80</ele>
        <time>2020-01-19T10:08:08Z</time>
      </trkpt>
      <trkpt lat="40.397278" lon="-3.927295">
        <ele>617.80</ele>
        <time>2020-01-19T10:08:12Z</time>
      </trkpt>
      <trkpt lat="40.397280" lon="-3.927425">
        <ele>617.60</ele>
        <time>2020-01-19T10:08:28Z</time>
      </trkpt>
      <trkpt lat="40.397281" lon="-3.927466">
        <ele>617.20</ele>
        <time>2020-01-19T10:08:29Z</time>
      </trkpt>
      <trkpt lat="40.397288" lon="-3.927589">
        <ele>616.20</ele>
        <time>2020-01-19T10:08:32Z</time>
      </trkpt>
      <trkpt lat="40.397248" lon="-3.927683">
        <ele>615.20</ele>
        <time>2020-01-19T10:08:35Z</time>
      </trkpt>
      <trkpt lat="40.397116" lon="-3.927757">
        <ele>615.00</ele>
        <time>2020-01-19T10:08:39Z</time>
      </trkpt>
      <trkpt lat="40.397071" lon="-3.927782">
        <ele>615.00</ele>
        <time>2020-01-19T10:08:40Z</time>
      </trkpt>
      <trkpt lat="40.396988" lon="-3.927819">
        <ele>615.60</ele>
        <time>2020-01-19T10:08:42Z</time>
      </trkpt>
      <trkpt lat="40.396910" lon="-3.927835">
        <ele>615.80</ele>
        <time>2020-01-19T10:08:44Z</time>
      </trkpt>
      <trkpt lat="40.396840" lon="-3.927887">
        <ele>615.20</ele>
        <time>2020-01-19T10:08:46Z</time>
      </trkpt>
      <trkpt lat="40.396771" lon="-3.927991">
        <ele>614.60</ele>
        <time>2020-01-19T10:08:48Z</time>
      </trkpt>
      <trkpt lat="40.396727" lon="-3.928127">
        <ele>614.40</ele>
        <time>2020-01-19T10:08:50Z</time>
      </trkpt>
      <trkpt lat="40.396682" lon="-3.928176">
        <ele>614.00</ele>
        <time>2020-01-19T10:08:51Z</time>
      </trkpt>
      <trkpt lat="40.396495" lon="-3.928383">
        <ele>614.20</ele>
        <time>2020-01-19T10:08:56Z</time>
      </trkpt>
      <trkpt lat="40.396398" lon="-3.928470">
        <ele>615.00</ele>
        <time>2020-01-19T10:08:59Z</time>
      </trkpt>
      <trkpt lat="40.396337" lon="-3.928521">
        <ele>615.00</ele>
        <time>2020-01-19T10:09:01Z</time>
      </trkpt>
      <trkpt lat="40.396282" lon="-3.928598">
        <ele>614.40</ele>
        <time>2020-01-19T10:09:03Z</time>
      </trkpt>
      <trkpt lat="40.396208" lon="-3.928731">
        <ele>614.60</ele>
        <time>2020-01-19T10:09:06Z</time>
      </trkpt>
      <trkpt lat="40.396070" lon="-3.928811">
        <ele>613.80</ele>
        <time>2020-01-19T10:09:09Z</time>
      </trkpt>
      <trkpt lat="40.396017" lon="-3.928832">
        <ele>613.60</ele>
        <time>2020-01-19T10:09:10Z</time>
      </trkpt>
      <trkpt lat="40.395863" lon="-3.928931">
        <ele>613.40</ele>
        <time>2020-01-19T10:09:13Z</time>
      </trkpt>
      <trkpt lat="40.395770" lon="-3.929023">
        <ele>613.20</ele>
        <time>2020-01-19T10:09:15Z</time>
      </trkpt>
      <trkpt lat="40.395593" lon="-3.929180">
        <ele>613.00</ele>
        <time>2020-01-19T10:09:19Z</time>
      </trkpt>
      <trkpt lat="40.395527" lon="-3.929287">
        <ele>612.80</ele>
        <time>2020-01-19T10:09:21Z</time>
      </trkpt>
      <trkpt lat="40.395446" lon="-3.929447">
        <ele>612.20</ele>
        <time>2020-01-19T10:09:24Z</time>
      </trkpt>
      <trkpt lat="40.395416" lon="-3.929588">
        <ele>611.60</ele>
        <time>2020-01-19T10:09:26Z</time>
      </trkpt>
      <trkpt lat="40.395419" lon="-3.929871">
        <ele>610.80</ele>
        <time>2020-01-19T10:09:30Z</time>
      </trkpt>
      <trkpt lat="40.395330" lon="-3.930008">
        <ele>611.40</ele>
        <time>2020-01-19T10:09:33Z</time>
      </trkpt>
      <trkpt lat="40.395293" lon="-3.930057">
        <ele>611.20</ele>
        <time>2020-01-19T10:09:34Z</time>
      </trkpt>
      <trkpt lat="40.395176" lon="-3.930190">
        <ele>610.60</ele>
        <time>2020-01-19T10:09:37Z</time>
      </trkpt>
      <trkpt lat="40.395101" lon="-3.930290">
        <ele>608.80</ele>
        <time>2020-01-19T10:09:39Z</time>
      </trkpt>
      <trkpt lat="40.395014" lon="-3.930444">
        <ele>609.80</ele>
        <time>2020-01-19T10:09:42Z</time>
      </trkpt>
      <trkpt lat="40.394982" lon="-3.930543">
        <ele>610.00</ele>
        <time>2020-01-19T10:09:44Z</time>
      </trkpt>
      <trkpt lat="40.394923" lon="-3.930621">
        <ele>608.00</ele>
        <time>2020-01-19T10:09:46Z</time>
      </trkpt>
      <trkpt lat="40.394870" lon="-3.930732">
        <ele>607.60</ele>
        <time>2020-01-19T10:09:48Z</time>
      </trkpt>
      <trkpt lat="40.394770" lon="-3.930938">
        <ele>607.60</ele>
        <time>2020-01-19T10:09:52Z</time>
      </trkpt>
      <trkpt lat="40.394795" lon="-3.931133">
        <ele>608.00</ele>
        <time>2020-01-19T10:09:55Z</time>
      </trkpt>
      <trkpt lat="40.394790" lon="-3.931197">
        <ele>608.00</ele>
        <time>2020-01-19T10:09:56Z</time>
      </trkpt>
      <trkpt lat="40.394762" lon="-3.931464">
        <ele>608.20</ele>
        <time>2020-01-19T10:10:00Z</time>
      </trkpt>
      <trkpt lat="40.394657" lon="-3.931665">
        <ele>608.20</ele>
        <time>2020-01-19T10:10:04Z</time>
      </trkpt>
      <trkpt lat="40.394576" lon="-3.931732">
        <ele>608.20</ele>
        <time>2020-01-19T10:10:06Z</time>
      </trkpt>
      <trkpt lat="40.394473" lon="-3.931847">
        <ele>607.60</ele>
        <time>2020-01-19T10:10:09Z</time>
      </trkpt>
      <trkpt lat="40.394447" lon="-3.931888">
        <ele>607.40</ele>
        <time>2020-01-19T10:10:10Z</time>
      </trkpt>
      <trkpt lat="40.394341" lon="-3.932061">
        <ele>607.40</ele>
        <time>2020-01-19T10:10:14Z</time>
      </trkpt>
      <trkpt lat="40.394285" lon="-3.932171">
        <ele>607.40</ele>
        <time>2020-01-19T10:10:16Z</time>
      </trkpt>
      <trkpt lat="40.394265" lon="-3.932299">
        <ele>607.20</ele>
        <time>2020-01-19T10:10:18Z</time>
      </trkpt>
      <trkpt lat="40.394322" lon="-3.932536">
        <ele>607.20</ele>
        <time>2020-01-19T10:10:22Z</time>
      </trkpt>
      <trkpt lat="40.394329" lon="-3.932583">
        <ele>607.00</ele>
        <time>2020-01-19T10:10:23Z</time>
      </trkpt>
      <trkpt lat="40.394340" lon="-3.932701">
        <ele>607.20</ele>
        <time>2020-01-19T10:10:26Z</time>
      </trkpt>
      <trkpt lat="40.394328" lon="-3.932806">
        <ele>606.80</ele>
        <time>2020-01-19T10:10:28Z</time>
      </trkpt>
      <trkpt lat="40.394282" lon="-3.932913">
        <ele>606.40</ele>
        <time>2020-01-19T10:10:30Z</time>
      </trkpt>
      <trkpt lat="40.394243" lon="-3.932971">
        <ele>605.80</ele>
        <time>2020-01-19T10:10:31Z</time>
      </trkpt>
      <trkpt lat="40.394156" lon="-3.933096">
        <ele>604.00</ele>
        <time>2020-01-19T10:10:33Z</time>
      </trkpt>
      <trkpt lat="40.394112" lon="-3.933164">
        <ele>603.20</ele>
        <time>2020-01-19T10:10:34Z</time>
      </trkpt>
      <trkpt lat="40.393949" lon="-3.933425">
        <ele>603.60</ele>
        <time>2020-01-19T10:10:39Z</time>
      </trkpt>
      <trkpt lat="40.393860" lon="-3.933438">
        <ele>604.20</ele>
        <time>2020-01-19T10:10:42Z</time>
      </trkpt>
      <trkpt lat="40.393801" lon="-3.933446">
        <ele>604.80</ele>
        <time>2020-01-19T10:10:44Z</time>
      </trkpt>
      <trkpt lat="40.393773" lon="-3.933449">
        <ele>605.20</ele>
        <time>2020-01-19T10:10:45Z</time>
      </trkpt>
      <trkpt lat="40.393689" lon="-3.933456">
        <ele>606.20</ele>
        <time>2020-01-19T10:10:48Z</time>
      </trkpt>
      <trkpt lat="40.393637" lon="-3.933464">
        <ele>606.80</ele>
        <time>2020-01-19T10:10:50Z</time>
      </trkpt>
      <trkpt lat="40.393587" lon="-3.933458">
        <ele>607.40</ele>
        <time>2020-01-19T10:10:52Z</time>
      </trkpt>
      <trkpt lat="40.393488" lon="-3.933465">
        <ele>608.60</ele>
        <time>2020-01-19T10:10:56Z</time>
      </trkpt>
      <trkpt lat="40.393472" lon="-3.933495">
        <ele>609.00</ele>
        <time>2020-01-19T10:10:57Z</time>
      </trkpt>
      <trkpt lat="40.393414" lon="-3.933611">
        <ele>609.20</ele>
        <time>2020-01-19T10:11:01Z</time>
      </trkpt>
      <trkpt lat="40.393386" lon="-3.933650">
        <ele>610.00</ele>
        <time>2020-01-19T10:11:03Z</time>
      </trkpt>
      <trkpt lat="40.393371" lon="-3.933684">
        <ele>610.80</ele>
        <time>2020-01-19T10:11:05Z</time>
      </trkpt>
      <trkpt lat="40.393366" lon="-3.933698">
        <ele>611.00</ele>
        <time>2020-01-19T10:11:06Z</time>
      </trkpt>
      <trkpt lat="40.393328" lon="-3.933736">
        <ele>611.20</ele>
        <time>2020-01-19T10:11:08Z</time>
      </trkpt>
      <trkpt lat="40.393252" lon="-3.933792">
        <ele>610.40</ele>
        <time>2020-01-19T10:11:10Z</time>
      </trkpt>
      <trkpt lat="40.393206" lon="-3.933817">
        <ele>609.60</ele>
        <time>2020-01-19T10:11:11Z</time>
      </trkpt>
      <trkpt lat="40.393062" lon="-3.933927">
        <ele>610.20</ele>
        <time>2020-01-19T10:11:15Z</time>
      </trkpt>
      <trkpt lat="40.392893" lon="-3.934048">
        <ele>610.80</ele>
        <time>2020-01-19T10:11:20Z</time>
      </trkpt>
      <trkpt lat="40.392839" lon="-3.934105">
        <ele>611.60</ele>
        <time>2020-01-19T10:11:22Z</time>
      </trkpt>
      <trkpt lat="40.392824" lon="-3.934147">
        <ele>611.80</ele>
        <time>2020-01-19T10:11:23Z</time>
      </trkpt>
      <trkpt lat="40.392805" lon="-3.934287">
        <ele>611.80</ele>
        <time>2020-01-19T10:11:26Z</time>
      </trkpt>
      <trkpt lat="40.392801" lon="-3.934346">
        <ele>611.60</ele>
        <time>2020-01-19T10:11:27Z</time>
      </trkpt>
      <trkpt lat="40.392794" lon="-3.934484">
        <ele>610.80</ele>
        <time>2020-01-19T10:11:29Z</time>
      </trkpt>
      <trkpt lat="40.392796" lon="-3.934549">
        <ele>610.00</ele>
        <time>2020-01-19T10:11:30Z</time>
      </trkpt>
      <trkpt lat="40.392792" lon="-3.934610">
        <ele>608.80</ele>
        <time>2020-01-19T10:11:31Z</time>
      </trkpt>
      <trkpt lat="40.392749" lon="-3.934695">
        <ele>608.40</ele>
        <time>2020-01-19T10:11:33Z</time>
      </trkpt>
      <trkpt lat="40.392661" lon="-3.934776">
        <ele>608.20</ele>
        <time>2020-01-19T10:11:36Z</time>
      </trkpt>
      <trkpt lat="40.392593" lon="-3.934829">
        <ele>607.60</ele>
        <time>2020-01-19T10:11:38Z</time>
      </trkpt>
      <trkpt lat="40.392529" lon="-3.934888">
        <ele>606.60</ele>
        <time>2020-01-19T10:11:39Z</time>
      </trkpt>
      <trkpt lat="40.392461" lon="-3.934962">
        <ele>604.40</ele>
        <time>2020-01-19T10:11:40Z</time>
      </trkpt>
      <trkpt lat="40.392400" lon="-3.935028">
        <ele>602.80</ele>
        <time>2020-01-19T10:11:41Z</time>
      </trkpt>
      <trkpt lat="40.392327" lon="-3.935105">
        <ele>601.80</ele>
        <time>2020-01-19T10:11:42Z</time>
      </trkpt>
      <trkpt lat="40.392248" lon="-3.935170">
        <ele>600.60</ele>
        <time>2020-01-19T10:11:43Z</time>
      </trkpt>
      <trkpt lat="40.392174" lon="-3.935231">
        <ele>598.20</ele>
        <time>2020-01-19T10:11:44Z</time>
      </trkpt>
      <trkpt lat="40.392104" lon="-3.935293">
        <ele>595.40</ele>
        <time>2020-01-19T10:11:45Z</time>
      </trkpt>
      <trkpt lat="40.392046" lon="-3.935357">
        <ele>596.00</ele>
        <time>2020-01-19T10:11:46Z</time>
      </trkpt>
      <trkpt lat="40.392001" lon="-3.935424">
        <ele>597.00</ele>
        <time>2020-01-19T10:11:47Z</time>
      </trkpt>
      <trkpt lat="40.391833" lon="-3.935769">
        <ele>597.60</ele>
        <time>2020-01-19T10:11:52Z</time>
      </trkpt>
      <trkpt lat="40.391732" lon="-3.935946">
        <ele>597.80</ele>
        <time>2020-01-19T10:11:55Z</time>
      </trkpt>
      <trkpt lat="40.391684" lon="-3.935991">
        <ele>598.20</ele>
        <time>2020-01-19T10:11:56Z</time>
      </trkpt>
      <trkpt lat="40.391633" lon="-3.936031">
        <ele>597.80</ele>
        <time>2020-01-19T10:11:57Z</time>
      </trkpt>
      <trkpt lat="40.391532" lon="-3.936115">
        <ele>596.80</ele>
        <time>2020-01-19T10:11:59Z</time>
      </trkpt>
      <trkpt lat="40.391383" lon="-3.936226">
        <ele>595.60</ele>
        <time>2020-01-19T10:12:02Z</time>
      </trkpt>
      <trkpt lat="40.391338" lon="-3.936264">
        <ele>596.00</ele>
        <time>2020-01-19T10:12:03Z</time>
      </trkpt>
      <trkpt lat="40.391103" lon="-3.936434">
        <ele>596.20</ele>
        <time>2020-01-19T10:12:09Z</time>
      </trkpt>
      <trkpt lat="40.391068" lon="-3.936510">
        <ele>596.00</ele>
        <time>2020-01-19T10:12:12Z</time>
      </trkpt>
      <trkpt lat="40.391071" lon="-3.936547">
        <ele>595.80</ele>
        <time>2020-01-19T10:12:13Z</time>
      </trkpt>
      <trkpt lat="40.391086" lon="-3.936581">
        <ele>596.60</ele>
        <time>2020-01-19T10:12:15Z</time>
      </trkpt>
      <trkpt lat="40.391089" lon="-3.936588">
        <ele>597.40</ele>
        <time>2020-01-19T10:12:16Z</time>
      </trkpt>
      <trkpt lat="40.391101" lon="-3.936607">
        <ele>597.80</ele>
        <time>2020-01-19T10:12:18Z</time>
      </trkpt>
      <trkpt lat="40.391112" lon="-3.936645">
        <ele>598.40</ele>
        <time>2020-01-19T10:12:22Z</time>
      </trkpt>
      <trkpt lat="40.391115" lon="-3.936670">
        <ele>598.60</ele>
        <time>2020-01-19T10:12:24Z</time>
      </trkpt>
      <trkpt lat="40.391109" lon="-3.936701">
        <ele>598.80</ele>
        <time>2020-01-19T10:12:26Z</time>
      </trkpt>
      <trkpt lat="40.391102" lon="-3.936717">
        <ele>599.00</ele>
        <time>2020-01-19T10:12:27Z</time>
      </trkpt>
      <trkpt lat="40.391045" lon="-3.936799">
        <ele>599.80</ele>
        <time>2020-01-19T10:12:31Z</time>
      </trkpt>
      <trkpt lat="40.391037" lon="-3.936826">
        <ele>600.00</ele>
        <time>2020-01-19T10:12:32Z</time>
      </trkpt>
      <trkpt lat="40.391015" lon="-3.936874">
        <ele>600.00</ele>
        <time>2020-01-19T10:12:34Z</time>
      </trkpt>
      <trkpt lat="40.390989" lon="-3.936919">
        <ele>600.20</ele>
        <time>2020-01-19T10:12:36Z</time>
      </trkpt>
      <trkpt lat="40.390914" lon="-3.937000">
        <ele>599.60</ele>
        <time>2020-01-19T10:12:39Z</time>
      </trkpt>
      <trkpt lat="40.390874" lon="-3.937059">
        <ele>598.20</ele>
        <time>2020-01-19T10:12:40Z</time>
      </trkpt>
      <trkpt lat="40.390834" lon="-3.937137">
        <ele>596.00</ele>
        <time>2020-01-19T10:12:41Z</time>
      </trkpt>
      <trkpt lat="40.390799" lon="-3.937228">
        <ele>594.60</ele>
        <time>2020-01-19T10:12:42Z</time>
      </trkpt>
      <trkpt lat="40.390769" lon="-3.937330">
        <ele>593.20</ele>
        <time>2020-01-19T10:12:43Z</time>
      </trkpt>
      <trkpt lat="40.390741" lon="-3.937436">
        <ele>592.80</ele>
        <time>2020-01-19T10:12:44Z</time>
      </trkpt>
      <trkpt lat="40.390714" lon="-3.937542">
        <ele>591.80</ele>
        <time>2020-01-19T10:12:45Z</time>
      </trkpt>
      <trkpt lat="40.390686" lon="-3.937646">
        <ele>590.40</ele>
        <time>2020-01-19T10:12:46Z</time>
      </trkpt>
      <trkpt lat="40.390660" lon="-3.937748">
        <ele>589.20</ele>
        <time>2020-01-19T10:12:47Z</time>
      </trkpt>
      <trkpt lat="40.390640" lon="-3.937850">
        <ele>588.60</ele>
        <time>2020-01-19T10:12:48Z</time>
      </trkpt>
      <trkpt lat="40.390628" lon="-3.937951">
        <ele>589.00</ele>
        <time>2020-01-19T10:12:49Z</time>
      </trkpt>
      <trkpt lat="40.390617" lon="-3.938247">
        <ele>589.60</ele>
        <time>2020-01-19T10:12:52Z</time>
      </trkpt>
      <trkpt lat="40.390650" lon="-3.938422">
        <ele>589.80</ele>
        <time>2020-01-19T10:12:54Z</time>
      </trkpt>
      <trkpt lat="40.390764" lon="-3.938626">
        <ele>589.60</ele>
        <time>2020-01-19T10:12:57Z</time>
      </trkpt>
      <trkpt lat="40.390809" lon="-3.938685">
        <ele>589.60</ele>
        <time>2020-01-19T10:12:58Z</time>
      </trkpt>
      <trkpt lat="40.390926" lon="-3.938884">
        <ele>588.40</ele>
        <time>2020-01-19T10:13:01Z</time>
      </trkpt>
      <trkpt lat="40.390951" lon="-3.938966">
        <ele>588.20</ele>
        <time>2020-01-19T10:13:02Z</time>
      </trkpt>
      <trkpt lat="40.390945" lon="-3.939135">
        <ele>587.80</ele>
        <time>2020-01-19T10:13:04Z</time>
      </trkpt>
      <trkpt lat="40.390882" lon="-3.939266">
        <ele>587.00</ele>
        <time>2020-01-19T10:13:06Z</time>
      </trkpt>
      <trkpt lat="40.390831" lon="-3.939312">
        <ele>587.20</ele>
        <time>2020-01-19T10:13:07Z</time>
      </trkpt>
      <trkpt lat="40.390779" lon="-3.939349">
        <ele>587.20</ele>
        <time>2020-01-19T10:13:08Z</time>
      </trkpt>
      <trkpt lat="40.390724" lon="-3.939378">
        <ele>587.00</ele>
        <time>2020-01-19T10:13:09Z</time>
      </trkpt>
      <trkpt lat="40.390547" lon="-3.939442">
        <ele>586.80</ele>
        <time>2020-01-19T10:13:12Z</time>
      </trkpt>
      <trkpt lat="40.390367" lon="-3.939545">
        <ele>586.40</ele>
        <time>2020-01-19T10:13:16Z</time>
      </trkpt>
      <trkpt lat="40.390328" lon="-3.939599">
        <ele>586.60</ele>
        <time>2020-01-19T10:13:18Z</time>
      </trkpt>
      <trkpt lat="40.390328" lon="-3.939653">
        <ele>587.00</ele>
        <time>2020-01-19T10:13:20Z</time>
      </trkpt>
      <trkpt lat="40.390328" lon="-3.939834">
        <ele>587.20</ele>
        <time>2020-01-19T10:13:26Z</time>
      </trkpt>
      <trkpt lat="40.390313" lon="-3.939879">
        <ele>587.20</ele>
        <time>2020-01-19T10:13:27Z</time>
      </trkpt>
      <trkpt lat="40.390288" lon="-3.940009">
        <ele>587.20</ele>
        <time>2020-01-19T10:13:30Z</time>
      </trkpt>
      <trkpt lat="40.390349" lon="-3.940138">
        <ele>586.00</ele>
        <time>2020-01-19T10:13:34Z</time>
      </trkpt>
      <trkpt lat="40.390352" lon="-3.940166">
        <ele>586.00</ele>
        <time>2020-01-19T10:13:35Z</time>
      </trkpt>
      <trkpt lat="40.390343" lon="-3.940300">
        <ele>584.40</ele>
        <time>2020-01-19T10:13:39Z</time>
      </trkpt>
      <trkpt lat="40.390341" lon="-3.940345">
        <ele>583.80</ele>
        <time>2020-01-19T10:13:40Z</time>
      </trkpt>
      <trkpt lat="40.390332" lon="-3.940480">
        <ele>584.40</ele>
        <time>2020-01-19T10:13:44Z</time>
      </trkpt>
      <trkpt lat="40.390293" lon="-3.940562">
        <ele>585.40</ele>
        <time>2020-01-19T10:13:47Z</time>
      </trkpt>
      <trkpt lat="40.390273" lon="-3.940581">
        <ele>585.40</ele>
        <time>2020-01-19T10:13:48Z</time>
      </trkpt>
      <trkpt lat="40.390210" lon="-3.940676">
        <ele>584.80</ele>
        <time>2020-01-19T10:13:51Z</time>
      </trkpt>
      <trkpt lat="40.390193" lon="-3.940739">
        <ele>584.60</ele>
        <time>2020-01-19T10:13:52Z</time>
      </trkpt>
      <trkpt lat="40.390176" lon="-3.940884">
        <ele>584.20</ele>
        <time>2020-01-19T10:13:54Z</time>
      </trkpt>
      <trkpt lat="40.390163" lon="-3.940961">
        <ele>584.20</ele>
        <time>2020-01-19T10:13:55Z</time>
      </trkpt>
      <trkpt lat="40.390128" lon="-3.941109">
        <ele>584.40</ele>
        <time>2020-01-19T10:13:57Z</time>
      </trkpt>
      <trkpt lat="40.390079" lon="-3.941384">
        <ele>584.00</ele>
        <time>2020-01-19T10:14:01Z</time>
      </trkpt>
      <trkpt lat="40.390070" lon="-3.941443">
        <ele>584.00</ele>
        <time>2020-01-19T10:14:02Z</time>
      </trkpt>
      <trkpt lat="40.390045" lon="-3.941650">
        <ele>583.80</ele>
        <time>2020-01-19T10:14:06Z</time>
      </trkpt>
      <trkpt lat="40.390018" lon="-3.941709">
        <ele>584.00</ele>
        <time>2020-01-19T10:14:14Z</time>
      </trkpt>
      <trkpt lat="40.389990" lon="-3.941785">
        <ele>583.00</ele>
        <time>2020-01-19T10:14:16Z</time>
      </trkpt>
      <trkpt lat="40.389984" lon="-3.941832">
        <ele>582.40</ele>
        <time>2020-01-19T10:14:17Z</time>
      </trkpt>
      <trkpt lat="40.389990" lon="-3.941873">
        <ele>582.20</ele>
        <time>2020-01-19T10:14:18Z</time>
      </trkpt>
      <trkpt lat="40.389999" lon="-3.941968">
        <ele>583.40</ele>
        <time>2020-01-19T10:14:21Z</time>
      </trkpt>
      <trkpt lat="40.389958" lon="-3.942170">
        <ele>583.20</ele>
        <time>2020-01-19T10:14:25Z</time>
      </trkpt>
      <trkpt lat="40.390004" lon="-3.942356">
        <ele>582.60</ele>
        <time>2020-01-19T10:14:29Z</time>
      </trkpt>
      <trkpt lat="40.390049" lon="-3.942512">
        <ele>582.00</ele>
        <time>2020-01-19T10:14:33Z</time>
      </trkpt>
      <trkpt lat="40.390142" lon="-3.942707">
        <ele>581.40</ele>
        <time>2020-01-19T10:14:37Z</time>
      </trkpt>
      <trkpt lat="40.390272" lon="-3.942871">
        <ele>581.00</ele>
        <time>2020-01-19T10:14:41Z</time>
      </trkpt>
      <trkpt lat="40.390310" lon="-3.942924">
        <ele>580.80</ele>
        <time>2020-01-19T10:14:42Z</time>
      </trkpt>
      <trkpt lat="40.390379" lon="-3.943038">
        <ele>580.20</ele>
        <time>2020-01-19T10:14:44Z</time>
      </trkpt>
      <trkpt lat="40.390415" lon="-3.943142">
        <ele>580.80</ele>
        <time>2020-01-19T10:14:46Z</time>
      </trkpt>
      <trkpt lat="40.390455" lon="-3.943185">
        <ele>581.20</ele>
        <time>2020-01-19T10:14:48Z</time>
      </trkpt>
      <trkpt lat="40.390513" lon="-3.943211">
        <ele>581.00</ele>
        <time>2020-01-19T10:14:50Z</time>
      </trkpt>
      <trkpt lat="40.390704" lon="-3.943329">
        <ele>580.40</ele>
        <time>2020-01-19T10:14:55Z</time>
      </trkpt>
      <trkpt lat="40.390818" lon="-3.943400">
        <ele>580.80</ele>
        <time>2020-01-19T10:14:59Z</time>
      </trkpt>
      <trkpt lat="40.390882" lon="-3.943488">
        <ele>579.40</ele>
        <time>2020-01-19T10:15:02Z</time>
      </trkpt>
      <trkpt lat="40.390925" lon="-3.943524">
        <ele>579.40</ele>
        <time>2020-01-19T10:15:03Z</time>
      </trkpt>
      <trkpt lat="40.391093" lon="-3.943658">
        <ele>579.40</ele>
        <time>2020-01-19T10:15:07Z</time>
      </trkpt>
      <trkpt lat="40.391138" lon="-3.943720">
        <ele>580.00</ele>
        <time>2020-01-19T10:15:09Z</time>
      </trkpt>
      <trkpt lat="40.391195" lon="-3.943781">
        <ele>579.40</ele>
        <time>2020-01-19T10:15:11Z</time>
      </trkpt>
      <trkpt lat="40.391254" lon="-3.943832">
        <ele>580.40</ele>
        <time>2020-01-19T10:15:14Z</time>
      </trkpt>
      <trkpt lat="40.391279" lon="-3.943874">
        <ele>580.60</ele>
        <time>2020-01-19T10:15:15Z</time>
      </trkpt>
      <trkpt lat="40.391328" lon="-3.943992">
        <ele>579.80</ele>
        <time>2020-01-19T10:15:17Z</time>
      </trkpt>
      <trkpt lat="40.391357" lon="-3.944046">
        <ele>579.20</ele>
        <time>2020-01-19T10:15:18Z</time>
      </trkpt>
      <trkpt lat="40.391455" lon="-3.944191">
        <ele>578.60</ele>
        <time>2020-01-19T10:15:21Z</time>
      </trkpt>
      <trkpt lat="40.391514" lon="-3.944307">
        <ele>578.60</ele>
        <time>2020-01-19T10:15:23Z</time>
      </trkpt>
      <trkpt lat="40.391565" lon="-3.944454">
        <ele>579.20</ele>
        <time>2020-01-19T10:15:26Z</time>
      </trkpt>
      <trkpt lat="40.391672" lon="-3.944657">
        <ele>579.00</ele>
        <time>2020-01-19T10:15:32Z</time>
      </trkpt>
      <trkpt lat="40.391728" lon="-3.944803">
        <ele>579.40</ele>
        <time>2020-01-19T10:15:36Z</time>
      </trkpt>
      <trkpt lat="40.391811" lon="-3.945058">
        <ele>578.60</ele>
        <time>2020-01-19T10:15:41Z</time>
      </trkpt>
      <trkpt lat="40.391890" lon="-3.945214">
        <ele>578.40</ele>
        <time>2020-01-19T10:15:45Z</time>
      </trkpt>
      <trkpt lat="40.391911" lon="-3.945230">
        <ele>578.20</ele>
        <time>2020-01-19T10:15:46Z</time>
      </trkpt>
      <trkpt lat="40.391977" lon="-3.945260">
        <ele>577.80</ele>
        <time>2020-01-19T10:15:48Z</time>
      </trkpt>
      <trkpt lat="40.392034" lon="-3.945259">
        <ele>577.40</ele>
        <time>2020-01-19T10:15:49Z</time>
      </trkpt>
      <trkpt lat="40.392194" lon="-3.945170">
        <ele>576.80</ele>
        <time>2020-01-19T10:15:52Z</time>
      </trkpt>
      <trkpt lat="40.392240" lon="-3.945114">
        <ele>576.20</ele>
        <time>2020-01-19T10:15:53Z</time>
      </trkpt>
      <trkpt lat="40.392304" lon="-3.944987">
        <ele>576.20</ele>
        <time>2020-01-19T10:15:55Z</time>
      </trkpt>
      <trkpt lat="40.392336" lon="-3.944930">
        <ele>576.60</ele>
        <time>2020-01-19T10:15:56Z</time>
      </trkpt>
      <trkpt lat="40.392373" lon="-3.944873">
        <ele>576.40</ele>
        <time>2020-01-19T10:15:57Z</time>
      </trkpt>
      <trkpt lat="40.392490" lon="-3.944704">
        <ele>575.20</ele>
        <time>2020-01-19T10:16:00Z</time>
      </trkpt>
      <trkpt lat="40.392760" lon="-3.944492">
        <ele>574.20</ele>
        <time>2020-01-19T10:16:05Z</time>
      </trkpt>
      <trkpt lat="40.392942" lon="-3.944317">
        <ele>574.00</ele>
        <time>2020-01-19T10:16:09Z</time>
      </trkpt>
      <trkpt lat="40.392974" lon="-3.944285">
        <ele>574.20</ele>
        <time>2020-01-19T10:16:10Z</time>
      </trkpt>
      <trkpt lat="40.393087" lon="-3.944158">
        <ele>573.60</ele>
        <time>2020-01-19T10:16:14Z</time>
      </trkpt>
      <trkpt lat="40.393174" lon="-3.944099">
        <ele>574.20</ele>
        <time>2020-01-19T10:16:16Z</time>
      </trkpt>
      <trkpt lat="40.393280" lon="-3.944019">
        <ele>574.80</ele>
        <time>2020-01-19T10:16:19Z</time>
      </trkpt>
      <trkpt lat="40.393445" lon="-3.943904">
        <ele>574.80</ele>
        <time>2020-01-19T10:16:24Z</time>
      </trkpt>
      <trkpt lat="40.393615" lon="-3.943777">
        <ele>575.20</ele>
        <time>2020-01-19T10:16:29Z</time>
      </trkpt>
      <trkpt lat="40.393649" lon="-3.943757">
        <ele>575.20</ele>
        <time>2020-01-19T10:16:30Z</time>
      </trkpt>
      <trkpt lat="40.393834" lon="-3.943633">
        <ele>575.40</ele>
        <time>2020-01-19T10:16:35Z</time>
      </trkpt>
      <trkpt lat="40.394057" lon="-3.943555">
        <ele>575.80</ele>
        <time>2020-01-19T10:16:40Z</time>
      </trkpt>
      <trkpt lat="40.394100" lon="-3.943533">
        <ele>575.80</ele>
        <time>2020-01-19T10:16:41Z</time>
      </trkpt>
      <trkpt lat="40.394241" lon="-3.943432">
        <ele>576.00</ele>
        <time>2020-01-19T10:16:44Z</time>
      </trkpt>
      <trkpt lat="40.394298" lon="-3.943396">
        <ele>576.00</ele>
        <time>2020-01-19T10:16:45Z</time>
      </trkpt>
      <trkpt lat="40.394489" lon="-3.943356">
        <ele>575.00</ele>
        <time>2020-01-19T10:16:48Z</time>
      </trkpt>
      <trkpt lat="40.394554" lon="-3.943354">
        <ele>574.80</ele>
        <time>2020-01-19T10:16:49Z</time>
      </trkpt>
      <trkpt lat="40.394619" lon="-3.943344">
        <ele>574.60</ele>
        <time>2020-01-19T10:16:50Z</time>
      </trkpt>
      <trkpt lat="40.394679" lon="-3.943320">
        <ele>574.20</ele>
        <time>2020-01-19T10:16:51Z</time>
      </trkpt>
      <trkpt lat="40.394735" lon="-3.943290">
        <ele>573.80</ele>
        <time>2020-01-19T10:16:52Z</time>
      </trkpt>
      <trkpt lat="40.394850" lon="-3.943240">
        <ele>574.40</ele>
        <time>2020-01-19T10:16:54Z</time>
      </trkpt>
      <trkpt lat="40.394972" lon="-3.943235">
        <ele>574.80</ele>
        <time>2020-01-19T10:16:56Z</time>
      </trkpt>
      <trkpt lat="40.395096" lon="-3.943245">
        <ele>575.60</ele>
        <time>2020-01-19T10:16:58Z</time>
      </trkpt>
      <trkpt lat="40.395200" lon="-3.943240">
        <ele>576.60</ele>
        <time>2020-01-19T10:17:00Z</time>
      </trkpt>
      <trkpt lat="40.395249" lon="-3.943258">
        <ele>576.80</ele>
        <time>2020-01-19T10:17:01Z</time>
      </trkpt>
      <trkpt lat="40.395392" lon="-3.943226">
        <ele>577.40</ele>
        <time>2020-01-19T10:17:04Z</time>
      </trkpt>
      <trkpt lat="40.395494" lon="-3.943196">
        <ele>576.80</ele>
        <time>2020-01-19T10:17:06Z</time>
      </trkpt>
      <trkpt lat="40.395603" lon="-3.943165">
        <ele>576.60</ele>
        <time>2020-01-19T10:17:08Z</time>
      </trkpt>
      <trkpt lat="40.395658" lon="-3.943148">
        <ele>576.40</ele>
        <time>2020-01-19T10:17:09Z</time>
      </trkpt>
      <trkpt lat="40.395833" lon="-3.943133">
        <ele>576.00</ele>
        <time>2020-01-19T10:17:12Z</time>
      </trkpt>
      <trkpt lat="40.395893" lon="-3.943138">
        <ele>576.20</ele>
        <time>2020-01-19T10:17:13Z</time>
      </trkpt>
      <trkpt lat="40.395955" lon="-3.943141">
        <ele>576.00</ele>
        <time>2020-01-19T10:17:14Z</time>
      </trkpt>
      <trkpt lat="40.396158" lon="-3.943130">
        <ele>576.80</ele>
        <time>2020-01-19T10:17:18Z</time>
      </trkpt>
      <trkpt lat="40.396403" lon="-3.943220">
        <ele>576.20</ele>
        <time>2020-01-19T10:17:23Z</time>
      </trkpt>
      <trkpt lat="40.396608" lon="-3.943277">
        <ele>575.60</ele>
        <time>2020-01-19T10:17:27Z</time>
      </trkpt>
      <trkpt lat="40.396811" lon="-3.943216">
        <ele>576.20</ele>
        <time>2020-01-19T10:17:31Z</time>
      </trkpt>
      <trkpt lat="40.396850" lon="-3.943195">
        <ele>576.20</ele>
        <time>2020-01-19T10:17:32Z</time>
      </trkpt>
      <trkpt lat="40.396888" lon="-3.943177">
        <ele>576.80</ele>
        <time>2020-01-19T10:17:33Z</time>
      </trkpt>
      <trkpt lat="40.396949" lon="-3.943147">
        <ele>578.20</ele>
        <time>2020-01-19T10:17:35Z</time>
      </trkpt>
      <trkpt lat="40.396974" lon="-3.943148">
        <ele>579.00</ele>
        <time>2020-01-19T10:17:36Z</time>
      </trkpt>
      <trkpt lat="40.397155" lon="-3.943220">
        <ele>578.20</ele>
        <time>2020-01-19T10:17:42Z</time>
      </trkpt>
      <trkpt lat="40.397275" lon="-3.943311">
        <ele>577.40</ele>
        <time>2020-01-19T10:17:46Z</time>
      </trkpt>
      <trkpt lat="40.397292" lon="-3.943316">
        <ele>577.20</ele>
        <time>2020-01-19T10:17:47Z</time>
      </trkpt>
      <trkpt lat="40.397343" lon="-3.943286">
        <ele>576.80</ele>
        <time>2020-01-19T10:17:49Z</time>
      </trkpt>
      <trkpt lat="40.397440" lon="-3.943267">
        <ele>577.00</ele>
        <time>2020-01-19T10:17:52Z</time>
      </trkpt>
      <trkpt lat="40.397508" lon="-3.943317">
        <ele>577.20</ele>
        <time>2020-01-19T10:17:54Z</time>
      </trkpt>
      <trkpt lat="40.397587" lon="-3.943365">
        <ele>577.60</ele>
        <time>2020-01-19T10:17:56Z</time>
      </trkpt>
      <trkpt lat="40.397639" lon="-3.943380">
        <ele>577.40</ele>
        <time>2020-01-19T10:17:57Z</time>
      </trkpt>
      <trkpt lat="40.397778" lon="-3.943374">
        <ele>578.20</ele>
        <time>2020-01-19T10:18:00Z</time>
      </trkpt>
      <trkpt lat="40.397827" lon="-3.943358">
        <ele>578.40</ele>
        <time>2020-01-19T10:18:01Z</time>
      </trkpt>
      <trkpt lat="40.398041" lon="-3.943320">
        <ele>577.40</ele>
        <time>2020-01-19T10:18:05Z</time>
      </trkpt>
      <trkpt lat="40.398093" lon="-3.943311">
        <ele>577.20</ele>
        <time>2020-01-19T10:18:06Z</time>
      </trkpt>
      <trkpt lat="40.398147" lon="-3.943306">
        <ele>577.00</ele>
        <time>2020-01-19T10:18:07Z</time>
      </trkpt>
      <trkpt lat="40.398364" lon="-3.943305">
        <ele>577.40</ele>
        <time>2020-01-19T10:18:11Z</time>
      </trkpt>
      <trkpt lat="40.398590" lon="-3.943307">
        <ele>577.80</ele>
        <time>2020-01-19T10:18:16Z</time>
      </trkpt>
      <trkpt lat="40.398745" lon="-3.943223">
        <ele>578.00</ele>
        <time>2020-01-19T10:18:20Z</time>
      </trkpt>
      <trkpt lat="40.398848" lon="-3.943316">
        <ele>578.20</ele>
        <time>2020-01-19T10:18:23Z</time>
      </trkpt>
      <trkpt lat="40.398880" lon="-3.943353">
        <ele>578.00</ele>
        <time>2020-01-19T10:18:24Z</time>
      </trkpt>
      <trkpt lat="40.398966" lon="-3.943393">
        <ele>577.40</ele>
        <time>2020-01-19T10:18:26Z</time>
      </trkpt>
      <trkpt lat="40.399130" lon="-3.943373">
        <ele>577.40</ele>
        <time>2020-01-19T10:18:30Z</time>
      </trkpt>
      <trkpt lat="40.399172" lon="-3.943364">
        <ele>577.40</ele>
        <time>2020-01-19T10:18:31Z</time>
      </trkpt>
      <trkpt lat="40.399302" lon="-3.943403">
        <ele>576.80</ele>
        <time>2020-01-19T10:18:34Z</time>
      </trkpt>
      <trkpt lat="40.399338" lon="-3.943438">
        <ele>577.00</ele>
        <time>2020-01-19T10:18:35Z</time>
      </trkpt>
      <trkpt lat="40.399445" lon="-3.943566">
        <ele>577.20</ele>
        <time>2020-01-19T10:18:38Z</time>
      </trkpt>
      <trkpt lat="40.399582" lon="-3.943627">
        <ele>577.20</ele>
        <time>2020-01-19T10:18:41Z</time>
      </trkpt>
      <trkpt lat="40.399800" lon="-3.943683">
        <ele>576.80</ele>
        <time>2020-01-19T10:18:45Z</time>
      </trkpt>
      <trkpt lat="40.399847" lon="-3.943697">
        <ele>577.00</ele>
        <time>2020-01-19T10:18:46Z</time>
      </trkpt>
      <trkpt lat="40.399989" lon="-3.943712">
        <ele>577.00</ele>
        <time>2020-01-19T10:18:49Z</time>
      </trkpt>
      <trkpt lat="40.400039" lon="-3.943707">
        <ele>577.00</ele>
        <time>2020-01-19T10:18:50Z</time>
      </trkpt>
      <trkpt lat="40.400090" lon="-3.943705">
        <ele>577.00</ele>
        <time>2020-01-19T10:18:51Z</time>
      </trkpt>
      <trkpt lat="40.400243" lon="-3.943773">
        <ele>576.60</ele>
        <time>2020-01-19T10:18:54Z</time>
      </trkpt>
      <trkpt lat="40.400380" lon="-3.943838">
        <ele>576.20</ele>
        <time>2020-01-19T10:18:57Z</time>
      </trkpt>
      <trkpt lat="40.400428" lon="-3.943838">
        <ele>576.00</ele>
        <time>2020-01-19T10:18:58Z</time>
      </trkpt>
      <trkpt lat="40.400480" lon="-3.943841">
        <ele>576.00</ele>
        <time>2020-01-19T10:18:59Z</time>
      </trkpt>
      <trkpt lat="40.400687" lon="-3.943856">
        <ele>577.00</ele>
        <time>2020-01-19T10:19:03Z</time>
      </trkpt>
      <trkpt lat="40.400737" lon="-3.943848">
        <ele>577.40</ele>
        <time>2020-01-19T10:19:04Z</time>
      </trkpt>
      <trkpt lat="40.400876" lon="-3.943813">
        <ele>577.60</ele>
        <time>2020-01-19T10:19:07Z</time>
      </trkpt>
      <trkpt lat="40.401043" lon="-3.943835">
        <ele>578.00</ele>
        <time>2020-01-19T10:19:11Z</time>
      </trkpt>
      <trkpt lat="40.401090" lon="-3.943845">
        <ele>578.20</ele>
        <time>2020-01-19T10:19:12Z</time>
      </trkpt>
      <trkpt lat="40.401304" lon="-3.943896">
        <ele>578.40</ele>
        <time>2020-01-19T10:19:16Z</time>
      </trkpt>
      <trkpt lat="40.401362" lon="-3.943909">
        <ele>578.20</ele>
        <time>2020-01-19T10:19:17Z</time>
      </trkpt>
      <trkpt lat="40.401678" lon="-3.944015">
        <ele>578.40</ele>
        <time>2020-01-19T10:19:23Z</time>
      </trkpt>
      <trkpt lat="40.401884" lon="-3.944078">
        <ele>578.40</ele>
        <time>2020-01-19T10:19:27Z</time>
      </trkpt>
      <trkpt lat="40.401975" lon="-3.944138">
        <ele>578.40</ele>
        <time>2020-01-19T10:19:29Z</time>
      </trkpt>
      <trkpt lat="40.402067" lon="-3.944166">
        <ele>578.00</ele>
        <time>2020-01-19T10:19:31Z</time>
      </trkpt>
      <trkpt lat="40.402115" lon="-3.944186">
        <ele>578.00</ele>
        <time>2020-01-19T10:19:32Z</time>
      </trkpt>
      <trkpt lat="40.402158" lon="-3.944218">
        <ele>577.80</ele>
        <time>2020-01-19T10:19:33Z</time>
      </trkpt>
      <trkpt lat="40.402225" lon="-3.944356">
        <ele>577.40</ele>
        <time>2020-01-19T10:19:36Z</time>
      </trkpt>
      <trkpt lat="40.402342" lon="-3.944511">
        <ele>577.80</ele>
        <time>2020-01-19T10:19:40Z</time>
      </trkpt>
      <trkpt lat="40.402368" lon="-3.944521">
        <ele>578.00</ele>
        <time>2020-01-19T10:19:41Z</time>
      </trkpt>
      <trkpt lat="40.402447" lon="-3.944479">
        <ele>577.80</ele>
        <time>2020-01-19T10:19:44Z</time>
      </trkpt>
      <trkpt lat="40.402464" lon="-3.944436">
        <ele>577.00</ele>
        <time>2020-01-19T10:19:45Z</time>
      </trkpt>
      <trkpt lat="40.402569" lon="-3.944296">
        <ele>577.20</ele>
        <time>2020-01-19T10:19:49Z</time>
      </trkpt>
      <trkpt lat="40.402667" lon="-3.944147">
        <ele>577.60</ele>
        <time>2020-01-19T10:19:53Z</time>
      </trkpt>
      <trkpt lat="40.402695" lon="-3.944101">
        <ele>577.60</ele>
        <time>2020-01-19T10:19:54Z</time>
      </trkpt>
      <trkpt lat="40.402798" lon="-3.944023">
        <ele>578.80</ele>
        <time>2020-01-19T10:19:57Z</time>
      </trkpt>
      <trkpt lat="40.402835" lon="-3.944015">
        <ele>579.40</ele>
        <time>2020-01-19T10:19:58Z</time>
      </trkpt>
      <trkpt lat="40.402873" lon="-3.944009">
        <ele>580.00</ele>
        <time>2020-01-19T10:19:59Z</time>
      </trkpt>
      <trkpt lat="40.402955" lon="-3.943984">
        <ele>580.40</ele>
        <time>2020-01-19T10:20:01Z</time>
      </trkpt>
      <trkpt lat="40.403021" lon="-3.943934">
        <ele>580.60</ele>
        <time>2020-01-19T10:20:03Z</time>
      </trkpt>
      <trkpt lat="40.403208" lon="-3.943871">
        <ele>580.20</ele>
        <time>2020-01-19T10:20:07Z</time>
      </trkpt>
      <trkpt lat="40.403446" lon="-3.943786">
        <ele>579.40</ele>
        <time>2020-01-19T10:20:11Z</time>
      </trkpt>
      <trkpt lat="40.403558" lon="-3.943771">
        <ele>579.60</ele>
        <time>2020-01-19T10:20:13Z</time>
      </trkpt>
      <trkpt lat="40.403713" lon="-3.943746">
        <ele>580.60</ele>
        <time>2020-01-19T10:20:16Z</time>
      </trkpt>
      <trkpt lat="40.403808" lon="-3.943737">
        <ele>581.00</ele>
        <time>2020-01-19T10:20:18Z</time>
      </trkpt>
      <trkpt lat="40.403941" lon="-3.943706">
        <ele>581.40</ele>
        <time>2020-01-19T10:20:21Z</time>
      </trkpt>
      <trkpt lat="40.404023" lon="-3.943662">
        <ele>581.60</ele>
        <time>2020-01-19T10:20:23Z</time>
      </trkpt>
      <trkpt lat="40.404089" lon="-3.943615">
        <ele>582.00</ele>
        <time>2020-01-19T10:20:25Z</time>
      </trkpt>
      <trkpt lat="40.404145" lon="-3.943617">
        <ele>582.80</ele>
        <time>2020-01-19T10:20:27Z</time>
      </trkpt>
      <trkpt lat="40.404174" lon="-3.943642">
        <ele>582.80</ele>
        <time>2020-01-19T10:20:28Z</time>
      </trkpt>
      <trkpt lat="40.404369" lon="-3.943706">
        <ele>583.00</ele>
        <time>2020-01-19T10:20:33Z</time>
      </trkpt>
      <trkpt lat="40.404409" lon="-3.943698">
        <ele>583.20</ele>
        <time>2020-01-19T10:20:34Z</time>
      </trkpt>
      <trkpt lat="40.404487" lon="-3.943663">
        <ele>583.00</ele>
        <time>2020-01-19T10:20:36Z</time>
      </trkpt>
      <trkpt lat="40.404554" lon="-3.943625">
        <ele>583.20</ele>
        <time>2020-01-19T10:20:38Z</time>
      </trkpt>
      <trkpt lat="40.404730" lon="-3.943594">
        <ele>583.60</ele>
        <time>2020-01-19T10:20:43Z</time>
      </trkpt>
      <trkpt lat="40.404803" lon="-3.943615">
        <ele>584.20</ele>
        <time>2020-01-19T10:20:45Z</time>
      </trkpt>
      <trkpt lat="40.404935" lon="-3.943700">
        <ele>584.40</ele>
        <time>2020-01-19T10:20:49Z</time>
      </trkpt>
      <trkpt lat="40.405007" lon="-3.943745">
        <ele>584.20</ele>
        <time>2020-01-19T10:20:51Z</time>
      </trkpt>
      <trkpt lat="40.405095" lon="-3.943820">
        <ele>582.40</ele>
        <time>2020-01-19T10:20:53Z</time>
      </trkpt>
      <trkpt lat="40.405132" lon="-3.943883">
        <ele>581.40</ele>
        <time>2020-01-19T10:20:54Z</time>
      </trkpt>
      <trkpt lat="40.405168" lon="-3.943956">
        <ele>580.40</ele>
        <time>2020-01-19T10:20:55Z</time>
      </trkpt>
      <trkpt lat="40.405235" lon="-3.944099">
        <ele>580.20</ele>
        <time>2020-01-19T10:20:57Z</time>
      </trkpt>
      <trkpt lat="40.405348" lon="-3.944375">
        <ele>579.40</ele>
        <time>2020-01-19T10:21:01Z</time>
      </trkpt>
      <trkpt lat="40.405582" lon="-3.944617">
        <ele>578.80</ele>
        <time>2020-01-19T10:21:06Z</time>
      </trkpt>
      <trkpt lat="40.405624" lon="-3.944662">
        <ele>579.20</ele>
        <time>2020-01-19T10:21:07Z</time>
      </trkpt>
      <trkpt lat="40.405751" lon="-3.944798">
        <ele>578.60</ele>
        <time>2020-01-19T10:21:10Z</time>
      </trkpt>
      <trkpt lat="40.405853" lon="-3.944953">
        <ele>578.20</ele>
        <time>2020-01-19T10:21:13Z</time>
      </trkpt>
      <trkpt lat="40.405956" lon="-3.945133">
        <ele>578.20</ele>
        <time>2020-01-19T10:21:17Z</time>
      </trkpt>
      <trkpt lat="40.406041" lon="-3.945156">
        <ele>578.80</ele>
        <time>2020-01-19T10:21:20Z</time>
      </trkpt>
      <trkpt lat="40.406115" lon="-3.945174">
        <ele>578.40</ele>
        <time>2020-01-19T10:21:22Z</time>
      </trkpt>
      <trkpt lat="40.406246" lon="-3.945192">
        <ele>578.20</ele>
        <time>2020-01-19T10:21:25Z</time>
      </trkpt>
      <trkpt lat="40.406290" lon="-3.945206">
        <ele>578.20</ele>
        <time>2020-01-19T10:21:26Z</time>
      </trkpt>
      <trkpt lat="40.406412" lon="-3.945272">
        <ele>578.40</ele>
        <time>2020-01-19T10:21:29Z</time>
      </trkpt>
      <trkpt lat="40.406506" lon="-3.945277">
        <ele>579.00</ele>
        <time>2020-01-19T10:21:31Z</time>
      </trkpt>
      <trkpt lat="40.406555" lon="-3.945284">
        <ele>579.00</ele>
        <time>2020-01-19T10:21:32Z</time>
      </trkpt>
      <trkpt lat="40.406608" lon="-3.945295">
        <ele>579.00</ele>
        <time>2020-01-19T10:21:33Z</time>
      </trkpt>
      <trkpt lat="40.406756" lon="-3.945357">
        <ele>578.40</ele>
        <time>2020-01-19T10:21:36Z</time>
      </trkpt>
      <trkpt lat="40.406828" lon="-3.945439">
        <ele>578.60</ele>
        <time>2020-01-19T10:21:38Z</time>
      </trkpt>
      <trkpt lat="40.406985" lon="-3.945563">
        <ele>578.60</ele>
        <time>2020-01-19T10:21:42Z</time>
      </trkpt>
      <trkpt lat="40.407088" lon="-3.945622">
        <ele>578.80</ele>
        <time>2020-01-19T10:21:45Z</time>
      </trkpt>
      <trkpt lat="40.407120" lon="-3.945646">
        <ele>578.60</ele>
        <time>2020-01-19T10:21:46Z</time>
      </trkpt>
      <trkpt lat="40.407183" lon="-3.945710">
        <ele>578.60</ele>
        <time>2020-01-19T10:21:48Z</time>
      </trkpt>
      <trkpt lat="40.407303" lon="-3.945748">
        <ele>579.00</ele>
        <time>2020-01-19T10:21:51Z</time>
      </trkpt>
      <trkpt lat="40.407342" lon="-3.945768">
        <ele>579.00</ele>
        <time>2020-01-19T10:21:52Z</time>
      </trkpt>
      <trkpt lat="40.407494" lon="-3.945852">
        <ele>578.60</ele>
        <time>2020-01-19T10:21:56Z</time>
      </trkpt>
      <trkpt lat="40.407531" lon="-3.945876">
        <ele>578.60</ele>
        <time>2020-01-19T10:21:57Z</time>
      </trkpt>
      <trkpt lat="40.407719" lon="-3.945955">
        <ele>579.60</ele>
        <time>2020-01-19T10:22:02Z</time>
      </trkpt>
      <trkpt lat="40.407930" lon="-3.945983">
        <ele>578.40</ele>
        <time>2020-01-19T10:22:06Z</time>
      </trkpt>
      <trkpt lat="40.407982" lon="-3.946009">
        <ele>578.40</ele>
        <time>2020-01-19T10:22:07Z</time>
      </trkpt>
      <trkpt lat="40.408121" lon="-3.946115">
        <ele>577.60</ele>
        <time>2020-01-19T10:22:10Z</time>
      </trkpt>
      <trkpt lat="40.408203" lon="-3.946166">
        <ele>577.80</ele>
        <time>2020-01-19T10:22:12Z</time>
      </trkpt>
      <trkpt lat="40.408286" lon="-3.946187">
        <ele>578.80</ele>
        <time>2020-01-19T10:22:14Z</time>
      </trkpt>
      <trkpt lat="40.408379" lon="-3.946197">
        <ele>579.20</ele>
        <time>2020-01-19T10:22:16Z</time>
      </trkpt>
      <trkpt lat="40.408424" lon="-3.946207">
        <ele>579.40</ele>
        <time>2020-01-19T10:22:17Z</time>
      </trkpt>
      <trkpt lat="40.408516" lon="-3.946225">
        <ele>579.00</ele>
        <time>2020-01-19T10:22:19Z</time>
      </trkpt>
      <trkpt lat="40.408661" lon="-3.946270">
        <ele>579.40</ele>
        <time>2020-01-19T10:22:22Z</time>
      </trkpt>
      <trkpt lat="40.409064" lon="-3.946356">
        <ele>579.60</ele>
        <time>2020-01-19T10:22:30Z</time>
      </trkpt>
      <trkpt lat="40.409300" lon="-3.946409">
        <ele>580.00</ele>
        <time>2020-01-19T10:22:35Z</time>
      </trkpt>
      <trkpt lat="40.409383" lon="-3.946416">
        <ele>580.20</ele>
        <time>2020-01-19T10:22:37Z</time>
      </trkpt>
      <trkpt lat="40.409479" lon="-3.946416">
        <ele>580.80</ele>
        <time>2020-01-19T10:22:40Z</time>
      </trkpt>
      <trkpt lat="40.409528" lon="-3.946417">
        <ele>581.40</ele>
        <time>2020-01-19T10:22:42Z</time>
      </trkpt>
      <trkpt lat="40.409554" lon="-3.946436">
        <ele>581.60</ele>
        <time>2020-01-19T10:22:43Z</time>
      </trkpt>
      <trkpt lat="40.409594" lon="-3.946460">
        <ele>581.40</ele>
        <time>2020-01-19T10:22:44Z</time>
      </trkpt>
      <trkpt lat="40.409767" lon="-3.946514">
        <ele>580.80</ele>
        <time>2020-01-19T10:22:48Z</time>
      </trkpt>
      <trkpt lat="40.409952" lon="-3.946524">
        <ele>580.80</ele>
        <time>2020-01-19T10:22:53Z</time>
      </trkpt>
      <trkpt lat="40.410033" lon="-3.946514">
        <ele>581.20</ele>
        <time>2020-01-19T10:22:55Z</time>
      </trkpt>
      <trkpt lat="40.410117" lon="-3.946497">
        <ele>581.20</ele>
        <time>2020-01-19T10:22:57Z</time>
      </trkpt>
      <trkpt lat="40.410154" lon="-3.946489">
        <ele>581.00</ele>
        <time>2020-01-19T10:22:58Z</time>
      </trkpt>
      <trkpt lat="40.410310" lon="-3.946501">
        <ele>581.40</ele>
        <time>2020-01-19T10:23:02Z</time>
      </trkpt>
      <trkpt lat="40.410349" lon="-3.946516">
        <ele>581.60</ele>
        <time>2020-01-19T10:23:03Z</time>
      </trkpt>
      <trkpt lat="40.410482" lon="-3.946534">
        <ele>581.00</ele>
        <time>2020-01-19T10:23:06Z</time>
      </trkpt>
      <trkpt lat="40.410611" lon="-3.946550">
        <ele>581.20</ele>
        <time>2020-01-19T10:23:09Z</time>
      </trkpt>
      <trkpt lat="40.410741" lon="-3.946583">
        <ele>581.20</ele>
        <time>2020-01-19T10:23:12Z</time>
      </trkpt>
      <trkpt lat="40.410902" lon="-3.946597">
        <ele>581.40</ele>
        <time>2020-01-19T10:23:16Z</time>
      </trkpt>
      <trkpt lat="40.410944" lon="-3.946596">
        <ele>581.40</ele>
        <time>2020-01-19T10:23:17Z</time>
      </trkpt>
      <trkpt lat="40.411149" lon="-3.946648">
        <ele>582.00</ele>
        <time>2020-01-19T10:23:22Z</time>
      </trkpt>
      <trkpt lat="40.411303" lon="-3.946697">
        <ele>582.60</ele>
        <time>2020-01-19T10:23:26Z</time>
      </trkpt>
      <trkpt lat="40.411344" lon="-3.946706">
        <ele>582.40</ele>
        <time>2020-01-19T10:23:27Z</time>
      </trkpt>
      <trkpt lat="40.411383" lon="-3.946723">
        <ele>582.40</ele>
        <time>2020-01-19T10:23:28Z</time>
      </trkpt>
      <trkpt lat="40.411474" lon="-3.946770">
        <ele>581.40</ele>
        <time>2020-01-19T10:23:30Z</time>
      </trkpt>
      <trkpt lat="40.411529" lon="-3.946785">
        <ele>580.80</ele>
        <time>2020-01-19T10:23:31Z</time>
      </trkpt>
      <trkpt lat="40.411580" lon="-3.946794">
        <ele>580.20</ele>
        <time>2020-01-19T10:23:32Z</time>
      </trkpt>
      <trkpt lat="40.411822" lon="-3.946832">
        <ele>581.20</ele>
        <time>2020-01-19T10:23:37Z</time>
      </trkpt>
      <trkpt lat="40.412009" lon="-3.946887">
        <ele>581.20</ele>
        <time>2020-01-19T10:23:41Z</time>
      </trkpt>
      <trkpt lat="40.412163" lon="-3.946898">
        <ele>582.20</ele>
        <time>2020-01-19T10:23:45Z</time>
      </trkpt>
      <trkpt lat="40.412201" lon="-3.946912">
        <ele>582.00</ele>
        <time>2020-01-19T10:23:46Z</time>
      </trkpt>
      <trkpt lat="40.412393" lon="-3.946960">
        <ele>581.20</ele>
        <time>2020-01-19T10:23:50Z</time>
      </trkpt>
      <trkpt lat="40.412621" lon="-3.947016">
        <ele>581.40</ele>
        <time>2020-01-19T10:23:55Z</time>
      </trkpt>
      <trkpt lat="40.412854" lon="-3.947080">
        <ele>581.20</ele>
        <time>2020-01-19T10:24:00Z</time>
      </trkpt>
      <trkpt lat="40.413194" lon="-3.947173">
        <ele>581.40</ele>
        <time>2020-01-19T10:24:07Z</time>
      </trkpt>
      <trkpt lat="40.413493" lon="-3.947261">
        <ele>581.60</ele>
        <time>2020-01-19T10:24:13Z</time>
      </trkpt>
      <trkpt lat="40.413540" lon="-3.947265">
        <ele>582.00</ele>
        <time>2020-01-19T10:24:14Z</time>
      </trkpt>
      <trkpt lat="40.413687" lon="-3.947287">
        <ele>582.40</ele>
        <time>2020-01-19T10:24:17Z</time>
      </trkpt>
      <trkpt lat="40.413824" lon="-3.947315">
        <ele>580.60</ele>
        <time>2020-01-19T10:24:20Z</time>
      </trkpt>
      <trkpt lat="40.413867" lon="-3.947332">
        <ele>581.00</ele>
        <time>2020-01-19T10:24:21Z</time>
      </trkpt>
      <trkpt lat="40.413947" lon="-3.947359">
        <ele>582.00</ele>
        <time>2020-01-19T10:24:23Z</time>
      </trkpt>
      <trkpt lat="40.414022" lon="-3.947370">
        <ele>581.80</ele>
        <time>2020-01-19T10:24:25Z</time>
      </trkpt>
      <trkpt lat="40.414159" lon="-3.947377">
        <ele>583.40</ele>
        <time>2020-01-19T10:24:30Z</time>
      </trkpt>
      <trkpt lat="40.414184" lon="-3.947369">
        <ele>583.80</ele>
        <time>2020-01-19T10:24:32Z</time>
      </trkpt>
      <trkpt lat="40.414193" lon="-3.947347">
        <ele>584.00</ele>
        <time>2020-01-19T10:24:33Z</time>
      </trkpt>
      <trkpt lat="40.414201" lon="-3.947315">
        <ele>584.40</ele>
        <time>2020-01-19T10:24:34Z</time>
      </trkpt>
      <trkpt lat="40.414226" lon="-3.947152">
        <ele>584.40</ele>
        <time>2020-01-19T10:24:38Z</time>
      </trkpt>
      <trkpt lat="40.414275" lon="-3.946887">
        <ele>585.00</ele>
        <time>2020-01-19T10:24:44Z</time>
      </trkpt>
      <trkpt lat="40.414309" lon="-3.946753">
        <ele>585.40</ele>
        <time>2020-01-19T10:24:47Z</time>
      </trkpt>
      <trkpt lat="40.414330" lon="-3.946569">
        <ele>585.80</ele>
        <time>2020-01-19T10:24:51Z</time>
      </trkpt>
      <trkpt lat="40.414377" lon="-3.946392">
        <ele>586.80</ele>
        <time>2020-01-19T10:24:55Z</time>
      </trkpt>
      <trkpt lat="40.414418" lon="-3.946261">
        <ele>587.40</ele>
        <time>2020-01-19T10:24:58Z</time>
      </trkpt>
      <trkpt lat="40.414427" lon="-3.946175">
        <ele>588.00</ele>
        <time>2020-01-19T10:25:00Z</time>
      </trkpt>
      <trkpt lat="40.414445" lon="-3.946041">
        <ele>589.00</ele>
        <time>2020-01-19T10:25:03Z</time>
      </trkpt>
      <trkpt lat="40.414476" lon="-3.945916">
        <ele>590.00</ele>
        <time>2020-01-19T10:25:06Z</time>
      </trkpt>
      <trkpt lat="40.414487" lon="-3.945835">
        <ele>590.60</ele>
        <time>2020-01-19T10:25:08Z</time>
      </trkpt>
      <trkpt lat="40.414497" lon="-3.945794">
        <ele>591.20</ele>
        <time>2020-01-19T10:25:09Z</time>
      </trkpt>
      <trkpt lat="40.414549" lon="-3.945615">
        <ele>592.20</ele>
        <time>2020-01-19T10:25:14Z</time>
      </trkpt>
      <trkpt lat="40.414569" lon="-3.945548">
        <ele>592.20</ele>
        <time>2020-01-19T10:25:16Z</time>
      </trkpt>
      <trkpt lat="40.414602" lon="-3.945465">
        <ele>592.80</ele>
        <time>2020-01-19T10:25:19Z</time>
      </trkpt>
      <trkpt lat="40.414627" lon="-3.945479">
        <ele>593.40</ele>
        <time>2020-01-19T10:25:21Z</time>
      </trkpt>
      <trkpt lat="40.414630" lon="-3.945503">
        <ele>593.40</ele>
        <time>2020-01-19T10:25:22Z</time>
      </trkpt>
      <trkpt lat="40.414611" lon="-3.945684">
        <ele>592.40</ele>
        <time>2020-01-19T10:25:26Z</time>
      </trkpt>
      <trkpt lat="40.414623" lon="-3.945755">
        <ele>592.20</ele>
        <time>2020-01-19T10:25:27Z</time>
      </trkpt>
      <trkpt lat="40.414636" lon="-3.945931">
        <ele>591.40</ele>
        <time>2020-01-19T10:25:29Z</time>
      </trkpt>
      <trkpt lat="40.414635" lon="-3.946029">
        <ele>590.40</ele>
        <time>2020-01-19T10:25:30Z</time>
      </trkpt>
      <trkpt lat="40.414634" lon="-3.946135">
        <ele>589.60</ele>
        <time>2020-01-19T10:25:31Z</time>
      </trkpt>
      <trkpt lat="40.414629" lon="-3.946242">
        <ele>588.80</ele>
        <time>2020-01-19T10:25:32Z</time>
      </trkpt>
      <trkpt lat="40.414613" lon="-3.946465">
        <ele>587.20</ele>
        <time>2020-01-19T10:25:34Z</time>
      </trkpt>
      <trkpt lat="40.414594" lon="-3.946693">
        <ele>586.00</ele>
        <time>2020-01-19T10:25:36Z</time>
      </trkpt>
      <trkpt lat="40.414561" lon="-3.947170">
        <ele>585.00</ele>
        <time>2020-01-19T10:25:40Z</time>
      </trkpt>
      <trkpt lat="40.414544" lon="-3.947408">
        <ele>584.00</ele>
        <time>2020-01-19T10:25:42Z</time>
      </trkpt>
      <trkpt lat="40.414534" lon="-3.947525">
        <ele>583.80</ele>
        <time>2020-01-19T10:25:43Z</time>
      </trkpt>
      <trkpt lat="40.414461" lon="-3.948316">
        <ele>583.60</ele>
        <time>2020-01-19T10:25:50Z</time>
      </trkpt>
      <trkpt lat="40.414326" lon="-3.948946">
        <ele>583.60</ele>
        <time>2020-01-19T10:25:56Z</time>
      </trkpt>
      <trkpt lat="40.414104" lon="-3.949497">
        <ele>583.40</ele>
        <time>2020-01-19T10:26:02Z</time>
      </trkpt>
      <trkpt lat="40.413908" lon="-3.949867">
        <ele>584.20</ele>
        <time>2020-01-19T10:26:07Z</time>
      </trkpt>
      <trkpt lat="40.413763" lon="-3.950118">
        <ele>584.40</ele>
        <time>2020-01-19T10:26:11Z</time>
      </trkpt>
      <trkpt lat="40.413795" lon="-3.950143">
        <ele>586.67</ele>
        <time>2020-11-23T08:59:59Z</time>
      </trkpt>
      <trkpt lat="40.413629" lon="-3.950370">
        <ele>586.44</ele>
        <time>2020-11-23T09:00:02Z</time>
      </trkpt>
      <trkpt lat="40.413373" lon="-3.950597">
        <ele>586.43</ele>
        <time>2020-11-23T09:00:06Z</time>
      </trkpt>
      <trkpt lat="40.413310" lon="-3.950646">
        <ele>586.67</ele>
        <time>2020-11-23T09:00:07Z</time>
      </trkpt>
      <trkpt lat="40.413249" lon="-3.950697">
        <ele>586.64</ele>
        <time>2020-11-23T09:00:08Z</time>
      </trkpt>
      <trkpt lat="40.413042" lon="-3.950902">
        <ele>586.63</ele>
        <time>2020-11-23T09:00:12Z</time>
      </trkpt>
      <trkpt lat="40.412993" lon="-3.950948">
        <ele>586.68</ele>
        <time>2020-11-23T09:00:13Z</time>
      </trkpt>
      <trkpt lat="40.412807" lon="-3.951136">
        <ele>587.67</ele>
        <time>2020-11-23T09:00:17Z</time>
      </trkpt>
      <trkpt lat="40.412766" lon="-3.951191">
        <ele>588.06</ele>
        <time>2020-11-23T09:00:18Z</time>
      </trkpt>
      <trkpt lat="40.412733" lon="-3.951248">
        <ele>588.22</ele>
        <time>2020-11-23T09:00:19Z</time>
      </trkpt>
      <trkpt lat="40.412664" lon="-3.951426">
        <ele>589.01</ele>
        <time>2020-11-23T09:00:22Z</time>
      </trkpt>
      <trkpt lat="40.412626" lon="-3.951530">
        <ele>589.67</ele>
        <time>2020-11-23T09:00:24Z</time>
      </trkpt>
      <trkpt lat="40.412576" lon="-3.951675">
        <ele>590.67</ele>
        <time>2020-11-23T09:00:27Z</time>
      </trkpt>
      <trkpt lat="40.412551" lon="-3.951769">
        <ele>591.68</ele>
        <time>2020-11-23T09:00:29Z</time>
      </trkpt>
      <trkpt lat="40.412542" lon="-3.951817">
        <ele>592.08</ele>
        <time>2020-11-23T09:00:30Z</time>
      </trkpt>
      <trkpt lat="40.412527" lon="-3.952017">
        <ele>594.05</ele>
        <time>2020-11-23T09:00:34Z</time>
      </trkpt>
      <trkpt lat="40.412526" lon="-3.952118">
        <ele>594.65</ele>
        <time>2020-11-23T09:00:36Z</time>
      </trkpt>
      <trkpt lat="40.412530" lon="-3.952267">
        <ele>595.65</ele>
        <time>2020-11-23T09:00:39Z</time>
      </trkpt>
      <trkpt lat="40.412523" lon="-3.952399">
        <ele>596.83</ele>
        <time>2020-11-23T09:00:42Z</time>
      </trkpt>
      <trkpt lat="40.412520" lon="-3.952486">
        <ele>597.68</ele>
        <time>2020-11-23T09:00:44Z</time>
      </trkpt>
      <trkpt lat="40.412520" lon="-3.952672">
        <ele>598.63</ele>
        <time>2020-11-23T09:00:48Z</time>
      </trkpt>
      <trkpt lat="40.412521" lon="-3.952720">
        <ele>599.03</ele>
        <time>2020-11-23T09:00:49Z</time>
      </trkpt>
      <trkpt lat="40.412520" lon="-3.952933">
        <ele>600.01</ele>
        <time>2020-11-23T09:00:53Z</time>
      </trkpt>
      <trkpt lat="40.412519" lon="-3.953097">
        <ele>601.04</ele>
        <time>2020-11-23T09:00:56Z</time>
      </trkpt>
      <trkpt lat="40.412520" lon="-3.953151">
        <ele>601.22</ele>
        <time>2020-11-23T09:00:57Z</time>
      </trkpt>
      <trkpt lat="40.412524" lon="-3.953206">
        <ele>601.44</ele>
        <time>2020-11-23T09:00:58Z</time>
      </trkpt>
      <trkpt lat="40.412547" lon="-3.953537">
        <ele>602.67</ele>
        <time>2020-11-23T09:01:04Z</time>
      </trkpt>
      <trkpt lat="40.412549" lon="-3.953595">
        <ele>602.87</ele>
        <time>2020-11-23T09:01:05Z</time>
      </trkpt>
      <trkpt lat="40.412566" lon="-3.953811">
        <ele>603.42</ele>
        <time>2020-11-23T09:01:09Z</time>
      </trkpt>
      <trkpt lat="40.412577" lon="-3.954023">
        <ele>604.29</ele>
        <time>2020-11-23T09:01:13Z</time>
      </trkpt>
      <trkpt lat="40.412589" lon="-3.954230">
        <ele>605.23</ele>
        <time>2020-11-23T09:01:17Z</time>
      </trkpt>
      <trkpt lat="40.412609" lon="-3.954483">
        <ele>606.89</ele>
        <time>2020-11-23T09:01:22Z</time>
      </trkpt>
      <trkpt lat="40.412615" lon="-3.954532">
        <ele>607.26</ele>
        <time>2020-11-23T09:01:23Z</time>
      </trkpt>
      <trkpt lat="40.412623" lon="-3.954582">
        <ele>607.62</ele>
        <time>2020-11-23T09:01:24Z</time>
      </trkpt>
      <trkpt lat="40.412641" lon="-3.954930">
        <ele>609.21</ele>
        <time>2020-11-23T09:01:31Z</time>
      </trkpt>
      <trkpt lat="40.412642" lon="-3.954983">
        <ele>609.45</ele>
        <time>2020-11-23T09:01:32Z</time>
      </trkpt>
      <trkpt lat="40.412632" lon="-3.955379">
        <ele>611.47</ele>
        <time>2020-11-23T09:01:39Z</time>
      </trkpt>
      <trkpt lat="40.412622" lon="-3.955496">
        <ele>611.87</ele>
        <time>2020-11-23T09:01:41Z</time>
      </trkpt>
      <trkpt lat="40.412602" lon="-3.955616">
        <ele>612.49</ele>
        <time>2020-11-23T09:01:43Z</time>
      </trkpt>
      <trkpt lat="40.412574" lon="-3.955791">
        <ele>612.61</ele>
        <time>2020-11-23T09:01:46Z</time>
      </trkpt>
      <trkpt lat="40.412556" lon="-3.955912">
        <ele>612.88</ele>
        <time>2020-11-23T09:01:48Z</time>
      </trkpt>
      <trkpt lat="40.412530" lon="-3.956021">
        <ele>613.06</ele>
        <time>2020-11-23T09:01:50Z</time>
      </trkpt>
      <trkpt lat="40.412499" lon="-3.956122">
        <ele>613.28</ele>
        <time>2020-11-23T09:01:52Z</time>
      </trkpt>
      <trkpt lat="40.412483" lon="-3.956165">
        <ele>613.46</ele>
        <time>2020-11-23T09:01:53Z</time>
      </trkpt>
      <trkpt lat="40.412389" lon="-3.956388">
        <ele>614.41</ele>
        <time>2020-11-23T09:01:58Z</time>
      </trkpt>
      <trkpt lat="40.412367" lon="-3.956432">
        <ele>614.62</ele>
        <time>2020-11-23T09:01:59Z</time>
      </trkpt>
      <trkpt lat="40.412223" lon="-3.956718">
        <ele>615.81</ele>
        <time>2020-11-23T09:02:05Z</time>
      </trkpt>
      <trkpt lat="40.412153" lon="-3.956867">
        <ele>616.24</ele>
        <time>2020-11-23T09:02:08Z</time>
      </trkpt>
      <trkpt lat="40.412050" lon="-3.957061">
        <ele>617.28</ele>
        <time>2020-11-23T09:02:12Z</time>
      </trkpt>
      <trkpt lat="40.411990" lon="-3.957157">
        <ele>617.83</ele>
        <time>2020-11-23T09:02:14Z</time>
      </trkpt>
      <trkpt lat="40.411932" lon="-3.957259">
        <ele>618.65</ele>
        <time>2020-11-23T09:02:16Z</time>
      </trkpt>
      <trkpt lat="40.411773" lon="-3.957581">
        <ele>619.82</ele>
        <time>2020-11-23T09:02:22Z</time>
      </trkpt>
      <trkpt lat="40.411716" lon="-3.957683">
        <ele>620.62</ele>
        <time>2020-11-23T09:02:24Z</time>
      </trkpt>
      <trkpt lat="40.411566" lon="-3.957985">
        <ele>621.62</ele>
        <time>2020-11-23T09:02:30Z</time>
      </trkpt>
      <trkpt lat="40.411454" lon="-3.958255">
        <ele>622.66</ele>
        <time>2020-11-23T09:02:36Z</time>
      </trkpt>
      <trkpt lat="40.411454" lon="-3.958365">
        <ele>622.88</ele>
        <time>2020-11-23T09:02:38Z</time>
      </trkpt>
      <trkpt lat="40.411468" lon="-3.958483">
        <ele>623.24</ele>
        <time>2020-11-23T09:02:40Z</time>
      </trkpt>
      <trkpt lat="40.411483" lon="-3.958535">
        <ele>623.22</ele>
        <time>2020-11-23T09:02:41Z</time>
      </trkpt>
      <trkpt lat="40.411602" lon="-3.958895">
        <ele>623.81</ele>
        <time>2020-11-23T09:02:48Z</time>
      </trkpt>
      <trkpt lat="40.411681" lon="-3.959233">
        <ele>624.02</ele>
        <time>2020-11-23T09:02:55Z</time>
      </trkpt>
      <trkpt lat="40.411745" lon="-3.959531">
        <ele>624.68</ele>
        <time>2020-11-23T09:03:01Z</time>
      </trkpt>
      <trkpt lat="40.411817" lon="-3.959840">
        <ele>625.23</ele>
        <time>2020-11-23T09:03:07Z</time>
      </trkpt>
      <trkpt lat="40.411831" lon="-3.959900">
        <ele>625.45</ele>
        <time>2020-11-23T09:03:08Z</time>
      </trkpt>
      <trkpt lat="40.411894" lon="-3.960096">
        <ele>625.83</ele>
        <time>2020-11-23T09:03:12Z</time>
      </trkpt>
      <trkpt lat="40.411911" lon="-3.960142">
        <ele>626.04</ele>
        <time>2020-11-23T09:03:13Z</time>
      </trkpt>
      <trkpt lat="40.412054" lon="-3.960512">
        <ele>626.65</ele>
        <time>2020-11-23T09:03:21Z</time>
      </trkpt>
      <trkpt lat="40.412204" lon="-3.960899">
        <ele>627.84</ele>
        <time>2020-11-23T09:03:29Z</time>
      </trkpt>
      <trkpt lat="40.412256" lon="-3.961044">
        <ele>628.25</ele>
        <time>2020-11-23T09:03:32Z</time>
      </trkpt>
      <trkpt lat="40.412313" lon="-3.961180">
        <ele>628.63</ele>
        <time>2020-11-23T09:03:35Z</time>
      </trkpt>
      <trkpt lat="40.412417" lon="-3.961471">
        <ele>628.82</ele>
        <time>2020-11-23T09:03:41Z</time>
      </trkpt>
      <trkpt lat="40.412434" lon="-3.961523">
        <ele>628.81</ele>
        <time>2020-11-23T09:03:42Z</time>
      </trkpt>
      <trkpt lat="40.412486" lon="-3.961683">
        <ele>628.88</ele>
        <time>2020-11-23T09:03:45Z</time>
      </trkpt>
      <trkpt lat="40.412586" lon="-3.961940">
        <ele>628.86</ele>
        <time>2020-11-23T09:03:50Z</time>
      </trkpt>
      <trkpt lat="40.412635" lon="-3.962043">
        <ele>628.85</ele>
        <time>2020-11-23T09:03:52Z</time>
      </trkpt>
      <trkpt lat="40.412699" lon="-3.962197">
        <ele>628.85</ele>
        <time>2020-11-23T09:03:55Z</time>
      </trkpt>
      <trkpt lat="40.412716" lon="-3.962260">
        <ele>628.70</ele>
        <time>2020-11-23T09:03:56Z</time>
      </trkpt>
      <trkpt lat="40.412731" lon="-3.962327">
        <ele>628.89</ele>
        <time>2020-11-23T09:03:57Z</time>
      </trkpt>
      <trkpt lat="40.412787" lon="-3.962701">
        <ele>628.62</ele>
        <time>2020-11-23T09:04:03Z</time>
      </trkpt>
      <trkpt lat="40.412812" lon="-3.962870">
        <ele>628.61</ele>
        <time>2020-11-23T09:04:06Z</time>
      </trkpt>
      <trkpt lat="40.412856" lon="-3.963108">
        <ele>628.87</ele>
        <time>2020-11-23T09:04:10Z</time>
      </trkpt>
      <trkpt lat="40.412927" lon="-3.963554">
        <ele>628.87</ele>
        <time>2020-11-23T09:04:17Z</time>
      </trkpt>
      <trkpt lat="40.412971" lon="-3.964008">
        <ele>629.01</ele>
        <time>2020-11-23T09:04:24Z</time>
      </trkpt>
      <trkpt lat="40.412969" lon="-3.964130">
        <ele>629.21</ele>
        <time>2020-11-23T09:04:26Z</time>
      </trkpt>
      <trkpt lat="40.412966" lon="-3.964404">
        <ele>629.04</ele>
        <time>2020-11-23T09:04:30Z</time>
      </trkpt>
      <trkpt lat="40.412992" lon="-3.964572">
        <ele>629.08</ele>
        <time>2020-11-23T09:04:32Z</time>
      </trkpt>
      <trkpt lat="40.413004" lon="-3.964659">
        <ele>629.24</ele>
        <time>2020-11-23T09:04:33Z</time>
      </trkpt>
      <trkpt lat="40.413030" lon="-3.964821">
        <ele>629.29</ele>
        <time>2020-11-23T09:04:35Z</time>
      </trkpt>
      <trkpt lat="40.413103" lon="-3.965159">
        <ele>628.88</ele>
        <time>2020-11-23T09:04:39Z</time>
      </trkpt>
      <trkpt lat="40.413122" lon="-3.965241">
        <ele>628.42</ele>
        <time>2020-11-23T09:04:40Z</time>
      </trkpt>
      <trkpt lat="40.413144" lon="-3.965320">
        <ele>628.50</ele>
        <time>2020-11-23T09:04:41Z</time>
      </trkpt>
      <trkpt lat="40.413297" lon="-3.965750">
        <ele>626.86</ele>
        <time>2020-11-23T09:04:47Z</time>
      </trkpt>
      <trkpt lat="40.413490" lon="-3.966076">
        <ele>626.84</ele>
        <time>2020-11-23T09:04:53Z</time>
      </trkpt>
      <trkpt lat="40.413567" lon="-3.966163">
        <ele>626.66</ele>
        <time>2020-11-23T09:04:55Z</time>
      </trkpt>
      <trkpt lat="40.413703" lon="-3.966264">
        <ele>626.61</ele>
        <time>2020-11-23T09:04:58Z</time>
      </trkpt>
      <trkpt lat="40.413924" lon="-3.966414">
        <ele>627.21</ele>
        <time>2020-11-23T09:05:03Z</time>
      </trkpt>
      <trkpt lat="40.413999" lon="-3.966495">
        <ele>627.45</ele>
        <time>2020-11-23T09:05:05Z</time>
      </trkpt>
      <trkpt lat="40.414030" lon="-3.966542">
        <ele>627.48</ele>
        <time>2020-11-23T09:05:06Z</time>
      </trkpt>
      <trkpt lat="40.414090" lon="-3.966639">
        <ele>627.85</ele>
        <time>2020-11-23T09:05:08Z</time>
      </trkpt>
      <trkpt lat="40.414222" lon="-3.966821">
        <ele>628.41</ele>
        <time>2020-11-23T09:05:12Z</time>
      </trkpt>
      <trkpt lat="40.414256" lon="-3.966862">
        <ele>628.46</ele>
        <time>2020-11-23T09:05:13Z</time>
      </trkpt>
      <trkpt lat="40.414293" lon="-3.966902">
        <ele>628.49</ele>
        <time>2020-11-23T09:05:14Z</time>
      </trkpt>
      <trkpt lat="40.414522" lon="-3.967210">
        <ele>629.27</ele>
        <time>2020-11-23T09:05:21Z</time>
      </trkpt>
      <trkpt lat="40.414556" lon="-3.967256">
        <ele>629.43</ele>
        <time>2020-11-23T09:05:22Z</time>
      </trkpt>
      <trkpt lat="40.414742" lon="-3.967537">
        <ele>630.26</ele>
        <time>2020-11-23T09:05:28Z</time>
      </trkpt>
      <trkpt lat="40.414773" lon="-3.967584">
        <ele>630.00</ele>
        <time>2020-11-23T09:05:29Z</time>
      </trkpt>
      <trkpt lat="40.414980" lon="-3.967901">
        <ele>631.42</ele>
        <time>2020-11-23T09:05:36Z</time>
      </trkpt>
      <trkpt lat="40.415175" lon="-3.968283">
        <ele>632.41</ele>
        <time>2020-11-23T09:05:43Z</time>
      </trkpt>
      <trkpt lat="40.415344" lon="-3.968808">
        <ele>632.63</ele>
        <time>2020-11-23T09:05:51Z</time>
      </trkpt>
      <trkpt lat="40.415386" lon="-3.968942">
        <ele>632.68</ele>
        <time>2020-11-23T09:05:53Z</time>
      </trkpt>
      <trkpt lat="40.415490" lon="-3.969276">
        <ele>632.44</ele>
        <time>2020-11-23T09:05:58Z</time>
      </trkpt>
      <trkpt lat="40.415527" lon="-3.969413">
        <ele>632.09</ele>
        <time>2020-11-23T09:06:00Z</time>
      </trkpt>
      <trkpt lat="40.415616" lon="-3.969663">
        <ele>632.26</ele>
        <time>2020-11-23T09:06:04Z</time>
      </trkpt>
      <trkpt lat="40.415819" lon="-3.970047">
        <ele>632.47</ele>
        <time>2020-11-23T09:06:11Z</time>
      </trkpt>
      <trkpt lat="40.415850" lon="-3.970096">
        <ele>632.44</ele>
        <time>2020-11-23T09:06:12Z</time>
      </trkpt>
      <trkpt lat="40.415941" lon="-3.970266">
        <ele>632.62</ele>
        <time>2020-11-23T09:06:15Z</time>
      </trkpt>
      <trkpt lat="40.416039" lon="-3.970423">
        <ele>632.62</ele>
        <time>2020-11-23T09:06:18Z</time>
      </trkpt>
      <trkpt lat="40.416113" lon="-3.970524">
        <ele>632.69</ele>
        <time>2020-11-23T09:06:20Z</time>
      </trkpt>
      <trkpt lat="40.416392" lon="-3.970886">
        <ele>632.62</ele>
        <time>2020-11-23T09:06:27Z</time>
      </trkpt>
      <trkpt lat="40.416513" lon="-3.971042">
        <ele>632.61</ele>
        <time>2020-11-23T09:06:30Z</time>
      </trkpt>
      <trkpt lat="40.416703" lon="-3.971325">
        <ele>632.46</ele>
        <time>2020-11-23T09:06:35Z</time>
      </trkpt>
      <trkpt lat="40.417001" lon="-3.971789">
        <ele>631.89</ele>
        <time>2020-11-23T09:06:43Z</time>
      </trkpt>
      <trkpt lat="40.417315" lon="-3.972158">
        <ele>631.48</ele>
        <time>2020-11-23T09:06:50Z</time>
      </trkpt>
      <trkpt lat="40.417357" lon="-3.972211">
        <ele>631.41</ele>
        <time>2020-11-23T09:06:51Z</time>
      </trkpt>
      <trkpt lat="40.417516" lon="-3.972401">
        <ele>631.22</ele>
        <time>2020-11-23T09:06:55Z</time>
      </trkpt>
      <trkpt lat="40.417587" lon="-3.972496">
        <ele>631.27</ele>
        <time>2020-11-23T09:06:57Z</time>
      </trkpt>
      <trkpt lat="40.417616" lon="-3.972603">
        <ele>631.49</ele>
        <time>2020-11-23T09:06:59Z</time>
      </trkpt>
      <trkpt lat="40.417608" lon="-3.972654">
        <ele>631.49</ele>
        <time>2020-11-23T09:07:00Z</time>
      </trkpt>
      <trkpt lat="40.417584" lon="-3.972698">
        <ele>631.24</ele>
        <time>2020-11-23T09:07:01Z</time>
      </trkpt>
      <trkpt lat="40.417553" lon="-3.972741">
        <ele>631.26</ele>
        <time>2020-11-23T09:07:02Z</time>
      </trkpt>
      <trkpt lat="40.417518" lon="-3.972782">
        <ele>631.41</ele>
        <time>2020-11-23T09:07:03Z</time>
      </trkpt>
      <trkpt lat="40.417350" lon="-3.972947">
        <ele>631.61</ele>
        <time>2020-11-23T09:07:07Z</time>
      </trkpt>
      <trkpt lat="40.417237" lon="-3.973067">
        <ele>631.82</ele>
        <time>2020-11-23T09:07:10Z</time>
      </trkpt>
      <trkpt lat="40.417118" lon="-3.973198">
        <ele>632.41</ele>
        <time>2020-11-23T09:07:13Z</time>
      </trkpt>
      <trkpt lat="40.416823" lon="-3.973547">
        <ele>633.45</ele>
        <time>2020-11-23T09:07:20Z</time>
      </trkpt>
      <trkpt lat="40.416554" lon="-3.973924">
        <ele>634.02</ele>
        <time>2020-11-23T09:07:27Z</time>
      </trkpt>
      <trkpt lat="40.416420" lon="-3.974105">
        <ele>634.07</ele>
        <time>2020-11-23T09:07:30Z</time>
      </trkpt>
      <trkpt lat="40.416286" lon="-3.974309">
        <ele>633.63</ele>
        <time>2020-11-23T09:07:33Z</time>
      </trkpt>
      <trkpt lat="40.416236" lon="-3.974384">
        <ele>633.45</ele>
        <time>2020-11-23T09:07:34Z</time>
      </trkpt>
      <trkpt lat="40.416125" lon="-3.974530">
        <ele>633.02</ele>
        <time>2020-11-23T09:07:36Z</time>
      </trkpt>
      <trkpt lat="40.416016" lon="-3.974685">
        <ele>632.67</ele>
        <time>2020-11-23T09:07:38Z</time>
      </trkpt>
      <trkpt lat="40.415960" lon="-3.974763">
        <ele>632.03</ele>
        <time>2020-11-23T09:07:39Z</time>
      </trkpt>
      <trkpt lat="40.415800" lon="-3.975004">
        <ele>631.22</ele>
        <time>2020-11-23T09:07:42Z</time>
      </trkpt>
      <trkpt lat="40.415627" lon="-3.975243">
        <ele>629.81</ele>
        <time>2020-11-23T09:07:45Z</time>
      </trkpt>
      <trkpt lat="40.415569" lon="-3.975325">
        <ele>629.09</ele>
        <time>2020-11-23T09:07:46Z</time>
      </trkpt>
      <trkpt lat="40.415341" lon="-3.975658">
        <ele>627.09</ele>
        <time>2020-11-23T09:07:50Z</time>
      </trkpt>
      <trkpt lat="40.415250" lon="-3.975834">
        <ele>626.25</ele>
        <time>2020-11-23T09:07:52Z</time>
      </trkpt>
      <trkpt lat="40.415225" lon="-3.975934">
        <ele>625.70</ele>
        <time>2020-11-23T09:07:53Z</time>
      </trkpt>
      <trkpt lat="40.415198" lon="-3.976035">
        <ele>625.26</ele>
        <time>2020-11-23T09:07:54Z</time>
      </trkpt>
      <trkpt lat="40.415188" lon="-3.976141">
        <ele>625.29</ele>
        <time>2020-11-23T09:07:55Z</time>
      </trkpt>
      <trkpt lat="40.415215" lon="-3.976352">
        <ele>624.88</ele>
        <time>2020-11-23T09:07:57Z</time>
      </trkpt>
      <trkpt lat="40.415241" lon="-3.976461">
        <ele>624.63</ele>
        <time>2020-11-23T09:07:58Z</time>
      </trkpt>
      <trkpt lat="40.415281" lon="-3.976686">
        <ele>623.45</ele>
        <time>2020-11-23T09:08:00Z</time>
      </trkpt>
      <trkpt lat="40.415264" lon="-3.976912">
        <ele>622.66</ele>
        <time>2020-11-23T09:08:02Z</time>
      </trkpt>
      <trkpt lat="40.415179" lon="-3.977286">
        <ele>620.01</ele>
        <time>2020-11-23T09:08:06Z</time>
      </trkpt>
      <trkpt lat="40.415139" lon="-3.977480">
        <ele>617.21</ele>
        <time>2020-11-23T09:08:09Z</time>
      </trkpt>
      <trkpt lat="40.415133" lon="-3.977539">
        <ele>616.69</ele>
        <time>2020-11-23T09:08:10Z</time>
      </trkpt>
      <trkpt lat="40.415122" lon="-3.977817">
        <ele>616.07</ele>
        <time>2020-11-23T09:08:15Z</time>
      </trkpt>
      <trkpt lat="40.415117" lon="-3.977867">
        <ele>616.08</ele>
        <time>2020-11-23T09:08:16Z</time>
      </trkpt>
      <trkpt lat="40.415106" lon="-3.978074">
        <ele>616.08</ele>
        <time>2020-11-23T09:08:20Z</time>
      </trkpt>
      <trkpt lat="40.415080" lon="-3.978220">
        <ele>616.04</ele>
        <time>2020-11-23T09:08:23Z</time>
      </trkpt>
      <trkpt lat="40.415041" lon="-3.978469">
        <ele>617.49</ele>
        <time>2020-11-23T09:08:28Z</time>
      </trkpt>
      <trkpt lat="40.415030" lon="-3.978519">
        <ele>617.63</ele>
        <time>2020-11-23T09:08:29Z</time>
      </trkpt>
      <trkpt lat="40.414994" lon="-3.978665">
        <ele>618.24</ele>
        <time>2020-11-23T09:08:32Z</time>
      </trkpt>
      <trkpt lat="40.414944" lon="-3.978806">
        <ele>618.88</ele>
        <time>2020-11-23T09:08:35Z</time>
      </trkpt>
      <trkpt lat="40.414929" lon="-3.978849">
        <ele>619.24</ele>
        <time>2020-11-23T09:08:36Z</time>
      </trkpt>
      <trkpt lat="40.414867" lon="-3.979143">
        <ele>621.02</ele>
        <time>2020-11-23T09:08:42Z</time>
      </trkpt>
      <trkpt lat="40.414860" lon="-3.979197">
        <ele>621.21</ele>
        <time>2020-11-23T09:08:43Z</time>
      </trkpt>
      <trkpt lat="40.414859" lon="-3.979341">
        <ele>622.09</ele>
        <time>2020-11-23T09:08:46Z</time>
      </trkpt>
      <trkpt lat="40.414863" lon="-3.979532">
        <ele>622.83</ele>
        <time>2020-11-23T09:08:50Z</time>
      </trkpt>
      <trkpt lat="40.414870" lon="-3.979630">
        <ele>623.07</ele>
        <time>2020-11-23T09:08:52Z</time>
      </trkpt>
      <trkpt lat="40.414876" lon="-3.979944">
        <ele>624.47</ele>
        <time>2020-11-23T09:08:58Z</time>
      </trkpt>
      <trkpt lat="40.414867" lon="-3.980050">
        <ele>625.09</ele>
        <time>2020-11-23T09:09:00Z</time>
      </trkpt>
      <trkpt lat="40.414851" lon="-3.980309">
        <ele>625.88</ele>
        <time>2020-11-23T09:09:05Z</time>
      </trkpt>
      <trkpt lat="40.414845" lon="-3.980362">
        <ele>625.85</ele>
        <time>2020-11-23T09:09:06Z</time>
      </trkpt>
      <trkpt lat="40.414837" lon="-3.980518">
        <ele>626.62</ele>
        <time>2020-11-23T09:09:09Z</time>
      </trkpt>
      <trkpt lat="40.414835" lon="-3.980679">
        <ele>627.29</ele>
        <time>2020-11-23T09:09:12Z</time>
      </trkpt>
      <trkpt lat="40.414828" lon="-3.980734">
        <ele>627.21</ele>
        <time>2020-11-23T09:09:13Z</time>
      </trkpt>
      <trkpt lat="40.414816" lon="-3.980788">
        <ele>627.23</ele>
        <time>2020-11-23T09:09:14Z</time>
      </trkpt>
      <trkpt lat="40.414793" lon="-3.980893">
        <ele>627.61</ele>
        <time>2020-11-23T09:09:16Z</time>
      </trkpt>
      <trkpt lat="40.414754" lon="-3.981051">
        <ele>628.06</ele>
        <time>2020-11-23T09:09:19Z</time>
      </trkpt>
      <trkpt lat="40.414695" lon="-3.981265">
        <ele>628.84</ele>
        <time>2020-11-23T09:09:23Z</time>
      </trkpt>
      <trkpt lat="40.414679" lon="-3.981322">
        <ele>628.85</ele>
        <time>2020-11-23T09:09:24Z</time>
      </trkpt>
      <trkpt lat="40.414662" lon="-3.981378">
        <ele>628.90</ele>
        <time>2020-11-23T09:09:25Z</time>
      </trkpt>
      <trkpt lat="40.414647" lon="-3.981432">
        <ele>629.03</ele>
        <time>2020-11-23T09:09:26Z</time>
      </trkpt>
      <trkpt lat="40.414632" lon="-3.981490">
        <ele>629.01</ele>
        <time>2020-11-23T09:09:27Z</time>
      </trkpt>
      <trkpt lat="40.414616" lon="-3.981549">
        <ele>629.28</ele>
        <time>2020-11-23T09:09:28Z</time>
      </trkpt>
      <trkpt lat="40.414585" lon="-3.981655">
        <ele>629.48</ele>
        <time>2020-11-23T09:09:30Z</time>
      </trkpt>
      <trkpt lat="40.414570" lon="-3.981704">
        <ele>629.45</ele>
        <time>2020-11-23T09:09:31Z</time>
      </trkpt>
      <trkpt lat="40.414564" lon="-3.981765">
        <ele>629.46</ele>
        <time>2020-11-23T09:09:32Z</time>
      </trkpt>
      <trkpt lat="40.414536" lon="-3.981872">
        <ele>629.61</ele>
        <time>2020-11-23T09:09:34Z</time>
      </trkpt>
      <trkpt lat="40.414528" lon="-3.981932">
        <ele>629.61</ele>
        <time>2020-11-23T09:09:35Z</time>
      </trkpt>
      <trkpt lat="40.414519" lon="-3.981997">
        <ele>629.64</ele>
        <time>2020-11-23T09:09:36Z</time>
      </trkpt>
      <trkpt lat="40.414484" lon="-3.982186">
        <ele>629.67</ele>
        <time>2020-11-23T09:09:39Z</time>
      </trkpt>
      <trkpt lat="40.414447" lon="-3.982371">
        <ele>629.70</ele>
        <time>2020-11-23T09:09:42Z</time>
      </trkpt>
      <trkpt lat="40.414434" lon="-3.982434">
        <ele>629.43</ele>
        <time>2020-11-23T09:09:43Z</time>
      </trkpt>
      <trkpt lat="40.414420" lon="-3.982497">
        <ele>629.64</ele>
        <time>2020-11-23T09:09:44Z</time>
      </trkpt>
      <trkpt lat="40.414407" lon="-3.982562">
        <ele>629.67</ele>
        <time>2020-11-23T09:09:45Z</time>
      </trkpt>
      <trkpt lat="40.414389" lon="-3.982623">
        <ele>629.43</ele>
        <time>2020-11-23T09:09:46Z</time>
      </trkpt>
      <trkpt lat="40.414369" lon="-3.982684">
        <ele>629.44</ele>
        <time>2020-11-23T09:09:47Z</time>
      </trkpt>
      <trkpt lat="40.414346" lon="-3.982743">
        <ele>629.63</ele>
        <time>2020-11-23T09:09:48Z</time>
      </trkpt>
      <trkpt lat="40.414328" lon="-3.982805">
        <ele>629.65</ele>
        <time>2020-11-23T09:09:49Z</time>
      </trkpt>
      <trkpt lat="40.414314" lon="-3.982870">
        <ele>629.61</ele>
        <time>2020-11-23T09:09:50Z</time>
      </trkpt>
      <trkpt lat="40.414301" lon="-3.982938">
        <ele>629.61</ele>
        <time>2020-11-23T09:09:51Z</time>
      </trkpt>
      <trkpt lat="40.414290" lon="-3.983009">
        <ele>629.66</ele>
        <time>2020-11-23T09:09:52Z</time>
      </trkpt>
      <trkpt lat="40.414277" lon="-3.983156">
        <ele>629.24</ele>
        <time>2020-11-23T09:09:54Z</time>
      </trkpt>
      <trkpt lat="40.414275" lon="-3.983227">
        <ele>629.09</ele>
        <time>2020-11-23T09:09:55Z</time>
      </trkpt>
      <trkpt lat="40.414270" lon="-3.983295">
        <ele>629.07</ele>
        <time>2020-11-23T09:09:56Z</time>
      </trkpt>
      <trkpt lat="40.414258" lon="-3.983366">
        <ele>629.05</ele>
        <time>2020-11-23T09:09:57Z</time>
      </trkpt>
      <trkpt lat="40.414148" lon="-3.983693">
        <ele>628.63</ele>
        <time>2020-11-23T09:10:02Z</time>
      </trkpt>
      <trkpt lat="40.414118" lon="-3.983763">
        <ele>628.44</ele>
        <time>2020-11-23T09:10:03Z</time>
      </trkpt>
      <trkpt lat="40.414087" lon="-3.983838">
        <ele>628.25</ele>
        <time>2020-11-23T09:10:04Z</time>
      </trkpt>
      <trkpt lat="40.414055" lon="-3.983916">
        <ele>628.05</ele>
        <time>2020-11-23T09:10:05Z</time>
      </trkpt>
      <trkpt lat="40.414007" lon="-3.984101">
        <ele>628.03</ele>
        <time>2020-11-23T09:10:07Z</time>
      </trkpt>
      <trkpt lat="40.413950" lon="-3.984388">
        <ele>627.42</ele>
        <time>2020-11-23T09:10:10Z</time>
      </trkpt>
      <trkpt lat="40.413909" lon="-3.984556">
        <ele>626.81</ele>
        <time>2020-11-23T09:10:12Z</time>
      </trkpt>
      <trkpt lat="40.413887" lon="-3.984633">
        <ele>626.87</ele>
        <time>2020-11-23T09:10:13Z</time>
      </trkpt>
      <trkpt lat="40.413864" lon="-3.984708">
        <ele>626.89</ele>
        <time>2020-11-23T09:10:14Z</time>
      </trkpt>
      <trkpt lat="40.413842" lon="-3.984777">
        <ele>626.83</ele>
        <time>2020-11-23T09:10:15Z</time>
      </trkpt>
      <trkpt lat="40.413748" lon="-3.985026">
        <ele>626.62</ele>
        <time>2020-11-23T09:10:19Z</time>
      </trkpt>
      <trkpt lat="40.413704" lon="-3.985147">
        <ele>626.43</ele>
        <time>2020-11-23T09:10:21Z</time>
      </trkpt>
      <trkpt lat="40.413680" lon="-3.985207">
        <ele>626.42</ele>
        <time>2020-11-23T09:10:22Z</time>
      </trkpt>
      <trkpt lat="40.413639" lon="-3.985321">
        <ele>626.83</ele>
        <time>2020-11-23T09:10:24Z</time>
      </trkpt>
      <trkpt lat="40.413620" lon="-3.985382">
        <ele>627.01</ele>
        <time>2020-11-23T09:10:25Z</time>
      </trkpt>
      <trkpt lat="40.413602" lon="-3.985441">
        <ele>627.07</ele>
        <time>2020-11-23T09:10:26Z</time>
      </trkpt>
      <trkpt lat="40.413579" lon="-3.985501">
        <ele>627.28</ele>
        <time>2020-11-23T09:10:27Z</time>
      </trkpt>
      <trkpt lat="40.413465" lon="-3.985809">
        <ele>627.62</ele>
        <time>2020-11-23T09:10:32Z</time>
      </trkpt>
      <trkpt lat="40.413349" lon="-3.986085">
        <ele>628.61</ele>
        <time>2020-11-23T09:10:37Z</time>
      </trkpt>
      <trkpt lat="40.413313" lon="-3.986191">
        <ele>628.84</ele>
        <time>2020-11-23T09:10:39Z</time>
      </trkpt>
      <trkpt lat="40.413295" lon="-3.986244">
        <ele>628.82</ele>
        <time>2020-11-23T09:10:40Z</time>
      </trkpt>
      <trkpt lat="40.413243" lon="-3.986490">
        <ele>629.47</ele>
        <time>2020-11-23T09:10:44Z</time>
      </trkpt>
      <trkpt lat="40.413228" lon="-3.986621">
        <ele>629.82</ele>
        <time>2020-11-23T09:10:46Z</time>
      </trkpt>
      <trkpt lat="40.413166" lon="-3.987045">
        <ele>631.08</ele>
        <time>2020-11-23T09:10:52Z</time>
      </trkpt>
      <trkpt lat="40.413084" lon="-3.987524">
        <ele>631.49</ele>
        <time>2020-11-23T09:10:59Z</time>
      </trkpt>
      <trkpt lat="40.413081" lon="-3.987588">
        <ele>631.46</ele>
        <time>2020-11-23T09:11:00Z</time>
      </trkpt>
      <trkpt lat="40.413031" lon="-3.988043">
        <ele>632.06</ele>
        <time>2020-11-23T09:11:07Z</time>
      </trkpt>
      <trkpt lat="40.413040" lon="-3.988246">
        <ele>632.42</ele>
        <time>2020-11-23T09:11:10Z</time>
      </trkpt>
      <trkpt lat="40.413033" lon="-3.988386">
        <ele>632.69</ele>
        <time>2020-11-23T09:11:12Z</time>
      </trkpt>
      <trkpt lat="40.413005" lon="-3.988588">
        <ele>632.82</ele>
        <time>2020-11-23T09:11:15Z</time>
      </trkpt>
      <trkpt lat="40.412925" lon="-3.988783">
        <ele>633.01</ele>
        <time>2020-11-23T09:11:18Z</time>
      </trkpt>
      <trkpt lat="40.412900" lon="-3.988834">
        <ele>633.09</ele>
        <time>2020-11-23T09:11:19Z</time>
      </trkpt>
      <trkpt lat="40.412775" lon="-3.988999">
        <ele>633.84</ele>
        <time>2020-11-23T09:11:23Z</time>
      </trkpt>
      <trkpt lat="40.412733" lon="-3.989046">
        <ele>634.07</ele>
        <time>2020-11-23T09:11:24Z</time>
      </trkpt>
      <trkpt lat="40.412454" lon="-3.989224">
        <ele>634.68</ele>
        <time>2020-11-23T09:11:30Z</time>
      </trkpt>
      <trkpt lat="40.412406" lon="-3.989283">
        <ele>634.68</ele>
        <time>2020-11-23T09:11:31Z</time>
      </trkpt>
      <trkpt lat="40.412356" lon="-3.989349">
        <ele>634.65</ele>
        <time>2020-11-23T09:11:32Z</time>
      </trkpt>
      <trkpt lat="40.412251" lon="-3.989462">
        <ele>634.67</ele>
        <time>2020-11-23T09:11:34Z</time>
      </trkpt>
      <trkpt lat="40.412188" lon="-3.989508">
        <ele>634.49</ele>
        <time>2020-11-23T09:11:35Z</time>
      </trkpt>
      <trkpt lat="40.412076" lon="-3.989592">
        <ele>634.68</ele>
        <time>2020-11-23T09:11:37Z</time>
      </trkpt>
      <trkpt lat="40.411912" lon="-3.989687">
        <ele>634.42</ele>
        <time>2020-11-23T09:11:40Z</time>
      </trkpt>
      <trkpt lat="40.411814" lon="-3.989726">
        <ele>634.22</ele>
        <time>2020-11-23T09:11:42Z</time>
      </trkpt>
      <trkpt lat="40.411772" lon="-3.989750">
        <ele>634.21</ele>
        <time>2020-11-23T09:11:43Z</time>
      </trkpt>
      <trkpt lat="40.411509" lon="-3.989908">
        <ele>634.08</ele>
        <time>2020-11-23T09:11:49Z</time>
      </trkpt>
      <trkpt lat="40.411350" lon="-3.990048">
        <ele>635.02</ele>
        <time>2020-11-23T09:11:53Z</time>
      </trkpt>
      <trkpt lat="40.411265" lon="-3.990108">
        <ele>635.46</ele>
        <time>2020-11-23T09:11:55Z</time>
      </trkpt>
      <trkpt lat="40.411192" lon="-3.990215">
        <ele>635.44</ele>
        <time>2020-11-23T09:11:57Z</time>
      </trkpt>
      <trkpt lat="40.411088" lon="-3.990395">
        <ele>635.61</ele>
        <time>2020-11-23T09:12:00Z</time>
      </trkpt>
      <trkpt lat="40.410927" lon="-3.990629">
        <ele>635.69</ele>
        <time>2020-11-23T09:12:04Z</time>
      </trkpt>
      <trkpt lat="40.410833" lon="-3.990735">
        <ele>635.63</ele>
        <time>2020-11-23T09:12:06Z</time>
      </trkpt>
      <trkpt lat="40.410791" lon="-3.990784">
        <ele>635.89</ele>
        <time>2020-11-23T09:12:07Z</time>
      </trkpt>
      <trkpt lat="40.410618" lon="-3.990931">
        <ele>636.08</ele>
        <time>2020-11-23T09:12:11Z</time>
      </trkpt>
      <trkpt lat="40.410582" lon="-3.990957">
        <ele>636.03</ele>
        <time>2020-11-23T09:12:12Z</time>
      </trkpt>
      <trkpt lat="40.410544" lon="-3.990980">
        <ele>636.02</ele>
        <time>2020-11-23T09:12:13Z</time>
      </trkpt>
      <trkpt lat="40.410378" lon="-3.991079">
        <ele>636.01</ele>
        <time>2020-11-23T09:12:17Z</time>
      </trkpt>
      <trkpt lat="40.410211" lon="-3.991171">
        <ele>637.24</ele>
        <time>2020-11-23T09:12:21Z</time>
      </trkpt>
      <trkpt lat="40.410086" lon="-3.991252">
        <ele>638.86</ele>
        <time>2020-11-23T09:12:24Z</time>
      </trkpt>
      <trkpt lat="40.409889" lon="-3.991381">
        <ele>639.69</ele>
        <time>2020-11-23T09:12:29Z</time>
      </trkpt>
      <trkpt lat="40.409776" lon="-3.991448">
        <ele>640.64</ele>
        <time>2020-11-23T09:12:32Z</time>
      </trkpt>
      <trkpt lat="40.409664" lon="-3.991527">
        <ele>641.87</ele>
        <time>2020-11-23T09:12:35Z</time>
      </trkpt>
      <trkpt lat="40.409589" lon="-3.991575">
        <ele>642.04</ele>
        <time>2020-11-23T09:12:37Z</time>
      </trkpt>
      <trkpt lat="40.409555" lon="-3.991598">
        <ele>642.24</ele>
        <time>2020-11-23T09:12:38Z</time>
      </trkpt>
      <trkpt lat="40.409345" lon="-3.991792">
        <ele>644.02</ele>
        <time>2020-11-23T09:12:44Z</time>
      </trkpt>
      <trkpt lat="40.409173" lon="-3.991996">
        <ele>645.44</ele>
        <time>2020-11-23T09:12:49Z</time>
      </trkpt>
      <trkpt lat="40.409107" lon="-3.992088">
        <ele>645.46</ele>
        <time>2020-11-23T09:12:51Z</time>
      </trkpt>
      <trkpt lat="40.409078" lon="-3.992134">
        <ele>645.41</ele>
        <time>2020-11-23T09:12:52Z</time>
      </trkpt>
      <trkpt lat="40.408905" lon="-3.992470">
        <ele>646.41</ele>
        <time>2020-11-23T09:12:59Z</time>
      </trkpt>
      <trkpt lat="40.408767" lon="-3.992695">
        <ele>647.47</ele>
        <time>2020-11-23T09:13:04Z</time>
      </trkpt>
      <trkpt lat="40.408702" lon="-3.992774">
        <ele>647.64</ele>
        <time>2020-11-23T09:13:06Z</time>
      </trkpt>
      <trkpt lat="40.408662" lon="-3.992805">
        <ele>647.66</ele>
        <time>2020-11-23T09:13:07Z</time>
      </trkpt>
      <trkpt lat="40.408565" lon="-3.992850">
        <ele>647.83</ele>
        <time>2020-11-23T09:13:09Z</time>
      </trkpt>
      <trkpt lat="40.408507" lon="-3.992860">
        <ele>647.85</ele>
        <time>2020-11-23T09:13:10Z</time>
      </trkpt>
      <trkpt lat="40.408381" lon="-3.992888">
        <ele>647.85</ele>
        <time>2020-11-23T09:13:13Z</time>
      </trkpt>
      <trkpt lat="40.408364" lon="-3.992897">
        <ele>647.83</ele>
        <time>2020-11-23T09:13:14Z</time>
      </trkpt>
      <trkpt lat="40.408341" lon="-3.992928">
        <ele>646.63</ele>
        <time>2020-11-23T09:13:18Z</time>
      </trkpt>
      <trkpt lat="40.408337" lon="-3.992998">
        <ele>645.04</ele>
        <time>2020-11-23T09:13:21Z</time>
      </trkpt>
      <trkpt lat="40.408346" lon="-3.993048">
        <ele>645.02</ele>
        <time>2020-11-23T09:13:23Z</time>
      </trkpt>
      <trkpt lat="40.408380" lon="-3.993287">
        <ele>644.82</ele>
        <time>2020-11-23T09:13:31Z</time>
      </trkpt>
      <trkpt lat="40.408368" lon="-3.993567">
        <ele>644.61</ele>
        <time>2020-11-23T09:13:38Z</time>
      </trkpt>
      <trkpt lat="40.408293" lon="-3.993873">
        <ele>644.89</ele>
        <time>2020-11-23T09:13:45Z</time>
      </trkpt>
      <trkpt lat="40.408212" lon="-3.994106">
        <ele>645.07</ele>
        <time>2020-11-23T09:13:50Z</time>
      </trkpt>
      <trkpt lat="40.408181" lon="-3.994192">
        <ele>645.08</ele>
        <time>2020-11-23T09:13:52Z</time>
      </trkpt>
      <trkpt lat="40.408095" lon="-3.994457">
        <ele>645.46</ele>
        <time>2020-11-23T09:13:58Z</time>
      </trkpt>
      <trkpt lat="40.408070" lon="-3.994551">
        <ele>645.89</ele>
        <time>2020-11-23T09:14:00Z</time>
      </trkpt>
      <trkpt lat="40.408036" lon="-3.994685">
        <ele>646.26</ele>
        <time>2020-11-23T09:14:03Z</time>
      </trkpt>
      <trkpt lat="40.408026" lon="-3.994808">
        <ele>646.65</ele>
        <time>2020-11-23T09:14:06Z</time>
      </trkpt>
      <trkpt lat="40.408060" lon="-3.994974">
        <ele>647.62</ele>
        <time>2020-11-23T09:14:11Z</time>
      </trkpt>
      <trkpt lat="40.408201" lon="-3.995143">
        <ele>649.86</ele>
        <time>2020-11-23T09:14:16Z</time>
      </trkpt>
      <trkpt lat="40.408437" lon="-3.995423">
        <ele>650.22</ele>
        <time>2020-11-23T09:14:23Z</time>
      </trkpt>
      <trkpt lat="40.408739" lon="-3.995774">
        <ele>650.41</ele>
        <time>2020-11-23T09:14:32Z</time>
      </trkpt>
      <trkpt lat="40.408824" lon="-3.995899">
        <ele>650.21</ele>
        <time>2020-11-23T09:14:35Z</time>
      </trkpt>
      <trkpt lat="40.408843" lon="-3.995948">
        <ele>650.23</ele>
        <time>2020-11-23T09:14:36Z</time>
      </trkpt>
      <trkpt lat="40.408855" lon="-3.996003">
        <ele>650.46</ele>
        <time>2020-11-23T09:14:37Z</time>
      </trkpt>
      <trkpt lat="40.408816" lon="-3.996187">
        <ele>650.68</ele>
        <time>2020-11-23T09:14:41Z</time>
      </trkpt>
      <trkpt lat="40.408755" lon="-3.996270">
        <ele>650.90</ele>
        <time>2020-11-23T09:14:43Z</time>
      </trkpt>
      <trkpt lat="40.408688" lon="-3.996336">
        <ele>650.85</ele>
        <time>2020-11-23T09:14:45Z</time>
      </trkpt>
      <trkpt lat="40.408544" lon="-3.996503">
        <ele>651.69</ele>
        <time>2020-11-23T09:14:49Z</time>
      </trkpt>
      <trkpt lat="40.408482" lon="-3.996597">
        <ele>651.89</ele>
        <time>2020-11-23T09:14:51Z</time>
      </trkpt>
      <trkpt lat="40.408225" lon="-3.996940">
        <ele>652.87</ele>
        <time>2020-11-23T09:14:59Z</time>
      </trkpt>
      <trkpt lat="40.408201" lon="-3.996994">
        <ele>652.85</ele>
        <time>2020-11-23T09:15:00Z</time>
      </trkpt>
      <trkpt lat="40.408156" lon="-3.997123">
        <ele>653.00</ele>
        <time>2020-11-23T09:15:02Z</time>
      </trkpt>
      <trkpt lat="40.408116" lon="-3.997254">
        <ele>653.21</ele>
        <time>2020-11-23T09:15:04Z</time>
      </trkpt>
      <trkpt lat="40.407999" lon="-3.997543">
        <ele>653.41</ele>
        <time>2020-11-23T09:15:09Z</time>
      </trkpt>
      <trkpt lat="40.407953" lon="-3.997586">
        <ele>653.45</ele>
        <time>2020-11-23T09:15:10Z</time>
      </trkpt>
      <trkpt lat="40.407910" lon="-3.997622">
        <ele>653.46</ele>
        <time>2020-11-23T09:15:11Z</time>
      </trkpt>
      <trkpt lat="40.407745" lon="-3.997708">
        <ele>653.42</ele>
        <time>2020-11-23T09:15:14Z</time>
      </trkpt>
      <trkpt lat="40.407684" lon="-3.997748">
        <ele>653.46</ele>
        <time>2020-11-23T09:15:15Z</time>
      </trkpt>
      <trkpt lat="40.407469" lon="-3.997947">
        <ele>653.04</ele>
        <time>2020-11-23T09:15:19Z</time>
      </trkpt>
      <trkpt lat="40.407427" lon="-3.998007">
        <ele>653.01</ele>
        <time>2020-11-23T09:15:20Z</time>
      </trkpt>
      <trkpt lat="40.407174" lon="-3.998303">
        <ele>652.04</ele>
        <time>2020-11-23T09:15:25Z</time>
      </trkpt>
      <trkpt lat="40.406965" lon="-3.998577">
        <ele>650.87</ele>
        <time>2020-11-23T09:15:30Z</time>
      </trkpt>
      <trkpt lat="40.406888" lon="-3.998677">
        <ele>650.62</ele>
        <time>2020-11-23T09:15:32Z</time>
      </trkpt>
      <trkpt lat="40.406823" lon="-3.998768">
        <ele>650.68</ele>
        <time>2020-11-23T09:15:34Z</time>
      </trkpt>
      <trkpt lat="40.406694" lon="-3.998953">
        <ele>650.61</ele>
        <time>2020-11-23T09:15:38Z</time>
      </trkpt>
      <trkpt lat="40.406649" lon="-3.999046">
        <ele>655.81</ele>
        <time>2020-11-23T09:15:40Z</time>
      </trkpt>
      <trkpt lat="40.406647" lon="-3.999183">
        <ele>651.48</ele>
        <time>2020-11-23T09:15:42Z</time>
      </trkpt>
      <trkpt lat="40.406675" lon="-3.999243">
        <ele>651.65</ele>
        <time>2020-11-23T09:15:43Z</time>
      </trkpt>
      <trkpt lat="40.406709" lon="-3.999286">
        <ele>651.88</ele>
        <time>2020-11-23T09:15:44Z</time>
      </trkpt>
      <trkpt lat="40.406803" lon="-3.999408">
        <ele>652.69</ele>
        <time>2020-11-23T09:15:47Z</time>
      </trkpt>
      <trkpt lat="40.406887" lon="-3.999478">
        <ele>653.10</ele>
        <time>2020-11-23T09:15:49Z</time>
      </trkpt>
      <trkpt lat="40.407046" lon="-3.999638">
        <ele>653.49</ele>
        <time>2020-11-23T09:15:53Z</time>
      </trkpt>
      <trkpt lat="40.407349" lon="-3.999990">
        <ele>653.46</ele>
        <time>2020-11-23T09:16:01Z</time>
      </trkpt>
      <trkpt lat="40.407680" lon="-4.000382">
        <ele>653.48</ele>
        <time>2020-11-23T09:16:09Z</time>
      </trkpt>
      <trkpt lat="40.407937" lon="-4.000663">
        <ele>653.64</ele>
        <time>2020-11-23T09:16:15Z</time>
      </trkpt>
      <trkpt lat="40.408154" lon="-4.000886">
        <ele>653.80</ele>
        <time>2020-11-23T09:16:20Z</time>
      </trkpt>
      <trkpt lat="40.408244" lon="-4.000972">
        <ele>653.82</ele>
        <time>2020-11-23T09:16:22Z</time>
      </trkpt>
      <trkpt lat="40.408280" lon="-4.001019">
        <ele>653.61</ele>
        <time>2020-11-23T09:16:23Z</time>
      </trkpt>
      <trkpt lat="40.408311" lon="-4.001068">
        <ele>653.81</ele>
        <time>2020-11-23T09:16:24Z</time>
      </trkpt>
      <trkpt lat="40.408415" lon="-4.001220">
        <ele>653.84</ele>
        <time>2020-11-23T09:16:27Z</time>
      </trkpt>
      <trkpt lat="40.408515" lon="-4.001348">
        <ele>654.24</ele>
        <time>2020-11-23T09:16:30Z</time>
      </trkpt>
      <trkpt lat="40.408673" lon="-4.001577">
        <ele>655.41</ele>
        <time>2020-11-23T09:16:35Z</time>
      </trkpt>
      <trkpt lat="40.408907" lon="-4.001874">
        <ele>657.50</ele>
        <time>2020-11-23T09:16:42Z</time>
      </trkpt>
      <trkpt lat="40.408945" lon="-4.001918">
        <ele>657.49</ele>
        <time>2020-11-23T09:16:43Z</time>
      </trkpt>
      <trkpt lat="40.409174" lon="-4.002177">
        <ele>658.46</ele>
        <time>2020-11-23T09:16:49Z</time>
      </trkpt>
      <trkpt lat="40.409426" lon="-4.002468">
        <ele>658.85</ele>
        <time>2020-11-23T09:16:56Z</time>
      </trkpt>
      <trkpt lat="40.409517" lon="-4.002621">
        <ele>659.04</ele>
        <time>2020-11-23T09:16:59Z</time>
      </trkpt>
      <trkpt lat="40.409534" lon="-4.002738">
        <ele>659.22</ele>
        <time>2020-11-23T09:17:01Z</time>
      </trkpt>
      <trkpt lat="40.409541" lon="-4.002794">
        <ele>659.21</ele>
        <time>2020-11-23T09:17:02Z</time>
      </trkpt>
      <trkpt lat="40.409557" lon="-4.002850">
        <ele>659.21</ele>
        <time>2020-11-23T09:17:03Z</time>
      </trkpt>
      <trkpt lat="40.409566" lon="-4.002901">
        <ele>659.44</ele>
        <time>2020-11-23T09:17:04Z</time>
      </trkpt>
      <trkpt lat="40.409609" lon="-4.003046">
        <ele>659.63</ele>
        <time>2020-11-23T09:17:07Z</time>
      </trkpt>
      <trkpt lat="40.409671" lon="-4.003135">
        <ele>659.84</ele>
        <time>2020-11-23T09:17:09Z</time>
      </trkpt>
      <trkpt lat="40.409790" lon="-4.003258">
        <ele>660.46</ele>
        <time>2020-11-23T09:17:12Z</time>
      </trkpt>
      <trkpt lat="40.409929" lon="-4.003480">
        <ele>660.88</ele>
        <time>2020-11-23T09:17:16Z</time>
      </trkpt>
      <trkpt lat="40.409945" lon="-4.003554">
        <ele>660.87</ele>
        <time>2020-11-23T09:17:17Z</time>
      </trkpt>
      <trkpt lat="40.409992" lon="-4.003695">
        <ele>660.88</ele>
        <time>2020-11-23T09:17:19Z</time>
      </trkpt>
      <trkpt lat="40.410024" lon="-4.003850">
        <ele>660.84</ele>
        <time>2020-11-23T09:17:21Z</time>
      </trkpt>
      <trkpt lat="40.410046" lon="-4.004019">
        <ele>660.88</ele>
        <time>2020-11-23T09:17:23Z</time>
      </trkpt>
      <trkpt lat="40.410058" lon="-4.004199">
        <ele>660.61</ele>
        <time>2020-11-23T09:17:25Z</time>
      </trkpt>
      <trkpt lat="40.410077" lon="-4.004480">
        <ele>660.23</ele>
        <time>2020-11-23T09:17:28Z</time>
      </trkpt>
      <trkpt lat="40.410065" lon="-4.004599">
        <ele>660.01</ele>
        <time>2020-11-23T09:17:29Z</time>
      </trkpt>
      <trkpt lat="40.410095" lon="-4.005326">
        <ele>657.64</ele>
        <time>2020-11-23T09:17:37Z</time>
      </trkpt>
      <trkpt lat="40.410105" lon="-4.005672">
        <ele>656.82</ele>
        <time>2020-11-23T09:17:41Z</time>
      </trkpt>
      <trkpt lat="40.410111" lon="-4.005928">
        <ele>656.66</ele>
        <time>2020-11-23T09:17:44Z</time>
      </trkpt>
      <trkpt lat="40.410115" lon="-4.006012">
        <ele>656.68</ele>
        <time>2020-11-23T09:17:45Z</time>
      </trkpt>
      <trkpt lat="40.410127" lon="-4.006626">
        <ele>656.28</ele>
        <time>2020-11-23T09:17:52Z</time>
      </trkpt>
      <trkpt lat="40.410144" lon="-4.007296">
        <ele>655.44</ele>
        <time>2020-11-23T09:18:00Z</time>
      </trkpt>
      <trkpt lat="40.410184" lon="-4.007872">
        <ele>655.24</ele>
        <time>2020-11-23T09:18:07Z</time>
      </trkpt>
      <trkpt lat="40.410193" lon="-4.007956">
        <ele>655.42</ele>
        <time>2020-11-23T09:18:08Z</time>
      </trkpt>
      <trkpt lat="40.410206" lon="-4.008041">
        <ele>655.24</ele>
        <time>2020-11-23T09:18:09Z</time>
      </trkpt>
      <trkpt lat="40.410243" lon="-4.008300">
        <ele>655.22</ele>
        <time>2020-11-23T09:18:12Z</time>
      </trkpt>
      <trkpt lat="40.410298" lon="-4.008721">
        <ele>655.21</ele>
        <time>2020-11-23T09:18:17Z</time>
      </trkpt>
      <trkpt lat="40.410350" lon="-4.009226">
        <ele>654.01</ele>
        <time>2020-11-23T09:18:23Z</time>
      </trkpt>
      <trkpt lat="40.410353" lon="-4.009308">
        <ele>654.03</ele>
        <time>2020-11-23T09:18:24Z</time>
      </trkpt>
      <trkpt lat="40.410398" lon="-4.010067">
        <ele>653.24</ele>
        <time>2020-11-23T09:18:33Z</time>
      </trkpt>
      <trkpt lat="40.410400" lon="-4.010150">
        <ele>653.28</ele>
        <time>2020-11-23T09:18:34Z</time>
      </trkpt>
      <trkpt lat="40.410391" lon="-4.010666">
        <ele>653.23</ele>
        <time>2020-11-23T09:18:40Z</time>
      </trkpt>
      <trkpt lat="40.410379" lon="-4.010758">
        <ele>653.25</ele>
        <time>2020-11-23T09:18:41Z</time>
      </trkpt>
      <trkpt lat="40.410365" lon="-4.010848">
        <ele>653.08</ele>
        <time>2020-11-23T09:18:42Z</time>
      </trkpt>
      <trkpt lat="40.410294" lon="-4.011246">
        <ele>652.84</ele>
        <time>2020-11-23T09:18:46Z</time>
      </trkpt>
      <trkpt lat="40.410273" lon="-4.011347">
        <ele>652.88</ele>
        <time>2020-11-23T09:18:47Z</time>
      </trkpt>
      <trkpt lat="40.410128" lon="-4.012033">
        <ele>650.63</ele>
        <time>2020-11-23T09:18:54Z</time>
      </trkpt>
      <trkpt lat="40.410106" lon="-4.012123">
        <ele>650.49</ele>
        <time>2020-11-23T09:18:55Z</time>
      </trkpt>
      <trkpt lat="40.409989" lon="-4.012570">
        <ele>649.01</ele>
        <time>2020-11-23T09:19:00Z</time>
      </trkpt>
      <trkpt lat="40.409941" lon="-4.012740">
        <ele>649.01</ele>
        <time>2020-11-23T09:19:02Z</time>
      </trkpt>
      <trkpt lat="40.409746" lon="-4.013295">
        <ele>648.67</ele>
        <time>2020-11-23T09:19:09Z</time>
      </trkpt>
      <trkpt lat="40.409716" lon="-4.013371">
        <ele>648.85</ele>
        <time>2020-11-23T09:19:10Z</time>
      </trkpt>
      <trkpt lat="40.409537" lon="-4.013872">
        <ele>648.69</ele>
        <time>2020-11-23T09:19:16Z</time>
      </trkpt>
      <trkpt lat="40.409508" lon="-4.013963">
        <ele>648.65</ele>
        <time>2020-11-23T09:19:17Z</time>
      </trkpt>
      <trkpt lat="40.409478" lon="-4.014053">
        <ele>648.67</ele>
        <time>2020-11-23T09:19:18Z</time>
      </trkpt>
      <trkpt lat="40.409450" lon="-4.014144">
        <ele>648.23</ele>
        <time>2020-11-23T09:19:19Z</time>
      </trkpt>
      <trkpt lat="40.409397" lon="-4.014332">
        <ele>647.83</ele>
        <time>2020-11-23T09:19:21Z</time>
      </trkpt>
      <trkpt lat="40.409373" lon="-4.014423">
        <ele>647.62</ele>
        <time>2020-11-23T09:19:22Z</time>
      </trkpt>
      <trkpt lat="40.409322" lon="-4.014597">
        <ele>647.23</ele>
        <time>2020-11-23T09:19:24Z</time>
      </trkpt>
      <trkpt lat="40.409156" lon="-4.014978">
        <ele>646.46</ele>
        <time>2020-11-23T09:19:29Z</time>
      </trkpt>
      <trkpt lat="40.408902" lon="-4.015355">
        <ele>645.61</ele>
        <time>2020-11-23T09:19:35Z</time>
      </trkpt>
      <trkpt lat="40.408616" lon="-4.015663">
        <ele>645.41</ele>
        <time>2020-11-23T09:19:41Z</time>
      </trkpt>
      <trkpt lat="40.408378" lon="-4.016002">
        <ele>645.44</ele>
        <time>2020-11-23T09:19:47Z</time>
      </trkpt>
      <trkpt lat="40.408328" lon="-4.016061">
        <ele>645.47</ele>
        <time>2020-11-23T09:19:48Z</time>
      </trkpt>
      <trkpt lat="40.408177" lon="-4.016247">
        <ele>645.66</ele>
        <time>2020-11-23T09:19:51Z</time>
      </trkpt>
      <trkpt lat="40.408127" lon="-4.016312">
        <ele>645.44</ele>
        <time>2020-11-23T09:19:52Z</time>
      </trkpt>
      <trkpt lat="40.408078" lon="-4.016380">
        <ele>645.43</ele>
        <time>2020-11-23T09:19:53Z</time>
      </trkpt>
      <trkpt lat="40.407869" lon="-4.016766">
        <ele>644.47</ele>
        <time>2020-11-23T09:19:58Z</time>
      </trkpt>
      <trkpt lat="40.407594" lon="-4.017432">
        <ele>642.21</ele>
        <time>2020-11-23T09:20:06Z</time>
      </trkpt>
      <trkpt lat="40.407514" lon="-4.017599">
        <ele>642.28</ele>
        <time>2020-11-23T09:20:08Z</time>
      </trkpt>
      <trkpt lat="40.407392" lon="-4.017839">
        <ele>641.87</ele>
        <time>2020-11-23T09:20:11Z</time>
      </trkpt>
      <trkpt lat="40.407264" lon="-4.018057">
        <ele>641.66</ele>
        <time>2020-11-23T09:20:14Z</time>
      </trkpt>
      <trkpt lat="40.407172" lon="-4.018196">
        <ele>641.42</ele>
        <time>2020-11-23T09:20:16Z</time>
      </trkpt>
      <trkpt lat="40.407061" lon="-4.018319">
        <ele>641.21</ele>
        <time>2020-11-23T09:20:18Z</time>
      </trkpt>
      <trkpt lat="40.406781" lon="-4.018555">
        <ele>641.01</ele>
        <time>2020-11-23T09:20:23Z</time>
      </trkpt>
      <trkpt lat="40.406582" lon="-4.018746">
        <ele>641.07</ele>
        <time>2020-11-23T09:20:27Z</time>
      </trkpt>
      <trkpt lat="40.406481" lon="-4.018845">
        <ele>641.08</ele>
        <time>2020-11-23T09:20:29Z</time>
      </trkpt>
      <trkpt lat="40.406231" lon="-4.019107">
        <ele>641.08</ele>
        <time>2020-11-23T09:20:34Z</time>
      </trkpt>
      <trkpt lat="40.406180" lon="-4.019166">
        <ele>641.03</ele>
        <time>2020-11-23T09:20:35Z</time>
      </trkpt>
      <trkpt lat="40.406132" lon="-4.019229">
        <ele>641.05</ele>
        <time>2020-11-23T09:20:36Z</time>
      </trkpt>
      <trkpt lat="40.406087" lon="-4.019299">
        <ele>640.87</ele>
        <time>2020-11-23T09:20:37Z</time>
      </trkpt>
      <trkpt lat="40.405967" lon="-4.019524">
        <ele>640.63</ele>
        <time>2020-11-23T09:20:40Z</time>
      </trkpt>
      <trkpt lat="40.405930" lon="-4.019604">
        <ele>640.63</ele>
        <time>2020-11-23T09:20:41Z</time>
      </trkpt>
      <trkpt lat="40.405866" lon="-4.019773">
        <ele>640.47</ele>
        <time>2020-11-23T09:20:43Z</time>
      </trkpt>
      <trkpt lat="40.405806" lon="-4.019944">
        <ele>640.01</ele>
        <time>2020-11-23T09:20:45Z</time>
      </trkpt>
      <trkpt lat="40.405776" lon="-4.020031">
        <ele>640.01</ele>
        <time>2020-11-23T09:20:46Z</time>
      </trkpt>
      <trkpt lat="40.405724" lon="-4.020203">
        <ele>639.82</ele>
        <time>2020-11-23T09:20:48Z</time>
      </trkpt>
      <trkpt lat="40.405700" lon="-4.020289">
        <ele>639.65</ele>
        <time>2020-11-23T09:20:49Z</time>
      </trkpt>
      <trkpt lat="40.405664" lon="-4.020466">
        <ele>639.29</ele>
        <time>2020-11-23T09:20:51Z</time>
      </trkpt>
      <trkpt lat="40.405651" lon="-4.020559">
        <ele>639.03</ele>
        <time>2020-11-23T09:20:52Z</time>
      </trkpt>
      <trkpt lat="40.405632" lon="-4.020649">
        <ele>638.83</ele>
        <time>2020-11-23T09:20:53Z</time>
      </trkpt>
      <trkpt lat="40.405605" lon="-4.020834">
        <ele>638.67</ele>
        <time>2020-11-23T09:20:55Z</time>
      </trkpt>
      <trkpt lat="40.405576" lon="-4.021013">
        <ele>638.61</ele>
        <time>2020-11-23T09:20:57Z</time>
      </trkpt>
      <trkpt lat="40.405541" lon="-4.021188">
        <ele>638.49</ele>
        <time>2020-11-23T09:20:59Z</time>
      </trkpt>
      <trkpt lat="40.405515" lon="-4.021272">
        <ele>638.45</ele>
        <time>2020-11-23T09:21:00Z</time>
      </trkpt>
      <trkpt lat="40.405449" lon="-4.021426">
        <ele>638.23</ele>
        <time>2020-11-23T09:21:02Z</time>
      </trkpt>
      <trkpt lat="40.405408" lon="-4.021498">
        <ele>638.22</ele>
        <time>2020-11-23T09:21:03Z</time>
      </trkpt>
      <trkpt lat="40.405187" lon="-4.021830">
        <ele>637.61</ele>
        <time>2020-11-23T09:21:08Z</time>
      </trkpt>
      <trkpt lat="40.404944" lon="-4.022237">
        <ele>637.48</ele>
        <time>2020-11-23T09:21:14Z</time>
      </trkpt>
      <trkpt lat="40.404807" lon="-4.022724">
        <ele>637.41</ele>
        <time>2020-11-23T09:21:20Z</time>
      </trkpt>
      <trkpt lat="40.404714" lon="-4.023360">
        <ele>637.68</ele>
        <time>2020-11-23T09:21:28Z</time>
      </trkpt>
      <trkpt lat="40.404692" lon="-4.023536">
        <ele>637.43</ele>
        <time>2020-11-23T09:21:30Z</time>
      </trkpt>
      <trkpt lat="40.404649" lon="-4.023728">
        <ele>637.43</ele>
        <time>2020-11-23T09:21:32Z</time>
      </trkpt>
      <trkpt lat="40.404614" lon="-4.023823">
        <ele>637.45</ele>
        <time>2020-11-23T09:21:33Z</time>
      </trkpt>
      <trkpt lat="40.404496" lon="-4.024111">
        <ele>637.42</ele>
        <time>2020-11-23T09:21:36Z</time>
      </trkpt>
      <trkpt lat="40.404404" lon="-4.024303">
        <ele>637.25</ele>
        <time>2020-11-23T09:21:38Z</time>
      </trkpt>
      <trkpt lat="40.404237" lon="-4.024571">
        <ele>636.26</ele>
        <time>2020-11-23T09:21:41Z</time>
      </trkpt>
      <trkpt lat="40.404122" lon="-4.024746">
        <ele>634.67</ele>
        <time>2020-11-23T09:21:43Z</time>
      </trkpt>
      <trkpt lat="40.403937" lon="-4.024998">
        <ele>633.41</ele>
        <time>2020-11-23T09:21:46Z</time>
      </trkpt>
      <trkpt lat="40.403780" lon="-4.025261">
        <ele>632.21</ele>
        <time>2020-11-23T09:21:49Z</time>
      </trkpt>
      <trkpt lat="40.403581" lon="-4.025733">
        <ele>631.46</ele>
        <time>2020-11-23T09:21:54Z</time>
      </trkpt>
      <trkpt lat="40.403504" lon="-4.026036">
        <ele>630.65</ele>
        <time>2020-11-23T09:21:57Z</time>
      </trkpt>
      <trkpt lat="40.403475" lon="-4.026250">
        <ele>630.50</ele>
        <time>2020-11-23T09:21:59Z</time>
      </trkpt>
      <trkpt lat="40.403454" lon="-4.026883">
        <ele>630.05</ele>
        <time>2020-11-23T09:22:05Z</time>
      </trkpt>
      <trkpt lat="40.403441" lon="-4.027068">
        <ele>629.61</ele>
        <time>2020-11-23T09:22:07Z</time>
      </trkpt>
      <trkpt lat="40.403419" lon="-4.027395">
        <ele>629.85</ele>
        <time>2020-11-23T09:22:11Z</time>
      </trkpt>
      <trkpt lat="40.403435" lon="-4.027770">
        <ele>629.84</ele>
        <time>2020-11-23T09:22:16Z</time>
      </trkpt>
      <trkpt lat="40.403438" lon="-4.027853">
        <ele>629.88</ele>
        <time>2020-11-23T09:22:17Z</time>
      </trkpt>
      <trkpt lat="40.403471" lon="-4.028415">
        <ele>629.82</ele>
        <time>2020-11-23T09:22:24Z</time>
      </trkpt>
      <trkpt lat="40.403495" lon="-4.029063">
        <ele>629.64</ele>
        <time>2020-11-23T09:22:32Z</time>
      </trkpt>
      <trkpt lat="40.403450" lon="-4.029501">
        <ele>629.40</ele>
        <time>2020-11-23T09:22:37Z</time>
      </trkpt>
      <trkpt lat="40.403444" lon="-4.029660">
        <ele>629.21</ele>
        <time>2020-11-23T09:22:39Z</time>
      </trkpt>
      <trkpt lat="40.403473" lon="-4.029925">
        <ele>629.44</ele>
        <time>2020-11-23T09:22:43Z</time>
      </trkpt>
      <trkpt lat="40.403516" lon="-4.030220">
        <ele>629.45</ele>
        <time>2020-11-23T09:22:47Z</time>
      </trkpt>
      <trkpt lat="40.403543" lon="-4.030386">
        <ele>629.24</ele>
        <time>2020-11-23T09:22:49Z</time>
      </trkpt>
      <trkpt lat="40.403571" lon="-4.030560">
        <ele>629.29</ele>
        <time>2020-11-23T09:22:51Z</time>
      </trkpt>
      <trkpt lat="40.403616" lon="-4.030826">
        <ele>629.06</ele>
        <time>2020-11-23T09:22:54Z</time>
      </trkpt>
      <trkpt lat="40.403661" lon="-4.031096">
        <ele>629.07</ele>
        <time>2020-11-23T09:22:57Z</time>
      </trkpt>
      <trkpt lat="40.403782" lon="-4.031713">
        <ele>626.83</ele>
        <time>2020-11-23T09:23:04Z</time>
      </trkpt>
      <trkpt lat="40.403821" lon="-4.031884">
        <ele>626.25</ele>
        <time>2020-11-23T09:23:06Z</time>
      </trkpt>
      <trkpt lat="40.404013" lon="-4.032434">
        <ele>625.61</ele>
        <time>2020-11-23T09:23:13Z</time>
      </trkpt>
      <trkpt lat="40.404041" lon="-4.032516">
        <ele>625.62</ele>
        <time>2020-11-23T09:23:14Z</time>
      </trkpt>
      <trkpt lat="40.404114" lon="-4.032844">
        <ele>625.40</ele>
        <time>2020-11-23T09:23:18Z</time>
      </trkpt>
      <trkpt lat="40.404124" lon="-4.032929">
        <ele>625.41</ele>
        <time>2020-11-23T09:23:19Z</time>
      </trkpt>
      <trkpt lat="40.404132" lon="-4.033016">
        <ele>625.42</ele>
        <time>2020-11-23T09:23:20Z</time>
      </trkpt>
      <trkpt lat="40.404136" lon="-4.033105">
        <ele>625.23</ele>
        <time>2020-11-23T09:23:21Z</time>
      </trkpt>
      <trkpt lat="40.404138" lon="-4.033194">
        <ele>625.27</ele>
        <time>2020-11-23T09:23:22Z</time>
      </trkpt>
      <trkpt lat="40.404138" lon="-4.033286">
        <ele>625.27</ele>
        <time>2020-11-23T09:23:23Z</time>
      </trkpt>
      <trkpt lat="40.404119" lon="-4.033938">
        <ele>623.63</ele>
        <time>2020-11-23T09:23:30Z</time>
      </trkpt>
      <trkpt lat="40.404057" lon="-4.034565">
        <ele>623.28</ele>
        <time>2020-11-23T09:23:37Z</time>
      </trkpt>
      <trkpt lat="40.403946" lon="-4.035083">
        <ele>623.03</ele>
        <time>2020-11-23T09:23:43Z</time>
      </trkpt>
      <trkpt lat="40.403855" lon="-4.035359">
        <ele>623.06</ele>
        <time>2020-11-23T09:23:46Z</time>
      </trkpt>
      <trkpt lat="40.403742" lon="-4.035632">
        <ele>622.83</ele>
        <time>2020-11-23T09:23:49Z</time>
      </trkpt>
      <trkpt lat="40.403556" lon="-4.036089">
        <ele>621.67</ele>
        <time>2020-11-23T09:23:54Z</time>
      </trkpt>
      <trkpt lat="40.403527" lon="-4.036181">
        <ele>621.21</ele>
        <time>2020-11-23T09:23:55Z</time>
      </trkpt>
      <trkpt lat="40.403429" lon="-4.036559">
        <ele>620.21</ele>
        <time>2020-11-23T09:23:59Z</time>
      </trkpt>
      <trkpt lat="40.403409" lon="-4.036749">
        <ele>619.68</ele>
        <time>2020-11-23T09:24:01Z</time>
      </trkpt>
      <trkpt lat="40.403409" lon="-4.036843">
        <ele>619.27</ele>
        <time>2020-11-23T09:24:02Z</time>
      </trkpt>
      <trkpt lat="40.403417" lon="-4.037120">
        <ele>619.06</ele>
        <time>2020-11-23T09:24:05Z</time>
      </trkpt>
      <trkpt lat="40.403447" lon="-4.037566">
        <ele>618.64</ele>
        <time>2020-11-23T09:24:10Z</time>
      </trkpt>
      <trkpt lat="40.403467" lon="-4.037897">
        <ele>618.48</ele>
        <time>2020-11-23T09:24:14Z</time>
      </trkpt>
      <trkpt lat="40.403468" lon="-4.038053">
        <ele>618.62</ele>
        <time>2020-11-23T09:24:16Z</time>
      </trkpt>
      <trkpt lat="40.403475" lon="-4.038198">
        <ele>618.84</ele>
        <time>2020-11-23T09:24:18Z</time>
      </trkpt>
      <trkpt lat="40.403514" lon="-4.038500">
        <ele>619.29</ele>
        <time>2020-11-23T09:24:22Z</time>
      </trkpt>
      <trkpt lat="40.403650" lon="-4.039065">
        <ele>619.46</ele>
        <time>2020-11-23T09:24:29Z</time>
      </trkpt>
      <trkpt lat="40.403864" lon="-4.039541">
        <ele>619.44</ele>
        <time>2020-11-23T09:24:36Z</time>
      </trkpt>
      <trkpt lat="40.403922" lon="-4.039685">
        <ele>619.42</ele>
        <time>2020-11-23T09:24:38Z</time>
      </trkpt>
      <trkpt lat="40.404047" lon="-4.040085">
        <ele>619.21</ele>
        <time>2020-11-23T09:24:43Z</time>
      </trkpt>
      <trkpt lat="40.404059" lon="-4.040172">
        <ele>619.24</ele>
        <time>2020-11-23T09:24:44Z</time>
      </trkpt>
      <trkpt lat="40.404052" lon="-4.040359">
        <ele>619.29</ele>
        <time>2020-11-23T09:24:46Z</time>
      </trkpt>
      <trkpt lat="40.404038" lon="-4.040453">
        <ele>619.23</ele>
        <time>2020-11-23T09:24:47Z</time>
      </trkpt>
      <trkpt lat="40.403999" lon="-4.040644">
        <ele>618.82</ele>
        <time>2020-11-23T09:24:49Z</time>
      </trkpt>
      <trkpt lat="40.403940" lon="-4.040837">
        <ele>618.41</ele>
        <time>2020-11-23T09:24:51Z</time>
      </trkpt>
      <trkpt lat="40.403905" lon="-4.040930">
        <ele>618.28</ele>
        <time>2020-11-23T09:24:52Z</time>
      </trkpt>
      <trkpt lat="40.403790" lon="-4.041228">
        <ele>616.85</ele>
        <time>2020-11-23T09:24:55Z</time>
      </trkpt>
      <trkpt lat="40.403687" lon="-4.041566">
        <ele>616.26</ele>
        <time>2020-11-23T09:24:58Z</time>
      </trkpt>
      <trkpt lat="40.403479" lon="-4.042092">
        <ele>614.09</ele>
        <time>2020-11-23T09:25:03Z</time>
      </trkpt>
      <trkpt lat="40.403419" lon="-4.042179">
        <ele>613.04</ele>
        <time>2020-11-23T09:25:04Z</time>
      </trkpt>
      <trkpt lat="40.403342" lon="-4.042252">
        <ele>612.23</ele>
        <time>2020-11-23T09:25:05Z</time>
      </trkpt>
      <trkpt lat="40.403199" lon="-4.042392">
        <ele>611.21</ele>
        <time>2020-11-23T09:25:07Z</time>
      </trkpt>
      <trkpt lat="40.403130" lon="-4.042463">
        <ele>610.63</ele>
        <time>2020-11-23T09:25:08Z</time>
      </trkpt>
      <trkpt lat="40.402765" lon="-4.042753">
        <ele>610.03</ele>
        <time>2020-11-23T09:25:13Z</time>
      </trkpt>
      <trkpt lat="40.402590" lon="-4.042955">
        <ele>609.43</ele>
        <time>2020-11-23T09:25:16Z</time>
      </trkpt>
      <trkpt lat="40.402551" lon="-4.043044">
        <ele>609.28</ele>
        <time>2020-11-23T09:25:17Z</time>
      </trkpt>
      <trkpt lat="40.402527" lon="-4.043141">
        <ele>608.88</ele>
        <time>2020-11-23T09:25:18Z</time>
      </trkpt>
      <trkpt lat="40.402505" lon="-4.043338">
        <ele>608.43</ele>
        <time>2020-11-23T09:25:20Z</time>
      </trkpt>
      <trkpt lat="40.402487" lon="-4.043436">
        <ele>608.28</ele>
        <time>2020-11-23T09:25:21Z</time>
      </trkpt>
      <trkpt lat="40.402434" lon="-4.043634">
        <ele>608.08</ele>
        <time>2020-11-23T09:25:23Z</time>
      </trkpt>
      <trkpt lat="40.402413" lon="-4.043738">
        <ele>608.04</ele>
        <time>2020-11-23T09:25:24Z</time>
      </trkpt>
      <trkpt lat="40.402396" lon="-4.043837">
        <ele>607.88</ele>
        <time>2020-11-23T09:25:25Z</time>
      </trkpt>
      <trkpt lat="40.402379" lon="-4.043938">
        <ele>607.81</ele>
        <time>2020-11-23T09:25:26Z</time>
      </trkpt>
      <trkpt lat="40.402336" lon="-4.044321">
        <ele>607.01</ele>
        <time>2020-11-23T09:25:30Z</time>
      </trkpt>
      <trkpt lat="40.402327" lon="-4.044414">
        <ele>606.87</ele>
        <time>2020-11-23T09:25:31Z</time>
      </trkpt>
      <trkpt lat="40.402321" lon="-4.044504">
        <ele>606.89</ele>
        <time>2020-11-23T09:25:32Z</time>
      </trkpt>
      <trkpt lat="40.402252" lon="-4.044904">
        <ele>606.63</ele>
        <time>2020-11-23T09:25:37Z</time>
      </trkpt>
      <trkpt lat="40.402240" lon="-4.044989">
        <ele>606.87</ele>
        <time>2020-11-23T09:25:38Z</time>
      </trkpt>
      <trkpt lat="40.402233" lon="-4.045247">
        <ele>606.70</ele>
        <time>2020-11-23T09:25:41Z</time>
      </trkpt>
      <trkpt lat="40.402211" lon="-4.045418">
        <ele>606.64</ele>
        <time>2020-11-23T09:25:43Z</time>
      </trkpt>
      <trkpt lat="40.402181" lon="-4.045583">
        <ele>606.70</ele>
        <time>2020-11-23T09:25:45Z</time>
      </trkpt>
      <trkpt lat="40.402165" lon="-4.045663">
        <ele>606.68</ele>
        <time>2020-11-23T09:25:46Z</time>
      </trkpt>
      <trkpt lat="40.402125" lon="-4.045981">
        <ele>606.89</ele>
        <time>2020-11-23T09:25:50Z</time>
      </trkpt>
      <trkpt lat="40.402108" lon="-4.046126">
        <ele>606.86</ele>
        <time>2020-11-23T09:25:52Z</time>
      </trkpt>
      <trkpt lat="40.402089" lon="-4.046255">
        <ele>607.02</ele>
        <time>2020-11-23T09:25:54Z</time>
      </trkpt>
      <trkpt lat="40.402018" lon="-4.046502">
        <ele>607.21</ele>
        <time>2020-11-23T09:25:58Z</time>
      </trkpt>
      <trkpt lat="40.401965" lon="-4.046630">
        <ele>607.50</ele>
        <time>2020-11-23T09:26:00Z</time>
      </trkpt>
      <trkpt lat="40.401865" lon="-4.046839">
        <ele>607.89</ele>
        <time>2020-11-23T09:26:03Z</time>
      </trkpt>
      <trkpt lat="40.401760" lon="-4.047099">
        <ele>607.81</ele>
        <time>2020-11-23T09:26:06Z</time>
      </trkpt>
      <trkpt lat="40.401679" lon="-4.047278">
        <ele>607.87</ele>
        <time>2020-11-23T09:26:08Z</time>
      </trkpt>
      <trkpt lat="40.401631" lon="-4.047364">
        <ele>607.87</ele>
        <time>2020-11-23T09:26:09Z</time>
      </trkpt>
      <trkpt lat="40.401497" lon="-4.047607">
        <ele>606.82</ele>
        <time>2020-11-23T09:26:12Z</time>
      </trkpt>
      <trkpt lat="40.401442" lon="-4.047669">
        <ele>606.25</ele>
        <time>2020-11-23T09:26:13Z</time>
      </trkpt>
      <trkpt lat="40.401391" lon="-4.047732">
        <ele>605.67</ele>
        <time>2020-11-23T09:26:14Z</time>
      </trkpt>
      <trkpt lat="40.401346" lon="-4.047802">
        <ele>605.45</ele>
        <time>2020-11-23T09:26:15Z</time>
      </trkpt>
      <trkpt lat="40.401237" lon="-4.048020">
        <ele>605.25</ele>
        <time>2020-11-23T09:26:18Z</time>
      </trkpt>
      <trkpt lat="40.401205" lon="-4.048089">
        <ele>605.21</ele>
        <time>2020-11-23T09:26:19Z</time>
      </trkpt>
      <trkpt lat="40.401150" lon="-4.048215">
        <ele>605.21</ele>
        <time>2020-11-23T09:26:21Z</time>
      </trkpt>
      <trkpt lat="40.401053" lon="-4.048492">
        <ele>605.03</ele>
        <time>2020-11-23T09:26:25Z</time>
      </trkpt>
      <trkpt lat="40.401025" lon="-4.048563">
        <ele>605.30</ele>
        <time>2020-11-23T09:26:26Z</time>
      </trkpt>
      <trkpt lat="40.400936" lon="-4.048974">
        <ele>605.22</ele>
        <time>2020-11-23T09:26:31Z</time>
      </trkpt>
      <trkpt lat="40.400872" lon="-4.049309">
        <ele>605.10</ele>
        <time>2020-11-23T09:26:35Z</time>
      </trkpt>
      <trkpt lat="40.400871" lon="-4.049469">
        <ele>605.27</ele>
        <time>2020-11-23T09:26:37Z</time>
      </trkpt>
      <trkpt lat="40.400896" lon="-4.049915">
        <ele>605.26</ele>
        <time>2020-11-23T09:26:43Z</time>
      </trkpt>
      <trkpt lat="40.400896" lon="-4.050115">
        <ele>605.26</ele>
        <time>2020-11-23T09:26:46Z</time>
      </trkpt>
      <trkpt lat="40.400899" lon="-4.050294">
        <ele>605.63</ele>
        <time>2020-11-23T09:26:49Z</time>
      </trkpt>
      <trkpt lat="40.400910" lon="-4.050347">
        <ele>605.61</ele>
        <time>2020-11-23T09:26:50Z</time>
      </trkpt>
      <trkpt lat="40.400925" lon="-4.050398">
        <ele>605.84</ele>
        <time>2020-11-23T09:26:51Z</time>
      </trkpt>
      <trkpt lat="40.400971" lon="-4.050500">
        <ele>606.01</ele>
        <time>2020-11-23T09:26:53Z</time>
      </trkpt>
      <trkpt lat="40.401032" lon="-4.050593">
        <ele>606.81</ele>
        <time>2020-11-23T09:26:55Z</time>
      </trkpt>
      <trkpt lat="40.401097" lon="-4.050672">
        <ele>607.02</ele>
        <time>2020-11-23T09:26:57Z</time>
      </trkpt>
      <trkpt lat="40.401133" lon="-4.050705">
        <ele>607.24</ele>
        <time>2020-11-23T09:26:58Z</time>
      </trkpt>
      <trkpt lat="40.401262" lon="-4.050793">
        <ele>607.43</ele>
        <time>2020-11-23T09:27:01Z</time>
      </trkpt>
      <trkpt lat="40.401308" lon="-4.050816">
        <ele>607.49</ele>
        <time>2020-11-23T09:27:02Z</time>
      </trkpt>
      <trkpt lat="40.401445" lon="-4.050883">
        <ele>607.86</ele>
        <time>2020-11-23T09:27:05Z</time>
      </trkpt>
      <trkpt lat="40.401647" lon="-4.050991">
        <ele>608.05</ele>
        <time>2020-11-23T09:27:09Z</time>
      </trkpt>
      <trkpt lat="40.401870" lon="-4.051111">
        <ele>608.04</ele>
        <time>2020-11-23T09:27:13Z</time>
      </trkpt>
      <trkpt lat="40.401936" lon="-4.051126">
        <ele>608.05</ele>
        <time>2020-11-23T09:27:14Z</time>
      </trkpt>
      <trkpt lat="40.402005" lon="-4.051135">
        <ele>608.24</ele>
        <time>2020-11-23T09:27:15Z</time>
      </trkpt>
      <trkpt lat="40.402291" lon="-4.051179">
        <ele>607.46</ele>
        <time>2020-11-23T09:27:19Z</time>
      </trkpt>
      <trkpt lat="40.402518" lon="-4.051227">
        <ele>606.41</ele>
        <time>2020-11-23T09:27:22Z</time>
      </trkpt>
      <trkpt lat="40.402682" lon="-4.051274">
        <ele>605.21</ele>
        <time>2020-11-23T09:27:24Z</time>
      </trkpt>
      <trkpt lat="40.402928" lon="-4.051369">
        <ele>604.49</ele>
        <time>2020-11-23T09:27:27Z</time>
      </trkpt>
      <trkpt lat="40.403102" lon="-4.051432">
        <ele>602.67</ele>
        <time>2020-11-23T09:27:29Z</time>
      </trkpt>
      <trkpt lat="40.403434" lon="-4.051583">
        <ele>601.07</ele>
        <time>2020-11-23T09:27:33Z</time>
      </trkpt>
      <trkpt lat="40.403771" lon="-4.051724">
        <ele>598.03</ele>
        <time>2020-11-23T09:27:37Z</time>
      </trkpt>
      <trkpt lat="40.403855" lon="-4.051748">
        <ele>597.22</ele>
        <time>2020-11-23T09:27:38Z</time>
      </trkpt>
      <trkpt lat="40.404029" lon="-4.051787">
        <ele>596.45</ele>
        <time>2020-11-23T09:27:40Z</time>
      </trkpt>
      <trkpt lat="40.404462" lon="-4.051871">
        <ele>594.43</ele>
        <time>2020-11-23T09:27:45Z</time>
      </trkpt>
      <trkpt lat="40.404720" lon="-4.051909">
        <ele>593.67</ele>
        <time>2020-11-23T09:27:48Z</time>
      </trkpt>
      <trkpt lat="40.404883" lon="-4.051912">
        <ele>592.85</ele>
        <time>2020-11-23T09:27:50Z</time>
      </trkpt>
      <trkpt lat="40.404966" lon="-4.051908">
        <ele>592.66</ele>
        <time>2020-11-23T09:27:51Z</time>
      </trkpt>
      <trkpt lat="40.405123" lon="-4.051902">
        <ele>592.01</ele>
        <time>2020-11-23T09:27:53Z</time>
      </trkpt>
      <trkpt lat="40.405277" lon="-4.051879">
        <ele>591.41</ele>
        <time>2020-11-23T09:27:55Z</time>
      </trkpt>
      <trkpt lat="40.405354" lon="-4.051860">
        <ele>591.44</ele>
        <time>2020-11-23T09:27:56Z</time>
      </trkpt>
      <trkpt lat="40.405660" lon="-4.051781">
        <ele>589.88</ele>
        <time>2020-11-23T09:28:00Z</time>
      </trkpt>
      <trkpt lat="40.405733" lon="-4.051755">
        <ele>589.27</ele>
        <time>2020-11-23T09:28:01Z</time>
      </trkpt>
      <trkpt lat="40.405808" lon="-4.051726">
        <ele>588.89</ele>
        <time>2020-11-23T09:28:02Z</time>
      </trkpt>
      <trkpt lat="40.405892" lon="-4.051688">
        <ele>588.22</ele>
        <time>2020-11-23T09:28:03Z</time>
      </trkpt>
      <trkpt lat="40.405979" lon="-4.051663">
        <ele>587.88</ele>
        <time>2020-11-23T09:28:04Z</time>
      </trkpt>
      <trkpt lat="40.406072" lon="-4.051653">
        <ele>587.83</ele>
        <time>2020-11-23T09:28:05Z</time>
      </trkpt>
      <trkpt lat="40.406168" lon="-4.051645">
        <ele>587.67</ele>
        <time>2020-11-23T09:28:06Z</time>
      </trkpt>
      <trkpt lat="40.406270" lon="-4.051636">
        <ele>587.50</ele>
        <time>2020-11-23T09:28:07Z</time>
      </trkpt>
      <trkpt lat="40.406489" lon="-4.051634">
        <ele>587.05</ele>
        <time>2020-11-23T09:28:09Z</time>
      </trkpt>
      <trkpt lat="40.406717" lon="-4.051653">
        <ele>584.62</ele>
        <time>2020-11-23T09:28:11Z</time>
      </trkpt>
      <trkpt lat="40.406827" lon="-4.051659">
        <ele>583.41</ele>
        <time>2020-11-23T09:28:12Z</time>
      </trkpt>
      <trkpt lat="40.407123" lon="-4.051700">
        <ele>581.03</ele>
        <time>2020-11-23T09:28:15Z</time>
      </trkpt>
      <trkpt lat="40.407205" lon="-4.051741">
        <ele>579.28</ele>
        <time>2020-11-23T09:28:16Z</time>
      </trkpt>
      <trkpt lat="40.407271" lon="-4.051807">
        <ele>578.23</ele>
        <time>2020-11-23T09:28:17Z</time>
      </trkpt>
      <trkpt lat="40.407336" lon="-4.051992">
        <ele>575.83</ele>
        <time>2020-11-23T09:28:19Z</time>
      </trkpt>
      <trkpt lat="40.407385" lon="-4.052233">
        <ele>574.26</ele>
        <time>2020-11-23T09:28:22Z</time>
      </trkpt>
      <trkpt lat="40.407455" lon="-4.052305">
        <ele>573.89</ele>
        <time>2020-11-23T09:28:25Z</time>
      </trkpt>
      <trkpt lat="40.407553" lon="-4.052263">
        <ele>573.41</ele>
        <time>2020-11-23T09:28:30Z</time>
      </trkpt>
      <trkpt lat="40.407662" lon="-4.052219">
        <ele>573.68</ele>
        <time>2020-11-23T09:28:35Z</time>
      </trkpt>
      <trkpt lat="40.407774" lon="-4.052097">
        <ele>573.85</ele>
        <time>2020-11-23T09:28:41Z</time>
      </trkpt>
      <trkpt lat="40.407873" lon="-4.052107">
        <ele>573.85</ele>
        <time>2020-11-23T09:28:46Z</time>
      </trkpt>
      <trkpt lat="40.407879" lon="-4.052131">
        <ele>574.21</ele>
        <time>2020-11-23T09:28:48Z</time>
      </trkpt>
      <trkpt lat="40.407871" lon="-4.052160">
        <ele>574.21</ele>
        <time>2020-11-23T09:28:51Z</time>
      </trkpt>
      <trkpt lat="40.407868" lon="-4.052163">
        <ele>574.29</ele>
        <time>2020-11-23T09:28:52Z</time>
      </trkpt>
      <trkpt lat="40.407775" lon="-4.052144">
        <ele>574.65</ele>
        <time>2020-11-23T09:29:07Z</time>
      </trkpt>
      <trkpt lat="40.407713" lon="-4.052186">
        <ele>574.63</ele>
        <time>2020-11-23T09:29:09Z</time>
      </trkpt>
      <trkpt lat="40.407550" lon="-4.052293">
        <ele>574.47</ele>
        <time>2020-11-23T09:29:14Z</time>
      </trkpt>
      <trkpt lat="40.407540" lon="-4.052292">
        <ele>573.66</ele>
        <time>2020-11-23T09:29:17Z</time>
      </trkpt>
      <trkpt lat="40.407641" lon="-4.052164">
        <ele>573.85</ele>
        <time>2020-11-23T09:30:19Z</time>
      </trkpt>
      <trkpt lat="40.407661" lon="-4.052141">
        <ele>574.09</ele>
        <time>2020-11-23T09:30:20Z</time>
      </trkpt>
      <trkpt lat="40.407757" lon="-4.052122">
        <ele>574.04</ele>
        <time>2020-11-23T09:30:24Z</time>
      </trkpt>
      <trkpt lat="40.407833" lon="-4.052241">
        <ele>574.10</ele>
        <time>2020-11-23T09:30:29Z</time>
      </trkpt>
      <trkpt lat="40.407874" lon="-4.052421">
        <ele>574.62</ele>
        <time>2020-11-23T09:30:34Z</time>
      </trkpt>
      <trkpt lat="40.407907" lon="-4.052632">
        <ele>574.83</ele>
        <time>2020-11-23T09:30:39Z</time>
      </trkpt>
      <trkpt lat="40.407925" lon="-4.052755">
        <ele>575.01</ele>
        <time>2020-11-23T09:30:42Z</time>
      </trkpt>
      <trkpt lat="40.407943" lon="-4.052927">
        <ele>575.22</ele>
        <time>2020-11-23T09:30:46Z</time>
      </trkpt>
      <trkpt lat="40.407953" lon="-4.053062">
        <ele>575.43</ele>
        <time>2020-11-23T09:30:49Z</time>
      </trkpt>
      <trkpt lat="40.407950" lon="-4.053114">
        <ele>575.64</ele>
        <time>2020-11-23T09:30:50Z</time>
      </trkpt>
      <trkpt lat="40.407947" lon="-4.053172">
        <ele>575.68</ele>
        <time>2020-11-23T09:30:51Z</time>
      </trkpt>
      <trkpt lat="40.407938" lon="-4.053302">
        <ele>575.83</ele>
        <time>2020-11-23T09:30:53Z</time>
      </trkpt>
      <trkpt lat="40.407921" lon="-4.053443">
        <ele>575.88</ele>
        <time>2020-11-23T09:30:55Z</time>
      </trkpt>
      <trkpt lat="40.407902" lon="-4.053588">
        <ele>575.89</ele>
        <time>2020-11-23T09:30:57Z</time>
      </trkpt>
      <trkpt lat="40.407891" lon="-4.053741">
        <ele>575.84</ele>
        <time>2020-11-23T09:30:59Z</time>
      </trkpt>
      <trkpt lat="40.407914" lon="-4.053959">
        <ele>575.10</ele>
        <time>2020-11-23T09:31:02Z</time>
      </trkpt>
      <trkpt lat="40.407974" lon="-4.054152">
        <ele>574.01</ele>
        <time>2020-11-23T09:31:05Z</time>
      </trkpt>
      <trkpt lat="40.408007" lon="-4.054213">
        <ele>574.03</ele>
        <time>2020-11-23T09:31:06Z</time>
      </trkpt>
      <trkpt lat="40.408071" lon="-4.054317">
        <ele>573.41</ele>
        <time>2020-11-23T09:31:08Z</time>
      </trkpt>
      <trkpt lat="40.408138" lon="-4.054424">
        <ele>573.29</ele>
        <time>2020-11-23T09:31:10Z</time>
      </trkpt>
      <trkpt lat="40.408195" lon="-4.054544">
        <ele>573.05</ele>
        <time>2020-11-23T09:31:12Z</time>
      </trkpt>
      <trkpt lat="40.408217" lon="-4.054605">
        <ele>573.23</ele>
        <time>2020-11-23T09:31:13Z</time>
      </trkpt>
      <trkpt lat="40.408235" lon="-4.054667">
        <ele>573.22</ele>
        <time>2020-11-23T09:31:14Z</time>
      </trkpt>
      <trkpt lat="40.408240" lon="-4.054796">
        <ele>573.08</ele>
        <time>2020-11-23T09:31:16Z</time>
      </trkpt>
      <trkpt lat="40.408236" lon="-4.054863">
        <ele>573.09</ele>
        <time>2020-11-23T09:31:17Z</time>
      </trkpt>
      <trkpt lat="40.408245" lon="-4.055251">
        <ele>573.02</ele>
        <time>2020-11-23T09:31:23Z</time>
      </trkpt>
      <trkpt lat="40.408261" lon="-4.055377">
        <ele>572.90</ele>
        <time>2020-11-23T09:31:25Z</time>
      </trkpt>
      <trkpt lat="40.408320" lon="-4.055663">
        <ele>573.47</ele>
        <time>2020-11-23T09:31:30Z</time>
      </trkpt>
      <trkpt lat="40.408335" lon="-4.055715">
        <ele>573.88</ele>
        <time>2020-11-23T09:31:31Z</time>
      </trkpt>
      <trkpt lat="40.408351" lon="-4.055770">
        <ele>574.22</ele>
        <time>2020-11-23T09:31:32Z</time>
      </trkpt>
      <trkpt lat="40.408376" lon="-4.055880">
        <ele>574.21</ele>
        <time>2020-11-23T09:31:34Z</time>
      </trkpt>
      <trkpt lat="40.408445" lon="-4.056184">
        <ele>575.09</ele>
        <time>2020-11-23T09:31:40Z</time>
      </trkpt>
      <trkpt lat="40.408488" lon="-4.056404">
        <ele>576.27</ele>
        <time>2020-11-23T09:31:44Z</time>
      </trkpt>
      <trkpt lat="40.408500" lon="-4.056458">
        <ele>576.47</ele>
        <time>2020-11-23T09:31:45Z</time>
      </trkpt>
      <trkpt lat="40.408528" lon="-4.056562">
        <ele>576.62</ele>
        <time>2020-11-23T09:31:47Z</time>
      </trkpt>
      <trkpt lat="40.408642" lon="-4.056955">
        <ele>577.67</ele>
        <time>2020-11-23T09:31:54Z</time>
      </trkpt>
      <trkpt lat="40.408749" lon="-4.057335">
        <ele>578.43</ele>
        <time>2020-11-23T09:32:01Z</time>
      </trkpt>
      <trkpt lat="40.408769" lon="-4.057389">
        <ele>578.44</ele>
        <time>2020-11-23T09:32:02Z</time>
      </trkpt>
      <trkpt lat="40.408869" lon="-4.057615">
        <ele>578.84</ele>
        <time>2020-11-23T09:32:06Z</time>
      </trkpt>
      <trkpt lat="40.408913" lon="-4.057739">
        <ele>579.29</ele>
        <time>2020-11-23T09:32:08Z</time>
      </trkpt>
      <trkpt lat="40.408995" lon="-4.057994">
        <ele>579.24</ele>
        <time>2020-11-23T09:32:12Z</time>
      </trkpt>
      <trkpt lat="40.409051" lon="-4.058186">
        <ele>579.43</ele>
        <time>2020-11-23T09:32:15Z</time>
      </trkpt>
      <trkpt lat="40.409134" lon="-4.058494">
        <ele>579.81</ele>
        <time>2020-11-23T09:32:20Z</time>
      </trkpt>
      <trkpt lat="40.409237" lon="-4.058822">
        <ele>580.05</ele>
        <time>2020-11-23T09:32:26Z</time>
      </trkpt>
      <trkpt lat="40.409268" lon="-4.058926">
        <ele>580.05</ele>
        <time>2020-11-23T09:32:28Z</time>
      </trkpt>
      <trkpt lat="40.409292" lon="-4.059032">
        <ele>580.89</ele>
        <time>2020-11-23T09:32:30Z</time>
      </trkpt>
      <trkpt lat="40.409329" lon="-4.059181">
        <ele>581.68</ele>
        <time>2020-11-23T09:32:33Z</time>
      </trkpt>
      <trkpt lat="40.409352" lon="-4.059280">
        <ele>582.24</ele>
        <time>2020-11-23T09:32:35Z</time>
      </trkpt>
      <trkpt lat="40.409406" lon="-4.059498">
        <ele>583.61</ele>
        <time>2020-11-23T09:32:39Z</time>
      </trkpt>
      <trkpt lat="40.409439" lon="-4.059624">
        <ele>583.83</ele>
        <time>2020-11-23T09:32:41Z</time>
      </trkpt>
      <trkpt lat="40.409560" lon="-4.060045">
        <ele>583.90</ele>
        <time>2020-11-23T09:32:47Z</time>
      </trkpt>
      <trkpt lat="40.409582" lon="-4.060116">
        <ele>584.07</ele>
        <time>2020-11-23T09:32:48Z</time>
      </trkpt>
      <trkpt lat="40.409617" lon="-4.060260">
        <ele>583.84</ele>
        <time>2020-11-23T09:32:50Z</time>
      </trkpt>
      <trkpt lat="40.409658" lon="-4.060478">
        <ele>583.03</ele>
        <time>2020-11-23T09:32:53Z</time>
      </trkpt>
      <trkpt lat="40.409736" lon="-4.060928">
        <ele>582.61</ele>
        <time>2020-11-23T09:33:00Z</time>
      </trkpt>
      <trkpt lat="40.409763" lon="-4.061224">
        <ele>582.83</ele>
        <time>2020-11-23T09:33:05Z</time>
      </trkpt>
      <trkpt lat="40.409761" lon="-4.061344">
        <ele>583.02</ele>
        <time>2020-11-23T09:33:07Z</time>
      </trkpt>
      <trkpt lat="40.409765" lon="-4.061477">
        <ele>583.22</ele>
        <time>2020-11-23T09:33:10Z</time>
      </trkpt>
      <trkpt lat="40.409766" lon="-4.061554">
        <ele>583.47</ele>
        <time>2020-11-23T09:33:12Z</time>
      </trkpt>
      <trkpt lat="40.409792" lon="-4.061863">
        <ele>585.28</ele>
        <time>2020-11-23T09:33:18Z</time>
      </trkpt>
      <trkpt lat="40.409801" lon="-4.061998">
        <ele>586.27</ele>
        <time>2020-11-23T09:33:20Z</time>
      </trkpt>
      <trkpt lat="40.409831" lon="-4.062277">
        <ele>587.05</ele>
        <time>2020-11-23T09:33:25Z</time>
      </trkpt>
      <trkpt lat="40.409844" lon="-4.062443">
        <ele>587.48</ele>
        <time>2020-11-23T09:33:28Z</time>
      </trkpt>
      <trkpt lat="40.409847" lon="-4.062612">
        <ele>587.90</ele>
        <time>2020-11-23T09:33:31Z</time>
      </trkpt>
      <trkpt lat="40.409856" lon="-4.062844">
        <ele>588.01</ele>
        <time>2020-11-23T09:33:35Z</time>
      </trkpt>
      <trkpt lat="40.409859" lon="-4.062953">
        <ele>588.23</ele>
        <time>2020-11-23T09:33:37Z</time>
      </trkpt>
      <trkpt lat="40.409854" lon="-4.063013">
        <ele>588.41</ele>
        <time>2020-11-23T09:33:38Z</time>
      </trkpt>
      <trkpt lat="40.409850" lon="-4.063141">
        <ele>589.04</ele>
        <time>2020-11-23T09:33:40Z</time>
      </trkpt>
      <trkpt lat="40.409875" lon="-4.063364">
        <ele>589.27</ele>
        <time>2020-11-23T09:33:43Z</time>
      </trkpt>
      <trkpt lat="40.409893" lon="-4.063523">
        <ele>589.42</ele>
        <time>2020-11-23T09:33:45Z</time>
      </trkpt>
      <trkpt lat="40.409960" lon="-4.063863">
        <ele>589.03</ele>
        <time>2020-11-23T09:33:49Z</time>
      </trkpt>
      <trkpt lat="40.410015" lon="-4.064091">
        <ele>588.09</ele>
        <time>2020-11-23T09:33:52Z</time>
      </trkpt>
      <trkpt lat="40.410066" lon="-4.064317">
        <ele>587.50</ele>
        <time>2020-11-23T09:33:55Z</time>
      </trkpt>
      <trkpt lat="40.410088" lon="-4.064392">
        <ele>587.46</ele>
        <time>2020-11-23T09:33:56Z</time>
      </trkpt>
      <trkpt lat="40.410155" lon="-4.064621">
        <ele>587.24</ele>
        <time>2020-11-23T09:33:59Z</time>
      </trkpt>
      <trkpt lat="40.410235" lon="-4.064878">
        <ele>586.65</ele>
        <time>2020-11-23T09:34:02Z</time>
      </trkpt>
      <trkpt lat="40.410270" lon="-4.064970">
        <ele>586.65</ele>
        <time>2020-11-23T09:34:03Z</time>
      </trkpt>
      <trkpt lat="40.410342" lon="-4.065155">
        <ele>586.01</ele>
        <time>2020-11-23T09:34:05Z</time>
      </trkpt>
      <trkpt lat="40.410452" lon="-4.065545">
        <ele>585.01</ele>
        <time>2020-11-23T09:34:09Z</time>
      </trkpt>
      <trkpt lat="40.410465" lon="-4.065647">
        <ele>584.62</ele>
        <time>2020-11-23T09:34:10Z</time>
      </trkpt>
      <trkpt lat="40.410485" lon="-4.065855">
        <ele>583.22</ele>
        <time>2020-11-23T09:34:12Z</time>
      </trkpt>
      <trkpt lat="40.410503" lon="-4.066165">
        <ele>581.66</ele>
        <time>2020-11-23T09:34:15Z</time>
      </trkpt>
      <trkpt lat="40.410500" lon="-4.066372">
        <ele>581.01</ele>
        <time>2020-11-23T09:34:17Z</time>
      </trkpt>
      <trkpt lat="40.410478" lon="-4.066574">
        <ele>580.65</ele>
        <time>2020-11-23T09:34:19Z</time>
      </trkpt>
      <trkpt lat="40.410462" lon="-4.066672">
        <ele>580.22</ele>
        <time>2020-11-23T09:34:20Z</time>
      </trkpt>
      <trkpt lat="40.410430" lon="-4.066870">
        <ele>579.90</ele>
        <time>2020-11-23T09:34:22Z</time>
      </trkpt>
      <trkpt lat="40.410381" lon="-4.067357">
        <ele>578.87</ele>
        <time>2020-11-23T09:34:27Z</time>
      </trkpt>
      <trkpt lat="40.410373" lon="-4.067811">
        <ele>578.68</ele>
        <time>2020-11-23T09:34:32Z</time>
      </trkpt>
      <trkpt lat="40.410354" lon="-4.068079">
        <ele>578.49</ele>
        <time>2020-11-23T09:34:35Z</time>
      </trkpt>
      <trkpt lat="40.410340" lon="-4.068163">
        <ele>578.62</ele>
        <time>2020-11-23T09:34:36Z</time>
      </trkpt>
      <trkpt lat="40.410260" lon="-4.068402">
        <ele>578.41</ele>
        <time>2020-11-23T09:34:39Z</time>
      </trkpt>
      <trkpt lat="40.410186" lon="-4.068640">
        <ele>578.41</ele>
        <time>2020-11-23T09:34:42Z</time>
      </trkpt>
      <trkpt lat="40.410131" lon="-4.068874">
        <ele>578.50</ele>
        <time>2020-11-23T09:34:45Z</time>
      </trkpt>
      <trkpt lat="40.410086" lon="-4.069210">
        <ele>578.46</ele>
        <time>2020-11-23T09:34:49Z</time>
      </trkpt>
      <trkpt lat="40.410072" lon="-4.069474">
        <ele>578.30</ele>
        <time>2020-11-23T09:34:52Z</time>
      </trkpt>
      <trkpt lat="40.410078" lon="-4.069558">
        <ele>578.48</ele>
        <time>2020-11-23T09:34:53Z</time>
      </trkpt>
      <trkpt lat="40.410109" lon="-4.069820">
        <ele>578.23</ele>
        <time>2020-11-23T09:34:56Z</time>
      </trkpt>
      <trkpt lat="40.410125" lon="-4.069904">
        <ele>578.26</ele>
        <time>2020-11-23T09:34:57Z</time>
      </trkpt>
      <trkpt lat="40.410143" lon="-4.069987">
        <ele>578.08</ele>
        <time>2020-11-23T09:34:58Z</time>
      </trkpt>
      <trkpt lat="40.410250" lon="-4.070467">
        <ele>577.64</ele>
        <time>2020-11-23T09:35:04Z</time>
      </trkpt>
      <trkpt lat="40.410336" lon="-4.070661">
        <ele>577.66</ele>
        <time>2020-11-23T09:35:07Z</time>
      </trkpt>
      <trkpt lat="40.410399" lon="-4.070786">
        <ele>577.41</ele>
        <time>2020-11-23T09:35:09Z</time>
      </trkpt>
      <trkpt lat="40.410473" lon="-4.070974">
        <ele>577.61</ele>
        <time>2020-11-23T09:35:12Z</time>
      </trkpt>
      <trkpt lat="40.410555" lon="-4.071160">
        <ele>577.69</ele>
        <time>2020-11-23T09:35:15Z</time>
      </trkpt>
      <trkpt lat="40.410723" lon="-4.071475">
        <ele>578.27</ele>
        <time>2020-11-23T09:35:20Z</time>
      </trkpt>
      <trkpt lat="40.410762" lon="-4.071545">
        <ele>578.27</ele>
        <time>2020-11-23T09:35:21Z</time>
      </trkpt>
      <trkpt lat="40.410802" lon="-4.071618">
        <ele>578.48</ele>
        <time>2020-11-23T09:35:22Z</time>
      </trkpt>
      <trkpt lat="40.410918" lon="-4.071852">
        <ele>578.28</ele>
        <time>2020-11-23T09:35:25Z</time>
      </trkpt>
      <trkpt lat="40.411046" lon="-4.072078">
        <ele>578.29</ele>
        <time>2020-11-23T09:35:28Z</time>
      </trkpt>
      <trkpt lat="40.411089" lon="-4.072153">
        <ele>577.88</ele>
        <time>2020-11-23T09:35:29Z</time>
      </trkpt>
      <trkpt lat="40.411219" lon="-4.072379">
        <ele>576.45</ele>
        <time>2020-11-23T09:35:32Z</time>
      </trkpt>
      <trkpt lat="40.411434" lon="-4.072764">
        <ele>574.61</ele>
        <time>2020-11-23T09:35:37Z</time>
      </trkpt>
      <trkpt lat="40.411480" lon="-4.072843">
        <ele>574.25</ele>
        <time>2020-11-23T09:35:38Z</time>
      </trkpt>
      <trkpt lat="40.411734" lon="-4.073327">
        <ele>572.21</ele>
        <time>2020-11-23T09:35:44Z</time>
      </trkpt>
      <trkpt lat="40.411799" lon="-4.073462">
        <ele>571.81</ele>
        <time>2020-11-23T09:35:46Z</time>
      </trkpt>
      <trkpt lat="40.411827" lon="-4.073528">
        <ele>571.90</ele>
        <time>2020-11-23T09:35:47Z</time>
      </trkpt>
      <trkpt lat="40.411897" lon="-4.073720">
        <ele>571.44</ele>
        <time>2020-11-23T09:35:50Z</time>
      </trkpt>
      <trkpt lat="40.411912" lon="-4.073779">
        <ele>571.67</ele>
        <time>2020-11-23T09:35:51Z</time>
      </trkpt>
      <trkpt lat="40.411921" lon="-4.073836">
        <ele>571.28</ele>
        <time>2020-11-23T09:35:52Z</time>
      </trkpt>
      <trkpt lat="40.411912" lon="-4.073935">
        <ele>571.47</ele>
        <time>2020-11-23T09:35:54Z</time>
      </trkpt>
      <trkpt lat="40.411895" lon="-4.073979">
        <ele>571.44</ele>
        <time>2020-11-23T09:35:55Z</time>
      </trkpt>
      <trkpt lat="40.411834" lon="-4.074021">
        <ele>571.45</ele>
        <time>2020-11-23T09:35:57Z</time>
      </trkpt>
      <trkpt lat="40.411797" lon="-4.074037">
        <ele>571.45</ele>
        <time>2020-11-23T09:35:58Z</time>
      </trkpt>
      <trkpt lat="40.411536" lon="-4.074122">
        <ele>573.47</ele>
        <time>2020-11-23T09:36:03Z</time>
      </trkpt>
      <trkpt lat="40.411374" lon="-4.074199">
        <ele>573.87</ele>
        <time>2020-11-23T09:36:06Z</time>
      </trkpt>
      <trkpt lat="40.411205" lon="-4.074315">
        <ele>573.61</ele>
        <time>2020-11-23T09:36:09Z</time>
      </trkpt>
      <trkpt lat="40.410939" lon="-4.074493">
        <ele>573.61</ele>
        <time>2020-11-23T09:36:13Z</time>
      </trkpt>
      <trkpt lat="40.410801" lon="-4.074585">
        <ele>573.06</ele>
        <time>2020-11-23T09:36:15Z</time>
      </trkpt>
      <trkpt lat="40.410388" lon="-4.074840">
        <ele>571.02</ele>
        <time>2020-11-23T09:36:21Z</time>
      </trkpt>
      <trkpt lat="40.409989" lon="-4.075091">
        <ele>569.24</ele>
        <time>2020-11-23T09:36:27Z</time>
      </trkpt>
      <trkpt lat="40.409798" lon="-4.075210">
        <ele>568.82</ele>
        <time>2020-11-23T09:36:30Z</time>
      </trkpt>
      <trkpt lat="40.409571" lon="-4.075395">
        <ele>568.22</ele>
        <time>2020-11-23T09:36:34Z</time>
      </trkpt>
      <trkpt lat="40.409513" lon="-4.075440">
        <ele>568.24</ele>
        <time>2020-11-23T09:36:35Z</time>
      </trkpt>
      <trkpt lat="40.409460" lon="-4.075497">
        <ele>568.26</ele>
        <time>2020-11-23T09:36:36Z</time>
      </trkpt>
      <trkpt lat="40.409350" lon="-4.075624">
        <ele>568.08</ele>
        <time>2020-11-23T09:36:38Z</time>
      </trkpt>
      <trkpt lat="40.409293" lon="-4.075677">
        <ele>567.87</ele>
        <time>2020-11-23T09:36:39Z</time>
      </trkpt>
      <trkpt lat="40.409180" lon="-4.075740">
        <ele>567.68</ele>
        <time>2020-11-23T09:36:41Z</time>
      </trkpt>
      <trkpt lat="40.408944" lon="-4.075831">
        <ele>565.41</ele>
        <time>2020-11-23T09:36:46Z</time>
      </trkpt>
      <trkpt lat="40.408899" lon="-4.075857">
        <ele>564.81</ele>
        <time>2020-11-23T09:36:47Z</time>
      </trkpt>
      <trkpt lat="40.408684" lon="-4.076009">
        <ele>564.09</ele>
        <time>2020-11-23T09:36:52Z</time>
      </trkpt>
      <trkpt lat="40.408598" lon="-4.076078">
        <ele>563.84</ele>
        <time>2020-11-23T09:36:54Z</time>
      </trkpt>
      <trkpt lat="40.408394" lon="-4.076216">
        <ele>563.85</ele>
        <time>2020-11-23T09:36:58Z</time>
      </trkpt>
      <trkpt lat="40.408208" lon="-4.076293">
        <ele>563.85</ele>
        <time>2020-11-23T09:37:01Z</time>
      </trkpt>
      <trkpt lat="40.408081" lon="-4.076327">
        <ele>563.23</ele>
        <time>2020-11-23T09:37:03Z</time>
      </trkpt>
      <trkpt lat="40.408019" lon="-4.076349">
        <ele>562.61</ele>
        <time>2020-11-23T09:37:04Z</time>
      </trkpt>
      <trkpt lat="40.407957" lon="-4.076370">
        <ele>562.43</ele>
        <time>2020-11-23T09:37:05Z</time>
      </trkpt>
      <trkpt lat="40.407895" lon="-4.076392">
        <ele>562.29</ele>
        <time>2020-11-23T09:37:06Z</time>
      </trkpt>
      <trkpt lat="40.407778" lon="-4.076465">
        <ele>561.82</ele>
        <time>2020-11-23T09:37:08Z</time>
      </trkpt>
      <trkpt lat="40.407648" lon="-4.076564">
        <ele>561.08</ele>
        <time>2020-11-23T09:37:10Z</time>
      </trkpt>
      <trkpt lat="40.407578" lon="-4.076606">
        <ele>560.81</ele>
        <time>2020-11-23T09:37:11Z</time>
      </trkpt>
      <trkpt lat="40.407370" lon="-4.076716">
        <ele>560.21</ele>
        <time>2020-11-23T09:37:14Z</time>
      </trkpt>
      <trkpt lat="40.407298" lon="-4.076759">
        <ele>559.70</ele>
        <time>2020-11-23T09:37:15Z</time>
      </trkpt>
      <trkpt lat="40.407230" lon="-4.076817">
        <ele>559.05</ele>
        <time>2020-11-23T09:37:16Z</time>
      </trkpt>
      <trkpt lat="40.407118" lon="-4.076947">
        <ele>557.28</ele>
        <time>2020-11-23T09:37:18Z</time>
      </trkpt>
      <trkpt lat="40.407073" lon="-4.077008">
        <ele>556.64</ele>
        <time>2020-11-23T09:37:19Z</time>
      </trkpt>
      <trkpt lat="40.407038" lon="-4.077066">
        <ele>556.10</ele>
        <time>2020-11-23T09:37:20Z</time>
      </trkpt>
      <trkpt lat="40.407006" lon="-4.077124">
        <ele>555.67</ele>
        <time>2020-11-23T09:37:21Z</time>
      </trkpt>
      <trkpt lat="40.406977" lon="-4.077182">
        <ele>555.09</ele>
        <time>2020-11-23T09:37:22Z</time>
      </trkpt>
      <trkpt lat="40.406919" lon="-4.077306">
        <ele>554.09</ele>
        <time>2020-11-23T09:37:24Z</time>
      </trkpt>
      <trkpt lat="40.406847" lon="-4.077536">
        <ele>553.05</ele>
        <time>2020-11-23T09:37:27Z</time>
      </trkpt>
      <trkpt lat="40.406828" lon="-4.077622">
        <ele>552.86</ele>
        <time>2020-11-23T09:37:28Z</time>
      </trkpt>
      <trkpt lat="40.406767" lon="-4.077782">
        <ele>552.62</ele>
        <time>2020-11-23T09:37:30Z</time>
      </trkpt>
      <trkpt lat="40.406681" lon="-4.077915">
        <ele>552.41</ele>
        <time>2020-11-23T09:37:32Z</time>
      </trkpt>
      <trkpt lat="40.406635" lon="-4.077970">
        <ele>552.21</ele>
        <time>2020-11-23T09:37:33Z</time>
      </trkpt>
      <trkpt lat="40.406584" lon="-4.078018">
        <ele>552.23</ele>
        <time>2020-11-23T09:37:34Z</time>
      </trkpt>
      <trkpt lat="40.406432" lon="-4.078164">
        <ele>551.63</ele>
        <time>2020-11-23T09:37:37Z</time>
      </trkpt>
      <trkpt lat="40.406386" lon="-4.078222">
        <ele>551.67</ele>
        <time>2020-11-23T09:37:38Z</time>
      </trkpt>
      <trkpt lat="40.406247" lon="-4.078411">
        <ele>551.29</ele>
        <time>2020-11-23T09:37:41Z</time>
      </trkpt>
      <trkpt lat="40.406197" lon="-4.078472">
        <ele>551.09</ele>
        <time>2020-11-23T09:37:42Z</time>
      </trkpt>
      <trkpt lat="40.406147" lon="-4.078534">
        <ele>551.08</ele>
        <time>2020-11-23T09:37:43Z</time>
      </trkpt>
      <trkpt lat="40.406039" lon="-4.078639">
        <ele>550.68</ele>
        <time>2020-11-23T09:37:45Z</time>
      </trkpt>
      <trkpt lat="40.405978" lon="-4.078680">
        <ele>550.67</ele>
        <time>2020-11-23T09:37:46Z</time>
      </trkpt>
      <trkpt lat="40.405916" lon="-4.078717">
        <ele>550.44</ele>
        <time>2020-11-23T09:37:47Z</time>
      </trkpt>
      <trkpt lat="40.405566" lon="-4.078947">
        <ele>550.03</ele>
        <time>2020-11-23T09:37:53Z</time>
      </trkpt>
      <trkpt lat="40.405515" lon="-4.078989">
        <ele>550.01</ele>
        <time>2020-11-23T09:37:54Z</time>
      </trkpt>
      <trkpt lat="40.405354" lon="-4.079118">
        <ele>550.05</ele>
        <time>2020-11-23T09:37:57Z</time>
      </trkpt>
      <trkpt lat="40.405305" lon="-4.079161">
        <ele>549.85</ele>
        <time>2020-11-23T09:37:58Z</time>
      </trkpt>
      <trkpt lat="40.405199" lon="-4.079253">
        <ele>549.83</ele>
        <time>2020-11-23T09:38:00Z</time>
      </trkpt>
      <trkpt lat="40.405040" lon="-4.079405">
        <ele>549.89</ele>
        <time>2020-11-23T09:38:03Z</time>
      </trkpt>
      <trkpt lat="40.404937" lon="-4.079521">
        <ele>549.81</ele>
        <time>2020-11-23T09:38:05Z</time>
      </trkpt>
      <trkpt lat="40.404884" lon="-4.079582">
        <ele>549.69</ele>
        <time>2020-11-23T09:38:06Z</time>
      </trkpt>
      <trkpt lat="40.404779" lon="-4.079710">
        <ele>549.44</ele>
        <time>2020-11-23T09:38:08Z</time>
      </trkpt>
      <trkpt lat="40.404559" lon="-4.079929">
        <ele>548.42</ele>
        <time>2020-11-23T09:38:12Z</time>
      </trkpt>
      <trkpt lat="40.404248" lon="-4.080105">
        <ele>547.01</ele>
        <time>2020-11-23T09:38:17Z</time>
      </trkpt>
      <trkpt lat="40.404078" lon="-4.080174">
        <ele>546.66</ele>
        <time>2020-11-23T09:38:20Z</time>
      </trkpt>
      <trkpt lat="40.403980" lon="-4.080240">
        <ele>546.61</ele>
        <time>2020-11-23T09:38:22Z</time>
      </trkpt>
      <trkpt lat="40.403931" lon="-4.080283">
        <ele>546.61</ele>
        <time>2020-11-23T09:38:23Z</time>
      </trkpt>
      <trkpt lat="40.403835" lon="-4.080380">
        <ele>546.87</ele>
        <time>2020-11-23T09:38:25Z</time>
      </trkpt>
      <trkpt lat="40.403792" lon="-4.080438">
        <ele>546.65</ele>
        <time>2020-11-23T09:38:26Z</time>
      </trkpt>
      <trkpt lat="40.403753" lon="-4.080502">
        <ele>546.84</ele>
        <time>2020-11-23T09:38:27Z</time>
      </trkpt>
      <trkpt lat="40.403696" lon="-4.080650">
        <ele>546.61</ele>
        <time>2020-11-23T09:38:29Z</time>
      </trkpt>
      <trkpt lat="40.403671" lon="-4.080825">
        <ele>546.65</ele>
        <time>2020-11-23T09:38:31Z</time>
      </trkpt>
      <trkpt lat="40.403699" lon="-4.081025">
        <ele>546.50</ele>
        <time>2020-11-23T09:38:33Z</time>
      </trkpt>
      <trkpt lat="40.403712" lon="-4.081124">
        <ele>546.22</ele>
        <time>2020-11-23T09:38:34Z</time>
      </trkpt>
      <trkpt lat="40.403717" lon="-4.081223">
        <ele>546.09</ele>
        <time>2020-11-23T09:38:35Z</time>
      </trkpt>
      <trkpt lat="40.403705" lon="-4.081312">
        <ele>546.06</ele>
        <time>2020-11-23T09:38:36Z</time>
      </trkpt>
      <trkpt lat="40.403686" lon="-4.081400">
        <ele>546.20</ele>
        <time>2020-11-23T09:38:37Z</time>
      </trkpt>
      <trkpt lat="40.403657" lon="-4.081476">
        <ele>545.62</ele>
        <time>2020-11-23T09:38:38Z</time>
      </trkpt>
      <trkpt lat="40.403551" lon="-4.081697">
        <ele>544.81</ele>
        <time>2020-11-23T09:38:41Z</time>
      </trkpt>
      <trkpt lat="40.403338" lon="-4.082054">
        <ele>543.47</ele>
        <time>2020-11-23T09:38:46Z</time>
      </trkpt>
      <trkpt lat="40.403290" lon="-4.082125">
        <ele>543.27</ele>
        <time>2020-11-23T09:38:47Z</time>
      </trkpt>
      <trkpt lat="40.403049" lon="-4.082460">
        <ele>542.47</ele>
        <time>2020-11-23T09:38:52Z</time>
      </trkpt>
      <trkpt lat="40.402996" lon="-4.082519">
        <ele>542.23</ele>
        <time>2020-11-23T09:38:53Z</time>
      </trkpt>
      <trkpt lat="40.402683" lon="-4.082838">
        <ele>541.08</ele>
        <time>2020-11-23T09:38:59Z</time>
      </trkpt>
      <trkpt lat="40.402626" lon="-4.082874">
        <ele>541.03</ele>
        <time>2020-11-23T09:39:00Z</time>
      </trkpt>
      <trkpt lat="40.402568" lon="-4.082901">
        <ele>541.03</ele>
        <time>2020-11-23T09:39:01Z</time>
      </trkpt>
      <trkpt lat="40.402346" lon="-4.083019">
        <ele>541.09</ele>
        <time>2020-11-23T09:39:05Z</time>
      </trkpt>
      <trkpt lat="40.402132" lon="-4.083139">
        <ele>541.07</ele>
        <time>2020-11-23T09:39:09Z</time>
      </trkpt>
      <trkpt lat="40.401972" lon="-4.083221">
        <ele>541.01</ele>
        <time>2020-11-23T09:39:12Z</time>
      </trkpt>
      <trkpt lat="40.401674" lon="-4.083409">
        <ele>541.01</ele>
        <time>2020-11-23T09:39:18Z</time>
      </trkpt>
      <trkpt lat="40.401570" lon="-4.083423">
        <ele>541.01</ele>
        <time>2020-11-23T09:39:20Z</time>
      </trkpt>
      <trkpt lat="40.401522" lon="-4.083408">
        <ele>541.07</ele>
        <time>2020-11-23T09:39:21Z</time>
      </trkpt>
      <trkpt lat="40.401472" lon="-4.083383">
        <ele>541.06</ele>
        <time>2020-11-23T09:39:22Z</time>
      </trkpt>
      <trkpt lat="40.401264" lon="-4.083309">
        <ele>540.84</ele>
        <time>2020-11-23T09:39:26Z</time>
      </trkpt>
      <trkpt lat="40.401202" lon="-4.083305">
        <ele>540.82</ele>
        <time>2020-11-23T09:39:27Z</time>
      </trkpt>
      <trkpt lat="40.400958" lon="-4.083330">
        <ele>540.25</ele>
        <time>2020-11-23T09:39:31Z</time>
      </trkpt>
      <trkpt lat="40.400902" lon="-4.083348">
        <ele>539.86</ele>
        <time>2020-11-23T09:39:32Z</time>
      </trkpt>
      <trkpt lat="40.400846" lon="-4.083374">
        <ele>539.48</ele>
        <time>2020-11-23T09:39:33Z</time>
      </trkpt>
      <trkpt lat="40.400740" lon="-4.083433">
        <ele>538.87</ele>
        <time>2020-11-23T09:39:35Z</time>
      </trkpt>
      <trkpt lat="40.400685" lon="-4.083461">
        <ele>538.25</ele>
        <time>2020-11-23T09:39:36Z</time>
      </trkpt>
      <trkpt lat="40.400626" lon="-4.083472">
        <ele>536.49</ele>
        <time>2020-11-23T09:39:37Z</time>
      </trkpt>
      <trkpt lat="40.400523" lon="-4.083506">
        <ele>534.82</ele>
        <time>2020-11-23T09:39:39Z</time>
      </trkpt>
      <trkpt lat="40.400475" lon="-4.083540">
        <ele>534.21</ele>
        <time>2020-11-23T09:39:40Z</time>
      </trkpt>
      <trkpt lat="40.400377" lon="-4.083611">
        <ele>533.22</ele>
        <time>2020-11-23T09:39:42Z</time>
      </trkpt>
      <trkpt lat="40.400291" lon="-4.083673">
        <ele>533.05</ele>
        <time>2020-11-23T09:39:44Z</time>
      </trkpt>
      <trkpt lat="40.400252" lon="-4.083692">
        <ele>532.88</ele>
        <time>2020-11-23T09:39:45Z</time>
      </trkpt>
      <trkpt lat="40.400211" lon="-4.083683">
        <ele>533.05</ele>
        <time>2020-11-23T09:39:46Z</time>
      </trkpt>
      <trkpt lat="40.400121" lon="-4.083660">
        <ele>532.83</ele>
        <time>2020-11-23T09:39:48Z</time>
      </trkpt>
      <trkpt lat="40.400078" lon="-4.083662">
        <ele>532.87</ele>
        <time>2020-11-23T09:39:49Z</time>
      </trkpt>
      <trkpt lat="40.399990" lon="-4.083658">
        <ele>532.87</ele>
        <time>2020-11-23T09:39:51Z</time>
      </trkpt>
      <trkpt lat="40.399880" lon="-4.083631">
        <ele>533.07</ele>
        <time>2020-11-23T09:39:54Z</time>
      </trkpt>
      <trkpt lat="40.399785" lon="-4.083605">
        <ele>533.64</ele>
        <time>2020-11-23T09:39:57Z</time>
      </trkpt>
      <trkpt lat="40.399724" lon="-4.083590">
        <ele>534.07</ele>
        <time>2020-11-23T09:39:59Z</time>
      </trkpt>
      <trkpt lat="40.399691" lon="-4.083583">
        <ele>534.02</ele>
        <time>2020-11-23T09:40:00Z</time>
      </trkpt>
      <trkpt lat="40.399657" lon="-4.083578">
        <ele>534.21</ele>
        <time>2020-11-23T09:40:01Z</time>
      </trkpt>
      <trkpt lat="40.399623" lon="-4.083571">
        <ele>534.24</ele>
        <time>2020-11-23T09:40:02Z</time>
      </trkpt>
      <trkpt lat="40.399589" lon="-4.083564">
        <ele>534.29</ele>
        <time>2020-11-23T09:40:03Z</time>
      </trkpt>
      <trkpt lat="40.399520" lon="-4.083546">
        <ele>534.28</ele>
        <time>2020-11-23T09:40:05Z</time>
      </trkpt>
      <trkpt lat="40.399381" lon="-4.083504">
        <ele>535.01</ele>
        <time>2020-11-23T09:40:09Z</time>
      </trkpt>
      <trkpt lat="40.399249" lon="-4.083475">
        <ele>536.06</ele>
        <time>2020-11-23T09:40:14Z</time>
      </trkpt>
      <trkpt lat="40.399229" lon="-4.083470">
        <ele>536.46</ele>
        <time>2020-11-23T09:40:15Z</time>
      </trkpt>
      <trkpt lat="40.399112" lon="-4.083444">
        <ele>536.66</ele>
        <time>2020-11-23T09:40:21Z</time>
      </trkpt>
      <trkpt lat="40.399098" lon="-4.083442">
        <ele>537.05</ele>
        <time>2020-11-23T09:40:23Z</time>
      </trkpt>
      <trkpt lat="40.399094" lon="-4.083442">
        <ele>537.22</ele>
        <time>2020-11-23T09:40:26Z</time>
      </trkpt>
      <trkpt lat="40.399189" lon="-4.083470">
        <ele>537.50</ele>
        <time>2020-11-23T09:41:11Z</time>
      </trkpt>
      <trkpt lat="40.399314" lon="-4.083497">
        <ele>537.22</ele>
        <time>2020-11-23T09:41:14Z</time>
      </trkpt>
      <trkpt lat="40.399367" lon="-4.083505">
        <ele>537.41</ele>
        <time>2020-11-23T09:41:15Z</time>
      </trkpt>
      <trkpt lat="40.399473" lon="-4.083524">
        <ele>537.46</ele>
        <time>2020-11-23T09:41:17Z</time>
      </trkpt>
      <trkpt lat="40.399817" lon="-4.083592">
        <ele>535.64</ele>
        <time>2020-11-23T09:41:23Z</time>
      </trkpt>
      <trkpt lat="40.399874" lon="-4.083607">
        <ele>535.42</ele>
        <time>2020-11-23T09:41:24Z</time>
      </trkpt>
      <trkpt lat="40.399977" lon="-4.083633">
        <ele>534.86</ele>
        <time>2020-11-23T09:41:26Z</time>
      </trkpt>
      <trkpt lat="40.400029" lon="-4.083636">
        <ele>534.50</ele>
        <time>2020-11-23T09:41:27Z</time>
      </trkpt>
      <trkpt lat="40.400081" lon="-4.083630">
        <ele>534.46</ele>
        <time>2020-11-23T09:41:28Z</time>
      </trkpt>
      <trkpt lat="40.400176" lon="-4.083638">
        <ele>534.25</ele>
        <time>2020-11-23T09:41:30Z</time>
      </trkpt>
      <trkpt lat="40.400256" lon="-4.083666">
        <ele>534.27</ele>
        <time>2020-11-23T09:41:32Z</time>
      </trkpt>
      <trkpt lat="40.400371" lon="-4.083624">
        <ele>534.09</ele>
        <time>2020-11-23T09:41:35Z</time>
      </trkpt>
      <trkpt lat="40.400411" lon="-4.083595">
        <ele>534.08</ele>
        <time>2020-11-23T09:41:36Z</time>
      </trkpt>
      <trkpt lat="40.400457" lon="-4.083558">
        <ele>534.02</ele>
        <time>2020-11-23T09:41:37Z</time>
      </trkpt>
      <trkpt lat="40.400541" lon="-4.083503">
        <ele>533.81</ele>
        <time>2020-11-23T09:41:39Z</time>
      </trkpt>
      <trkpt lat="40.400614" lon="-4.083478">
        <ele>533.41</ele>
        <time>2020-11-23T09:41:41Z</time>
      </trkpt>
      <trkpt lat="40.400641" lon="-4.083453">
        <ele>532.69</ele>
        <time>2020-11-23T09:41:45Z</time>
      </trkpt>
      <trkpt lat="40.400639" lon="-4.083451">
        <ele>532.25</ele>
        <time>2020-11-23T09:41:46Z</time>
      </trkpt>
      <trkpt lat="40.400568" lon="-4.083470">
        <ele>532.08</ele>
        <time>2020-11-23T09:41:57Z</time>
      </trkpt>
      <trkpt lat="40.400508" lon="-4.083499">
        <ele>532.09</ele>
        <time>2020-11-23T09:41:59Z</time>
      </trkpt>
      <trkpt lat="40.400444" lon="-4.083561">
        <ele>532.02</ele>
        <time>2020-11-23T09:42:01Z</time>
      </trkpt>
      <trkpt lat="40.400378" lon="-4.083612">
        <ele>532.05</ele>
        <time>2020-11-23T09:42:03Z</time>
      </trkpt>
      <trkpt lat="40.400347" lon="-4.083624">
        <ele>532.09</ele>
        <time>2020-11-23T09:42:04Z</time>
      </trkpt>
      <trkpt lat="40.400269" lon="-4.083634">
        <ele>532.06</ele>
        <time>2020-11-23T09:42:06Z</time>
      </trkpt>
      <trkpt lat="40.400186" lon="-4.083617">
        <ele>532.05</ele>
        <time>2020-11-23T09:42:08Z</time>
      </trkpt>
      <trkpt lat="40.400147" lon="-4.083613">
        <ele>532.22</ele>
        <time>2020-11-23T09:42:09Z</time>
      </trkpt>
      <trkpt lat="40.400062" lon="-4.083617">
        <ele>532.61</ele>
        <time>2020-11-23T09:42:11Z</time>
      </trkpt>
      <trkpt lat="40.400015" lon="-4.083615">
        <ele>533.06</ele>
        <time>2020-11-23T09:42:12Z</time>
      </trkpt>
      <trkpt lat="40.399873" lon="-4.083595">
        <ele>533.62</ele>
        <time>2020-11-23T09:42:15Z</time>
      </trkpt>
      <trkpt lat="40.399579" lon="-4.083524">
        <ele>534.46</ele>
        <time>2020-11-23T09:42:21Z</time>
      </trkpt>
      <trkpt lat="40.399236" lon="-4.083473">
        <ele>534.65</ele>
        <time>2020-11-23T09:42:28Z</time>
      </trkpt>
      <trkpt lat="40.399062" lon="-4.083428">
        <ele>535.04</ele>
        <time>2020-11-23T09:42:32Z</time>
      </trkpt>
      <trkpt lat="40.398986" lon="-4.083401">
        <ele>535.21</ele>
        <time>2020-11-23T09:42:34Z</time>
      </trkpt>
      <trkpt lat="40.398952" lon="-4.083384">
        <ele>535.23</ele>
        <time>2020-11-23T09:42:35Z</time>
      </trkpt>
      <trkpt lat="40.398873" lon="-4.083322">
        <ele>535.82</ele>
        <time>2020-11-23T09:42:38Z</time>
      </trkpt>
      <trkpt lat="40.398823" lon="-4.083264">
        <ele>536.21</ele>
        <time>2020-11-23T09:42:40Z</time>
      </trkpt>
      <trkpt lat="40.398694" lon="-4.083188">
        <ele>538.64</ele>
        <time>2020-11-23T09:42:44Z</time>
      </trkpt>
      <trkpt lat="40.398659" lon="-4.083179">
        <ele>539.01</ele>
        <time>2020-11-23T09:42:45Z</time>
      </trkpt>
      <trkpt lat="40.398548" lon="-4.083188">
        <ele>540.01</ele>
        <time>2020-11-23T09:42:48Z</time>
      </trkpt>
      <trkpt lat="40.398471" lon="-4.083213">
        <ele>540.65</ele>
        <time>2020-11-23T09:42:50Z</time>
      </trkpt>
      <trkpt lat="40.398360" lon="-4.083249">
        <ele>541.23</ele>
        <time>2020-11-23T09:42:53Z</time>
      </trkpt>
      <trkpt lat="40.398195" lon="-4.083276">
        <ele>542.43</ele>
        <time>2020-11-23T09:42:57Z</time>
      </trkpt>
      <trkpt lat="40.398154" lon="-4.083274">
        <ele>542.64</ele>
        <time>2020-11-23T09:42:58Z</time>
      </trkpt>
      <trkpt lat="40.398027" lon="-4.083269">
        <ele>543.49</ele>
        <time>2020-11-23T09:43:01Z</time>
      </trkpt>
      <trkpt lat="40.397985" lon="-4.083271">
        <ele>543.70</ele>
        <time>2020-11-23T09:43:02Z</time>
      </trkpt>
      <trkpt lat="40.397900" lon="-4.083278">
        <ele>543.87</ele>
        <time>2020-11-23T09:43:04Z</time>
      </trkpt>
      <trkpt lat="40.397733" lon="-4.083299">
        <ele>544.49</ele>
        <time>2020-11-23T09:43:08Z</time>
      </trkpt>
      <trkpt lat="40.397694" lon="-4.083314">
        <ele>544.42</ele>
        <time>2020-11-23T09:43:09Z</time>
      </trkpt>
      <trkpt lat="40.397600" lon="-4.083347">
        <ele>544.81</ele>
        <time>2020-11-23T09:43:11Z</time>
      </trkpt>
      <trkpt lat="40.397503" lon="-4.083373">
        <ele>545.02</ele>
        <time>2020-11-23T09:43:13Z</time>
      </trkpt>
      <trkpt lat="40.397404" lon="-4.083399">
        <ele>545.21</ele>
        <time>2020-11-23T09:43:15Z</time>
      </trkpt>
      <trkpt lat="40.397260" lon="-4.083416">
        <ele>545.44</ele>
        <time>2020-11-23T09:43:18Z</time>
      </trkpt>
      <trkpt lat="40.397079" lon="-4.083422">
        <ele>545.49</ele>
        <time>2020-11-23T09:43:22Z</time>
      </trkpt>
      <trkpt lat="40.396859" lon="-4.083425">
        <ele>545.67</ele>
        <time>2020-11-23T09:43:27Z</time>
      </trkpt>
      <trkpt lat="40.396768" lon="-4.083420">
        <ele>545.64</ele>
        <time>2020-11-23T09:43:29Z</time>
      </trkpt>
      <trkpt lat="40.396489" lon="-4.083378">
        <ele>546.41</ele>
        <time>2020-11-23T09:43:35Z</time>
      </trkpt>
      <trkpt lat="40.396349" lon="-4.083357">
        <ele>546.87</ele>
        <time>2020-11-23T09:43:38Z</time>
      </trkpt>
      <trkpt lat="40.396075" lon="-4.083345">
        <ele>547.61</ele>
        <time>2020-11-23T09:43:44Z</time>
      </trkpt>
      <trkpt lat="40.395936" lon="-4.083343">
        <ele>548.08</ele>
        <time>2020-11-23T09:43:47Z</time>
      </trkpt>
      <trkpt lat="40.395811" lon="-4.083360">
        <ele>548.22</ele>
        <time>2020-11-23T09:43:50Z</time>
      </trkpt>
      <trkpt lat="40.395563" lon="-4.083458">
        <ele>549.00</ele>
        <time>2020-11-23T09:43:56Z</time>
      </trkpt>
      <trkpt lat="40.395498" lon="-4.083481">
        <ele>549.01</ele>
        <time>2020-11-23T09:43:58Z</time>
      </trkpt>
      <trkpt lat="40.395381" lon="-4.083521">
        <ele>549.21</ele>
        <time>2020-11-23T09:44:02Z</time>
      </trkpt>
      <trkpt lat="40.395215" lon="-4.083592">
        <ele>550.82</ele>
        <time>2020-11-23T09:44:07Z</time>
      </trkpt>
      <trkpt lat="40.395144" lon="-4.083628">
        <ele>551.67</ele>
        <time>2020-11-23T09:44:09Z</time>
      </trkpt>
      <trkpt lat="40.395076" lon="-4.083663">
        <ele>552.06</ele>
        <time>2020-11-23T09:44:11Z</time>
      </trkpt>
      <trkpt lat="40.394835" lon="-4.083784">
        <ele>553.29</ele>
        <time>2020-11-23T09:44:18Z</time>
      </trkpt>
      <trkpt lat="40.394802" lon="-4.083799">
        <ele>553.87</ele>
        <time>2020-11-23T09:44:19Z</time>
      </trkpt>
      <trkpt lat="40.394699" lon="-4.083838">
        <ele>554.27</ele>
        <time>2020-11-23T09:44:22Z</time>
      </trkpt>
      <trkpt lat="40.394525" lon="-4.083911">
        <ele>555.68</ele>
        <time>2020-11-23T09:44:27Z</time>
      </trkpt>
      <trkpt lat="40.394456" lon="-4.083933">
        <ele>555.88</ele>
        <time>2020-11-23T09:44:29Z</time>
      </trkpt>
      <trkpt lat="40.394320" lon="-4.083974">
        <ele>556.84</ele>
        <time>2020-11-23T09:44:33Z</time>
      </trkpt>
      <trkpt lat="40.394223" lon="-4.083986">
        <ele>557.68</ele>
        <time>2020-11-23T09:44:36Z</time>
      </trkpt>
      <trkpt lat="40.394190" lon="-4.083989">
        <ele>557.81</ele>
        <time>2020-11-23T09:44:37Z</time>
      </trkpt>
      <trkpt lat="40.394033" lon="-4.083997">
        <ele>558.41</ele>
        <time>2020-11-23T09:44:42Z</time>
      </trkpt>
      <trkpt lat="40.393972" lon="-4.084006">
        <ele>559.07</ele>
        <time>2020-11-23T09:44:44Z</time>
      </trkpt>
      <trkpt lat="40.393790" lon="-4.084000">
        <ele>560.64</ele>
        <time>2020-11-23T09:44:50Z</time>
      </trkpt>
      <trkpt lat="40.393723" lon="-4.083984">
        <ele>561.26</ele>
        <time>2020-11-23T09:44:52Z</time>
      </trkpt>
      <trkpt lat="40.393508" lon="-4.083982">
        <ele>562.09</ele>
        <time>2020-11-23T09:44:58Z</time>
      </trkpt>
      <trkpt lat="40.393432" lon="-4.083989">
        <ele>562.49</ele>
        <time>2020-11-23T09:45:00Z</time>
      </trkpt>
      <trkpt lat="40.393245" lon="-4.084017">
        <ele>563.22</ele>
        <time>2020-11-23T09:45:05Z</time>
      </trkpt>
      <trkpt lat="40.393093" lon="-4.084052">
        <ele>563.70</ele>
        <time>2020-11-23T09:45:09Z</time>
      </trkpt>
      <trkpt lat="40.392733" lon="-4.084135">
        <ele>565.21</ele>
        <time>2020-11-23T09:45:18Z</time>
      </trkpt>
      <trkpt lat="40.392691" lon="-4.084142">
        <ele>565.23</ele>
        <time>2020-11-23T09:45:19Z</time>
      </trkpt>
      <trkpt lat="40.392530" lon="-4.084179">
        <ele>565.43</ele>
        <time>2020-11-23T09:45:23Z</time>
      </trkpt>
      <trkpt lat="40.392406" lon="-4.084202">
        <ele>565.41</ele>
        <time>2020-11-23T09:45:26Z</time>
      </trkpt>
      <trkpt lat="40.392223" lon="-4.084252">
        <ele>566.01</ele>
        <time>2020-11-23T09:45:30Z</time>
      </trkpt>
      <trkpt lat="40.392126" lon="-4.084255">
        <ele>566.07</ele>
        <time>2020-11-23T09:45:32Z</time>
      </trkpt>
      <trkpt lat="40.391973" lon="-4.084248">
        <ele>566.01</ele>
        <time>2020-11-23T09:45:35Z</time>
      </trkpt>
      <trkpt lat="40.391923" lon="-4.084252">
        <ele>566.01</ele>
        <time>2020-11-23T09:45:36Z</time>
      </trkpt>
      <trkpt lat="40.391823" lon="-4.084253">
        <ele>566.04</ele>
        <time>2020-11-23T09:45:38Z</time>
      </trkpt>
      <trkpt lat="40.391691" lon="-4.084229">
        <ele>566.06</ele>
        <time>2020-11-23T09:45:41Z</time>
      </trkpt>
      <trkpt lat="40.391607" lon="-4.084210">
        <ele>565.87</ele>
        <time>2020-11-23T09:45:43Z</time>
      </trkpt>
      <trkpt lat="40.391439" lon="-4.084188">
        <ele>565.88</ele>
        <time>2020-11-23T09:45:47Z</time>
      </trkpt>
      <trkpt lat="40.391226" lon="-4.084170">
        <ele>565.85</ele>
        <time>2020-11-23T09:45:52Z</time>
      </trkpt>
      <trkpt lat="40.391102" lon="-4.084158">
        <ele>566.44</ele>
        <time>2020-11-23T09:45:55Z</time>
      </trkpt>
      <trkpt lat="40.390908" lon="-4.084142">
        <ele>567.42</ele>
        <time>2020-11-23T09:46:00Z</time>
      </trkpt>
      <trkpt lat="40.390870" lon="-4.084140">
        <ele>567.62</ele>
        <time>2020-11-23T09:46:01Z</time>
      </trkpt>
      <trkpt lat="40.390683" lon="-4.084132">
        <ele>568.41</ele>
        <time>2020-11-23T09:46:06Z</time>
      </trkpt>
      <trkpt lat="40.390575" lon="-4.084125">
        <ele>569.25</ele>
        <time>2020-11-23T09:46:09Z</time>
      </trkpt>
      <trkpt lat="40.390435" lon="-4.084127">
        <ele>570.28</ele>
        <time>2020-11-23T09:46:13Z</time>
      </trkpt>
      <trkpt lat="40.390328" lon="-4.084125">
        <ele>570.68</ele>
        <time>2020-11-23T09:46:16Z</time>
      </trkpt>
      <trkpt lat="40.390179" lon="-4.084113">
        <ele>571.63</ele>
        <time>2020-11-23T09:46:20Z</time>
      </trkpt>
      <trkpt lat="40.389927" lon="-4.084075">
        <ele>572.82</ele>
        <time>2020-11-23T09:46:27Z</time>
      </trkpt>
      <trkpt lat="40.389856" lon="-4.084060">
        <ele>573.50</ele>
        <time>2020-11-23T09:46:29Z</time>
      </trkpt>
      <trkpt lat="40.389595" lon="-4.083959">
        <ele>574.24</ele>
        <time>2020-11-23T09:46:36Z</time>
      </trkpt>
      <trkpt lat="40.389369" lon="-4.083837">
        <ele>575.07</ele>
        <time>2020-11-23T09:46:42Z</time>
      </trkpt>
      <trkpt lat="40.389211" lon="-4.083755">
        <ele>575.61</ele>
        <time>2020-11-23T09:46:46Z</time>
      </trkpt>
      <trkpt lat="40.389049" lon="-4.083705">
        <ele>576.24</ele>
        <time>2020-11-23T09:46:50Z</time>
      </trkpt>
      <trkpt lat="40.388806" lon="-4.083638">
        <ele>576.81</ele>
        <time>2020-11-23T09:46:56Z</time>
      </trkpt>
      <trkpt lat="40.388643" lon="-4.083578">
        <ele>577.41</ele>
        <time>2020-11-23T09:47:00Z</time>
      </trkpt>
      <trkpt lat="40.388309" lon="-4.083469">
        <ele>578.50</ele>
        <time>2020-11-23T09:47:08Z</time>
      </trkpt>
      <trkpt lat="40.388267" lon="-4.083455">
        <ele>578.48</ele>
        <time>2020-11-23T09:47:09Z</time>
      </trkpt>
      <trkpt lat="40.388101" lon="-4.083421">
        <ele>579.02</ele>
        <time>2020-11-23T09:47:13Z</time>
      </trkpt>
      <trkpt lat="40.388043" lon="-4.083455">
        <ele>579.44</ele>
        <time>2020-11-23T09:47:15Z</time>
      </trkpt>
      <trkpt lat="40.388018" lon="-4.083577">
        <ele>579.82</ele>
        <time>2020-11-23T09:47:19Z</time>
      </trkpt>
      <trkpt lat="40.388081" lon="-4.083721">
        <ele>580.82</ele>
        <time>2020-11-23T09:47:25Z</time>
      </trkpt>
      <trkpt lat="40.388248" lon="-4.083991">
        <ele>581.07</ele>
        <time>2020-11-23T09:47:35Z</time>
      </trkpt>
      <trkpt lat="40.388381" lon="-4.084206">
        <ele>580.66</ele>
        <time>2020-11-23T09:47:42Z</time>
      </trkpt>
      <trkpt lat="40.388535" lon="-4.084427">
        <ele>580.27</ele>
        <time>2020-11-23T09:47:49Z</time>
      </trkpt>
      <trkpt lat="40.388707" lon="-4.084698">
        <ele>580.01</ele>
        <time>2020-11-23T09:47:56Z</time>
      </trkpt>
      <trkpt lat="40.388932" lon="-4.085025">
        <ele>579.21</ele>
        <time>2020-11-23T09:48:04Z</time>
      </trkpt>
      <trkpt lat="40.389197" lon="-4.085415">
        <ele>578.81</ele>
        <time>2020-11-23T09:48:13Z</time>
      </trkpt>
      <trkpt lat="40.389315" lon="-4.085602">
        <ele>578.69</ele>
        <time>2020-11-23T09:48:17Z</time>
      </trkpt>
      <trkpt lat="40.389472" lon="-4.085858">
        <ele>578.26</ele>
        <time>2020-11-23T09:48:22Z</time>
      </trkpt>
      <trkpt lat="40.389535" lon="-4.085969">
        <ele>578.06</ele>
        <time>2020-11-23T09:48:24Z</time>
      </trkpt>
      <trkpt lat="40.389595" lon="-4.086087">
        <ele>577.46</ele>
        <time>2020-11-23T09:48:26Z</time>
      </trkpt>
      <trkpt lat="40.389646" lon="-4.086212">
        <ele>577.05</ele>
        <time>2020-11-23T09:48:28Z</time>
      </trkpt>
      <trkpt lat="40.389669" lon="-4.086281">
        <ele>576.87</ele>
        <time>2020-11-23T09:48:29Z</time>
      </trkpt>
      <trkpt lat="40.389749" lon="-4.086520">
        <ele>576.44</ele>
        <time>2020-11-23T09:48:32Z</time>
      </trkpt>
      <trkpt lat="40.389785" lon="-4.086597">
        <ele>576.22</ele>
        <time>2020-11-23T09:48:33Z</time>
      </trkpt>
      <trkpt lat="40.389826" lon="-4.086673">
        <ele>576.05</ele>
        <time>2020-11-23T09:48:34Z</time>
      </trkpt>
      <trkpt lat="40.390105" lon="-4.087082">
        <ele>573.63</ele>
        <time>2020-11-23T09:48:40Z</time>
      </trkpt>
      <trkpt lat="40.390249" lon="-4.087264">
        <ele>572.62</ele>
        <time>2020-11-23T09:48:43Z</time>
      </trkpt>
      <trkpt lat="40.390361" lon="-4.087346">
        <ele>572.01</ele>
        <time>2020-11-23T09:48:45Z</time>
      </trkpt>
      <trkpt lat="40.390420" lon="-4.087379">
        <ele>572.09</ele>
        <time>2020-11-23T09:48:46Z</time>
      </trkpt>
      <trkpt lat="40.390722" lon="-4.087527">
        <ele>571.07</ele>
        <time>2020-11-23T09:48:51Z</time>
      </trkpt>
      <trkpt lat="40.390961" lon="-4.087642">
        <ele>570.66</ele>
        <time>2020-11-23T09:48:55Z</time>
      </trkpt>
      <trkpt lat="40.391142" lon="-4.087731">
        <ele>569.84</ele>
        <time>2020-11-23T09:48:58Z</time>
      </trkpt>
      <trkpt lat="40.391262" lon="-4.087788">
        <ele>569.88</ele>
        <time>2020-11-23T09:49:00Z</time>
      </trkpt>
      <trkpt lat="40.391639" lon="-4.087979">
        <ele>569.26</ele>
        <time>2020-11-23T09:49:06Z</time>
      </trkpt>
      <trkpt lat="40.391761" lon="-4.088053">
        <ele>568.62</ele>
        <time>2020-11-23T09:49:08Z</time>
      </trkpt>
      <trkpt lat="40.391867" lon="-4.088141">
        <ele>568.08</ele>
        <time>2020-11-23T09:49:10Z</time>
      </trkpt>
      <trkpt lat="40.391920" lon="-4.088191">
        <ele>568.04</ele>
        <time>2020-11-23T09:49:11Z</time>
      </trkpt>
      <trkpt lat="40.391971" lon="-4.088240">
        <ele>567.65</ele>
        <time>2020-11-23T09:49:12Z</time>
      </trkpt>
      <trkpt lat="40.392021" lon="-4.088289">
        <ele>567.61</ele>
        <time>2020-11-23T09:49:13Z</time>
      </trkpt>
      <trkpt lat="40.392300" lon="-4.088530">
        <ele>567.01</ele>
        <time>2020-11-23T09:49:19Z</time>
      </trkpt>
      <trkpt lat="40.392345" lon="-4.088574">
        <ele>567.09</ele>
        <time>2020-11-23T09:49:20Z</time>
      </trkpt>
      <trkpt lat="40.392387" lon="-4.088618">
        <ele>566.86</ele>
        <time>2020-11-23T09:49:21Z</time>
      </trkpt>
      <trkpt lat="40.392556" lon="-4.088797">
        <ele>566.88</ele>
        <time>2020-11-23T09:49:25Z</time>
      </trkpt>
      <trkpt lat="40.392835" lon="-4.089062">
        <ele>566.81</ele>
        <time>2020-11-23T09:49:31Z</time>
      </trkpt>
      <trkpt lat="40.392889" lon="-4.089102">
        <ele>566.66</ele>
        <time>2020-11-23T09:49:32Z</time>
      </trkpt>
      <trkpt lat="40.392948" lon="-4.089144">
        <ele>566.62</ele>
        <time>2020-11-23T09:49:33Z</time>
      </trkpt>
      <trkpt lat="40.393214" lon="-4.089328">
        <ele>566.68</ele>
        <time>2020-11-23T09:49:37Z</time>
      </trkpt>
      <trkpt lat="40.393280" lon="-4.089373">
        <ele>566.22</ele>
        <time>2020-11-23T09:49:38Z</time>
      </trkpt>
      <trkpt lat="40.393574" lon="-4.089614">
        <ele>563.62</ele>
        <time>2020-11-23T09:49:43Z</time>
      </trkpt>
      <trkpt lat="40.393849" lon="-4.089778">
        <ele>562.46</ele>
        <time>2020-11-23T09:49:48Z</time>
      </trkpt>
      <trkpt lat="40.394032" lon="-4.089842">
        <ele>562.21</ele>
        <time>2020-11-23T09:49:51Z</time>
      </trkpt>
      <trkpt lat="40.394266" lon="-4.089964">
        <ele>561.81</ele>
        <time>2020-11-23T09:49:55Z</time>
      </trkpt>
      <trkpt lat="40.394442" lon="-4.090082">
        <ele>561.47</ele>
        <time>2020-11-23T09:49:58Z</time>
      </trkpt>
      <trkpt lat="40.394495" lon="-4.090131">
        <ele>561.62</ele>
        <time>2020-11-23T09:49:59Z</time>
      </trkpt>
      <trkpt lat="40.394583" lon="-4.090254">
        <ele>561.04</ele>
        <time>2020-11-23T09:50:01Z</time>
      </trkpt>
      <trkpt lat="40.394655" lon="-4.090396">
        <ele>560.89</ele>
        <time>2020-11-23T09:50:03Z</time>
      </trkpt>
      <trkpt lat="40.394833" lon="-4.090730">
        <ele>559.83</ele>
        <time>2020-11-23T09:50:08Z</time>
      </trkpt>
      <trkpt lat="40.394911" lon="-4.090839">
        <ele>559.70</ele>
        <time>2020-11-23T09:50:10Z</time>
      </trkpt>
      <trkpt lat="40.395027" lon="-4.090986">
        <ele>559.08</ele>
        <time>2020-11-23T09:50:13Z</time>
      </trkpt>
      <trkpt lat="40.395067" lon="-4.091038">
        <ele>559.02</ele>
        <time>2020-11-23T09:50:14Z</time>
      </trkpt>
      <trkpt lat="40.395109" lon="-4.091094">
        <ele>559.05</ele>
        <time>2020-11-23T09:50:15Z</time>
      </trkpt>
      <trkpt lat="40.395186" lon="-4.091211">
        <ele>558.86</ele>
        <time>2020-11-23T09:50:17Z</time>
      </trkpt>
      <trkpt lat="40.395262" lon="-4.091330">
        <ele>558.61</ele>
        <time>2020-11-23T09:50:19Z</time>
      </trkpt>
      <trkpt lat="40.395377" lon="-4.091503">
        <ele>558.41</ele>
        <time>2020-11-23T09:50:22Z</time>
      </trkpt>
      <trkpt lat="40.395526" lon="-4.091728">
        <ele>558.25</ele>
        <time>2020-11-23T09:50:26Z</time>
      </trkpt>
      <trkpt lat="40.395692" lon="-4.092126">
        <ele>558.23</ele>
        <time>2020-11-23T09:50:32Z</time>
      </trkpt>
      <trkpt lat="40.395718" lon="-4.092191">
        <ele>558.08</ele>
        <time>2020-11-23T09:50:33Z</time>
      </trkpt>
      <trkpt lat="40.395796" lon="-4.092388">
        <ele>558.29</ele>
        <time>2020-11-23T09:50:36Z</time>
      </trkpt>
      <trkpt lat="40.395952" lon="-4.092711">
        <ele>557.88</ele>
        <time>2020-11-23T09:50:41Z</time>
      </trkpt>
      <trkpt lat="40.396143" lon="-4.093107">
        <ele>557.88</ele>
        <time>2020-11-23T09:50:47Z</time>
      </trkpt>
      <trkpt lat="40.396203" lon="-4.093235">
        <ele>557.64</ele>
        <time>2020-11-23T09:50:49Z</time>
      </trkpt>
      <trkpt lat="40.396365" lon="-4.093580">
        <ele>557.44</ele>
        <time>2020-11-23T09:50:54Z</time>
      </trkpt>
      <trkpt lat="40.396438" lon="-4.093732">
        <ele>557.48</ele>
        <time>2020-11-23T09:50:56Z</time>
      </trkpt>
      <trkpt lat="40.396666" lon="-4.094229">
        <ele>556.69</ele>
        <time>2020-11-23T09:51:03Z</time>
      </trkpt>
      <trkpt lat="40.396730" lon="-4.094375">
        <ele>556.02</ele>
        <time>2020-11-23T09:51:05Z</time>
      </trkpt>
      <trkpt lat="40.396834" lon="-4.094602">
        <ele>555.41</ele>
        <time>2020-11-23T09:51:08Z</time>
      </trkpt>
      <trkpt lat="40.396905" lon="-4.094757">
        <ele>555.22</ele>
        <time>2020-11-23T09:51:10Z</time>
      </trkpt>
      <trkpt lat="40.396975" lon="-4.094911">
        <ele>554.89</ele>
        <time>2020-11-23T09:51:12Z</time>
      </trkpt>
      <trkpt lat="40.397012" lon="-4.094987">
        <ele>554.84</ele>
        <time>2020-11-23T09:51:13Z</time>
      </trkpt>
      <trkpt lat="40.397119" lon="-4.095216">
        <ele>554.43</ele>
        <time>2020-11-23T09:51:16Z</time>
      </trkpt>
      <trkpt lat="40.397156" lon="-4.095293">
        <ele>554.26</ele>
        <time>2020-11-23T09:51:17Z</time>
      </trkpt>
      <trkpt lat="40.397231" lon="-4.095445">
        <ele>553.86</ele>
        <time>2020-11-23T09:51:19Z</time>
      </trkpt>
      <trkpt lat="40.397269" lon="-4.095519">
        <ele>553.82</ele>
        <time>2020-11-23T09:51:20Z</time>
      </trkpt>
      <trkpt lat="40.397308" lon="-4.095595">
        <ele>553.68</ele>
        <time>2020-11-23T09:51:21Z</time>
      </trkpt>
      <trkpt lat="40.397428" lon="-4.095825">
        <ele>553.09</ele>
        <time>2020-11-23T09:51:24Z</time>
      </trkpt>
      <trkpt lat="40.397545" lon="-4.096055">
        <ele>552.24</ele>
        <time>2020-11-23T09:51:27Z</time>
      </trkpt>
      <trkpt lat="40.397762" lon="-4.096509">
        <ele>549.23</ele>
        <time>2020-11-23T09:51:33Z</time>
      </trkpt>
      <trkpt lat="40.397795" lon="-4.096586">
        <ele>549.01</ele>
        <time>2020-11-23T09:51:34Z</time>
      </trkpt>
      <trkpt lat="40.397826" lon="-4.096665">
        <ele>549.05</ele>
        <time>2020-11-23T09:51:35Z</time>
      </trkpt>
      <trkpt lat="40.397887" lon="-4.096823">
        <ele>548.48</ele>
        <time>2020-11-23T09:51:37Z</time>
      </trkpt>
      <trkpt lat="40.397984" lon="-4.097160">
        <ele>548.26</ele>
        <time>2020-11-23T09:51:41Z</time>
      </trkpt>
      <trkpt lat="40.398036" lon="-4.097334">
        <ele>548.05</ele>
        <time>2020-11-23T09:51:43Z</time>
      </trkpt>
      <trkpt lat="40.398140" lon="-4.097683">
        <ele>546.64</ele>
        <time>2020-11-23T09:51:47Z</time>
      </trkpt>
      <trkpt lat="40.398160" lon="-4.097771">
        <ele>546.42</ele>
        <time>2020-11-23T09:51:48Z</time>
      </trkpt>
      <trkpt lat="40.398217" lon="-4.098052">
        <ele>545.87</ele>
        <time>2020-11-23T09:51:51Z</time>
      </trkpt>
      <trkpt lat="40.398261" lon="-4.098244">
        <ele>545.65</ele>
        <time>2020-11-23T09:51:53Z</time>
      </trkpt>
      <trkpt lat="40.398355" lon="-4.098605">
        <ele>544.02</ele>
        <time>2020-11-23T09:51:57Z</time>
      </trkpt>
      <trkpt lat="40.398378" lon="-4.098691">
        <ele>543.50</ele>
        <time>2020-11-23T09:51:58Z</time>
      </trkpt>
      <trkpt lat="40.398428" lon="-4.098859">
        <ele>542.82</ele>
        <time>2020-11-23T09:52:00Z</time>
      </trkpt>
      <trkpt lat="40.398452" lon="-4.098945">
        <ele>542.61</ele>
        <time>2020-11-23T09:52:01Z</time>
      </trkpt>
      <trkpt lat="40.398500" lon="-4.099123">
        <ele>542.22</ele>
        <time>2020-11-23T09:52:03Z</time>
      </trkpt>
      <trkpt lat="40.398524" lon="-4.099210">
        <ele>541.84</ele>
        <time>2020-11-23T09:52:04Z</time>
      </trkpt>
      <trkpt lat="40.398656" lon="-4.099729">
        <ele>541.24</ele>
        <time>2020-11-23T09:52:10Z</time>
      </trkpt>
      <trkpt lat="40.398704" lon="-4.099900">
        <ele>540.81</ele>
        <time>2020-11-23T09:52:12Z</time>
      </trkpt>
      <trkpt lat="40.398727" lon="-4.099985">
        <ele>540.63</ele>
        <time>2020-11-23T09:52:13Z</time>
      </trkpt>
      <trkpt lat="40.398865" lon="-4.100487">
        <ele>539.27</ele>
        <time>2020-11-23T09:52:19Z</time>
      </trkpt>
      <trkpt lat="40.398885" lon="-4.100570">
        <ele>539.26</ele>
        <time>2020-11-23T09:52:20Z</time>
      </trkpt>
      <trkpt lat="40.398973" lon="-4.100893">
        <ele>538.68</ele>
        <time>2020-11-23T09:52:24Z</time>
      </trkpt>
      <trkpt lat="40.399036" lon="-4.101139">
        <ele>538.27</ele>
        <time>2020-11-23T09:52:27Z</time>
      </trkpt>
      <trkpt lat="40.399084" lon="-4.101309">
        <ele>538.09</ele>
        <time>2020-11-23T09:52:29Z</time>
      </trkpt>
      <trkpt lat="40.399108" lon="-4.101397">
        <ele>537.81</ele>
        <time>2020-11-23T09:52:30Z</time>
      </trkpt>
      <trkpt lat="40.399191" lon="-4.101751">
        <ele>537.21</ele>
        <time>2020-11-23T09:52:34Z</time>
      </trkpt>
      <trkpt lat="40.399199" lon="-4.101839">
        <ele>536.84</ele>
        <time>2020-11-23T09:52:35Z</time>
      </trkpt>
      <trkpt lat="40.399197" lon="-4.101925">
        <ele>536.66</ele>
        <time>2020-11-23T09:52:36Z</time>
      </trkpt>
      <trkpt lat="40.399193" lon="-4.102013">
        <ele>536.06</ele>
        <time>2020-11-23T09:52:37Z</time>
      </trkpt>
      <trkpt lat="40.399186" lon="-4.102105">
        <ele>535.89</ele>
        <time>2020-11-23T09:52:38Z</time>
      </trkpt>
      <trkpt lat="40.399163" lon="-4.102668">
        <ele>534.67</ele>
        <time>2020-11-23T09:52:44Z</time>
      </trkpt>
      <trkpt lat="40.399160" lon="-4.102760">
        <ele>534.47</ele>
        <time>2020-11-23T09:52:45Z</time>
      </trkpt>
      <trkpt lat="40.399144" lon="-4.103376">
        <ele>532.67</ele>
        <time>2020-11-23T09:52:52Z</time>
      </trkpt>
      <trkpt lat="40.399139" lon="-4.103551">
        <ele>532.29</ele>
        <time>2020-11-23T09:52:54Z</time>
      </trkpt>
      <trkpt lat="40.399104" lon="-4.104092">
        <ele>531.65</ele>
        <time>2020-11-23T09:53:00Z</time>
      </trkpt>
      <trkpt lat="40.399097" lon="-4.104184">
        <ele>531.61</ele>
        <time>2020-11-23T09:53:01Z</time>
      </trkpt>
      <trkpt lat="40.399063" lon="-4.104470">
        <ele>530.62</ele>
        <time>2020-11-23T09:53:04Z</time>
      </trkpt>
      <trkpt lat="40.399017" lon="-4.104677">
        <ele>529.81</ele>
        <time>2020-11-23T09:53:06Z</time>
      </trkpt>
      <trkpt lat="40.398987" lon="-4.104789">
        <ele>529.65</ele>
        <time>2020-11-23T09:53:07Z</time>
      </trkpt>
      <trkpt lat="40.398895" lon="-4.105157">
        <ele>528.64</ele>
        <time>2020-11-23T09:53:10Z</time>
      </trkpt>
      <trkpt lat="40.398864" lon="-4.105277">
        <ele>528.02</ele>
        <time>2020-11-23T09:53:11Z</time>
      </trkpt>
      <trkpt lat="40.398718" lon="-4.105963">
        <ele>522.23</ele>
        <time>2020-11-23T09:53:17Z</time>
      </trkpt>
      <trkpt lat="40.398698" lon="-4.106072">
        <ele>521.23</ele>
        <time>2020-11-23T09:53:18Z</time>
      </trkpt>
      <trkpt lat="40.398679" lon="-4.106176">
        <ele>520.84</ele>
        <time>2020-11-23T09:53:19Z</time>
      </trkpt>
      <trkpt lat="40.398666" lon="-4.106276">
        <ele>519.68</ele>
        <time>2020-11-23T09:53:20Z</time>
      </trkpt>
      <trkpt lat="40.398636" lon="-4.106472">
        <ele>519.08</ele>
        <time>2020-11-23T09:53:22Z</time>
      </trkpt>
      <trkpt lat="40.398608" lon="-4.106565">
        <ele>518.85</ele>
        <time>2020-11-23T09:53:23Z</time>
      </trkpt>
      <trkpt lat="40.398566" lon="-4.106645">
        <ele>518.40</ele>
        <time>2020-11-23T09:53:24Z</time>
      </trkpt>
      <trkpt lat="40.398465" lon="-4.106783">
        <ele>518.41</ele>
        <time>2020-11-23T09:53:26Z</time>
      </trkpt>
      <trkpt lat="40.398195" lon="-4.107103">
        <ele>517.01</ele>
        <time>2020-11-23T09:53:31Z</time>
      </trkpt>
      <trkpt lat="40.398149" lon="-4.107169">
        <ele>517.23</ele>
        <time>2020-11-23T09:53:32Z</time>
      </trkpt>
      <trkpt lat="40.397827" lon="-4.107624">
        <ele>516.85</ele>
        <time>2020-11-23T09:53:39Z</time>
      </trkpt>
      <trkpt lat="40.397723" lon="-4.107731">
        <ele>516.66</ele>
        <time>2020-11-23T09:53:41Z</time>
      </trkpt>
      <trkpt lat="40.397610" lon="-4.107820">
        <ele>516.47</ele>
        <time>2020-11-23T09:53:43Z</time>
      </trkpt>
      <trkpt lat="40.397439" lon="-4.107926">
        <ele>516.42</ele>
        <time>2020-11-23T09:53:46Z</time>
      </trkpt>
      <trkpt lat="40.397315" lon="-4.107976">
        <ele>516.47</ele>
        <time>2020-11-23T09:53:48Z</time>
      </trkpt>
      <trkpt lat="40.397111" lon="-4.108055">
        <ele>516.44</ele>
        <time>2020-11-23T09:53:51Z</time>
      </trkpt>
      <trkpt lat="40.396975" lon="-4.108107">
        <ele>516.29</ele>
        <time>2020-11-23T09:53:53Z</time>
      </trkpt>
      <trkpt lat="40.396805" lon="-4.108229">
        <ele>515.44</ele>
        <time>2020-11-23T09:53:56Z</time>
      </trkpt>
      <trkpt lat="40.396712" lon="-4.108335">
        <ele>514.87</ele>
        <time>2020-11-23T09:53:58Z</time>
      </trkpt>
      <trkpt lat="40.396634" lon="-4.108471">
        <ele>514.62</ele>
        <time>2020-11-23T09:54:00Z</time>
      </trkpt>
      <trkpt lat="40.396600" lon="-4.108547">
        <ele>514.41</ele>
        <time>2020-11-23T09:54:01Z</time>
      </trkpt>
      <trkpt lat="40.396508" lon="-4.108775">
        <ele>514.44</ele>
        <time>2020-11-23T09:54:04Z</time>
      </trkpt>
      <trkpt lat="40.396435" lon="-4.108941">
        <ele>514.02</ele>
        <time>2020-11-23T09:54:06Z</time>
      </trkpt>
      <trkpt lat="40.396289" lon="-4.109267">
        <ele>513.82</ele>
        <time>2020-11-23T09:54:10Z</time>
      </trkpt>
      <trkpt lat="40.396102" lon="-4.109661">
        <ele>513.43</ele>
        <time>2020-11-23T09:54:15Z</time>
      </trkpt>
      <trkpt lat="40.396055" lon="-4.109823">
        <ele>513.24</ele>
        <time>2020-11-23T09:54:17Z</time>
      </trkpt>
      <trkpt lat="40.396047" lon="-4.109997">
        <ele>512.46</ele>
        <time>2020-11-23T09:54:19Z</time>
      </trkpt>
      <trkpt lat="40.396053" lon="-4.110081">
        <ele>512.41</ele>
        <time>2020-11-23T09:54:20Z</time>
      </trkpt>
      <trkpt lat="40.396064" lon="-4.110174">
        <ele>512.29</ele>
        <time>2020-11-23T09:54:21Z</time>
      </trkpt>
      <trkpt lat="40.396074" lon="-4.110263">
        <ele>511.87</ele>
        <time>2020-11-23T09:54:22Z</time>
      </trkpt>
      <trkpt lat="40.396085" lon="-4.110353">
        <ele>511.87</ele>
        <time>2020-11-23T09:54:23Z</time>
      </trkpt>
      <trkpt lat="40.396096" lon="-4.110441">
        <ele>511.61</ele>
        <time>2020-11-23T09:54:24Z</time>
      </trkpt>
      <trkpt lat="40.396111" lon="-4.110522">
        <ele>511.61</ele>
        <time>2020-11-23T09:54:25Z</time>
      </trkpt>
      <trkpt lat="40.396129" lon="-4.110600">
        <ele>511.67</ele>
        <time>2020-11-23T09:54:26Z</time>
      </trkpt>
      <trkpt lat="40.396179" lon="-4.110787">
        <ele>511.28</ele>
        <time>2020-11-23T09:54:29Z</time>
      </trkpt>
      <trkpt lat="40.396210" lon="-4.110947">
        <ele>510.90</ele>
        <time>2020-11-23T09:54:33Z</time>
      </trkpt>
      <trkpt lat="40.396161" lon="-4.111120">
        <ele>510.87</ele>
        <time>2020-11-23T09:54:39Z</time>
      </trkpt>
      <trkpt lat="40.396155" lon="-4.111264">
        <ele>510.85</ele>
        <time>2020-11-23T09:54:45Z</time>
      </trkpt>
      <trkpt lat="40.396150" lon="-4.111286">
        <ele>511.26</ele>
        <time>2020-11-23T09:54:49Z</time>
      </trkpt>
      <trkpt lat="40.396122" lon="-4.111440">
        <ele>511.45</ele>
        <time>2020-11-23T09:55:38Z</time>
      </trkpt>
      <trkpt lat="40.396124" lon="-4.111481">
        <ele>511.03</ele>
        <time>2020-11-23T09:55:39Z</time>
      </trkpt>
      <trkpt lat="40.396141" lon="-4.111672">
        <ele>511.23</ele>
        <time>2020-11-23T09:55:43Z</time>
      </trkpt>
      <trkpt lat="40.396147" lon="-4.111804">
        <ele>511.42</ele>
        <time>2020-11-23T09:55:46Z</time>
      </trkpt>
      <trkpt lat="40.396146" lon="-4.111929">
        <ele>511.42</ele>
        <time>2020-11-23T09:55:49Z</time>
      </trkpt>
      <trkpt lat="40.396137" lon="-4.112007">
        <ele>511.21</ele>
        <time>2020-11-23T09:55:51Z</time>
      </trkpt>
      <trkpt lat="40.396120" lon="-4.112074">
        <ele>511.44</ele>
        <time>2020-11-23T09:55:53Z</time>
      </trkpt>
      <trkpt lat="40.396024" lon="-4.112244">
        <ele>513.43</ele>
        <time>2020-11-23T09:55:59Z</time>
      </trkpt>
      <trkpt lat="40.395833" lon="-4.112477">
        <ele>515.87</ele>
        <time>2020-11-23T09:56:07Z</time>
      </trkpt>
      <trkpt lat="40.395705" lon="-4.112735">
        <ele>515.88</ele>
        <time>2020-11-23T09:56:13Z</time>
      </trkpt>
      <trkpt lat="40.395687" lon="-4.112782">
        <ele>516.09</ele>
        <time>2020-11-23T09:56:14Z</time>
      </trkpt>
      <trkpt lat="40.395671" lon="-4.112829">
        <ele>515.85</ele>
        <time>2020-11-23T09:56:15Z</time>
      </trkpt>
      <trkpt lat="40.395651" lon="-4.112874">
        <ele>516.02</ele>
        <time>2020-11-23T09:56:16Z</time>
      </trkpt>
      <trkpt lat="40.395542" lon="-4.113050">
        <ele>516.08</ele>
        <time>2020-11-23T09:56:20Z</time>
      </trkpt>
      <trkpt lat="40.395478" lon="-4.113151">
        <ele>516.05</ele>
        <time>2020-11-23T09:56:22Z</time>
      </trkpt>
      <trkpt lat="40.395412" lon="-4.113284">
        <ele>515.86</ele>
        <time>2020-11-23T09:56:24Z</time>
      </trkpt>
      <trkpt lat="40.395377" lon="-4.113356">
        <ele>515.82</ele>
        <time>2020-11-23T09:56:25Z</time>
      </trkpt>
      <trkpt lat="40.395347" lon="-4.113433">
        <ele>515.81</ele>
        <time>2020-11-23T09:56:26Z</time>
      </trkpt>
      <trkpt lat="40.395311" lon="-4.113592">
        <ele>515.69</ele>
        <time>2020-11-23T09:56:28Z</time>
      </trkpt>
      <trkpt lat="40.395313" lon="-4.113675">
        <ele>515.63</ele>
        <time>2020-11-23T09:56:29Z</time>
      </trkpt>
      <trkpt lat="40.395319" lon="-4.113750">
        <ele>515.48</ele>
        <time>2020-11-23T09:56:30Z</time>
      </trkpt>
      <trkpt lat="40.395364" lon="-4.113956">
        <ele>514.46</ele>
        <time>2020-11-23T09:56:33Z</time>
      </trkpt>
      <trkpt lat="40.395488" lon="-4.114197">
        <ele>514.08</ele>
        <time>2020-11-23T09:56:38Z</time>
      </trkpt>
      <trkpt lat="40.395583" lon="-4.114285">
        <ele>514.03</ele>
        <time>2020-11-23T09:56:42Z</time>
      </trkpt>
      <trkpt lat="40.395570" lon="-4.114287">
        <ele>514.22</ele>
        <time>2020-11-23T09:56:45Z</time>
      </trkpt>
      <trkpt lat="40.395561" lon="-4.114276">
        <ele>514.44</ele>
        <time>2020-11-23T09:56:46Z</time>
      </trkpt>
      <trkpt lat="40.395522" lon="-4.114217">
        <ele>514.67</ele>
        <time>2020-11-23T09:56:49Z</time>
      </trkpt>
      <trkpt lat="40.395503" lon="-4.114194">
        <ele>514.63</ele>
        <time>2020-11-23T09:56:50Z</time>
      </trkpt>
      <trkpt lat="40.395483" lon="-4.114171">
        <ele>514.62</ele>
        <time>2020-11-23T09:56:51Z</time>
      </trkpt>
      <trkpt lat="40.395466" lon="-4.114147">
        <ele>514.81</ele>
        <time>2020-11-23T09:56:52Z</time>
      </trkpt>
      <trkpt lat="40.395382" lon="-4.114095">
        <ele>514.85</ele>
        <time>2020-11-23T09:56:55Z</time>
      </trkpt>
      <trkpt lat="40.395350" lon="-4.114104">
        <ele>514.62</ele>
        <time>2020-11-23T09:56:56Z</time>
      </trkpt>
      <trkpt lat="40.395295" lon="-4.114150">
        <ele>514.67</ele>
        <time>2020-11-23T09:56:58Z</time>
      </trkpt>
      <trkpt lat="40.395261" lon="-4.114223">
        <ele>514.64</ele>
        <time>2020-11-23T09:57:00Z</time>
      </trkpt>
      <trkpt lat="40.395241" lon="-4.114348">
        <ele>514.67</ele>
        <time>2020-11-23T09:57:03Z</time>
      </trkpt>
      <trkpt lat="40.395229" lon="-4.114425">
        <ele>515.03</ele>
        <time>2020-11-23T09:57:05Z</time>
      </trkpt>
      <trkpt lat="40.395217" lon="-4.114500">
        <ele>515.30</ele>
        <time>2020-11-23T09:57:07Z</time>
      </trkpt>
      <trkpt lat="40.395207" lon="-4.114673">
        <ele>516.04</ele>
        <time>2020-11-23T09:57:12Z</time>
      </trkpt>
      <trkpt lat="40.395192" lon="-4.114823">
        <ele>517.48</ele>
        <time>2020-11-23T09:57:16Z</time>
      </trkpt>
      <trkpt lat="40.395155" lon="-4.115025">
        <ele>518.21</ele>
        <time>2020-11-23T09:57:21Z</time>
      </trkpt>
      <trkpt lat="40.395134" lon="-4.115139">
        <ele>518.42</ele>
        <time>2020-11-23T09:57:24Z</time>
      </trkpt>
      <trkpt lat="40.395114" lon="-4.115307">
        <ele>519.21</ele>
        <time>2020-11-23T09:57:28Z</time>
      </trkpt>
      <trkpt lat="40.395091" lon="-4.115390">
        <ele>519.49</ele>
        <time>2020-11-23T09:57:30Z</time>
      </trkpt>
      <trkpt lat="40.395072" lon="-4.115498">
        <ele>520.30</ele>
        <time>2020-11-23T09:57:33Z</time>
      </trkpt>
      <trkpt lat="40.395060" lon="-4.115567">
        <ele>520.65</ele>
        <time>2020-11-23T09:57:35Z</time>
      </trkpt>
      <trkpt lat="40.395038" lon="-4.115642">
        <ele>521.22</ele>
        <time>2020-11-23T09:57:37Z</time>
      </trkpt>
      <trkpt lat="40.395016" lon="-4.115730">
        <ele>522.07</ele>
        <time>2020-11-23T09:57:40Z</time>
      </trkpt>
      <trkpt lat="40.394995" lon="-4.115789">
        <ele>522.86</ele>
        <time>2020-11-23T09:57:42Z</time>
      </trkpt>
      <trkpt lat="40.394979" lon="-4.115919">
        <ele>523.70</ele>
        <time>2020-11-23T09:57:46Z</time>
      </trkpt>
      <trkpt lat="40.394984" lon="-4.115948">
        <ele>524.10</ele>
        <time>2020-11-23T09:57:47Z</time>
      </trkpt>
      <trkpt lat="40.395040" lon="-4.116062">
        <ele>525.21</ele>
        <time>2020-11-23T09:57:51Z</time>
      </trkpt>
      <trkpt lat="40.395060" lon="-4.116082">
        <ele>525.44</ele>
        <time>2020-11-23T09:57:52Z</time>
      </trkpt>
      <trkpt lat="40.395162" lon="-4.116212">
        <ele>528.21</ele>
        <time>2020-11-23T09:57:58Z</time>
      </trkpt>
      <trkpt lat="40.395272" lon="-4.116309">
        <ele>529.81</ele>
        <time>2020-11-23T09:58:03Z</time>
      </trkpt>
      <trkpt lat="40.395325" lon="-4.116346">
        <ele>530.27</ele>
        <time>2020-11-23T09:58:05Z</time>
      </trkpt>
      <trkpt lat="40.395454" lon="-4.116453">
        <ele>531.69</ele>
        <time>2020-11-23T09:58:10Z</time>
      </trkpt>
      <trkpt lat="40.395492" lon="-4.116507">
        <ele>531.88</ele>
        <time>2020-11-23T09:58:12Z</time>
      </trkpt>
      <trkpt lat="40.395567" lon="-4.116626">
        <ele>532.83</ele>
        <time>2020-11-23T09:58:16Z</time>
      </trkpt>
      <trkpt lat="40.395627" lon="-4.116746">
        <ele>533.84</ele>
        <time>2020-11-23T09:58:20Z</time>
      </trkpt>
      <trkpt lat="40.395660" lon="-4.116855">
        <ele>534.49</ele>
        <time>2020-11-23T09:58:23Z</time>
      </trkpt>
      <trkpt lat="40.395679" lon="-4.116965">
        <ele>535.07</ele>
        <time>2020-11-23T09:58:26Z</time>
      </trkpt>
      <trkpt lat="40.395685" lon="-4.117044">
        <ele>535.22</ele>
        <time>2020-11-23T09:58:28Z</time>
      </trkpt>
      <trkpt lat="40.395693" lon="-4.117196">
        <ele>535.86</ele>
        <time>2020-11-23T09:58:32Z</time>
      </trkpt>
      <trkpt lat="40.395692" lon="-4.117437">
        <ele>537.06</ele>
        <time>2020-11-23T09:58:38Z</time>
      </trkpt>
      <trkpt lat="40.395678" lon="-4.117522">
        <ele>537.41</ele>
        <time>2020-11-23T09:58:40Z</time>
      </trkpt>
      <trkpt lat="40.395611" lon="-4.117675">
        <ele>537.61</ele>
        <time>2020-11-23T09:58:44Z</time>
      </trkpt>
      <trkpt lat="40.395513" lon="-4.117849">
        <ele>538.01</ele>
        <time>2020-11-23T09:58:48Z</time>
      </trkpt>
      <trkpt lat="40.395484" lon="-4.117896">
        <ele>538.06</ele>
        <time>2020-11-23T09:58:49Z</time>
      </trkpt>
      <trkpt lat="40.395317" lon="-4.118178">
        <ele>538.06</ele>
        <time>2020-11-23T09:58:55Z</time>
      </trkpt>
      <trkpt lat="40.395294" lon="-4.118231">
        <ele>538.02</ele>
        <time>2020-11-23T09:58:56Z</time>
      </trkpt>
      <trkpt lat="40.395214" lon="-4.118498">
        <ele>537.85</ele>
        <time>2020-11-23T09:59:01Z</time>
      </trkpt>
      <trkpt lat="40.395160" lon="-4.118650">
        <ele>537.66</ele>
        <time>2020-11-23T09:59:04Z</time>
      </trkpt>
      <trkpt lat="40.395152" lon="-4.118765">
        <ele>537.50</ele>
        <time>2020-11-23T09:59:06Z</time>
      </trkpt>
      <trkpt lat="40.395157" lon="-4.118826">
        <ele>537.28</ele>
        <time>2020-11-23T09:59:07Z</time>
      </trkpt>
      <trkpt lat="40.395137" lon="-4.119190">
        <ele>536.61</ele>
        <time>2020-11-23T09:59:13Z</time>
      </trkpt>
      <trkpt lat="40.395134" lon="-4.119255">
        <ele>536.63</ele>
        <time>2020-11-23T09:59:14Z</time>
      </trkpt>
      <trkpt lat="40.395137" lon="-4.119371">
        <ele>536.40</ele>
        <time>2020-11-23T09:59:16Z</time>
      </trkpt>
      <trkpt lat="40.395143" lon="-4.119463">
        <ele>536.21</ele>
        <time>2020-11-23T09:59:18Z</time>
      </trkpt>
      <trkpt lat="40.395104" lon="-4.119610">
        <ele>536.10</ele>
        <time>2020-11-23T09:59:22Z</time>
      </trkpt>
      <trkpt lat="40.395060" lon="-4.119939">
        <ele>535.82</ele>
        <time>2020-11-23T09:59:29Z</time>
      </trkpt>
      <trkpt lat="40.395007" lon="-4.120312">
        <ele>535.81</ele>
        <time>2020-11-23T09:59:36Z</time>
      </trkpt>
      <trkpt lat="40.395010" lon="-4.120361">
        <ele>536.06</ele>
        <time>2020-11-23T09:59:37Z</time>
      </trkpt>
      <trkpt lat="40.395003" lon="-4.120566">
        <ele>536.23</ele>
        <time>2020-11-23T09:59:41Z</time>
      </trkpt>
      <trkpt lat="40.394981" lon="-4.120729">
        <ele>536.46</ele>
        <time>2020-11-23T09:59:44Z</time>
      </trkpt>
      <trkpt lat="40.394987" lon="-4.120894">
        <ele>537.05</ele>
        <time>2020-11-23T09:59:47Z</time>
      </trkpt>
      <trkpt lat="40.394994" lon="-4.121048">
        <ele>537.70</ele>
        <time>2020-11-23T09:59:50Z</time>
      </trkpt>
      <trkpt lat="40.395001" lon="-4.121258">
        <ele>538.61</ele>
        <time>2020-11-23T09:59:54Z</time>
      </trkpt>
      <trkpt lat="40.395000" lon="-4.121314">
        <ele>539.05</ele>
        <time>2020-11-23T09:59:55Z</time>
      </trkpt>
      <trkpt lat="40.394979" lon="-4.121529">
        <ele>539.61</ele>
        <time>2020-11-23T09:59:59Z</time>
      </trkpt>
      <trkpt lat="40.394943" lon="-4.121936">
        <ele>540.61</ele>
        <time>2020-11-23T10:00:07Z</time>
      </trkpt>
      <trkpt lat="40.394921" lon="-4.122108">
        <ele>541.04</ele>
        <time>2020-11-23T10:00:10Z</time>
      </trkpt>
      <trkpt lat="40.394898" lon="-4.122336">
        <ele>541.64</ele>
        <time>2020-11-23T10:00:14Z</time>
      </trkpt>
      <trkpt lat="40.394848" lon="-4.122790">
        <ele>542.25</ele>
        <time>2020-11-23T10:00:22Z</time>
      </trkpt>
      <trkpt lat="40.394807" lon="-4.123250">
        <ele>542.86</ele>
        <time>2020-11-23T10:00:30Z</time>
      </trkpt>
      <trkpt lat="40.394801" lon="-4.123311">
        <ele>542.88</ele>
        <time>2020-11-23T10:00:31Z</time>
      </trkpt>
      <trkpt lat="40.394782" lon="-4.123674">
        <ele>543.10</ele>
        <time>2020-11-23T10:00:37Z</time>
      </trkpt>
      <trkpt lat="40.394787" lon="-4.123734">
        <ele>543.08</ele>
        <time>2020-11-23T10:00:38Z</time>
      </trkpt>
      <trkpt lat="40.394799" lon="-4.123791">
        <ele>543.30</ele>
        <time>2020-11-23T10:00:39Z</time>
      </trkpt>
      <trkpt lat="40.394872" lon="-4.124038">
        <ele>543.29</ele>
        <time>2020-11-23T10:00:43Z</time>
      </trkpt>
      <trkpt lat="40.394973" lon="-4.124406">
        <ele>543.85</ele>
        <time>2020-11-23T10:00:49Z</time>
      </trkpt>
      <trkpt lat="40.395004" lon="-4.124522">
        <ele>543.82</ele>
        <time>2020-11-23T10:00:51Z</time>
      </trkpt>
      <trkpt lat="40.395080" lon="-4.124802">
        <ele>544.01</ele>
        <time>2020-11-23T10:00:56Z</time>
      </trkpt>
      <trkpt lat="40.395115" lon="-4.124964">
        <ele>544.47</ele>
        <time>2020-11-23T10:00:59Z</time>
      </trkpt>
      <trkpt lat="40.395126" lon="-4.125018">
        <ele>544.45</ele>
        <time>2020-11-23T10:01:00Z</time>
      </trkpt>
      <trkpt lat="40.395153" lon="-4.125234">
        <ele>545.28</ele>
        <time>2020-11-23T10:01:04Z</time>
      </trkpt>
      <trkpt lat="40.395153" lon="-4.125291">
        <ele>545.67</ele>
        <time>2020-11-23T10:01:05Z</time>
      </trkpt>
      <trkpt lat="40.395152" lon="-4.125346">
        <ele>546.02</ele>
        <time>2020-11-23T10:01:06Z</time>
      </trkpt>
      <trkpt lat="40.395150" lon="-4.125399">
        <ele>546.25</ele>
        <time>2020-11-23T10:01:07Z</time>
      </trkpt>
      <trkpt lat="40.395146" lon="-4.125497">
        <ele>546.85</ele>
        <time>2020-11-23T10:01:09Z</time>
      </trkpt>
      <trkpt lat="40.395117" lon="-4.125696">
        <ele>547.48</ele>
        <time>2020-11-23T10:01:13Z</time>
      </trkpt>
      <trkpt lat="40.395091" lon="-4.125899">
        <ele>548.85</ele>
        <time>2020-11-23T10:01:17Z</time>
      </trkpt>
      <trkpt lat="40.395055" lon="-4.126051">
        <ele>549.65</ele>
        <time>2020-11-23T10:01:20Z</time>
      </trkpt>
      <trkpt lat="40.394995" lon="-4.126250">
        <ele>550.41</ele>
        <time>2020-11-23T10:01:24Z</time>
      </trkpt>
      <trkpt lat="40.394951" lon="-4.126468">
        <ele>551.01</ele>
        <time>2020-11-23T10:01:28Z</time>
      </trkpt>
      <trkpt lat="40.394887" lon="-4.126826">
        <ele>551.63</ele>
        <time>2020-11-23T10:01:34Z</time>
      </trkpt>
      <trkpt lat="40.394862" lon="-4.126943">
        <ele>551.64</ele>
        <time>2020-11-23T10:01:36Z</time>
      </trkpt>
      <trkpt lat="40.394856" lon="-4.127059">
        <ele>551.70</ele>
        <time>2020-11-23T10:01:38Z</time>
      </trkpt>
      <trkpt lat="40.394861" lon="-4.127176">
        <ele>551.82</ele>
        <time>2020-11-23T10:01:40Z</time>
      </trkpt>
      <trkpt lat="40.394866" lon="-4.127295">
        <ele>552.10</ele>
        <time>2020-11-23T10:01:42Z</time>
      </trkpt>
      <trkpt lat="40.394875" lon="-4.127351">
        <ele>552.04</ele>
        <time>2020-11-23T10:01:43Z</time>
      </trkpt>
      <trkpt lat="40.394917" lon="-4.127520">
        <ele>552.10</ele>
        <time>2020-11-23T10:01:46Z</time>
      </trkpt>
      <trkpt lat="40.394934" lon="-4.127573">
        <ele>552.26</ele>
        <time>2020-11-23T10:01:47Z</time>
      </trkpt>
      <trkpt lat="40.394990" lon="-4.127724">
        <ele>552.63</ele>
        <time>2020-11-23T10:01:50Z</time>
      </trkpt>
      <trkpt lat="40.395039" lon="-4.127935">
        <ele>553.65</ele>
        <time>2020-11-23T10:01:54Z</time>
      </trkpt>
      <trkpt lat="40.395048" lon="-4.127999">
        <ele>553.61</ele>
        <time>2020-11-23T10:01:55Z</time>
      </trkpt>
      <trkpt lat="40.395055" lon="-4.128067">
        <ele>553.81</ele>
        <time>2020-11-23T10:01:56Z</time>
      </trkpt>
      <trkpt lat="40.395079" lon="-4.128401">
        <ele>553.86</ele>
        <time>2020-11-23T10:02:00Z</time>
      </trkpt>
      <trkpt lat="40.395096" lon="-4.128698">
        <ele>553.87</ele>
        <time>2020-11-23T10:02:03Z</time>
      </trkpt>
      <trkpt lat="40.395094" lon="-4.128908">
        <ele>552.49</ele>
        <time>2020-11-23T10:02:05Z</time>
      </trkpt>
      <trkpt lat="40.395099" lon="-4.129015">
        <ele>550.83</ele>
        <time>2020-11-23T10:02:06Z</time>
      </trkpt>
      <trkpt lat="40.395130" lon="-4.129315">
        <ele>548.62</ele>
        <time>2020-11-23T10:02:09Z</time>
      </trkpt>
      <trkpt lat="40.395122" lon="-4.129408">
        <ele>548.50</ele>
        <time>2020-11-23T10:02:10Z</time>
      </trkpt>
      <trkpt lat="40.395071" lon="-4.129570">
        <ele>546.63</ele>
        <time>2020-11-23T10:02:12Z</time>
      </trkpt>
      <trkpt lat="40.395023" lon="-4.129724">
        <ele>545.23</ele>
        <time>2020-11-23T10:02:14Z</time>
      </trkpt>
      <trkpt lat="40.394978" lon="-4.129937">
        <ele>544.61</ele>
        <time>2020-11-23T10:02:17Z</time>
      </trkpt>
      <trkpt lat="40.394964" lon="-4.130006">
        <ele>544.65</ele>
        <time>2020-11-23T10:02:18Z</time>
      </trkpt>
      <trkpt lat="40.394924" lon="-4.130209">
        <ele>544.41</ele>
        <time>2020-11-23T10:02:21Z</time>
      </trkpt>
      <trkpt lat="40.394918" lon="-4.130272">
        <ele>544.41</ele>
        <time>2020-11-23T10:02:22Z</time>
      </trkpt>
      <trkpt lat="40.394918" lon="-4.130330">
        <ele>544.63</ele>
        <time>2020-11-23T10:02:23Z</time>
      </trkpt>
      <trkpt lat="40.394920" lon="-4.130383">
        <ele>544.65</ele>
        <time>2020-11-23T10:02:24Z</time>
      </trkpt>
      <trkpt lat="40.394911" lon="-4.130636">
        <ele>545.02</ele>
        <time>2020-11-23T10:02:29Z</time>
      </trkpt>
      <trkpt lat="40.394911" lon="-4.130687">
        <ele>545.23</ele>
        <time>2020-11-23T10:02:30Z</time>
      </trkpt>
      <trkpt lat="40.394917" lon="-4.130744">
        <ele>546.07</ele>
        <time>2020-11-23T10:02:31Z</time>
      </trkpt>
      <trkpt lat="40.394946" lon="-4.130865">
        <ele>546.42</ele>
        <time>2020-11-23T10:02:33Z</time>
      </trkpt>
      <trkpt lat="40.394960" lon="-4.130933">
        <ele>546.63</ele>
        <time>2020-11-23T10:02:34Z</time>
      </trkpt>
      <trkpt lat="40.394990" lon="-4.131085">
        <ele>546.88</ele>
        <time>2020-11-23T10:02:36Z</time>
      </trkpt>
      <trkpt lat="40.395011" lon="-4.131160">
        <ele>546.82</ele>
        <time>2020-11-23T10:02:37Z</time>
      </trkpt>
      <trkpt lat="40.395056" lon="-4.131311">
        <ele>546.88</ele>
        <time>2020-11-23T10:02:39Z</time>
      </trkpt>
      <trkpt lat="40.395080" lon="-4.131390">
        <ele>546.81</ele>
        <time>2020-11-23T10:02:40Z</time>
      </trkpt>
      <trkpt lat="40.395125" lon="-4.131559">
        <ele>546.41</ele>
        <time>2020-11-23T10:02:42Z</time>
      </trkpt>
      <trkpt lat="40.395148" lon="-4.131645">
        <ele>546.43</ele>
        <time>2020-11-23T10:02:43Z</time>
      </trkpt>
      <trkpt lat="40.395200" lon="-4.131821">
        <ele>545.42</ele>
        <time>2020-11-23T10:02:45Z</time>
      </trkpt>
      <trkpt lat="40.395266" lon="-4.131982">
        <ele>544.44</ele>
        <time>2020-11-23T10:02:47Z</time>
      </trkpt>
      <trkpt lat="40.395306" lon="-4.132054">
        <ele>544.02</ele>
        <time>2020-11-23T10:02:48Z</time>
      </trkpt>
      <trkpt lat="40.395386" lon="-4.132195">
        <ele>543.63</ele>
        <time>2020-11-23T10:02:50Z</time>
      </trkpt>
      <trkpt lat="40.395417" lon="-4.132266">
        <ele>543.22</ele>
        <time>2020-11-23T10:02:51Z</time>
      </trkpt>
      <trkpt lat="40.395439" lon="-4.132340">
        <ele>542.62</ele>
        <time>2020-11-23T10:02:52Z</time>
      </trkpt>
      <trkpt lat="40.395451" lon="-4.132415">
        <ele>542.10</ele>
        <time>2020-11-23T10:02:53Z</time>
      </trkpt>
      <trkpt lat="40.395450" lon="-4.132488">
        <ele>541.66</ele>
        <time>2020-11-23T10:02:54Z</time>
      </trkpt>
      <trkpt lat="40.395438" lon="-4.132559">
        <ele>541.40</ele>
        <time>2020-11-23T10:02:55Z</time>
      </trkpt>
      <trkpt lat="40.395425" lon="-4.132628">
        <ele>541.02</ele>
        <time>2020-11-23T10:02:56Z</time>
      </trkpt>
      <trkpt lat="40.395384" lon="-4.132829">
        <ele>540.61</ele>
        <time>2020-11-23T10:02:59Z</time>
      </trkpt>
      <trkpt lat="40.395363" lon="-4.133017">
        <ele>540.45</ele>
        <time>2020-11-23T10:03:02Z</time>
      </trkpt>
      <trkpt lat="40.395360" lon="-4.133075">
        <ele>540.63</ele>
        <time>2020-11-23T10:03:03Z</time>
      </trkpt>
      <trkpt lat="40.395361" lon="-4.133130">
        <ele>540.90</ele>
        <time>2020-11-23T10:03:04Z</time>
      </trkpt>
      <trkpt lat="40.395368" lon="-4.133180">
        <ele>540.62</ele>
        <time>2020-11-23T10:03:05Z</time>
      </trkpt>
      <trkpt lat="40.395380" lon="-4.133229">
        <ele>541.02</ele>
        <time>2020-11-23T10:03:06Z</time>
      </trkpt>
      <trkpt lat="40.395409" lon="-4.133368">
        <ele>541.41</ele>
        <time>2020-11-23T10:03:09Z</time>
      </trkpt>
      <trkpt lat="40.395423" lon="-4.133456">
        <ele>542.30</ele>
        <time>2020-11-23T10:03:11Z</time>
      </trkpt>
      <trkpt lat="40.395490" lon="-4.133796">
        <ele>544.88</ele>
        <time>2020-11-23T10:03:18Z</time>
      </trkpt>
      <trkpt lat="40.395516" lon="-4.134232">
        <ele>546.42</ele>
        <time>2020-11-23T10:03:26Z</time>
      </trkpt>
      <trkpt lat="40.395521" lon="-4.134294">
        <ele>546.43</ele>
        <time>2020-11-23T10:03:27Z</time>
      </trkpt>
      <trkpt lat="40.395531" lon="-4.134363">
        <ele>546.41</ele>
        <time>2020-11-23T10:03:28Z</time>
      </trkpt>
      <trkpt lat="40.395577" lon="-4.134590">
        <ele>546.41</ele>
        <time>2020-11-23T10:03:31Z</time>
      </trkpt>
      <trkpt lat="40.395658" lon="-4.134843">
        <ele>546.46</ele>
        <time>2020-11-23T10:03:34Z</time>
      </trkpt>
      <trkpt lat="40.395728" lon="-4.135026">
        <ele>546.23</ele>
        <time>2020-11-23T10:03:36Z</time>
      </trkpt>
      <trkpt lat="40.395756" lon="-4.135119">
        <ele>546.21</ele>
        <time>2020-11-23T10:03:37Z</time>
      </trkpt>
      <trkpt lat="40.395767" lon="-4.135213">
        <ele>546.04</ele>
        <time>2020-11-23T10:03:38Z</time>
      </trkpt>
      <trkpt lat="40.395769" lon="-4.135302">
        <ele>545.44</ele>
        <time>2020-11-23T10:03:39Z</time>
      </trkpt>
      <trkpt lat="40.395768" lon="-4.135386">
        <ele>545.04</ele>
        <time>2020-11-23T10:03:40Z</time>
      </trkpt>
      <trkpt lat="40.395773" lon="-4.135689">
        <ele>543.68</ele>
        <time>2020-11-23T10:03:44Z</time>
      </trkpt>
      <trkpt lat="40.395773" lon="-4.135757">
        <ele>543.65</ele>
        <time>2020-11-23T10:03:45Z</time>
      </trkpt>
      <trkpt lat="40.395783" lon="-4.136081">
        <ele>543.68</ele>
        <time>2020-11-23T10:03:50Z</time>
      </trkpt>
      <trkpt lat="40.395774" lon="-4.136156">
        <ele>543.69</ele>
        <time>2020-11-23T10:03:51Z</time>
      </trkpt>
      <trkpt lat="40.395688" lon="-4.136502">
        <ele>543.42</ele>
        <time>2020-11-23T10:03:55Z</time>
      </trkpt>
      <trkpt lat="40.395654" lon="-4.136593">
        <ele>543.21</ele>
        <time>2020-11-23T10:03:56Z</time>
      </trkpt>
      <trkpt lat="40.395584" lon="-4.136785">
        <ele>543.27</ele>
        <time>2020-11-23T10:03:58Z</time>
      </trkpt>
      <trkpt lat="40.395464" lon="-4.137167">
        <ele>541.87</ele>
        <time>2020-11-23T10:04:02Z</time>
      </trkpt>
      <trkpt lat="40.395429" lon="-4.137250">
        <ele>541.43</ele>
        <time>2020-11-23T10:04:03Z</time>
      </trkpt>
      <trkpt lat="40.395389" lon="-4.137325">
        <ele>541.02</ele>
        <time>2020-11-23T10:04:04Z</time>
      </trkpt>
      <trkpt lat="40.395355" lon="-4.137395">
        <ele>540.84</ele>
        <time>2020-11-23T10:04:05Z</time>
      </trkpt>
      <trkpt lat="40.395327" lon="-4.137465">
        <ele>540.69</ele>
        <time>2020-11-23T10:04:06Z</time>
      </trkpt>
      <trkpt lat="40.395307" lon="-4.137535">
        <ele>540.43</ele>
        <time>2020-11-23T10:04:07Z</time>
      </trkpt>
      <trkpt lat="40.395274" lon="-4.137674">
        <ele>539.65</ele>
        <time>2020-11-23T10:04:09Z</time>
      </trkpt>
      <trkpt lat="40.395236" lon="-4.137806">
        <ele>539.45</ele>
        <time>2020-11-23T10:04:11Z</time>
      </trkpt>
      <trkpt lat="40.395212" lon="-4.137868">
        <ele>539.20</ele>
        <time>2020-11-23T10:04:12Z</time>
      </trkpt>
      <trkpt lat="40.395150" lon="-4.137993">
        <ele>539.02</ele>
        <time>2020-11-23T10:04:14Z</time>
      </trkpt>
      <trkpt lat="40.395081" lon="-4.138120">
        <ele>538.61</ele>
        <time>2020-11-23T10:04:16Z</time>
      </trkpt>
      <trkpt lat="40.394979" lon="-4.138312">
        <ele>538.46</ele>
        <time>2020-11-23T10:04:19Z</time>
      </trkpt>
      <trkpt lat="40.394952" lon="-4.138382">
        <ele>538.47</ele>
        <time>2020-11-23T10:04:20Z</time>
      </trkpt>
      <trkpt lat="40.394920" lon="-4.138541">
        <ele>538.49</ele>
        <time>2020-11-23T10:04:22Z</time>
      </trkpt>
      <trkpt lat="40.394915" lon="-4.138626">
        <ele>538.47</ele>
        <time>2020-11-23T10:04:23Z</time>
      </trkpt>
      <trkpt lat="40.394923" lon="-4.138711">
        <ele>538.45</ele>
        <time>2020-11-23T10:04:24Z</time>
      </trkpt>
      <trkpt lat="40.394941" lon="-4.138796">
        <ele>538.45</ele>
        <time>2020-11-23T10:04:25Z</time>
      </trkpt>
      <trkpt lat="40.394968" lon="-4.138876">
        <ele>538.01</ele>
        <time>2020-11-23T10:04:26Z</time>
      </trkpt>
      <trkpt lat="40.394999" lon="-4.138950">
        <ele>537.69</ele>
        <time>2020-11-23T10:04:27Z</time>
      </trkpt>
      <trkpt lat="40.395065" lon="-4.139089">
        <ele>537.25</ele>
        <time>2020-11-23T10:04:29Z</time>
      </trkpt>
      <trkpt lat="40.395306" lon="-4.139568">
        <ele>536.09</ele>
        <time>2020-11-23T10:04:36Z</time>
      </trkpt>
      <trkpt lat="40.395349" lon="-4.139635">
        <ele>535.82</ele>
        <time>2020-11-23T10:04:37Z</time>
      </trkpt>
      <trkpt lat="40.395387" lon="-4.139708">
        <ele>535.61</ele>
        <time>2020-11-23T10:04:38Z</time>
      </trkpt>
      <trkpt lat="40.395441" lon="-4.139878">
        <ele>535.47</ele>
        <time>2020-11-23T10:04:40Z</time>
      </trkpt>
      <trkpt lat="40.395453" lon="-4.139970">
        <ele>535.25</ele>
        <time>2020-11-23T10:04:41Z</time>
      </trkpt>
      <trkpt lat="40.395478" lon="-4.140299">
        <ele>534.63</ele>
        <time>2020-11-23T10:04:45Z</time>
      </trkpt>
      <trkpt lat="40.395487" lon="-4.140365">
        <ele>534.66</ele>
        <time>2020-11-23T10:04:46Z</time>
      </trkpt>
      <trkpt lat="40.395498" lon="-4.140425">
        <ele>534.44</ele>
        <time>2020-11-23T10:04:47Z</time>
      </trkpt>
      <trkpt lat="40.395537" lon="-4.140592">
        <ele>534.26</ele>
        <time>2020-11-23T10:04:50Z</time>
      </trkpt>
      <trkpt lat="40.395545" lon="-4.140647">
        <ele>534.29</ele>
        <time>2020-11-23T10:04:51Z</time>
      </trkpt>
      <trkpt lat="40.395529" lon="-4.140821">
        <ele>534.23</ele>
        <time>2020-11-23T10:04:55Z</time>
      </trkpt>
      <trkpt lat="40.395540" lon="-4.140898">
        <ele>534.46</ele>
        <time>2020-11-23T10:04:57Z</time>
      </trkpt>
      <trkpt lat="40.395572" lon="-4.140963">
        <ele>534.80</ele>
        <time>2020-11-23T10:04:59Z</time>
      </trkpt>
      <trkpt lat="40.395646" lon="-4.141068">
        <ele>536.02</ele>
        <time>2020-11-23T10:05:03Z</time>
      </trkpt>
      <trkpt lat="40.395664" lon="-4.141102">
        <ele>536.01</ele>
        <time>2020-11-23T10:05:04Z</time>
      </trkpt>
      <trkpt lat="40.395678" lon="-4.141141">
        <ele>536.41</ele>
        <time>2020-11-23T10:05:05Z</time>
      </trkpt>
      <trkpt lat="40.395691" lon="-4.141365">
        <ele>537.24</ele>
        <time>2020-11-23T10:05:10Z</time>
      </trkpt>
      <trkpt lat="40.395698" lon="-4.141538">
        <ele>537.49</ele>
        <time>2020-11-23T10:05:14Z</time>
      </trkpt>
      <trkpt lat="40.395684" lon="-4.141705">
        <ele>537.70</ele>
        <time>2020-11-23T10:05:18Z</time>
      </trkpt>
      <trkpt lat="40.395683" lon="-4.141791">
        <ele>537.85</ele>
        <time>2020-11-23T10:05:20Z</time>
      </trkpt>
      <trkpt lat="40.395681" lon="-4.141877">
        <ele>537.84</ele>
        <time>2020-11-23T10:05:22Z</time>
      </trkpt>
      <trkpt lat="40.395689" lon="-4.142007">
        <ele>538.08</ele>
        <time>2020-11-23T10:05:25Z</time>
      </trkpt>
      <trkpt lat="40.395692" lon="-4.142049">
        <ele>538.01</ele>
        <time>2020-11-23T10:05:26Z</time>
      </trkpt>
      <trkpt lat="40.395716" lon="-4.142260">
        <ele>539.10</ele>
        <time>2020-11-23T10:05:31Z</time>
      </trkpt>
      <trkpt lat="40.395730" lon="-4.142333">
        <ele>539.43</ele>
        <time>2020-11-23T10:05:33Z</time>
      </trkpt>
      <trkpt lat="40.395735" lon="-4.142366">
        <ele>539.42</ele>
        <time>2020-11-23T10:05:34Z</time>
      </trkpt>
      <trkpt lat="40.395730" lon="-4.142508">
        <ele>539.81</ele>
        <time>2020-11-23T10:05:38Z</time>
      </trkpt>
      <trkpt lat="40.395717" lon="-4.142786">
        <ele>540.89</ele>
        <time>2020-11-23T10:05:45Z</time>
      </trkpt>
      <trkpt lat="40.395718" lon="-4.142828">
        <ele>540.84</ele>
        <time>2020-11-23T10:05:46Z</time>
      </trkpt>
      <trkpt lat="40.395744" lon="-4.142987">
        <ele>541.47</ele>
        <time>2020-11-23T10:05:50Z</time>
      </trkpt>
      <trkpt lat="40.395760" lon="-4.143069">
        <ele>541.63</ele>
        <time>2020-11-23T10:05:52Z</time>
      </trkpt>
      <trkpt lat="40.395786" lon="-4.143230">
        <ele>542.48</ele>
        <time>2020-11-23T10:05:56Z</time>
      </trkpt>
      <trkpt lat="40.395795" lon="-4.143307">
        <ele>542.65</ele>
        <time>2020-11-23T10:05:58Z</time>
      </trkpt>
      <trkpt lat="40.395811" lon="-4.143455">
        <ele>543.27</ele>
        <time>2020-11-23T10:06:02Z</time>
      </trkpt>
      <trkpt lat="40.395814" lon="-4.143494">
        <ele>543.63</ele>
        <time>2020-11-23T10:06:03Z</time>
      </trkpt>
      <trkpt lat="40.395823" lon="-4.143532">
        <ele>543.69</ele>
        <time>2020-11-23T10:06:04Z</time>
      </trkpt>
      <trkpt lat="40.395832" lon="-4.143567">
        <ele>544.22</ele>
        <time>2020-11-23T10:06:05Z</time>
      </trkpt>
      <trkpt lat="40.395848" lon="-4.143670">
        <ele>545.23</ele>
        <time>2020-11-23T10:06:08Z</time>
      </trkpt>
      <trkpt lat="40.395854" lon="-4.143706">
        <ele>545.41</ele>
        <time>2020-11-23T10:06:09Z</time>
      </trkpt>
      <trkpt lat="40.395869" lon="-4.143808">
        <ele>546.48</ele>
        <time>2020-11-23T10:06:12Z</time>
      </trkpt>
      <trkpt lat="40.395885" lon="-4.143946">
        <ele>547.30</ele>
        <time>2020-11-23T10:06:16Z</time>
      </trkpt>
      <trkpt lat="40.395888" lon="-4.143979">
        <ele>547.49</ele>
        <time>2020-11-23T10:06:17Z</time>
      </trkpt>
      <trkpt lat="40.395906" lon="-4.144233">
        <ele>549.65</ele>
        <time>2020-11-23T10:06:24Z</time>
      </trkpt>
      <trkpt lat="40.395910" lon="-4.144307">
        <ele>549.68</ele>
        <time>2020-11-23T10:06:26Z</time>
      </trkpt>
      <trkpt lat="40.395938" lon="-4.144552">
        <ele>551.24</ele>
        <time>2020-11-23T10:06:32Z</time>
      </trkpt>
      <trkpt lat="40.395945" lon="-4.144595">
        <ele>551.23</ele>
        <time>2020-11-23T10:06:33Z</time>
      </trkpt>
      <trkpt lat="40.396011" lon="-4.145039">
        <ele>552.70</ele>
        <time>2020-11-23T10:06:43Z</time>
      </trkpt>
      <trkpt lat="40.396018" lon="-4.145130">
        <ele>552.90</ele>
        <time>2020-11-23T10:06:45Z</time>
      </trkpt>
      <trkpt lat="40.396027" lon="-4.145342">
        <ele>553.63</ele>
        <time>2020-11-23T10:06:50Z</time>
      </trkpt>
      <trkpt lat="40.396039" lon="-4.145462">
        <ele>554.22</ele>
        <time>2020-11-23T10:06:53Z</time>
      </trkpt>
      <trkpt lat="40.396049" lon="-4.145700">
        <ele>556.01</ele>
        <time>2020-11-23T10:06:59Z</time>
      </trkpt>
      <trkpt lat="40.396047" lon="-4.145775">
        <ele>556.23</ele>
        <time>2020-11-23T10:07:01Z</time>
      </trkpt>
      <trkpt lat="40.396023" lon="-4.145975">
        <ele>557.61</ele>
        <time>2020-11-23T10:07:07Z</time>
      </trkpt>
      <trkpt lat="40.396010" lon="-4.146207">
        <ele>558.44</ele>
        <time>2020-11-23T10:07:13Z</time>
      </trkpt>
      <trkpt lat="40.396015" lon="-4.146408">
        <ele>558.48</ele>
        <time>2020-11-23T10:07:17Z</time>
      </trkpt>
      <trkpt lat="40.396031" lon="-4.146573">
        <ele>558.22</ele>
        <time>2020-11-23T10:07:20Z</time>
      </trkpt>
      <trkpt lat="40.396037" lon="-4.146630">
        <ele>558.48</ele>
        <time>2020-11-23T10:07:21Z</time>
      </trkpt>
      <trkpt lat="40.396050" lon="-4.146995">
        <ele>557.08</ele>
        <time>2020-11-23T10:07:27Z</time>
      </trkpt>
      <trkpt lat="40.396042" lon="-4.147393">
        <ele>555.30</ele>
        <time>2020-11-23T10:07:34Z</time>
      </trkpt>
      <trkpt lat="40.396036" lon="-4.147499">
        <ele>555.30</ele>
        <time>2020-11-23T10:07:36Z</time>
      </trkpt>
      <trkpt lat="40.396037" lon="-4.147605">
        <ele>555.02</ele>
        <time>2020-11-23T10:07:38Z</time>
      </trkpt>
      <trkpt lat="40.396030" lon="-4.147818">
        <ele>555.23</ele>
        <time>2020-11-23T10:07:42Z</time>
      </trkpt>
      <trkpt lat="40.395953" lon="-4.148188">
        <ele>555.21</ele>
        <time>2020-11-23T10:07:50Z</time>
      </trkpt>
      <trkpt lat="40.395898" lon="-4.148368">
        <ele>555.29</ele>
        <time>2020-11-23T10:07:54Z</time>
      </trkpt>
      <trkpt lat="40.395862" lon="-4.148545">
        <ele>555.63</ele>
        <time>2020-11-23T10:07:58Z</time>
      </trkpt>
      <trkpt lat="40.395862" lon="-4.148673">
        <ele>555.85</ele>
        <time>2020-11-23T10:08:01Z</time>
      </trkpt>
      <trkpt lat="40.395861" lon="-4.148856">
        <ele>556.48</ele>
        <time>2020-11-23T10:08:05Z</time>
      </trkpt>
      <trkpt lat="40.395857" lon="-4.149077">
        <ele>557.28</ele>
        <time>2020-11-23T10:08:10Z</time>
      </trkpt>
      <trkpt lat="40.395851" lon="-4.149162">
        <ele>557.68</ele>
        <time>2020-11-23T10:08:12Z</time>
      </trkpt>
      <trkpt lat="40.395839" lon="-4.149242">
        <ele>557.89</ele>
        <time>2020-11-23T10:08:14Z</time>
      </trkpt>
      <trkpt lat="40.395819" lon="-4.149622">
        <ele>558.69</ele>
        <time>2020-11-23T10:08:22Z</time>
      </trkpt>
      <trkpt lat="40.395805" lon="-4.149805">
        <ele>558.66</ele>
        <time>2020-11-23T10:08:25Z</time>
      </trkpt>
      <trkpt lat="40.395798" lon="-4.149871">
        <ele>558.80</ele>
        <time>2020-11-23T10:08:26Z</time>
      </trkpt>
      <trkpt lat="40.395790" lon="-4.149940">
        <ele>558.82</ele>
        <time>2020-11-23T10:08:27Z</time>
      </trkpt>
      <trkpt lat="40.395785" lon="-4.150015">
        <ele>558.81</ele>
        <time>2020-11-23T10:08:28Z</time>
      </trkpt>
      <trkpt lat="40.395781" lon="-4.150090">
        <ele>558.81</ele>
        <time>2020-11-23T10:08:29Z</time>
      </trkpt>
      <trkpt lat="40.395776" lon="-4.150159">
        <ele>558.88</ele>
        <time>2020-11-23T10:08:30Z</time>
      </trkpt>
      <trkpt lat="40.395779" lon="-4.150224">
        <ele>558.62</ele>
        <time>2020-11-23T10:08:31Z</time>
      </trkpt>
      <trkpt lat="40.395790" lon="-4.150291">
        <ele>558.70</ele>
        <time>2020-11-23T10:08:32Z</time>
      </trkpt>
      <trkpt lat="40.395814" lon="-4.150349">
        <ele>558.64</ele>
        <time>2020-11-23T10:08:33Z</time>
      </trkpt>
      <trkpt lat="40.395879" lon="-4.150444">
        <ele>558.24</ele>
        <time>2020-11-23T10:08:35Z</time>
      </trkpt>
      <trkpt lat="40.395928" lon="-4.150541">
        <ele>557.06</ele>
        <time>2020-11-23T10:08:37Z</time>
      </trkpt>
      <trkpt lat="40.395942" lon="-4.150643">
        <ele>556.26</ele>
        <time>2020-11-23T10:08:39Z</time>
      </trkpt>
      <trkpt lat="40.395914" lon="-4.150801">
        <ele>555.42</ele>
        <time>2020-11-23T10:08:43Z</time>
      </trkpt>
      <trkpt lat="40.395904" lon="-4.150919">
        <ele>555.00</ele>
        <time>2020-11-23T10:08:46Z</time>
      </trkpt>
      <trkpt lat="40.395907" lon="-4.151026">
        <ele>555.21</ele>
        <time>2020-11-23T10:08:49Z</time>
      </trkpt>
      <trkpt lat="40.395898" lon="-4.151097">
        <ele>555.21</ele>
        <time>2020-11-23T10:08:51Z</time>
      </trkpt>
      <trkpt lat="40.395858" lon="-4.151194">
        <ele>555.47</ele>
        <time>2020-11-23T10:08:54Z</time>
      </trkpt>
      <trkpt lat="40.395826" lon="-4.151413">
        <ele>556.26</ele>
        <time>2020-11-23T10:08:59Z</time>
      </trkpt>
      <trkpt lat="40.395832" lon="-4.151458">
        <ele>556.44</ele>
        <time>2020-11-23T10:09:00Z</time>
      </trkpt>
      <trkpt lat="40.395864" lon="-4.151552">
        <ele>556.44</ele>
        <time>2020-11-23T10:09:02Z</time>
      </trkpt>
      <trkpt lat="40.395886" lon="-4.151609">
        <ele>556.48</ele>
        <time>2020-11-23T10:09:03Z</time>
      </trkpt>
      <trkpt lat="40.395944" lon="-4.151805">
        <ele>556.48</ele>
        <time>2020-11-23T10:09:06Z</time>
      </trkpt>
      <trkpt lat="40.395947" lon="-4.151875">
        <ele>556.26</ele>
        <time>2020-11-23T10:09:07Z</time>
      </trkpt>
      <trkpt lat="40.395945" lon="-4.151995">
        <ele>556.28</ele>
        <time>2020-11-23T10:09:09Z</time>
      </trkpt>
      <trkpt lat="40.395941" lon="-4.152093">
        <ele>556.05</ele>
        <time>2020-11-23T10:09:11Z</time>
      </trkpt>
      <trkpt lat="40.395929" lon="-4.152273">
        <ele>556.00</ele>
        <time>2020-11-23T10:09:15Z</time>
      </trkpt>
      <trkpt lat="40.395922" lon="-4.152434">
        <ele>556.01</ele>
        <time>2020-11-23T10:09:19Z</time>
      </trkpt>
      <trkpt lat="40.395913" lon="-4.152559">
        <ele>556.61</ele>
        <time>2020-11-23T10:09:22Z</time>
      </trkpt>
      <trkpt lat="40.395896" lon="-4.152681">
        <ele>557.88</ele>
        <time>2020-11-23T10:09:25Z</time>
      </trkpt>
      <trkpt lat="40.395876" lon="-4.152966">
        <ele>560.45</ele>
        <time>2020-11-23T10:09:32Z</time>
      </trkpt>
      <trkpt lat="40.395872" lon="-4.153008">
        <ele>560.90</ele>
        <time>2020-11-23T10:09:33Z</time>
      </trkpt>
      <trkpt lat="40.395840" lon="-4.153363">
        <ele>562.65</ele>
        <time>2020-11-23T10:09:41Z</time>
      </trkpt>
      <trkpt lat="40.395820" lon="-4.153503">
        <ele>562.84</ele>
        <time>2020-11-23T10:09:44Z</time>
      </trkpt>
      <trkpt lat="40.395798" lon="-4.153730">
        <ele>563.48</ele>
        <time>2020-11-23T10:09:49Z</time>
      </trkpt>
      <trkpt lat="40.395798" lon="-4.153767">
        <ele>563.45</ele>
        <time>2020-11-23T10:09:50Z</time>
      </trkpt>
      <trkpt lat="40.395791" lon="-4.153808">
        <ele>563.63</ele>
        <time>2020-11-23T10:09:51Z</time>
      </trkpt>
      <trkpt lat="40.395756" lon="-4.153892">
        <ele>563.89</ele>
        <time>2020-11-23T10:09:53Z</time>
      </trkpt>
      <trkpt lat="40.395733" lon="-4.153937">
        <ele>563.87</ele>
        <time>2020-11-23T10:09:54Z</time>
      </trkpt>
      <trkpt lat="40.395652" lon="-4.154166">
        <ele>564.22</ele>
        <time>2020-11-23T10:09:59Z</time>
      </trkpt>
      <trkpt lat="40.395640" lon="-4.154213">
        <ele>564.21</ele>
        <time>2020-11-23T10:10:00Z</time>
      </trkpt>
      <trkpt lat="40.395519" lon="-4.154543">
        <ele>565.03</ele>
        <time>2020-11-23T10:10:07Z</time>
      </trkpt>
      <trkpt lat="40.395487" lon="-4.154587">
        <ele>565.06</ele>
        <time>2020-11-23T10:10:08Z</time>
      </trkpt>
      <trkpt lat="40.395421" lon="-4.154674">
        <ele>565.22</ele>
        <time>2020-11-23T10:10:10Z</time>
      </trkpt>
      <trkpt lat="40.395360" lon="-4.154773">
        <ele>564.83</ele>
        <time>2020-11-23T10:10:12Z</time>
      </trkpt>
      <trkpt lat="40.395334" lon="-4.154827">
        <ele>565.23</ele>
        <time>2020-11-23T10:10:13Z</time>
      </trkpt>
      <trkpt lat="40.395308" lon="-4.154878">
        <ele>565.26</ele>
        <time>2020-11-23T10:10:14Z</time>
      </trkpt>
      <trkpt lat="40.395078" lon="-4.155241">
        <ele>565.01</ele>
        <time>2020-11-23T10:10:22Z</time>
      </trkpt>
      <trkpt lat="40.394983" lon="-4.155367">
        <ele>565.03</ele>
        <time>2020-11-23T10:10:25Z</time>
      </trkpt>
      <trkpt lat="40.394903" lon="-4.155467">
        <ele>564.82</ele>
        <time>2020-11-23T10:10:27Z</time>
      </trkpt>
      <trkpt lat="40.394855" lon="-4.155519">
        <ele>564.68</ele>
        <time>2020-11-23T10:10:28Z</time>
      </trkpt>
      <trkpt lat="40.394696" lon="-4.155711">
        <ele>564.61</ele>
        <time>2020-11-23T10:10:31Z</time>
      </trkpt>
      <trkpt lat="40.394641" lon="-4.155789">
        <ele>564.81</ele>
        <time>2020-11-23T10:10:32Z</time>
      </trkpt>
      <trkpt lat="40.394584" lon="-4.155869">
        <ele>564.68</ele>
        <time>2020-11-23T10:10:33Z</time>
      </trkpt>
      <trkpt lat="40.394523" lon="-4.155947">
        <ele>564.28</ele>
        <time>2020-11-23T10:10:34Z</time>
      </trkpt>
      <trkpt lat="40.394456" lon="-4.156023">
        <ele>563.86</ele>
        <time>2020-11-23T10:10:35Z</time>
      </trkpt>
      <trkpt lat="40.394320" lon="-4.156176">
        <ele>560.41</ele>
        <time>2020-11-23T10:10:37Z</time>
      </trkpt>
      <trkpt lat="40.394249" lon="-4.156256">
        <ele>559.67</ele>
        <time>2020-11-23T10:10:38Z</time>
      </trkpt>
      <trkpt lat="40.394100" lon="-4.156402">
        <ele>558.05</ele>
        <time>2020-11-23T10:10:40Z</time>
      </trkpt>
      <trkpt lat="40.394022" lon="-4.156469">
        <ele>556.89</ele>
        <time>2020-11-23T10:10:41Z</time>
      </trkpt>
      <trkpt lat="40.393943" lon="-4.156535">
        <ele>556.27</ele>
        <time>2020-11-23T10:10:42Z</time>
      </trkpt>
      <trkpt lat="40.393776" lon="-4.156669">
        <ele>554.23</ele>
        <time>2020-11-23T10:10:44Z</time>
      </trkpt>
      <trkpt lat="40.393694" lon="-4.156745">
        <ele>553.49</ele>
        <time>2020-11-23T10:10:45Z</time>
      </trkpt>
      <trkpt lat="40.393610" lon="-4.156829">
        <ele>552.01</ele>
        <time>2020-11-23T10:10:46Z</time>
      </trkpt>
      <trkpt lat="40.393526" lon="-4.156912">
        <ele>551.01</ele>
        <time>2020-11-23T10:10:47Z</time>
      </trkpt>
      <trkpt lat="40.393378" lon="-4.157071">
        <ele>550.47</ele>
        <time>2020-11-23T10:10:49Z</time>
      </trkpt>
      <trkpt lat="40.393250" lon="-4.157217">
        <ele>548.86</ele>
        <time>2020-11-23T10:10:51Z</time>
      </trkpt>
      <trkpt lat="40.393123" lon="-4.157372">
        <ele>546.88</ele>
        <time>2020-11-23T10:10:53Z</time>
      </trkpt>
      <trkpt lat="40.393055" lon="-4.157435">
        <ele>546.24</ele>
        <time>2020-11-23T10:10:54Z</time>
      </trkpt>
      <trkpt lat="40.392866" lon="-4.157583">
        <ele>543.89</ele>
        <time>2020-11-23T10:10:57Z</time>
      </trkpt>
      <trkpt lat="40.392810" lon="-4.157625">
        <ele>543.45</ele>
        <time>2020-11-23T10:10:58Z</time>
      </trkpt>
      <trkpt lat="40.392755" lon="-4.157666">
        <ele>542.89</ele>
        <time>2020-11-23T10:10:59Z</time>
      </trkpt>
      <trkpt lat="40.392697" lon="-4.157703">
        <ele>542.44</ele>
        <time>2020-11-23T10:11:00Z</time>
      </trkpt>
      <trkpt lat="40.392639" lon="-4.157734">
        <ele>542.03</ele>
        <time>2020-11-23T10:11:01Z</time>
      </trkpt>
      <trkpt lat="40.392573" lon="-4.157757">
        <ele>541.82</ele>
        <time>2020-11-23T10:11:02Z</time>
      </trkpt>
      <trkpt lat="40.392366" lon="-4.157815">
        <ele>540.62</ele>
        <time>2020-11-23T10:11:05Z</time>
      </trkpt>
      <trkpt lat="40.392160" lon="-4.157863">
        <ele>539.61</ele>
        <time>2020-11-23T10:11:08Z</time>
      </trkpt>
      <trkpt lat="40.392010" lon="-4.157912">
        <ele>538.10</ele>
        <time>2020-11-23T10:11:10Z</time>
      </trkpt>
      <trkpt lat="40.391783" lon="-4.158013">
        <ele>536.48</ele>
        <time>2020-11-23T10:11:13Z</time>
      </trkpt>
      <trkpt lat="40.391706" lon="-4.158042">
        <ele>536.02</ele>
        <time>2020-11-23T10:11:14Z</time>
      </trkpt>
      <trkpt lat="40.391561" lon="-4.158092">
        <ele>533.63</ele>
        <time>2020-11-23T10:11:16Z</time>
      </trkpt>
      <trkpt lat="40.391502" lon="-4.158117">
        <ele>533.27</ele>
        <time>2020-11-23T10:11:17Z</time>
      </trkpt>
      <trkpt lat="40.391442" lon="-4.158135">
        <ele>531.48</ele>
        <time>2020-11-23T10:11:18Z</time>
      </trkpt>
      <trkpt lat="40.391374" lon="-4.158143">
        <ele>530.69</ele>
        <time>2020-11-23T10:11:19Z</time>
      </trkpt>
      <trkpt lat="40.391302" lon="-4.158139">
        <ele>530.06</ele>
        <time>2020-11-23T10:11:20Z</time>
      </trkpt>
      <trkpt lat="40.391229" lon="-4.158134">
        <ele>529.69</ele>
        <time>2020-11-23T10:11:21Z</time>
      </trkpt>
      <trkpt lat="40.391154" lon="-4.158134">
        <ele>529.22</ele>
        <time>2020-11-23T10:11:22Z</time>
      </trkpt>
      <trkpt lat="40.391000" lon="-4.158150">
        <ele>528.43</ele>
        <time>2020-11-23T10:11:24Z</time>
      </trkpt>
      <trkpt lat="40.390920" lon="-4.158161">
        <ele>528.21</ele>
        <time>2020-11-23T10:11:25Z</time>
      </trkpt>
      <trkpt lat="40.390838" lon="-4.158170">
        <ele>528.02</ele>
        <time>2020-11-23T10:11:26Z</time>
      </trkpt>
      <trkpt lat="40.390754" lon="-4.158179">
        <ele>527.86</ele>
        <time>2020-11-23T10:11:27Z</time>
      </trkpt>
      <trkpt lat="40.390605" lon="-4.158207">
        <ele>527.43</ele>
        <time>2020-11-23T10:11:29Z</time>
      </trkpt>
      <trkpt lat="40.390543" lon="-4.158230">
        <ele>526.66</ele>
        <time>2020-11-23T10:11:30Z</time>
      </trkpt>
      <trkpt lat="40.390484" lon="-4.158271">
        <ele>524.81</ele>
        <time>2020-11-23T10:11:31Z</time>
      </trkpt>
      <trkpt lat="40.390423" lon="-4.158331">
        <ele>524.02</ele>
        <time>2020-11-23T10:11:32Z</time>
      </trkpt>
      <trkpt lat="40.390361" lon="-4.158405">
        <ele>522.67</ele>
        <time>2020-11-23T10:11:33Z</time>
      </trkpt>
      <trkpt lat="40.390128" lon="-4.158733">
        <ele>520.09</ele>
        <time>2020-11-23T10:11:37Z</time>
      </trkpt>
      <trkpt lat="40.390071" lon="-4.158804">
        <ele>519.66</ele>
        <time>2020-11-23T10:11:38Z</time>
      </trkpt>
      <trkpt lat="40.390011" lon="-4.158862">
        <ele>519.40</ele>
        <time>2020-11-23T10:11:39Z</time>
      </trkpt>
      <trkpt lat="40.389888" lon="-4.158914">
        <ele>518.02</ele>
        <time>2020-11-23T10:11:41Z</time>
      </trkpt>
      <trkpt lat="40.389771" lon="-4.158913">
        <ele>516.01</ele>
        <time>2020-11-23T10:11:43Z</time>
      </trkpt>
      <trkpt lat="40.389716" lon="-4.158908">
        <ele>515.21</ele>
        <time>2020-11-23T10:11:44Z</time>
      </trkpt>
      <trkpt lat="40.389662" lon="-4.158901">
        <ele>514.83</ele>
        <time>2020-11-23T10:11:45Z</time>
      </trkpt>
      <trkpt lat="40.389609" lon="-4.158894">
        <ele>514.48</ele>
        <time>2020-11-23T10:11:46Z</time>
      </trkpt>
      <trkpt lat="40.389556" lon="-4.158889">
        <ele>514.25</ele>
        <time>2020-11-23T10:11:47Z</time>
      </trkpt>
      <trkpt lat="40.389503" lon="-4.158886">
        <ele>514.02</ele>
        <time>2020-11-23T10:11:48Z</time>
      </trkpt>
      <trkpt lat="40.389454" lon="-4.158879">
        <ele>514.05</ele>
        <time>2020-11-23T10:11:49Z</time>
      </trkpt>
      <trkpt lat="40.389405" lon="-4.158872">
        <ele>513.85</ele>
        <time>2020-11-23T10:11:50Z</time>
      </trkpt>
      <trkpt lat="40.389358" lon="-4.158866">
        <ele>513.62</ele>
        <time>2020-11-23T10:11:51Z</time>
      </trkpt>
      <trkpt lat="40.389313" lon="-4.158860">
        <ele>513.66</ele>
        <time>2020-11-23T10:11:52Z</time>
      </trkpt>
      <trkpt lat="40.389270" lon="-4.158854">
        <ele>513.42</ele>
        <time>2020-11-23T10:11:53Z</time>
      </trkpt>
      <trkpt lat="40.389227" lon="-4.158850">
        <ele>513.41</ele>
        <time>2020-11-23T10:11:54Z</time>
      </trkpt>
      <trkpt lat="40.389187" lon="-4.158847">
        <ele>513.21</ele>
        <time>2020-11-23T10:11:55Z</time>
      </trkpt>
      <trkpt lat="40.389033" lon="-4.158838">
        <ele>512.88</ele>
        <time>2020-11-23T10:12:00Z</time>
      </trkpt>
      <trkpt lat="40.389012" lon="-4.158863">
        <ele>512.83</ele>
        <time>2020-11-23T10:12:05Z</time>
      </trkpt>
      <trkpt lat="40.389044" lon="-4.158848">
        <ele>513.09</ele>
        <time>2020-11-23T10:12:10Z</time>
      </trkpt>
      <trkpt lat="40.389059" lon="-4.158847">
        <ele>512.90</ele>
        <time>2020-11-23T10:12:11Z</time>
      </trkpt>
      <trkpt lat="40.389147" lon="-4.158849">
        <ele>512.89</ele>
        <time>2020-11-23T10:12:15Z</time>
      </trkpt>
      <trkpt lat="40.389286" lon="-4.158916">
        <ele>512.83</ele>
        <time>2020-11-23T10:12:20Z</time>
      </trkpt>
      <trkpt lat="40.389400" lon="-4.159059">
        <ele>512.70</ele>
        <time>2020-11-23T10:12:26Z</time>
      </trkpt>
      <trkpt lat="40.389499" lon="-4.159166">
        <ele>511.88</ele>
        <time>2020-11-23T10:12:33Z</time>
      </trkpt>
      <trkpt lat="40.389543" lon="-4.159172">
        <ele>511.86</ele>
        <time>2020-11-23T10:12:39Z</time>
      </trkpt>
      <trkpt lat="40.389610" lon="-4.159230">
        <ele>511.66</ele>
        <time>2020-11-23T10:12:46Z</time>
      </trkpt>
      <trkpt lat="40.389644" lon="-4.159288">
        <ele>511.81</ele>
        <time>2020-11-23T10:12:48Z</time>
      </trkpt>
      <trkpt lat="40.389651" lon="-4.159469">
        <ele>512.01</ele>
        <time>2020-11-23T10:12:52Z</time>
      </trkpt>
      <trkpt lat="40.389682" lon="-4.159728">
        <ele>512.08</ele>
        <time>2020-11-23T10:12:57Z</time>
      </trkpt>
      <trkpt lat="40.389649" lon="-4.159935">
        <ele>512.64</ele>
        <time>2020-11-23T10:13:02Z</time>
      </trkpt>
      <trkpt lat="40.389655" lon="-4.160164">
        <ele>513.49</ele>
        <time>2020-11-23T10:13:07Z</time>
      </trkpt>
      <trkpt lat="40.389663" lon="-4.160206">
        <ele>513.67</ele>
        <time>2020-11-23T10:13:08Z</time>
      </trkpt>
      <trkpt lat="40.389694" lon="-4.160327">
        <ele>513.63</ele>
        <time>2020-11-23T10:13:11Z</time>
      </trkpt>
      <trkpt lat="40.389719" lon="-4.160398">
        <ele>513.69</ele>
        <time>2020-11-23T10:13:13Z</time>
      </trkpt>
      <trkpt lat="40.389750" lon="-4.160460">
        <ele>514.28</ele>
        <time>2020-11-23T10:13:15Z</time>
      </trkpt>
      <trkpt lat="40.389812" lon="-4.160581">
        <ele>515.22</ele>
        <time>2020-11-23T10:13:19Z</time>
      </trkpt>
      <trkpt lat="40.389827" lon="-4.160606">
        <ele>515.46</ele>
        <time>2020-11-23T10:13:20Z</time>
      </trkpt>
      <trkpt lat="40.389872" lon="-4.160690">
        <ele>516.62</ele>
        <time>2020-11-23T10:13:23Z</time>
      </trkpt>
      <trkpt lat="40.389920" lon="-4.160766">
        <ele>517.41</ele>
        <time>2020-11-23T10:13:26Z</time>
      </trkpt>
      <trkpt lat="40.389996" lon="-4.160877">
        <ele>519.01</ele>
        <time>2020-11-23T10:13:31Z</time>
      </trkpt>
      <trkpt lat="40.390050" lon="-4.160944">
        <ele>520.09</ele>
        <time>2020-11-23T10:13:34Z</time>
      </trkpt>
      <trkpt lat="40.390177" lon="-4.161158">
        <ele>521.62</ele>
        <time>2020-11-23T10:13:41Z</time>
      </trkpt>
      <trkpt lat="40.390239" lon="-4.161249">
        <ele>522.25</ele>
        <time>2020-11-23T10:13:44Z</time>
      </trkpt>
      <trkpt lat="40.390320" lon="-4.161384">
        <ele>522.65</ele>
        <time>2020-11-23T10:13:48Z</time>
      </trkpt>
      <trkpt lat="40.390439" lon="-4.161663">
        <ele>523.01</ele>
        <time>2020-11-23T10:13:56Z</time>
      </trkpt>
      <trkpt lat="40.390442" lon="-4.161698">
        <ele>523.08</ele>
        <time>2020-11-23T10:13:57Z</time>
      </trkpt>
      <trkpt lat="40.390444" lon="-4.161838">
        <ele>523.65</ele>
        <time>2020-11-23T10:14:01Z</time>
      </trkpt>
      <trkpt lat="40.390473" lon="-4.161943">
        <ele>524.02</ele>
        <time>2020-11-23T10:14:04Z</time>
      </trkpt>
      <trkpt lat="40.390487" lon="-4.162014">
        <ele>524.24</ele>
        <time>2020-11-23T10:14:06Z</time>
      </trkpt>
      <trkpt lat="40.390498" lon="-4.162155">
        <ele>525.02</ele>
        <time>2020-11-23T10:14:10Z</time>
      </trkpt>
      <trkpt lat="40.390495" lon="-4.162288">
        <ele>526.62</ele>
        <time>2020-11-23T10:14:14Z</time>
      </trkpt>
      <trkpt lat="40.390490" lon="-4.162320">
        <ele>527.41</ele>
        <time>2020-11-23T10:14:15Z</time>
      </trkpt>
      <trkpt lat="40.390487" lon="-4.162494">
        <ele>529.06</ele>
        <time>2020-11-23T10:14:20Z</time>
      </trkpt>
      <trkpt lat="40.390490" lon="-4.162535">
        <ele>529.42</ele>
        <time>2020-11-23T10:14:21Z</time>
      </trkpt>
      <trkpt lat="40.390511" lon="-4.162721">
        <ele>530.84</ele>
        <time>2020-11-23T10:14:26Z</time>
      </trkpt>
      <trkpt lat="40.390517" lon="-4.162789">
        <ele>531.29</ele>
        <time>2020-11-23T10:14:28Z</time>
      </trkpt>
      <trkpt lat="40.390544" lon="-4.163075">
        <ele>532.26</ele>
        <time>2020-11-23T10:14:36Z</time>
      </trkpt>
      <trkpt lat="40.390568" lon="-4.163217">
        <ele>532.85</ele>
        <time>2020-11-23T10:14:40Z</time>
      </trkpt>
      <trkpt lat="40.390591" lon="-4.163320">
        <ele>533.25</ele>
        <time>2020-11-23T10:14:43Z</time>
      </trkpt>
      <trkpt lat="40.390615" lon="-4.163482">
        <ele>533.82</ele>
        <time>2020-11-23T10:14:47Z</time>
      </trkpt>
      <trkpt lat="40.390666" lon="-4.163671">
        <ele>535.03</ele>
        <time>2020-11-23T10:14:52Z</time>
      </trkpt>
      <trkpt lat="40.390787" lon="-4.163946">
        <ele>536.09</ele>
        <time>2020-11-23T10:14:59Z</time>
      </trkpt>
      <trkpt lat="40.390815" lon="-4.163991">
        <ele>536.22</ele>
        <time>2020-11-23T10:15:00Z</time>
      </trkpt>
      <trkpt lat="40.390839" lon="-4.164042">
        <ele>536.21</ele>
        <time>2020-11-23T10:15:01Z</time>
      </trkpt>
      <trkpt lat="40.390860" lon="-4.164094">
        <ele>536.06</ele>
        <time>2020-11-23T10:15:02Z</time>
      </trkpt>
      <trkpt lat="40.390875" lon="-4.164149">
        <ele>536.27</ele>
        <time>2020-11-23T10:15:03Z</time>
      </trkpt>
      <trkpt lat="40.390896" lon="-4.164268">
        <ele>536.22</ele>
        <time>2020-11-23T10:15:05Z</time>
      </trkpt>
      <trkpt lat="40.390924" lon="-4.164398">
        <ele>536.05</ele>
        <time>2020-11-23T10:15:07Z</time>
      </trkpt>
      <trkpt lat="40.390946" lon="-4.164464">
        <ele>536.04</ele>
        <time>2020-11-23T10:15:08Z</time>
      </trkpt>
      <trkpt lat="40.390987" lon="-4.164589">
        <ele>535.43</ele>
        <time>2020-11-23T10:15:10Z</time>
      </trkpt>
      <trkpt lat="40.391003" lon="-4.164656">
        <ele>535.22</ele>
        <time>2020-11-23T10:15:11Z</time>
      </trkpt>
      <trkpt lat="40.391055" lon="-4.164815">
        <ele>534.86</ele>
        <time>2020-11-23T10:15:14Z</time>
      </trkpt>
      <trkpt lat="40.391088" lon="-4.164922">
        <ele>534.29</ele>
        <time>2020-11-23T10:15:16Z</time>
      </trkpt>
      <trkpt lat="40.391095" lon="-4.164981">
        <ele>534.26</ele>
        <time>2020-11-23T10:15:17Z</time>
      </trkpt>
      <trkpt lat="40.391101" lon="-4.165090">
        <ele>534.22</ele>
        <time>2020-11-23T10:15:19Z</time>
      </trkpt>
      <trkpt lat="40.391107" lon="-4.165434">
        <ele>534.21</ele>
        <time>2020-11-23T10:15:25Z</time>
      </trkpt>
      <trkpt lat="40.391106" lon="-4.165551">
        <ele>534.26</ele>
        <time>2020-11-23T10:15:27Z</time>
      </trkpt>
      <trkpt lat="40.391116" lon="-4.165869">
        <ele>534.85</ele>
        <time>2020-11-23T10:15:33Z</time>
      </trkpt>
      <trkpt lat="40.391127" lon="-4.165972">
        <ele>535.02</ele>
        <time>2020-11-23T10:15:35Z</time>
      </trkpt>
      <trkpt lat="40.391138" lon="-4.166072">
        <ele>535.49</ele>
        <time>2020-11-23T10:15:37Z</time>
      </trkpt>
      <trkpt lat="40.391153" lon="-4.166453">
        <ele>537.63</ele>
        <time>2020-11-23T10:15:45Z</time>
      </trkpt>
      <trkpt lat="40.391148" lon="-4.166500">
        <ele>537.85</ele>
        <time>2020-11-23T10:15:46Z</time>
      </trkpt>
      <trkpt lat="40.391142" lon="-4.166816">
        <ele>539.06</ele>
        <time>2020-11-23T10:15:52Z</time>
      </trkpt>
      <trkpt lat="40.391147" lon="-4.167009">
        <ele>539.46</ele>
        <time>2020-11-23T10:15:56Z</time>
      </trkpt>
      <trkpt lat="40.391151" lon="-4.167154">
        <ele>540.03</ele>
        <time>2020-11-23T10:15:59Z</time>
      </trkpt>
      <trkpt lat="40.391194" lon="-4.167525">
        <ele>540.66</ele>
        <time>2020-11-23T10:16:06Z</time>
      </trkpt>
      <trkpt lat="40.391197" lon="-4.167583">
        <ele>540.81</ele>
        <time>2020-11-23T10:16:07Z</time>
      </trkpt>
      <trkpt lat="40.391200" lon="-4.167638">
        <ele>540.81</ele>
        <time>2020-11-23T10:16:08Z</time>
      </trkpt>
      <trkpt lat="40.391208" lon="-4.167694">
        <ele>541.24</ele>
        <time>2020-11-23T10:16:09Z</time>
      </trkpt>
      <trkpt lat="40.391223" lon="-4.167804">
        <ele>541.28</ele>
        <time>2020-11-23T10:16:11Z</time>
      </trkpt>
      <trkpt lat="40.391234" lon="-4.167914">
        <ele>541.44</ele>
        <time>2020-11-23T10:16:13Z</time>
      </trkpt>
      <trkpt lat="40.391239" lon="-4.168081">
        <ele>541.61</ele>
        <time>2020-11-23T10:16:16Z</time>
      </trkpt>
      <trkpt lat="40.391229" lon="-4.168302">
        <ele>542.27</ele>
        <time>2020-11-23T10:16:20Z</time>
      </trkpt>
      <trkpt lat="40.391224" lon="-4.168355">
        <ele>542.07</ele>
        <time>2020-11-23T10:16:21Z</time>
      </trkpt>
      <trkpt lat="40.391138" lon="-4.168679">
        <ele>543.01</ele>
        <time>2020-11-23T10:16:27Z</time>
      </trkpt>
      <trkpt lat="40.391116" lon="-4.168738">
        <ele>543.26</ele>
        <time>2020-11-23T10:16:28Z</time>
      </trkpt>
      <trkpt lat="40.390977" lon="-4.169081">
        <ele>543.23</ele>
        <time>2020-11-23T10:16:34Z</time>
      </trkpt>
      <trkpt lat="40.390831" lon="-4.169396">
        <ele>542.65</ele>
        <time>2020-11-23T10:16:40Z</time>
      </trkpt>
      <trkpt lat="40.390809" lon="-4.169445">
        <ele>542.61</ele>
        <time>2020-11-23T10:16:41Z</time>
      </trkpt>
      <trkpt lat="40.390787" lon="-4.169491">
        <ele>542.61</ele>
        <time>2020-11-23T10:16:42Z</time>
      </trkpt>
      <trkpt lat="40.390764" lon="-4.169537">
        <ele>542.70</ele>
        <time>2020-11-23T10:16:43Z</time>
      </trkpt>
      <trkpt lat="40.390715" lon="-4.169773">
        <ele>542.66</ele>
        <time>2020-11-23T10:16:48Z</time>
      </trkpt>
      <trkpt lat="40.390711" lon="-4.169998">
        <ele>544.08</ele>
        <time>2020-11-23T10:16:52Z</time>
      </trkpt>
      <trkpt lat="40.390687" lon="-4.170218">
        <ele>544.83</ele>
        <time>2020-11-23T10:16:56Z</time>
      </trkpt>
      <trkpt lat="40.390663" lon="-4.170330">
        <ele>544.86</ele>
        <time>2020-11-23T10:16:58Z</time>
      </trkpt>
      <trkpt lat="40.390581" lon="-4.170684">
        <ele>545.24</ele>
        <time>2020-11-23T10:17:05Z</time>
      </trkpt>
      <trkpt lat="40.390509" lon="-4.170907">
        <ele>545.48</ele>
        <time>2020-11-23T10:17:10Z</time>
      </trkpt>
      <trkpt lat="40.390471" lon="-4.170981">
        <ele>545.83</ele>
        <time>2020-11-23T10:17:12Z</time>
      </trkpt>
      <trkpt lat="40.390403" lon="-4.171166">
        <ele>546.64</ele>
        <time>2020-11-23T10:17:17Z</time>
      </trkpt>
      <trkpt lat="40.390366" lon="-4.171268">
        <ele>547.47</ele>
        <time>2020-11-23T10:17:20Z</time>
      </trkpt>
      <trkpt lat="40.390357" lon="-4.171299">
        <ele>547.42</ele>
        <time>2020-11-23T10:17:21Z</time>
      </trkpt>
      <trkpt lat="40.390311" lon="-4.171427">
        <ele>548.21</ele>
        <time>2020-11-23T10:17:25Z</time>
      </trkpt>
      <trkpt lat="40.390294" lon="-4.171460">
        <ele>548.50</ele>
        <time>2020-11-23T10:17:26Z</time>
      </trkpt>
      <trkpt lat="40.390138" lon="-4.171779">
        <ele>550.41</ele>
        <time>2020-11-23T10:17:35Z</time>
      </trkpt>
      <trkpt lat="40.390120" lon="-4.171810">
        <ele>551.05</ele>
        <time>2020-11-23T10:17:36Z</time>
      </trkpt>
      <trkpt lat="40.390071" lon="-4.171908">
        <ele>551.69</ele>
        <time>2020-11-23T10:17:39Z</time>
      </trkpt>
      <trkpt lat="40.389979" lon="-4.172067">
        <ele>552.50</ele>
        <time>2020-11-23T10:17:44Z</time>
      </trkpt>
      <trkpt lat="40.389961" lon="-4.172100">
        <ele>552.70</ele>
        <time>2020-11-23T10:17:45Z</time>
      </trkpt>
      <trkpt lat="40.389854" lon="-4.172295">
        <ele>554.07</ele>
        <time>2020-11-23T10:17:51Z</time>
      </trkpt>
      <trkpt lat="40.389839" lon="-4.172328">
        <ele>554.49</ele>
        <time>2020-11-23T10:17:52Z</time>
      </trkpt>
      <trkpt lat="40.389810" lon="-4.172395">
        <ele>555.08</ele>
        <time>2020-11-23T10:17:54Z</time>
      </trkpt>
      <trkpt lat="40.389740" lon="-4.172576">
        <ele>556.41</ele>
        <time>2020-11-23T10:18:00Z</time>
      </trkpt>
      <trkpt lat="40.389733" lon="-4.172606">
        <ele>556.62</ele>
        <time>2020-11-23T10:18:01Z</time>
      </trkpt>
      <trkpt lat="40.389705" lon="-4.172704">
        <ele>557.21</ele>
        <time>2020-11-23T10:18:04Z</time>
      </trkpt>
      <trkpt lat="40.389668" lon="-4.172802">
        <ele>558.02</ele>
        <time>2020-11-23T10:18:07Z</time>
      </trkpt>
      <trkpt lat="40.389646" lon="-4.172869">
        <ele>558.47</ele>
        <time>2020-11-23T10:18:09Z</time>
      </trkpt>
      <trkpt lat="40.389638" lon="-4.172900">
        <ele>558.89</ele>
        <time>2020-11-23T10:18:10Z</time>
      </trkpt>
      <trkpt lat="40.389616" lon="-4.172993">
        <ele>560.06</ele>
        <time>2020-11-23T10:18:13Z</time>
      </trkpt>
      <trkpt lat="40.389571" lon="-4.173164">
        <ele>561.64</ele>
        <time>2020-11-23T10:18:20Z</time>
      </trkpt>
      <trkpt lat="40.389572" lon="-4.173173">
        <ele>561.82</ele>
        <time>2020-11-23T10:18:21Z</time>
      </trkpt>
      <trkpt lat="40.389574" lon="-4.173175">
        <ele>562.24</ele>
        <time>2020-11-23T10:18:23Z</time>
      </trkpt>
      <trkpt lat="40.389526" lon="-4.173326">
        <ele>563.02</ele>
        <time>2020-11-23T10:19:12Z</time>
      </trkpt>
      <trkpt lat="40.389515" lon="-4.173360">
        <ele>563.05</ele>
        <time>2020-11-23T10:19:13Z</time>
      </trkpt>
      <trkpt lat="40.389408" lon="-4.173596">
        <ele>563.03</ele>
        <time>2020-11-23T10:19:20Z</time>
      </trkpt>
      <trkpt lat="40.389313" lon="-4.173745">
        <ele>563.22</ele>
        <time>2020-11-23T10:19:25Z</time>
      </trkpt>
      <trkpt lat="40.389272" lon="-4.173794">
        <ele>563.41</ele>
        <time>2020-11-23T10:19:27Z</time>
      </trkpt>
      <trkpt lat="40.389206" lon="-4.173900">
        <ele>564.07</ele>
        <time>2020-11-23T10:19:31Z</time>
      </trkpt>
      <trkpt lat="40.389179" lon="-4.173962">
        <ele>564.68</ele>
        <time>2020-11-23T10:19:33Z</time>
      </trkpt>
      <trkpt lat="40.389167" lon="-4.173992">
        <ele>564.88</ele>
        <time>2020-11-23T10:19:34Z</time>
      </trkpt>
      <trkpt lat="40.389121" lon="-4.174161">
        <ele>566.44</ele>
        <time>2020-11-23T10:19:39Z</time>
      </trkpt>
      <trkpt lat="40.389074" lon="-4.174291">
        <ele>567.44</ele>
        <time>2020-11-23T10:19:43Z</time>
      </trkpt>
      <trkpt lat="40.389039" lon="-4.174400">
        <ele>568.29</ele>
        <time>2020-11-23T10:19:46Z</time>
      </trkpt>
      <trkpt lat="40.388943" lon="-4.174647">
        <ele>569.45</ele>
        <time>2020-11-23T10:19:52Z</time>
      </trkpt>
      <trkpt lat="40.388885" lon="-4.174895">
        <ele>569.45</ele>
        <time>2020-11-23T10:19:57Z</time>
      </trkpt>
      <trkpt lat="40.388870" lon="-4.174956">
        <ele>569.70</ele>
        <time>2020-11-23T10:19:58Z</time>
      </trkpt>
      <trkpt lat="40.388837" lon="-4.175147">
        <ele>569.42</ele>
        <time>2020-11-23T10:20:01Z</time>
      </trkpt>
      <trkpt lat="40.388832" lon="-4.175219">
        <ele>569.42</ele>
        <time>2020-11-23T10:20:02Z</time>
      </trkpt>
      <trkpt lat="40.388827" lon="-4.175381">
        <ele>568.81</ele>
        <time>2020-11-23T10:20:04Z</time>
      </trkpt>
      <trkpt lat="40.388821" lon="-4.175633">
        <ele>568.23</ele>
        <time>2020-11-23T10:20:07Z</time>
      </trkpt>
      <trkpt lat="40.388826" lon="-4.175718">
        <ele>568.09</ele>
        <time>2020-11-23T10:20:08Z</time>
      </trkpt>
      <trkpt lat="40.388834" lon="-4.175801">
        <ele>567.86</ele>
        <time>2020-11-23T10:20:09Z</time>
      </trkpt>
      <trkpt lat="40.388839" lon="-4.175883">
        <ele>567.62</ele>
        <time>2020-11-23T10:20:10Z</time>
      </trkpt>
      <trkpt lat="40.388846" lon="-4.176101">
        <ele>566.23</ele>
        <time>2020-11-23T10:20:13Z</time>
      </trkpt>
      <trkpt lat="40.388831" lon="-4.176158">
        <ele>566.09</ele>
        <time>2020-11-23T10:20:14Z</time>
      </trkpt>
      <trkpt lat="40.388802" lon="-4.176193">
        <ele>565.88</ele>
        <time>2020-11-23T10:20:15Z</time>
      </trkpt>
      <trkpt lat="40.388773" lon="-4.176215">
        <ele>565.65</ele>
        <time>2020-11-23T10:20:16Z</time>
      </trkpt>
      <trkpt lat="40.388750" lon="-4.176228">
        <ele>565.63</ele>
        <time>2020-11-23T10:20:17Z</time>
      </trkpt>
      <trkpt lat="40.388682" lon="-4.176288">
        <ele>565.66</ele>
        <time>2020-11-23T10:20:22Z</time>
      </trkpt>
      <trkpt lat="40.388677" lon="-4.176288">
        <ele>565.41</ele>
        <time>2020-11-23T10:20:24Z</time>
      </trkpt>
      <trkpt lat="40.388665" lon="-4.176364">
        <ele>566.61</ele>
        <time>2020-11-23T10:20:42Z</time>
      </trkpt>
      <trkpt lat="40.388666" lon="-4.176424">
        <ele>566.70</ele>
        <time>2020-11-23T10:20:44Z</time>
      </trkpt>
      <trkpt lat="40.388668" lon="-4.176463">
        <ele>566.64</ele>
        <time>2020-11-23T10:20:45Z</time>
      </trkpt>
      <trkpt lat="40.388693" lon="-4.176679">
        <ele>566.83</ele>
        <time>2020-11-23T10:20:50Z</time>
      </trkpt>
      <trkpt lat="40.388710" lon="-4.176884">
        <ele>567.23</ele>
        <time>2020-11-23T10:20:55Z</time>
      </trkpt>
      <trkpt lat="40.388711" lon="-4.176921">
        <ele>567.49</ele>
        <time>2020-11-23T10:20:56Z</time>
      </trkpt>
      <trkpt lat="40.388714" lon="-4.177188">
        <ele>569.10</ele>
        <time>2020-11-23T10:21:03Z</time>
      </trkpt>
      <trkpt lat="40.388698" lon="-4.177471">
        <ele>570.27</ele>
        <time>2020-11-23T10:21:10Z</time>
      </trkpt>
      <trkpt lat="40.388698" lon="-4.177511">
        <ele>570.25</ele>
        <time>2020-11-23T10:21:11Z</time>
      </trkpt>
      <trkpt lat="40.388702" lon="-4.177634">
        <ele>570.61</ele>
        <time>2020-11-23T10:21:14Z</time>
      </trkpt>
      <trkpt lat="40.388722" lon="-4.177870">
        <ele>572.02</ele>
        <time>2020-11-23T10:21:20Z</time>
      </trkpt>
      <trkpt lat="40.388730" lon="-4.178059">
        <ele>573.20</ele>
        <time>2020-11-23T10:21:25Z</time>
      </trkpt>
      <trkpt lat="40.388743" lon="-4.178181">
        <ele>573.81</ele>
        <time>2020-11-23T10:21:28Z</time>
      </trkpt>
      <trkpt lat="40.388756" lon="-4.178337">
        <ele>574.69</ele>
        <time>2020-11-23T10:21:32Z</time>
      </trkpt>
      <trkpt lat="40.388774" lon="-4.178494">
        <ele>575.48</ele>
        <time>2020-11-23T10:21:36Z</time>
      </trkpt>
      <trkpt lat="40.388780" lon="-4.178535">
        <ele>575.89</ele>
        <time>2020-11-23T10:21:37Z</time>
      </trkpt>
      <trkpt lat="40.388787" lon="-4.178577">
        <ele>576.01</ele>
        <time>2020-11-23T10:21:38Z</time>
      </trkpt>
      <trkpt lat="40.388811" lon="-4.178822">
        <ele>577.83</ele>
        <time>2020-11-23T10:21:44Z</time>
      </trkpt>
      <trkpt lat="40.388809" lon="-4.178863">
        <ele>578.29</ele>
        <time>2020-11-23T10:21:45Z</time>
      </trkpt>
      <trkpt lat="40.388797" lon="-4.179101">
        <ele>579.62</ele>
        <time>2020-11-23T10:21:51Z</time>
      </trkpt>
      <trkpt lat="40.388780" lon="-4.179211">
        <ele>580.66</ele>
        <time>2020-11-23T10:21:54Z</time>
      </trkpt>
      <trkpt lat="40.388751" lon="-4.179355">
        <ele>581.25</ele>
        <time>2020-11-23T10:21:58Z</time>
      </trkpt>
      <trkpt lat="40.388724" lon="-4.179526">
        <ele>582.46</ele>
        <time>2020-11-23T10:22:03Z</time>
      </trkpt>
      <trkpt lat="40.388720" lon="-4.179558">
        <ele>582.41</ele>
        <time>2020-11-23T10:22:04Z</time>
      </trkpt>
      <trkpt lat="40.388715" lon="-4.179656">
        <ele>583.41</ele>
        <time>2020-11-23T10:22:07Z</time>
      </trkpt>
      <trkpt lat="40.388721" lon="-4.179751">
        <ele>583.65</ele>
        <time>2020-11-23T10:22:10Z</time>
      </trkpt>
      <trkpt lat="40.388717" lon="-4.179880">
        <ele>584.88</ele>
        <time>2020-11-23T10:22:14Z</time>
      </trkpt>
      <trkpt lat="40.388710" lon="-4.179942">
        <ele>585.64</ele>
        <time>2020-11-23T10:22:16Z</time>
      </trkpt>
      <trkpt lat="40.388703" lon="-4.180006">
        <ele>585.83</ele>
        <time>2020-11-23T10:22:18Z</time>
      </trkpt>
      <trkpt lat="40.388693" lon="-4.180066">
        <ele>586.62</ele>
        <time>2020-11-23T10:22:20Z</time>
      </trkpt>
      <trkpt lat="40.388682" lon="-4.180128">
        <ele>587.49</ele>
        <time>2020-11-23T10:22:22Z</time>
      </trkpt>
      <trkpt lat="40.388668" lon="-4.180215">
        <ele>588.43</ele>
        <time>2020-11-23T10:22:25Z</time>
      </trkpt>
      <trkpt lat="40.388660" lon="-4.180271">
        <ele>589.23</ele>
        <time>2020-11-23T10:22:27Z</time>
      </trkpt>
      <trkpt lat="40.388658" lon="-4.180299">
        <ele>589.29</ele>
        <time>2020-11-23T10:22:28Z</time>
      </trkpt>
      <trkpt lat="40.388650" lon="-4.180384">
        <ele>590.47</ele>
        <time>2020-11-23T10:22:31Z</time>
      </trkpt>
      <trkpt lat="40.388638" lon="-4.180439">
        <ele>591.02</ele>
        <time>2020-11-23T10:22:33Z</time>
      </trkpt>
      <trkpt lat="40.388623" lon="-4.180491">
        <ele>591.81</ele>
        <time>2020-11-23T10:22:35Z</time>
      </trkpt>
      <trkpt lat="40.388606" lon="-4.180571">
        <ele>593.24</ele>
        <time>2020-11-23T10:22:38Z</time>
      </trkpt>
      <trkpt lat="40.388598" lon="-4.180653">
        <ele>593.87</ele>
        <time>2020-11-23T10:22:41Z</time>
      </trkpt>
      <trkpt lat="40.388589" lon="-4.180678">
        <ele>594.48</ele>
        <time>2020-11-23T10:22:42Z</time>
      </trkpt>
      <trkpt lat="40.388570" lon="-4.180756">
        <ele>595.88</ele>
        <time>2020-11-23T10:22:45Z</time>
      </trkpt>
      <trkpt lat="40.388570" lon="-4.180781">
        <ele>596.25</ele>
        <time>2020-11-23T10:22:46Z</time>
      </trkpt>
      <trkpt lat="40.388583" lon="-4.180890">
        <ele>597.47</ele>
        <time>2020-11-23T10:22:50Z</time>
      </trkpt>
      <trkpt lat="40.388606" lon="-4.180982">
        <ele>598.86</ele>
        <time>2020-11-23T10:22:53Z</time>
      </trkpt>
      <trkpt lat="40.388616" lon="-4.181190">
        <ele>600.27</ele>
        <time>2020-11-23T10:22:59Z</time>
      </trkpt>
      <trkpt lat="40.388604" lon="-4.181224">
        <ele>600.47</ele>
        <time>2020-11-23T10:23:00Z</time>
      </trkpt>
      <trkpt lat="40.388552" lon="-4.181406">
        <ele>600.86</ele>
        <time>2020-11-23T10:23:05Z</time>
      </trkpt>
      <trkpt lat="40.388530" lon="-4.181527">
        <ele>601.22</ele>
        <time>2020-11-23T10:23:08Z</time>
      </trkpt>
      <trkpt lat="40.388515" lon="-4.181647">
        <ele>602.21</ele>
        <time>2020-11-23T10:23:11Z</time>
      </trkpt>
      <trkpt lat="40.388489" lon="-4.181800">
        <ele>603.09</ele>
        <time>2020-11-23T10:23:15Z</time>
      </trkpt>
      <trkpt lat="40.388481" lon="-4.181837">
        <ele>603.29</ele>
        <time>2020-11-23T10:23:16Z</time>
      </trkpt>
      <trkpt lat="40.388425" lon="-4.182032">
        <ele>604.49</ele>
        <time>2020-11-23T10:23:21Z</time>
      </trkpt>
      <trkpt lat="40.388407" lon="-4.182101">
        <ele>604.62</ele>
        <time>2020-11-23T10:23:23Z</time>
      </trkpt>
      <trkpt lat="40.388409" lon="-4.182328">
        <ele>605.64</ele>
        <time>2020-11-23T10:23:29Z</time>
      </trkpt>
      <trkpt lat="40.388418" lon="-4.182556">
        <ele>606.45</ele>
        <time>2020-11-23T10:23:36Z</time>
      </trkpt>
      <trkpt lat="40.388414" lon="-4.182749">
        <ele>606.27</ele>
        <time>2020-11-23T10:23:43Z</time>
      </trkpt>
      <trkpt lat="40.388454" lon="-4.182934">
        <ele>606.29</ele>
        <time>2020-11-23T10:23:49Z</time>
      </trkpt>
      <trkpt lat="40.388465" lon="-4.182991">
        <ele>606.05</ele>
        <time>2020-11-23T10:23:51Z</time>
      </trkpt>
      <trkpt lat="40.388509" lon="-4.183162">
        <ele>606.03</ele>
        <time>2020-11-23T10:23:56Z</time>
      </trkpt>
      <trkpt lat="40.388535" lon="-4.183281">
        <ele>605.82</ele>
        <time>2020-11-23T10:23:59Z</time>
      </trkpt>
      <trkpt lat="40.388552" lon="-4.183356">
        <ele>605.81</ele>
        <time>2020-11-23T10:24:01Z</time>
      </trkpt>
      <trkpt lat="40.388581" lon="-4.183487">
        <ele>605.49</ele>
        <time>2020-11-23T10:24:04Z</time>
      </trkpt>
      <trkpt lat="40.388599" lon="-4.183752">
        <ele>604.88</ele>
        <time>2020-11-23T10:24:09Z</time>
      </trkpt>
      <trkpt lat="40.388592" lon="-4.183812">
        <ele>604.88</ele>
        <time>2020-11-23T10:24:10Z</time>
      </trkpt>
      <trkpt lat="40.388549" lon="-4.184207">
        <ele>604.49</ele>
        <time>2020-11-23T10:24:17Z</time>
      </trkpt>
      <trkpt lat="40.388510" lon="-4.184447">
        <ele>604.46</ele>
        <time>2020-11-23T10:24:22Z</time>
      </trkpt>
      <trkpt lat="40.388494" lon="-4.184535">
        <ele>604.48</ele>
        <time>2020-11-23T10:24:24Z</time>
      </trkpt>
      <trkpt lat="40.388481" lon="-4.184626">
        <ele>604.65</ele>
        <time>2020-11-23T10:24:26Z</time>
      </trkpt>
      <trkpt lat="40.388454" lon="-4.184743">
        <ele>605.21</ele>
        <time>2020-11-23T10:24:29Z</time>
      </trkpt>
      <trkpt lat="40.388429" lon="-4.184818">
        <ele>605.69</ele>
        <time>2020-11-23T10:24:31Z</time>
      </trkpt>
      <trkpt lat="40.388403" lon="-4.184891">
        <ele>606.08</ele>
        <time>2020-11-23T10:24:33Z</time>
      </trkpt>
      <trkpt lat="40.388312" lon="-4.185150">
        <ele>608.22</ele>
        <time>2020-11-23T10:24:40Z</time>
      </trkpt>
      <trkpt lat="40.388262" lon="-4.185252">
        <ele>609.41</ele>
        <time>2020-11-23T10:24:43Z</time>
      </trkpt>
      <trkpt lat="40.388224" lon="-4.185345">
        <ele>610.03</ele>
        <time>2020-11-23T10:24:46Z</time>
      </trkpt>
      <trkpt lat="40.388213" lon="-4.185377">
        <ele>610.24</ele>
        <time>2020-11-23T10:24:47Z</time>
      </trkpt>
      <trkpt lat="40.388178" lon="-4.185493">
        <ele>611.01</ele>
        <time>2020-11-23T10:24:51Z</time>
      </trkpt>
      <trkpt lat="40.388165" lon="-4.185520">
        <ele>611.07</ele>
        <time>2020-11-23T10:24:52Z</time>
      </trkpt>
      <trkpt lat="40.388111" lon="-4.185591">
        <ele>611.88</ele>
        <time>2020-11-23T10:24:55Z</time>
      </trkpt>
      <trkpt lat="40.388051" lon="-4.185656">
        <ele>612.62</ele>
        <time>2020-11-23T10:24:58Z</time>
      </trkpt>
      <trkpt lat="40.387970" lon="-4.185744">
        <ele>614.48</ele>
        <time>2020-11-23T10:25:02Z</time>
      </trkpt>
      <trkpt lat="40.387902" lon="-4.185855">
        <ele>615.62</ele>
        <time>2020-11-23T10:25:06Z</time>
      </trkpt>
      <trkpt lat="40.387869" lon="-4.185913">
        <ele>615.67</ele>
        <time>2020-11-23T10:25:08Z</time>
      </trkpt>
      <trkpt lat="40.387855" lon="-4.185942">
        <ele>615.86</ele>
        <time>2020-11-23T10:25:09Z</time>
      </trkpt>
      <trkpt lat="40.387843" lon="-4.185972">
        <ele>616.22</ele>
        <time>2020-11-23T10:25:10Z</time>
      </trkpt>
      <trkpt lat="40.387832" lon="-4.186003">
        <ele>616.21</ele>
        <time>2020-11-23T10:25:11Z</time>
      </trkpt>
      <trkpt lat="40.387822" lon="-4.186036">
        <ele>616.66</ele>
        <time>2020-11-23T10:25:12Z</time>
      </trkpt>
      <trkpt lat="40.387812" lon="-4.186069">
        <ele>616.68</ele>
        <time>2020-11-23T10:25:13Z</time>
      </trkpt>
      <trkpt lat="40.387804" lon="-4.186105">
        <ele>616.68</ele>
        <time>2020-11-23T10:25:14Z</time>
      </trkpt>
      <trkpt lat="40.387757" lon="-4.186252">
        <ele>617.02</ele>
        <time>2020-11-23T10:25:18Z</time>
      </trkpt>
      <trkpt lat="40.387742" lon="-4.186287">
        <ele>617.03</ele>
        <time>2020-11-23T10:25:19Z</time>
      </trkpt>
      <trkpt lat="40.387730" lon="-4.186321">
        <ele>617.45</ele>
        <time>2020-11-23T10:25:20Z</time>
      </trkpt>
      <trkpt lat="40.387668" lon="-4.186475">
        <ele>618.90</ele>
        <time>2020-11-23T10:25:25Z</time>
      </trkpt>
      <trkpt lat="40.387653" lon="-4.186507">
        <ele>619.09</ele>
        <time>2020-11-23T10:25:26Z</time>
      </trkpt>
      <trkpt lat="40.387643" lon="-4.186538">
        <ele>619.50</ele>
        <time>2020-11-23T10:25:27Z</time>
      </trkpt>
      <trkpt lat="40.387546" lon="-4.186799">
        <ele>620.01</ele>
        <time>2020-11-23T10:25:35Z</time>
      </trkpt>
      <trkpt lat="40.387535" lon="-4.186829">
        <ele>620.23</ele>
        <time>2020-11-23T10:25:36Z</time>
      </trkpt>
      <trkpt lat="40.387522" lon="-4.186857">
        <ele>620.61</ele>
        <time>2020-11-23T10:25:37Z</time>
      </trkpt>
      <trkpt lat="40.387485" lon="-4.186935">
        <ele>621.66</ele>
        <time>2020-11-23T10:25:39Z</time>
      </trkpt>
      <trkpt lat="40.387437" lon="-4.187007">
        <ele>621.85</ele>
        <time>2020-11-23T10:25:41Z</time>
      </trkpt>
      <trkpt lat="40.387364" lon="-4.187108">
        <ele>622.67</ele>
        <time>2020-11-23T10:25:44Z</time>
      </trkpt>
      <trkpt lat="40.387316" lon="-4.187230">
        <ele>622.89</ele>
        <time>2020-11-23T10:25:47Z</time>
      </trkpt>
      <trkpt lat="40.387296" lon="-4.187312">
        <ele>623.22</ele>
        <time>2020-11-23T10:25:49Z</time>
      </trkpt>
      <trkpt lat="40.387276" lon="-4.187415">
        <ele>623.47</ele>
        <time>2020-11-23T10:25:52Z</time>
      </trkpt>
      <trkpt lat="40.387267" lon="-4.187444">
        <ele>623.66</ele>
        <time>2020-11-23T10:25:53Z</time>
      </trkpt>
      <trkpt lat="40.387231" lon="-4.187531">
        <ele>623.87</ele>
        <time>2020-11-23T10:25:56Z</time>
      </trkpt>
      <trkpt lat="40.387215" lon="-4.187553">
        <ele>623.88</ele>
        <time>2020-11-23T10:25:57Z</time>
      </trkpt>
      <trkpt lat="40.387200" lon="-4.187576">
        <ele>624.03</ele>
        <time>2020-11-23T10:25:58Z</time>
      </trkpt>
      <trkpt lat="40.387160" lon="-4.187658">
        <ele>624.82</ele>
        <time>2020-11-23T10:26:01Z</time>
      </trkpt>
      <trkpt lat="40.387146" lon="-4.187709">
        <ele>625.81</ele>
        <time>2020-11-23T10:26:03Z</time>
      </trkpt>
      <trkpt lat="40.387146" lon="-4.187802">
        <ele>627.27</ele>
        <time>2020-11-23T10:26:06Z</time>
      </trkpt>
      <trkpt lat="40.387142" lon="-4.187863">
        <ele>628.46</ele>
        <time>2020-11-23T10:26:08Z</time>
      </trkpt>
      <trkpt lat="40.387124" lon="-4.187955">
        <ele>629.63</ele>
        <time>2020-11-23T10:26:11Z</time>
      </trkpt>
      <trkpt lat="40.387103" lon="-4.188078">
        <ele>630.70</ele>
        <time>2020-11-23T10:26:15Z</time>
      </trkpt>
      <trkpt lat="40.387099" lon="-4.188106">
        <ele>630.63</ele>
        <time>2020-11-23T10:26:16Z</time>
      </trkpt>
      <trkpt lat="40.387108" lon="-4.188233">
        <ele>632.22</ele>
        <time>2020-11-23T10:26:20Z</time>
      </trkpt>
      <trkpt lat="40.387110" lon="-4.188301">
        <ele>633.08</ele>
        <time>2020-11-23T10:26:22Z</time>
      </trkpt>
      <trkpt lat="40.387123" lon="-4.188476">
        <ele>634.88</ele>
        <time>2020-11-23T10:26:27Z</time>
      </trkpt>
      <trkpt lat="40.387123" lon="-4.188513">
        <ele>634.82</ele>
        <time>2020-11-23T10:26:28Z</time>
      </trkpt>
      <trkpt lat="40.387121" lon="-4.188820">
        <ele>636.47</ele>
        <time>2020-11-23T10:26:35Z</time>
      </trkpt>
      <trkpt lat="40.387120" lon="-4.188895">
        <ele>636.41</ele>
        <time>2020-11-23T10:26:37Z</time>
      </trkpt>
      <trkpt lat="40.387131" lon="-4.189020">
        <ele>636.81</ele>
        <time>2020-11-23T10:26:41Z</time>
      </trkpt>
      <trkpt lat="40.387244" lon="-4.189141">
        <ele>637.43</ele>
        <time>2020-11-23T10:26:46Z</time>
      </trkpt>
      <trkpt lat="40.387422" lon="-4.189252">
        <ele>638.22</ele>
        <time>2020-11-23T10:26:52Z</time>
      </trkpt>
      <trkpt lat="40.387484" lon="-4.189292">
        <ele>638.21</ele>
        <time>2020-11-23T10:26:54Z</time>
      </trkpt>
      <trkpt lat="40.387686" lon="-4.189505">
        <ele>638.65</ele>
        <time>2020-11-23T10:27:01Z</time>
      </trkpt>
      <trkpt lat="40.387709" lon="-4.189543">
        <ele>638.64</ele>
        <time>2020-11-23T10:27:02Z</time>
      </trkpt>
      <trkpt lat="40.387810" lon="-4.189719">
        <ele>639.23</ele>
        <time>2020-11-23T10:27:07Z</time>
      </trkpt>
      <trkpt lat="40.387852" lon="-4.189874">
        <ele>639.67</ele>
        <time>2020-11-23T10:27:11Z</time>
      </trkpt>
      <trkpt lat="40.387859" lon="-4.189948">
        <ele>640.09</ele>
        <time>2020-11-23T10:27:13Z</time>
      </trkpt>
      <trkpt lat="40.387855" lon="-4.190095">
        <ele>640.90</ele>
        <time>2020-11-23T10:27:18Z</time>
      </trkpt>
      <trkpt lat="40.387848" lon="-4.190164">
        <ele>640.83</ele>
        <time>2020-11-23T10:27:20Z</time>
      </trkpt>
      <trkpt lat="40.387846" lon="-4.190248">
        <ele>641.02</ele>
        <time>2020-11-23T10:27:23Z</time>
      </trkpt>
      <trkpt lat="40.387851" lon="-4.190259">
        <ele>641.01</ele>
        <time>2020-11-23T10:27:24Z</time>
      </trkpt>
      <trkpt lat="40.387871" lon="-4.190231">
        <ele>641.10</ele>
        <time>2020-11-23T10:27:27Z</time>
      </trkpt>
      <trkpt lat="40.387909" lon="-4.190135">
        <ele>640.41</ele>
        <time>2020-11-23T10:27:32Z</time>
      </trkpt>
      <trkpt lat="40.387922" lon="-4.190128">
        <ele>640.42</ele>
        <time>2020-11-23T10:27:33Z</time>
      </trkpt>
      <trkpt lat="40.387934" lon="-4.190126">
        <ele>640.44</ele>
        <time>2020-11-23T10:27:34Z</time>
      </trkpt>
      <trkpt lat="40.388036" lon="-4.190154">
        <ele>640.86</ele>
        <time>2020-11-23T10:27:41Z</time>
      </trkpt>
      <trkpt lat="40.388054" lon="-4.190162">
        <ele>640.83</ele>
        <time>2020-11-23T10:27:42Z</time>
      </trkpt>
      <trkpt lat="40.388149" lon="-4.190208">
        <ele>641.27</ele>
        <time>2020-11-23T10:27:48Z</time>
      </trkpt>
      <trkpt lat="40.388169" lon="-4.190220">
        <ele>641.70</ele>
        <time>2020-11-23T10:27:49Z</time>
      </trkpt>
      <trkpt lat="40.388263" lon="-4.190316">
        <ele>642.49</ele>
        <time>2020-11-23T10:27:54Z</time>
      </trkpt>
      <trkpt lat="40.388383" lon="-4.190453">
        <ele>642.82</ele>
        <time>2020-11-23T10:28:00Z</time>
      </trkpt>
      <trkpt lat="40.388461" lon="-4.190535">
        <ele>643.23</ele>
        <time>2020-11-23T10:28:04Z</time>
      </trkpt>
      <trkpt lat="40.388510" lon="-4.190589">
        <ele>643.21</ele>
        <time>2020-11-23T10:28:07Z</time>
      </trkpt>
      <trkpt lat="40.388516" lon="-4.190597">
        <ele>643.66</ele>
        <time>2020-11-23T10:28:09Z</time>
      </trkpt>
      <trkpt lat="40.388473" lon="-4.190536">
        <ele>644.28</ele>
        <time>2020-11-23T10:29:04Z</time>
      </trkpt>
      <trkpt lat="40.388366" lon="-4.190438">
        <ele>644.27</ele>
        <time>2020-11-23T10:29:09Z</time>
      </trkpt>
      <trkpt lat="40.388390" lon="-4.190458">
        <ele>644.27</ele>
        <time>2020-11-23T10:29:10Z</time>
      </trkpt>
      <trkpt lat="40.388418" lon="-4.190479">
        <ele>644.04</ele>
        <time>2020-11-23T10:29:13Z</time>
      </trkpt>
      <trkpt lat="40.388447" lon="-4.190501">
        <ele>644.01</ele>
        <time>2020-11-23T10:29:15Z</time>
      </trkpt>
      <trkpt lat="40.388475" lon="-4.190522">
        <ele>643.88</ele>
        <time>2020-11-23T10:29:34Z</time>
      </trkpt>
      <trkpt lat="40.388504" lon="-4.190544">
        <ele>643.84</ele>
        <time>2020-11-23T10:29:35Z</time>
      </trkpt>
      <trkpt lat="40.388599" lon="-4.190681">
        <ele>643.89</ele>
        <time>2020-11-23T10:29:39Z</time>
      </trkpt>
      <trkpt lat="40.388664" lon="-4.190787">
        <ele>644.04</ele>
        <time>2020-11-23T10:29:42Z</time>
      </trkpt>
      <trkpt lat="40.388724" lon="-4.190886">
        <ele>645.03</ele>
        <time>2020-11-23T10:29:45Z</time>
      </trkpt>
      <trkpt lat="40.388787" lon="-4.190974">
        <ele>645.41</ele>
        <time>2020-11-23T10:29:48Z</time>
      </trkpt>
      <trkpt lat="40.388815" lon="-4.190993">
        <ele>645.89</ele>
        <time>2020-11-23T10:29:49Z</time>
      </trkpt>
      <trkpt lat="40.388905" lon="-4.191053">
        <ele>646.50</ele>
        <time>2020-11-23T10:29:53Z</time>
      </trkpt>
      <trkpt lat="40.388954" lon="-4.191074">
        <ele>646.84</ele>
        <time>2020-11-23T10:29:55Z</time>
      </trkpt>
      <trkpt lat="40.389047" lon="-4.191137">
        <ele>647.46</ele>
        <time>2020-11-23T10:30:00Z</time>
      </trkpt>
      <trkpt lat="40.389061" lon="-4.191151">
        <ele>647.66</ele>
        <time>2020-11-23T10:30:01Z</time>
      </trkpt>
      <trkpt lat="40.389100" lon="-4.191197">
        <ele>648.09</ele>
        <time>2020-11-23T10:30:04Z</time>
      </trkpt>
      <trkpt lat="40.389165" lon="-4.191246">
        <ele>648.44</ele>
        <time>2020-11-23T10:30:08Z</time>
      </trkpt>
      <trkpt lat="40.389185" lon="-4.191263">
        <ele>648.67</ele>
        <time>2020-11-23T10:30:09Z</time>
      </trkpt>
      <trkpt lat="40.389225" lon="-4.191294">
        <ele>649.29</ele>
        <time>2020-11-23T10:30:11Z</time>
      </trkpt>
      <trkpt lat="40.389302" lon="-4.191312">
        <ele>649.84</ele>
        <time>2020-11-23T10:30:14Z</time>
      </trkpt>
      <trkpt lat="40.389318" lon="-4.191323">
        <ele>650.23</ele>
        <time>2020-11-23T10:30:15Z</time>
      </trkpt>
      <trkpt lat="40.389390" lon="-4.191360">
        <ele>651.01</ele>
        <time>2020-11-23T10:30:19Z</time>
      </trkpt>
      <trkpt lat="40.389407" lon="-4.191369">
        <ele>651.04</ele>
        <time>2020-11-23T10:30:20Z</time>
      </trkpt>
      <trkpt lat="40.389467" lon="-4.191392">
        <ele>651.84</ele>
        <time>2020-11-23T10:30:23Z</time>
      </trkpt>
      <trkpt lat="40.389507" lon="-4.191424">
        <ele>652.68</ele>
        <time>2020-11-23T10:30:26Z</time>
      </trkpt>
      <trkpt lat="40.389519" lon="-4.191436">
        <ele>653.07</ele>
        <time>2020-11-23T10:30:27Z</time>
      </trkpt>
      <trkpt lat="40.389592" lon="-4.191478">
        <ele>654.62</ele>
        <time>2020-11-23T10:30:32Z</time>
      </trkpt>
      <trkpt lat="40.389606" lon="-4.191499">
        <ele>654.69</ele>
        <time>2020-11-23T10:30:33Z</time>
      </trkpt>
      <trkpt lat="40.389636" lon="-4.191537">
        <ele>655.50</ele>
        <time>2020-11-23T10:30:35Z</time>
      </trkpt>
      <trkpt lat="40.389697" lon="-4.191572">
        <ele>656.24</ele>
        <time>2020-11-23T10:30:38Z</time>
      </trkpt>
      <trkpt lat="40.389797" lon="-4.191626">
        <ele>657.03</ele>
        <time>2020-11-23T10:30:43Z</time>
      </trkpt>
      <trkpt lat="40.389850" lon="-4.191646">
        <ele>658.00</ele>
        <time>2020-11-23T10:30:45Z</time>
      </trkpt>
      <trkpt lat="40.389989" lon="-4.191683">
        <ele>660.02</ele>
        <time>2020-11-23T10:30:52Z</time>
      </trkpt>
      <trkpt lat="40.390001" lon="-4.191688">
        <ele>660.01</ele>
        <time>2020-11-23T10:30:53Z</time>
      </trkpt>
      <trkpt lat="40.390027" lon="-4.191709">
        <ele>660.25</ele>
        <time>2020-11-23T10:30:55Z</time>
      </trkpt>
      <trkpt lat="40.390081" lon="-4.191749">
        <ele>660.88</ele>
        <time>2020-11-23T10:30:59Z</time>
      </trkpt>
      <trkpt lat="40.390186" lon="-4.191818">
        <ele>660.84</ele>
        <time>2020-11-23T10:31:05Z</time>
      </trkpt>
      <trkpt lat="40.390295" lon="-4.191866">
        <ele>661.02</ele>
        <time>2020-11-23T10:31:10Z</time>
      </trkpt>
      <trkpt lat="40.390335" lon="-4.191883">
        <ele>661.09</ele>
        <time>2020-11-23T10:31:12Z</time>
      </trkpt>
      <trkpt lat="40.390393" lon="-4.191935">
        <ele>660.89</ele>
        <time>2020-11-23T10:31:15Z</time>
      </trkpt>
      <trkpt lat="40.390564" lon="-4.192037">
        <ele>661.01</ele>
        <time>2020-11-23T10:31:23Z</time>
      </trkpt>
      <trkpt lat="40.390695" lon="-4.192082">
        <ele>660.82</ele>
        <time>2020-11-23T10:31:29Z</time>
      </trkpt>
      <trkpt lat="40.390858" lon="-4.192090">
        <ele>661.02</ele>
        <time>2020-11-23T10:31:35Z</time>
      </trkpt>
      <trkpt lat="40.390981" lon="-4.192114">
        <ele>661.28</ele>
        <time>2020-11-23T10:31:39Z</time>
      </trkpt>
      <trkpt lat="40.391039" lon="-4.192131">
        <ele>661.41</ele>
        <time>2020-11-23T10:31:41Z</time>
      </trkpt>
      <trkpt lat="40.391184" lon="-4.192205">
        <ele>661.61</ele>
        <time>2020-11-23T10:31:46Z</time>
      </trkpt>
      <trkpt lat="40.391212" lon="-4.192224">
        <ele>661.63</ele>
        <time>2020-11-23T10:31:47Z</time>
      </trkpt>
      <trkpt lat="40.391239" lon="-4.192247">
        <ele>661.83</ele>
        <time>2020-11-23T10:31:48Z</time>
      </trkpt>
      <trkpt lat="40.391266" lon="-4.192280">
        <ele>662.01</ele>
        <time>2020-11-23T10:31:49Z</time>
      </trkpt>
      <trkpt lat="40.391398" lon="-4.192431">
        <ele>662.44</ele>
        <time>2020-11-23T10:31:54Z</time>
      </trkpt>
      <trkpt lat="40.391484" lon="-4.192636">
        <ele>662.89</ele>
        <time>2020-11-23T10:31:59Z</time>
      </trkpt>
      <trkpt lat="40.391471" lon="-4.192905">
        <ele>663.50</ele>
        <time>2020-11-23T10:32:05Z</time>
      </trkpt>
      <trkpt lat="40.391417" lon="-4.193103">
        <ele>663.61</ele>
        <time>2020-11-23T10:32:10Z</time>
      </trkpt>
      <trkpt lat="40.391416" lon="-4.193150">
        <ele>663.63</ele>
        <time>2020-11-23T10:32:11Z</time>
      </trkpt>
      <trkpt lat="40.391448" lon="-4.193267">
        <ele>664.69</ele>
        <time>2020-11-23T10:32:14Z</time>
      </trkpt>
      <trkpt lat="40.391569" lon="-4.193456">
        <ele>665.66</ele>
        <time>2020-11-23T10:32:20Z</time>
      </trkpt>
      <trkpt lat="40.391668" lon="-4.193673">
        <ele>666.63</ele>
        <time>2020-11-23T10:32:26Z</time>
      </trkpt>
      <trkpt lat="40.391763" lon="-4.193892">
        <ele>667.41</ele>
        <time>2020-11-23T10:32:32Z</time>
      </trkpt>
      <trkpt lat="40.391916" lon="-4.194104">
        <ele>668.28</ele>
        <time>2020-11-23T10:32:39Z</time>
      </trkpt>
      <trkpt lat="40.391968" lon="-4.194157">
        <ele>668.08</ele>
        <time>2020-11-23T10:32:41Z</time>
      </trkpt>
      <trkpt lat="40.392086" lon="-4.194280">
        <ele>668.49</ele>
        <time>2020-11-23T10:32:46Z</time>
      </trkpt>
      <trkpt lat="40.392108" lon="-4.194304">
        <ele>668.63</ele>
        <time>2020-11-23T10:32:47Z</time>
      </trkpt>
      <trkpt lat="40.392263" lon="-4.194418">
        <ele>670.08</ele>
        <time>2020-11-23T10:32:53Z</time>
      </trkpt>
      <trkpt lat="40.392286" lon="-4.194434">
        <ele>670.47</ele>
        <time>2020-11-23T10:32:54Z</time>
      </trkpt>
      <trkpt lat="40.392393" lon="-4.194501">
        <ele>671.84</ele>
        <time>2020-11-23T10:32:58Z</time>
      </trkpt>
      <trkpt lat="40.392451" lon="-4.194519">
        <ele>672.27</ele>
        <time>2020-11-23T10:33:00Z</time>
      </trkpt>
      <trkpt lat="40.392478" lon="-4.194529">
        <ele>672.23</ele>
        <time>2020-11-23T10:33:01Z</time>
      </trkpt>
      <trkpt lat="40.392579" lon="-4.194557">
        <ele>672.69</ele>
        <time>2020-11-23T10:33:05Z</time>
      </trkpt>
      <trkpt lat="40.392602" lon="-4.194560">
        <ele>673.01</ele>
        <time>2020-11-23T10:33:06Z</time>
      </trkpt>
      <trkpt lat="40.392649" lon="-4.194573">
        <ele>673.81</ele>
        <time>2020-11-23T10:33:08Z</time>
      </trkpt>
      <trkpt lat="40.392668" lon="-4.194593">
        <ele>674.10</ele>
        <time>2020-11-23T10:33:09Z</time>
      </trkpt>
      <trkpt lat="40.392690" lon="-4.194655">
        <ele>674.66</ele>
        <time>2020-11-23T10:33:11Z</time>
      </trkpt>
      <trkpt lat="40.392657" lon="-4.194813">
        <ele>676.03</ele>
        <time>2020-11-23T10:33:15Z</time>
      </trkpt>
      <trkpt lat="40.392579" lon="-4.195156">
        <ele>677.24</ele>
        <time>2020-11-23T10:33:23Z</time>
      </trkpt>
      <trkpt lat="40.392576" lon="-4.195210">
        <ele>677.48</ele>
        <time>2020-11-23T10:33:24Z</time>
      </trkpt>
      <trkpt lat="40.392562" lon="-4.195449">
        <ele>677.69</ele>
        <time>2020-11-23T10:33:28Z</time>
      </trkpt>
      <trkpt lat="40.392559" lon="-4.195557">
        <ele>677.44</ele>
        <time>2020-11-23T10:33:30Z</time>
      </trkpt>
      <trkpt lat="40.392592" lon="-4.195734">
        <ele>677.89</ele>
        <time>2020-11-23T10:33:34Z</time>
      </trkpt>
      <trkpt lat="40.392606" lon="-4.195771">
        <ele>677.90</ele>
        <time>2020-11-23T10:33:35Z</time>
      </trkpt>
      <trkpt lat="40.392630" lon="-4.195916">
        <ele>678.02</ele>
        <time>2020-11-23T10:33:39Z</time>
      </trkpt>
      <trkpt lat="40.392630" lon="-4.195951">
        <ele>678.42</ele>
        <time>2020-11-23T10:33:40Z</time>
      </trkpt>
      <trkpt lat="40.392602" lon="-4.196127">
        <ele>679.81</ele>
        <time>2020-11-23T10:33:45Z</time>
      </trkpt>
      <trkpt lat="40.392592" lon="-4.196163">
        <ele>680.24</ele>
        <time>2020-11-23T10:33:46Z</time>
      </trkpt>
      <trkpt lat="40.392572" lon="-4.196414">
        <ele>681.25</ele>
        <time>2020-11-23T10:33:52Z</time>
      </trkpt>
      <trkpt lat="40.392577" lon="-4.196505">
        <ele>681.84</ele>
        <time>2020-11-23T10:33:54Z</time>
      </trkpt>
      <trkpt lat="40.392622" lon="-4.196758">
        <ele>683.05</ele>
        <time>2020-11-23T10:34:00Z</time>
      </trkpt>
      <trkpt lat="40.392659" lon="-4.196881">
        <ele>684.01</ele>
        <time>2020-11-23T10:34:03Z</time>
      </trkpt>
      <trkpt lat="40.392702" lon="-4.197040">
        <ele>684.63</ele>
        <time>2020-11-23T10:34:07Z</time>
      </trkpt>
      <trkpt lat="40.392722" lon="-4.197124">
        <ele>685.01</ele>
        <time>2020-11-23T10:34:09Z</time>
      </trkpt>
      <trkpt lat="40.392760" lon="-4.197323">
        <ele>685.27</ele>
        <time>2020-11-23T10:34:14Z</time>
      </trkpt>
      <trkpt lat="40.392768" lon="-4.197361">
        <ele>685.28</ele>
        <time>2020-11-23T10:34:15Z</time>
      </trkpt>
      <trkpt lat="40.392838" lon="-4.197561">
        <ele>686.61</ele>
        <time>2020-11-23T10:34:21Z</time>
      </trkpt>
      <trkpt lat="40.392867" lon="-4.197590">
        <ele>687.22</ele>
        <time>2020-11-23T10:34:22Z</time>
      </trkpt>
      <trkpt lat="40.392894" lon="-4.197621">
        <ele>687.41</ele>
        <time>2020-11-23T10:34:23Z</time>
      </trkpt>
      <trkpt lat="40.392922" lon="-4.197653">
        <ele>687.66</ele>
        <time>2020-11-23T10:34:24Z</time>
      </trkpt>
      <trkpt lat="40.392992" lon="-4.197763">
        <ele>688.68</ele>
        <time>2020-11-23T10:34:27Z</time>
      </trkpt>
      <trkpt lat="40.393058" lon="-4.197914">
        <ele>689.25</ele>
        <time>2020-11-23T10:34:31Z</time>
      </trkpt>
      <trkpt lat="40.393089" lon="-4.198036">
        <ele>689.66</ele>
        <time>2020-11-23T10:34:34Z</time>
      </trkpt>
      <trkpt lat="40.393204" lon="-4.198356">
        <ele>690.21</ele>
        <time>2020-11-23T10:34:42Z</time>
      </trkpt>
      <trkpt lat="40.393239" lon="-4.198425">
        <ele>690.41</ele>
        <time>2020-11-23T10:34:44Z</time>
      </trkpt>
      <trkpt lat="40.393315" lon="-4.198550">
        <ele>690.66</ele>
        <time>2020-11-23T10:34:48Z</time>
      </trkpt>
      <trkpt lat="40.393339" lon="-4.198580">
        <ele>690.66</ele>
        <time>2020-11-23T10:34:49Z</time>
      </trkpt>
      <trkpt lat="40.393413" lon="-4.198685">
        <ele>691.23</ele>
        <time>2020-11-23T10:34:52Z</time>
      </trkpt>
      <trkpt lat="40.393494" lon="-4.198765">
        <ele>691.80</ele>
        <time>2020-11-23T10:34:55Z</time>
      </trkpt>
      <trkpt lat="40.393566" lon="-4.198833">
        <ele>692.42</ele>
        <time>2020-11-23T10:34:58Z</time>
      </trkpt>
      <trkpt lat="40.393661" lon="-4.198947">
        <ele>693.81</ele>
        <time>2020-11-23T10:35:02Z</time>
      </trkpt>
      <trkpt lat="40.39352059364" lon="-4.19879436493">
        <ele>696.74484063473</ele>
        <time>2021-11-08T08:40:04.000Z</time>
      </trkpt>
      <trkpt lat="40.39352067746" lon="-4.19879436493">
        <ele>696.82480795023</ele>
        <time>2021-11-08T08:40:04.000Z</time>
      </trkpt>
      <trkpt lat="40.39373517036" lon="-4.19905185699">
        <ele>697.21171560145</ele>
        <time>2021-11-08T08:40:04.005Z</time>
      </trkpt>
      <trkpt lat="40.39391756058" lon="-4.19934153557">
        <ele>697.58259009797</ele>
        <time>2021-11-08T08:40:04.014Z</time>
      </trkpt>
      <trkpt lat="40.3942501545" lon="-4.20023202896">
        <ele>697.45881100041</ele>
        <time>2021-11-08T08:40:04.035Z</time>
      </trkpt>
      <trkpt lat="40.39430379868" lon="-4.20046806335">
        <ele>696.59678735638</ele>
        <time>2021-11-08T08:40:04.059Z</time>
      </trkpt>
      <trkpt lat="40.3945183754" lon="-4.20068264008">
        <ele>695.06396831822</ele>
        <time>2021-11-08T08:40:04.088Z</time>
      </trkpt>
      <trkpt lat="40.39556980133" lon="-4.20096158981">
        <ele>692.60622089254</ele>
        <time>2021-11-08T08:40:04.134Z</time>
      </trkpt>
      <trkpt lat="40.39599895477" lon="-4.20130491257">
        <ele>690.97220012597</ele>
        <time>2021-11-08T08:40:04.188Z</time>
      </trkpt>
      <trkpt lat="40.39677143097" lon="-4.20224905014">
        <ele>689.8861758478</ele>
        <time>2021-11-08T08:40:04.259Z</time>
      </trkpt>
      <trkpt lat="40.39681434631" lon="-4.2023563385">
        <ele>689.43608184355</ele>
        <time>2021-11-08T08:40:04.331Z</time>
      </trkpt>
      <trkpt lat="40.39692163467" lon="-4.20237779617">
        <ele>689.45839790136</ele>
        <time>2021-11-08T08:40:04.405Z</time>
      </trkpt>
      <trkpt lat="40.39727568626" lon="-4.20233488083">
        <ele>689.6535778042</ele>
        <time>2021-11-08T08:40:04.485Z</time>
      </trkpt>
      <trkpt lat="40.397608364" lon="-4.20225977898">
        <ele>689.91872057105</ele>
        <time>2021-11-08T08:40:04.570Z</time>
      </trkpt>
      <trkpt lat="40.39813407697" lon="-4.20236706734">
        <ele>690.42732879816</ele>
        <time>2021-11-08T08:40:04.664Z</time>
      </trkpt>
      <trkpt lat="40.39857387543" lon="-4.20244216919">
        <ele>691.0521983217</ele>
        <time>2021-11-08T08:40:04.765Z</time>
      </trkpt>
      <trkpt lat="40.39900311269" lon="-4.20249581337">
        <ele>691.61747140792</ele>
        <time>2021-11-08T08:40:04.873Z</time>
      </trkpt>
      <trkpt lat="40.3991317749" lon="-4.20248508453">
        <ele>691.97350833053</ele>
        <time>2021-11-08T08:40:04.983Z</time>
      </trkpt>
      <trkpt lat="40.39923914708" lon="-4.20250654221">
        <ele>692.15735359435</ele>
        <time>2021-11-08T08:40:05.094Z</time>
      </trkpt>
      <trkpt lat="40.3997862339" lon="-4.20260310173">
        <ele>692.3072065555</ele>
        <time>2021-11-08T08:40:05.214Z</time>
      </trkpt>
      <trkpt lat="40.40012955666" lon="-4.20263528824">
        <ele>692.23665413989</ele>
        <time>2021-11-08T08:40:05.340Z</time>
      </trkpt>
      <trkpt lat="40.40067672729" lon="-4.20282840729">
        <ele>692.05926004276</ele>
        <time>2021-11-08T08:40:05.475Z</time>
      </trkpt>
      <trkpt lat="40.4009449482" lon="-4.20290350914">
        <ele>691.90298470951</ele>
        <time>2021-11-08T08:40:05.614Z</time>
      </trkpt>
      <trkpt lat="40.40085911751" lon="-4.20355796814">
        <ele>692.1262394448</ele>
        <time>2021-11-08T08:40:05.761Z</time>
      </trkpt>
      <trkpt lat="40.40085911751" lon="-4.20387983322">
        <ele>692.41865643127</ele>
        <time>2021-11-08T08:40:05.912Z</time>
      </trkpt>
      <trkpt lat="40.40108450688" lon="-4.20455574989">
        <ele>692.43309039008</ele>
        <time>2021-11-08T08:40:06.072Z</time>
      </trkpt>
      <trkpt lat="40.40113806725" lon="-4.20471668243">
        <ele>692.43719487516</ele>
        <time>2021-11-08T08:40:06.234Z</time>
      </trkpt>
      <trkpt lat="40.40116434628" lon="-4.20491364929">
        <ele>692.42591588967</ele>
        <time>2021-11-08T08:40:06.399Z</time>
      </trkpt>
      <trkpt lat="40.4011643026" lon="-4.20491332188">
        <ele>692.4882534406</ele>
        <time>2021-11-08T08:40:06.564Z</time>
      </trkpt>
      <trkpt lat="40.4011642728" lon="-4.2049132241">
        <ele>692.63289586346</ele>
        <time>2021-11-08T08:40:06.729Z</time>
      </trkpt>
      <trkpt lat="40.40116421878" lon="-4.20491281897">
        <ele>692.90178031575</ele>
        <time>2021-11-08T08:40:06.894Z</time>
      </trkpt>
      <trkpt lat="40.4011643026" lon="-4.20491298661">
        <ele>693.33011426801</ele>
        <time>2021-11-08T08:40:07.059Z</time>
      </trkpt>
      <trkpt lat="40.40120244026" lon="-4.20519948006">
        <ele>693.98431664366</ele>
        <time>2021-11-08T08:40:07.227Z</time>
      </trkpt>
      <trkpt lat="40.40142774582" lon="-4.20637965202">
        <ele>695.04304779676</ele>
        <time>2021-11-08T08:40:07.410Z</time>
      </trkpt>
      <trkpt lat="40.40144920349" lon="-4.20656204224">
        <ele>696.04224174797</ele>
        <time>2021-11-08T08:40:07.596Z</time>
      </trkpt>
      <trkpt lat="40.40144928731" lon="-4.20656204224">
        <ele>697.11157685985</ele>
        <time>2021-11-08T08:40:07.782Z</time>
      </trkpt>
      <trkpt lat="40.40146001615" lon="-4.20675516129">
        <ele>698.28508130833</ele>
        <time>2021-11-08T08:40:07.970Z</time>
      </trkpt>
      <trkpt lat="40.40162094869" lon="-4.20670151711">
        <ele>699.52806777272</ele>
        <time>2021-11-08T08:40:08.161Z</time>
      </trkpt>
      <trkpt lat="40.40507555008" lon="-4.20569300652">
        <ele>701.33198712058</ele>
        <time>2021-11-08T08:40:08.408Z</time>
      </trkpt>
      <trkpt lat="40.4050756339" lon="-4.20569300652">
        <ele>702.6539928167</ele>
        <time>2021-11-08T08:40:08.655Z</time>
      </trkpt>
      <trkpt lat="40.4051936511" lon="-4.20565009117">
        <ele>703.88371144318</ele>
        <time>2021-11-08T08:40:08.904Z</time>
      </trkpt>
      <trkpt lat="40.40576219559" lon="-4.2055106163">
        <ele>705.18501343116</ele>
        <time>2021-11-08T08:40:09.162Z</time>
      </trkpt>
      <trkpt lat="40.40630936623" lon="-4.20531749725">
        <ele>706.28895618713</ele>
        <time>2021-11-08T08:40:09.429Z</time>
      </trkpt>
      <trkpt lat="40.4065990448" lon="-4.20517802238">
        <ele>707.15806191406</ele>
        <time>2021-11-08T08:40:09.701Z</time>
      </trkpt>
      <trkpt lat="40.40691018105" lon="-4.20498490334">
        <ele>707.91926057332</ele>
        <time>2021-11-08T08:40:09.979Z</time>
      </trkpt>
      <trkpt lat="40.40693163872" lon="-4.20507073402">
        <ele>708.57972765753</ele>
        <time>2021-11-08T08:40:10.258Z</time>
      </trkpt>
      <trkpt lat="40.40708184242" lon="-4.20526385307">
        <ele>709.20257532455</ele>
        <time>2021-11-08T08:40:10.540Z</time>
      </trkpt>
      <trkpt lat="40.40733825033" lon="-4.20522111843">
        <ele>709.71121305493</ele>
        <time>2021-11-08T08:40:10.826Z</time>
      </trkpt>
      <trkpt lat="40.40733870182" lon="-4.20522104318">
        <ele>710.0884869848</ele>
        <time>2021-11-08T08:40:11.112Z</time>
      </trkpt>
      <trkpt lat="40.40733933449" lon="-4.20522093773">
        <ele>710.40696514968</ele>
        <time>2021-11-08T08:40:11.398Z</time>
      </trkpt>
      <trkpt lat="40.40741452016" lon="-4.20521020889">
        <ele>710.70073533135</ele>
        <time>2021-11-08T08:40:11.686Z</time>
      </trkpt>
      <trkpt lat="40.40760755539" lon="-4.20522093773">
        <ele>710.96442367762</ele>
        <time>2021-11-08T08:40:11.977Z</time>
      </trkpt>
      <trkpt lat="40.40777921677" lon="-4.20534968376">
        <ele>711.21290291696</ele>
        <time>2021-11-08T08:40:12.271Z</time>
      </trkpt>
      <trkpt lat="40.40785431862" lon="-4.20543551445">
        <ele>711.41082516179</ele>
        <time>2021-11-08T08:40:12.567Z</time>
      </trkpt>
      <trkpt lat="40.40781140327" lon="-4.20555353165">
        <ele>711.56397756831</ele>
        <time>2021-11-08T08:40:12.864Z</time>
      </trkpt>
      <trkpt lat="40.40780067444" lon="-4.20575737953">
        <ele>711.6550500487</ele>
        <time>2021-11-08T08:40:13.164Z</time>
      </trkpt>
      <trkpt lat="40.40781140327" lon="-4.2060148716">
        <ele>711.62844431002</ele>
        <time>2021-11-08T08:40:13.467Z</time>
      </trkpt>
      <trkpt lat="40.40925979614" lon="-4.20546770096">
        <ele>711.53557229479</ele>
        <time>2021-11-08T08:40:13.794Z</time>
      </trkpt>
      <trkpt lat="40.41064381599" lon="-4.20545697212">
        <ele>711.20820855476</ele>
        <time>2021-11-08T08:40:14.143Z</time>
      </trkpt>
      <trkpt lat="40.4110622406" lon="-4.2055106163">
        <ele>710.93448269542</ele>
        <time>2021-11-08T08:40:14.499Z</time>
      </trkpt>
      <trkpt lat="40.41180253029" lon="-4.20563936234">
        <ele>710.53671906362</ele>
        <time>2021-11-08T08:40:14.867Z</time>
      </trkpt>
      <trkpt lat="40.41190981865" lon="-4.20571446419">
        <ele>710.23027657572</ele>
        <time>2021-11-08T08:40:15.237Z</time>
      </trkpt>
      <trkpt lat="40.41201710701" lon="-4.20587539673">
        <ele>709.97120070169</ele>
        <time>2021-11-08T08:40:15.609Z</time>
      </trkpt>
      <trkpt lat="40.41209220886" lon="-4.20629382133">
        <ele>709.74406245475</ele>
        <time>2021-11-08T08:40:15.986Z</time>
      </trkpt>
      <trkpt lat="40.41208148003" lon="-4.20650839806">
        <ele>709.6012840074</ele>
        <time>2021-11-08T08:40:16.366Z</time>
      </trkpt>
      <trkpt lat="40.41203166236" lon="-4.20665251044">
        <ele>709.61556556273</ele>
        <time>2021-11-08T08:40:16.748Z</time>
      </trkpt>
      <trkpt lat="40.41203147422" lon="-4.2066530547">
        <ele>709.70286118694</ele>
        <time>2021-11-08T08:40:17.130Z</time>
      </trkpt>
      <trkpt lat="40.41203144006" lon="-4.20665315352">
        <ele>709.89008878571</ele>
        <time>2021-11-08T08:40:17.512Z</time>
      </trkpt>
      <trkpt lat="40.41203144006" lon="-4.20665290207">
        <ele>710.16774118412</ele>
        <time>2021-11-08T08:40:17.894Z</time>
      </trkpt>
      <trkpt lat="40.4119849205" lon="-4.20678734779">
        <ele>710.5663375334</ele>
        <time>2021-11-08T08:40:18.278Z</time>
      </trkpt>
      <trkpt lat="40.41196346283" lon="-4.20695900917">
        <ele>711.03606850207</ele>
        <time>2021-11-08T08:40:18.664Z</time>
      </trkpt>
      <trkpt lat="40.41199564934" lon="-4.20710921288">
        <ele>711.49146628863</ele>
        <time>2021-11-08T08:40:19.052Z</time>
      </trkpt>
      <trkpt lat="40.41207075119" lon="-4.20721650124">
        <ele>711.82238174035</ele>
        <time>2021-11-08T08:40:19.442Z</time>
      </trkpt>
      <trkpt lat="40.41246771812" lon="-4.20749545097">
        <ele>712.23135994293</ele>
        <time>2021-11-08T08:40:19.839Z</time>
      </trkpt>
      <trkpt lat="40.41261792183" lon="-4.20749545097">
        <ele>712.46768373194</ele>
        <time>2021-11-08T08:40:20.238Z</time>
      </trkpt>
      <trkpt lat="40.41322946548" lon="-4.20744180679">
        <ele>712.50194209888</ele>
        <time>2021-11-08T08:40:20.647Z</time>
      </trkpt>
      <trkpt lat="40.41332602501" lon="-4.2074739933">
        <ele>712.61936446306</ele>
        <time>2021-11-08T08:40:21.058Z</time>
      </trkpt>
      <trkpt lat="40.41351922788" lon="-4.20762419701">
        <ele>712.8195634407</ele>
        <time>2021-11-08T08:40:21.472Z</time>
      </trkpt>
      <trkpt lat="40.41396975517" lon="-4.20796751976">
        <ele>712.90951120541</ele>
        <time>2021-11-08T08:40:21.895Z</time>
      </trkpt>
      <trkpt lat="40.41413068771" lon="-4.20814990997">
        <ele>712.84444715399</ele>
        <time>2021-11-08T08:40:22.321Z</time>
      </trkpt>
      <trkpt lat="40.41490316391" lon="-4.20949101448">
        <ele>712.77079537825</ele>
        <time>2021-11-08T08:40:22.768Z</time>
      </trkpt>
      <trkpt lat="40.41563272476" lon="-4.21046733856">
        <ele>712.81156582097</ele>
        <time>2021-11-08T08:40:23.231Z</time>
      </trkpt>
      <trkpt lat="40.41572928429" lon="-4.21056389809">
        <ele>712.91231577731</ele>
        <time>2021-11-08T08:40:23.696Z</time>
      </trkpt>
      <trkpt lat="40.41584730148" lon="-4.21059608459">
        <ele>712.98932623041</ele>
        <time>2021-11-08T08:40:24.163Z</time>
      </trkpt>
      <trkpt lat="40.41620135307" lon="-4.21051025391">
        <ele>713.08669329201</ele>
        <time>2021-11-08T08:40:24.636Z</time>
      </trkpt>
      <trkpt lat="40.41709184647" lon="-4.21027421951">
        <ele>713.13126381941</ele>
        <time>2021-11-08T08:40:25.123Z</time>
      </trkpt>
      <trkpt lat="40.41736006737" lon="-4.21027421951">
        <ele>713.30288992677</ele>
        <time>2021-11-08T08:40:25.615Z</time>
      </trkpt>
      <trkpt lat="40.41779994965" lon="-4.21029567719">
        <ele>713.51402279832</ele>
        <time>2021-11-08T08:40:26.114Z</time>
      </trkpt>
      <trkpt lat="40.41793942451" lon="-4.21037077904">
        <ele>713.41147290601</ele>
        <time>2021-11-08T08:40:26.615Z</time>
      </trkpt>
      <trkpt lat="40.41801452637" lon="-4.21054244041">
        <ele>713.11648078227</ele>
        <time>2021-11-08T08:40:27.119Z</time>
      </trkpt>
      <trkpt lat="40.41800388135" lon="-4.21083211899">
        <ele>712.78946488541</ele>
        <time>2021-11-08T08:40:27.626Z</time>
      </trkpt>
      <trkpt lat="40.41804671288" lon="-4.21154022217">
        <ele>712.34489625217</ele>
        <time>2021-11-08T08:40:28.142Z</time>
      </trkpt>
      <trkpt lat="40.4181432724" lon="-4.21165823936">
        <ele>712.088781318</ele>
        <time>2021-11-08T08:40:28.660Z</time>
      </trkpt>
      <trkpt lat="40.41825056076" lon="-4.21174407005">
        <ele>711.92952060797</ele>
        <time>2021-11-08T08:40:29.180Z</time>
      </trkpt>
      <trkpt lat="40.41840084828" lon="-4.21173334122">
        <ele>711.84552987182</ele>
        <time>2021-11-08T08:40:29.702Z</time>
      </trkpt>
      <trkpt lat="40.41974186897" lon="-4.21171188354">
        <ele>712.11564800784</ele>
        <time>2021-11-08T08:40:30.246Z</time>
      </trkpt>
      <trkpt lat="40.42042851448" lon="-4.21171188354">
        <ele>712.26506839057</ele>
        <time>2021-11-08T08:40:30.801Z</time>
      </trkpt>
      <trkpt lat="40.42054653168" lon="-4.21165823936">
        <ele>712.44206008109</ele>
        <time>2021-11-08T08:40:31.358Z</time>
      </trkpt>
      <trkpt lat="40.42065382004" lon="-4.21152949333">
        <ele>712.65256984044</ele>
        <time>2021-11-08T08:40:31.917Z</time>
      </trkpt>
      <trkpt lat="40.42104005814" lon="-4.21095013618">
        <ele>712.76557477582</ele>
        <time>2021-11-08T08:40:32.485Z</time>
      </trkpt>
      <trkpt lat="40.4211473465" lon="-4.21084284782">
        <ele>712.88745341559</ele>
        <time>2021-11-08T08:40:33.056Z</time>
      </trkpt>
      <trkpt lat="40.42167226236" lon="-4.21054294372">
        <ele>713.06019557643</ele>
        <time>2021-11-08T08:40:33.636Z</time>
      </trkpt>
      <trkpt lat="40.42167238561" lon="-4.2105428733">
        <ele>713.10316006854</ele>
        <time>2021-11-08T08:40:34.216Z</time>
      </trkpt>
      <trkpt lat="40.42167314328" lon="-4.21054244041">
        <ele>713.0800505251</ele>
        <time>2021-11-08T08:40:34.796Z</time>
      </trkpt>
      <trkpt lat="40.42167305946" lon="-4.21054244041">
        <ele>712.99269277474</ele>
        <time>2021-11-08T08:40:35.376Z</time>
      </trkpt>
      <trkpt lat="40.42167314328" lon="-4.21054244041">
        <ele>713.0800505251</ele>
        <time>2021-11-08T08:40:35.956Z</time>
      </trkpt>
      <trkpt lat="40.42198419571" lon="-4.21045660973">
        <ele>712.57090479627</ele>
        <time>2021-11-08T08:40:36.541Z</time>
      </trkpt>
      <trkpt lat="40.4221237544" lon="-4.21043515205">
        <ele>712.39201484799</ele>
        <time>2021-11-08T08:40:37.128Z</time>
      </trkpt>
      <trkpt lat="40.42220950127" lon="-4.21060681343">
        <ele>712.1981114107</ele>
        <time>2021-11-08T08:40:37.718Z</time>
      </trkpt>
      <trkpt lat="40.42266011238" lon="-4.21192646027">
        <ele>712.04737900192</ele>
        <time>2021-11-08T08:40:38.325Z</time>
      </trkpt>
      <trkpt lat="40.42284258641" lon="-4.21236634254">
        <ele>712.08241481301</ele>
        <time>2021-11-08T08:40:38.938Z</time>
      </trkpt>
      <trkpt lat="40.42284250259" lon="-4.21236634254">
        <ele>712.08244359319</ele>
        <time>2021-11-08T08:40:39.551Z</time>
      </trkpt>
      <trkpt lat="40.42329311371" lon="-4.21301007271">
        <ele>712.19281548033</ele>
        <time>2021-11-08T08:40:40.175Z</time>
      </trkpt>
      <trkpt lat="40.42334675789" lon="-4.21318173409">
        <ele>712.18504761134</ele>
        <time>2021-11-08T08:40:40.801Z</time>
      </trkpt>
      <trkpt lat="40.42336821556" lon="-4.21385765076">
        <ele>712.23864077307</ele>
        <time>2021-11-08T08:40:41.436Z</time>
      </trkpt>
      <trkpt lat="40.42341113091" lon="-4.21397566795">
        <ele>712.17259529979</ele>
        <time>2021-11-08T08:40:42.072Z</time>
      </trkpt>
      <trkpt lat="40.42375445366" lon="-4.21451210976">
        <ele>712.01361900212</ele>
        <time>2021-11-08T08:40:42.717Z</time>
      </trkpt>
      <trkpt lat="40.42387247086" lon="-4.21458721161">
        <ele>711.99135602427</ele>
        <time>2021-11-08T08:40:43.364Z</time>
      </trkpt>
      <trkpt lat="40.42399048805" lon="-4.21459794044">
        <ele>711.96989862307</ele>
        <time>2021-11-08T08:40:44.013Z</time>
      </trkpt>
      <trkpt lat="40.42434453964" lon="-4.2144370079">
        <ele>711.87002352968</ele>
        <time>2021-11-08T08:40:44.668Z</time>
      </trkpt>
      <trkpt lat="40.424451828" lon="-4.21442627907">
        <ele>712.00586619567</ele>
        <time>2021-11-08T08:40:45.324Z</time>
      </trkpt>
      <trkpt lat="40.42461284436" lon="-4.21450138092">
        <ele>712.3416539001</ele>
        <time>2021-11-08T08:40:45.983Z</time>
      </trkpt>
      <trkpt lat="40.42461276054" lon="-4.21450138092">
        <ele>712.73563060116</ele>
        <time>2021-11-08T08:40:46.642Z</time>
      </trkpt>
      <trkpt lat="40.42538523674" lon="-4.21491980553">
        <ele>713.46872449803</ele>
        <time>2021-11-08T08:40:47.315Z</time>
      </trkpt>
      <trkpt lat="40.42554616928" lon="-4.21489834785">
        <ele>714.03271033611</ele>
        <time>2021-11-08T08:40:47.990Z</time>
      </trkpt>
      <trkpt lat="40.42627581395" lon="-4.21441555023">
        <ele>714.40465655542</ele>
        <time>2021-11-08T08:40:48.678Z</time>
      </trkpt>
      <trkpt lat="40.42627573013" lon="-4.21441555023">
        <ele>714.80018359022</ele>
        <time>2021-11-08T08:40:49.366Z</time>
      </trkpt>
      <trkpt lat="40.426415205" lon="-4.21432971954">
        <ele>715.13746242928</ele>
        <time>2021-11-08T08:40:50.057Z</time>
      </trkpt>
      <trkpt lat="40.42730569839" lon="-4.21353578568">
        <ele>715.41931742791</ele>
        <time>2021-11-08T08:40:50.765Z</time>
      </trkpt>
      <trkpt lat="40.42737390129" lon="-4.21349577331">
        <ele>715.56343123019</ele>
        <time>2021-11-08T08:40:51.474Z</time>
      </trkpt>
      <trkpt lat="40.42737431685" lon="-4.21349552952">
        <ele>715.63108128542</ele>
        <time>2021-11-08T08:40:52.183Z</time>
      </trkpt>
      <trkpt lat="40.4273748491" lon="-4.21349521726">
        <ele>715.61537195169</ele>
        <time>2021-11-08T08:40:52.892Z</time>
      </trkpt>
      <trkpt lat="40.42737476528" lon="-4.21349530108">
        <ele>715.52298187637</ele>
        <time>2021-11-08T08:40:53.601Z</time>
      </trkpt>
      <trkpt lat="40.42748808861" lon="-4.21342849731">
        <ele>715.34118946635</ele>
        <time>2021-11-08T08:40:54.312Z</time>
      </trkpt>
      <trkpt lat="40.42797088623" lon="-4.21323537827">
        <ele>715.16967254555</ele>
        <time>2021-11-08T08:40:55.031Z</time>
      </trkpt>
      <trkpt lat="40.42808890343" lon="-4.2132461071">
        <ele>714.90385848104</ele>
        <time>2021-11-08T08:40:55.752Z</time>
      </trkpt>
      <trkpt lat="40.42818546295" lon="-4.21332120895">
        <ele>714.63279370998</ele>
        <time>2021-11-08T08:40:56.475Z</time>
      </trkpt>
      <trkpt lat="40.42850732803" lon="-4.2137503624">
        <ele>713.98293628685</ele>
        <time>2021-11-08T08:40:57.205Z</time>
      </trkpt>
      <trkpt lat="40.42855024338" lon="-4.21386837959">
        <ele>713.68073985667</ele>
        <time>2021-11-08T08:40:57.937Z</time>
      </trkpt>
      <trkpt lat="40.42857170105" lon="-4.21432971954">
        <ele>713.752946244</ele>
        <time>2021-11-08T08:40:58.674Z</time>
      </trkpt>
      <trkpt lat="40.4286468029" lon="-4.21457648277">
        <ele>713.79900616427</ele>
        <time>2021-11-08T08:40:59.415Z</time>
      </trkpt>
      <trkpt lat="40.4287648201" lon="-4.2146730423">
        <ele>713.75249491584</ele>
        <time>2021-11-08T08:41:00.158Z</time>
      </trkpt>
      <trkpt lat="40.42906522751" lon="-4.21474814415">
        <ele>713.50980830798</ele>
        <time>2021-11-08T08:41:00.906Z</time>
      </trkpt>
      <trkpt lat="40.42923688889" lon="-4.21483397484">
        <ele>713.24034499774</ele>
        <time>2021-11-08T08:41:01.657Z</time>
      </trkpt>
      <trkpt lat="40.42945146561" lon="-4.21507000923">
        <ele>712.81352209439</ele>
        <time>2021-11-08T08:41:02.412Z</time>
      </trkpt>
      <trkpt lat="40.42963385582" lon="-4.21530604362">
        <ele>712.48686001452</ele>
        <time>2021-11-08T08:41:03.171Z</time>
      </trkpt>
      <trkpt lat="40.4296875" lon="-4.21545624733">
        <ele>712.17379462905</ele>
        <time>2021-11-08T08:41:03.932Z</time>
      </trkpt>
      <trkpt lat="40.4296875" lon="-4.21560645103">
        <ele>711.8971832462</ele>
        <time>2021-11-08T08:41:04.695Z</time>
      </trkpt>
      <trkpt lat="40.42964458466" lon="-4.2157459259">
        <ele>711.72173137526</ele>
        <time>2021-11-08T08:41:05.460Z</time>
      </trkpt>
      <trkpt lat="40.42947292328" lon="-4.21619653702">
        <ele>711.6485462953</ele>
        <time>2021-11-08T08:41:06.231Z</time>
      </trkpt>
      <trkpt lat="40.42945146561" lon="-4.21634674072">
        <ele>711.79785471214</ele>
        <time>2021-11-08T08:41:07.004Z</time>
      </trkpt>
      <trkpt lat="40.42947292328" lon="-4.21767711639">
        <ele>712.26104615912</ele>
        <time>2021-11-08T08:41:07.793Z</time>
      </trkpt>
      <trkpt lat="40.42954802513" lon="-4.21791315079">
        <ele>712.9097521785</ele>
        <time>2021-11-08T08:41:08.585Z</time>
      </trkpt>
      <trkpt lat="40.42961248197" lon="-4.21800971031">
        <ele>713.96956665731</ele>
        <time>2021-11-08T08:41:09.379Z</time>
      </trkpt>
      <trkpt lat="40.4295694828" lon="-4.2186319828">
        <ele>715.63680120043</ele>
        <time>2021-11-08T08:41:10.181Z</time>
      </trkpt>
      <trkpt lat="40.42954802513" lon="-4.21920061111">
        <ele>717.55277657431</ele>
        <time>2021-11-08T08:41:10.990Z</time>
      </trkpt>
      <trkpt lat="40.42959094048" lon="-4.21941518784">
        <ele>719.45649944145</ele>
        <time>2021-11-08T08:41:11.801Z</time>
      </trkpt>
      <trkpt lat="40.42969822884" lon="-4.21976923943">
        <ele>721.4779177348</ele>
        <time>2021-11-08T08:41:12.617Z</time>
      </trkpt>
      <trkpt lat="40.43019175529" lon="-4.22108888626">
        <ele>723.88150717715</ele>
        <time>2021-11-08T08:41:13.451Z</time>
      </trkpt>
      <trkpt lat="40.43034204282" lon="-4.22143220901">
        <ele>725.46050805059</ele>
        <time>2021-11-08T08:41:14.290Z</time>
      </trkpt>
      <trkpt lat="40.43068528175" lon="-4.22222614288">
        <ele>726.80690787141</ele>
        <time>2021-11-08T08:41:15.140Z</time>
      </trkpt>
      <trkpt lat="40.43077119626" lon="-4.22258019447">
        <ele>727.8855866893</ele>
        <time>2021-11-08T08:41:15.994Z</time>
      </trkpt>
      <trkpt lat="40.43094277382" lon="-4.22332048416">
        <ele>729.0456802258</ele>
        <time>2021-11-08T08:41:16.858Z</time>
      </trkpt>
      <trkpt lat="40.43100723065" lon="-4.2234814167">
        <ele>730.00736259468</ele>
        <time>2021-11-08T08:41:17.724Z</time>
      </trkpt>
      <trkpt lat="40.43103933334" lon="-4.22357797623">
        <ele>730.88562027352</ele>
        <time>2021-11-08T08:41:18.591Z</time>
      </trkpt>
      <trkpt lat="40.43115735054" lon="-4.22373890877">
        <ele>731.71305728799</ele>
        <time>2021-11-08T08:41:19.461Z</time>
      </trkpt>
      <trkpt lat="40.43128609657" lon="-4.22384619713">
        <ele>732.5745805432</ele>
        <time>2021-11-08T08:41:20.334Z</time>
      </trkpt>
      <trkpt lat="40.43211230077" lon="-4.22430753708">
        <ele>733.49404836686</ele>
        <time>2021-11-08T08:41:21.221Z</time>
      </trkpt>
      <trkpt lat="40.43226242065" lon="-4.22439336777">
        <ele>734.22012119683</ele>
        <time>2021-11-08T08:41:22.111Z</time>
      </trkpt>
      <trkpt lat="40.43258428574" lon="-4.22451138496">
        <ele>734.81561637057</ele>
        <time>2021-11-08T08:41:23.006Z</time>
      </trkpt>
      <trkpt lat="40.43294914998" lon="-4.22453284264">
        <ele>735.10527149072</ele>
        <time>2021-11-08T08:41:23.907Z</time>
      </trkpt>
      <trkpt lat="40.43303724866" lon="-4.22451895841">
        <ele>734.95823910881</ele>
        <time>2021-11-08T08:41:24.809Z</time>
      </trkpt>
      <trkpt lat="40.4330373276" lon="-4.2245190125">
        <ele>734.4687081608</ele>
        <time>2021-11-08T08:41:25.711Z</time>
      </trkpt>
      <trkpt lat="40.43329238892" lon="-4.22447919846">
        <ele>734.05914172877</ele>
        <time>2021-11-08T08:41:26.617Z</time>
      </trkpt>
      <trkpt lat="40.43352842331" lon="-4.22441482544">
        <ele>733.61782967357</ele>
        <time>2021-11-08T08:41:27.527Z</time>
      </trkpt>
      <trkpt lat="40.43357133865" lon="-4.2244040966">
        <ele>733.14110244309</ele>
        <time>2021-11-08T08:41:28.438Z</time>
      </trkpt>
      <trkpt lat="40.43410778046" lon="-4.22403931618">
        <ele>732.46219904713</ele>
        <time>2021-11-08T08:41:29.358Z</time>
      </trkpt>
      <trkpt lat="40.43432235718" lon="-4.22394275665">
        <ele>731.868764687</ele>
        <time>2021-11-08T08:41:30.282Z</time>
      </trkpt>
      <trkpt lat="40.43451556005" lon="-4.22389984131">
        <ele>731.33109267952</ele>
        <time>2021-11-08T08:41:31.209Z</time>
      </trkpt>
      <trkpt lat="40.43525576591" lon="-4.22376036644">
        <ele>730.61757179172</ele>
        <time>2021-11-08T08:41:32.148Z</time>
      </trkpt>
      <trkpt lat="40.43579220772" lon="-4.22376036644">
        <ele>730.38110892743</ele>
        <time>2021-11-08T08:41:33.096Z</time>
      </trkpt>
      <trkpt lat="40.43699383736" lon="-4.2238676548">
        <ele>730.80396550302</ele>
        <time>2021-11-08T08:41:34.063Z</time>
      </trkpt>
      <trkpt lat="40.43734788895" lon="-4.22394275665">
        <ele>730.9006301183</ele>
        <time>2021-11-08T08:41:35.036Z</time>
      </trkpt>
      <trkpt lat="40.43771266937" lon="-4.22396421432">
        <ele>730.7579469768</ele>
        <time>2021-11-08T08:41:36.015Z</time>
      </trkpt>
      <trkpt lat="40.43804526329" lon="-4.22409296036">
        <ele>730.73701970158</ele>
        <time>2021-11-08T08:41:36.999Z</time>
      </trkpt>
      <trkpt lat="40.43843150139" lon="-4.22420024872">
        <ele>730.81523852422</ele>
        <time>2021-11-08T08:41:37.989Z</time>
      </trkpt>
      <trkpt lat="40.43876409531" lon="-4.22426462173">
        <ele>730.84872834543</ele>
        <time>2021-11-08T08:41:38.985Z</time>
      </trkpt>
      <trkpt lat="40.43941855431" lon="-4.22435045242">
        <ele>730.7272748015</ele>
        <time>2021-11-08T08:41:39.991Z</time>
      </trkpt>
      <trkpt lat="40.43990135193" lon="-4.22446846962">
        <ele>731.02469554747</ele>
        <time>2021-11-08T08:41:41.005Z</time>
      </trkpt>
      <trkpt lat="40.44040560722" lon="-4.22456502914">
        <ele>731.56259735257</ele>
        <time>2021-11-08T08:41:42.027Z</time>
      </trkpt>
      <trkpt lat="40.44119954109" lon="-4.22459721565">
        <ele>731.82868968216</ele>
        <time>2021-11-08T08:41:43.062Z</time>
      </trkpt>
      <trkpt lat="40.44152140617" lon="-4.224640131">
        <ele>732.31755271533</ele>
        <time>2021-11-08T08:41:44.102Z</time>
      </trkpt>
      <trkpt lat="40.44184327126" lon="-4.2247903347">
        <ele>732.86358211723</ele>
        <time>2021-11-08T08:41:45.148Z</time>
      </trkpt>
      <trkpt lat="40.44230461121" lon="-4.22503709793">
        <ele>733.36884829908</ele>
        <time>2021-11-08T08:41:46.202Z</time>
      </trkpt>
      <trkpt lat="40.44255137444" lon="-4.22509074211">
        <ele>733.6754726405</ele>
        <time>2021-11-08T08:41:47.260Z</time>
      </trkpt>
      <trkpt lat="40.44286251068" lon="-4.22512292862">
        <ele>734.33905744496</ele>
        <time>2021-11-08T08:41:48.323Z</time>
      </trkpt>
      <trkpt lat="40.44366717339" lon="-4.2254447937">
        <ele>734.75010633785</ele>
        <time>2021-11-08T08:41:49.399Z</time>
      </trkpt>
      <trkpt lat="40.44388175011" lon="-4.22563791275">
        <ele>735.24954438485</ele>
        <time>2021-11-08T08:41:50.479Z</time>
      </trkpt>
      <trkpt lat="40.44421434402" lon="-4.22603487968">
        <ele>736.07358104007</ele>
        <time>2021-11-08T08:41:51.566Z</time>
      </trkpt>
      <trkpt lat="40.4445040226" lon="-4.22646403313">
        <ele>736.61145090837</ele>
        <time>2021-11-08T08:41:52.660Z</time>
      </trkpt>
      <trkpt lat="40.4445577506" lon="-4.22657132149">
        <ele>737.09170493975</ele>
        <time>2021-11-08T08:41:53.756Z</time>
      </trkpt>
      <trkpt lat="40.44476159848" lon="-4.22693610191">
        <ele>737.52919300261</ele>
        <time>2021-11-08T08:41:54.858Z</time>
      </trkpt>
      <trkpt lat="40.44524431229" lon="-4.22782659531">
        <ele>738.46836245966</ele>
        <time>2021-11-08T08:41:55.973Z</time>
      </trkpt>
      <trkpt lat="40.44570565224" lon="-4.22854542732">
        <ele>739.67999078583</ele>
        <time>2021-11-08T08:41:57.099Z</time>
      </trkpt>
      <trkpt lat="40.44666051865" lon="-4.22983288765">
        <ele>740.86729024503</ele>
        <time>2021-11-08T08:41:58.247Z</time>
      </trkpt>
      <trkpt lat="40.44681072235" lon="-4.22976851463">
        <ele>741.64504276467</ele>
        <time>2021-11-08T08:41:59.398Z</time>
      </trkpt>
      <trkpt lat="40.44682756998" lon="-4.22974051908">
        <ele>742.15800891092</ele>
        <time>2021-11-08T08:42:00.549Z</time>
      </trkpt>
    </trkseg>
  </trk>
</gpx>
